<?xml version="1.0" encoding="UTF-8" standalone="no" ?>
<gpx xmlns="http://www.topografix.com/GPX/1/1" xmlns:xsi="http://www.w3.org/2001/XMLSchema-instance" xsi:schemaLocation="http://www.topografix.com/GPX/1/1 http://www.topografix.com/GPX/1/1/gpx.xsd" version="1.1" creator="VisuGPX - https://www.visugpx.com">
  <metadata>
    <name>Les 4 2000 de Chartreuse</name>
    <desc><![CDATA[D/A Eglise de St Pierre de Chartreuse
Grand Som
Lance Sud de Malissard
Dent de Crolles
Chamechaude]]></desc>
  </metadata>
  <trk>
    <name><![CDATA[Les 4 2000 de Chartreuse : 7h13]]></name>
    <trkseg>
      <trkpt lat="45.34233" lon="5.81388">
        <ele>896.2</ele>
        <time>2015-07-10T06:00:05Z</time>
      </trkpt>
      <trkpt lat="45.34248" lon="5.81401">
        <ele>897.2</ele>
        <time>2015-07-10T06:00:10Z</time>
      </trkpt>
      <trkpt lat="45.34259" lon="5.81407">
        <ele>897.8</ele>
        <time>2015-07-10T06:00:13Z</time>
      </trkpt>
      <trkpt lat="45.3427" lon="5.81412">
        <ele>899</ele>
        <time>2015-07-10T06:00:16Z</time>
      </trkpt>
      <trkpt lat="45.3428" lon="5.81418">
        <ele>899.8</ele>
        <time>2015-07-10T06:00:19Z</time>
      </trkpt>
      <trkpt lat="45.34288" lon="5.81427">
        <ele>900</ele>
        <time>2015-07-10T06:00:22Z</time>
      </trkpt>
      <trkpt lat="45.34297" lon="5.81434">
        <ele>900</ele>
        <time>2015-07-10T06:00:25Z</time>
      </trkpt>
      <trkpt lat="45.34305" lon="5.81442">
        <ele>900</ele>
        <time>2015-07-10T06:00:28Z</time>
      </trkpt>
      <trkpt lat="45.34311" lon="5.81455">
        <ele>900</ele>
        <time>2015-07-10T06:00:32Z</time>
      </trkpt>
      <trkpt lat="45.34317" lon="5.81469">
        <ele>900</ele>
        <time>2015-07-10T06:00:36Z</time>
      </trkpt>
      <trkpt lat="45.34326" lon="5.81476">
        <ele>900</ele>
        <time>2015-07-10T06:00:39Z</time>
      </trkpt>
      <trkpt lat="45.34335" lon="5.81482">
        <ele>900.6</ele>
        <time>2015-07-10T06:00:42Z</time>
      </trkpt>
      <trkpt lat="45.34345" lon="5.81492">
        <ele>901</ele>
        <time>2015-07-10T06:00:46Z</time>
      </trkpt>
      <trkpt lat="45.34353" lon="5.81498">
        <ele>902.2</ele>
        <time>2015-07-10T06:00:49Z</time>
      </trkpt>
      <trkpt lat="45.34364" lon="5.81507">
        <ele>904</ele>
        <time>2015-07-10T06:00:53Z</time>
      </trkpt>
      <trkpt lat="45.34372" lon="5.81514">
        <ele>904.2</ele>
        <time>2015-07-10T06:00:56Z</time>
      </trkpt>
      <trkpt lat="45.34379" lon="5.81525">
        <ele>904.2</ele>
        <time>2015-07-10T06:01:00Z</time>
      </trkpt>
      <trkpt lat="45.34385" lon="5.81536">
        <ele>904.2</ele>
        <time>2015-07-10T06:01:04Z</time>
      </trkpt>
      <trkpt lat="45.34394" lon="5.81547">
        <ele>904.8</ele>
        <time>2015-07-10T06:01:08Z</time>
      </trkpt>
      <trkpt lat="45.34401" lon="5.81556">
        <ele>905.2</ele>
        <time>2015-07-10T06:01:11Z</time>
      </trkpt>
      <trkpt lat="45.34409" lon="5.81563">
        <ele>905.8</ele>
        <time>2015-07-10T06:01:14Z</time>
      </trkpt>
      <trkpt lat="45.34419" lon="5.81569">
        <ele>906.4</ele>
        <time>2015-07-10T06:01:17Z</time>
      </trkpt>
      <trkpt lat="45.34429" lon="5.81574">
        <ele>907.6</ele>
        <time>2015-07-10T06:01:20Z</time>
      </trkpt>
      <trkpt lat="45.34438" lon="5.8158">
        <ele>908.6</ele>
        <time>2015-07-10T06:01:23Z</time>
      </trkpt>
      <trkpt lat="45.34447" lon="5.81584">
        <ele>908.8</ele>
        <time>2015-07-10T06:01:26Z</time>
      </trkpt>
      <trkpt lat="45.34455" lon="5.81587">
        <ele>908.8</ele>
        <time>2015-07-10T06:01:29Z</time>
      </trkpt>
      <trkpt lat="45.34464" lon="5.81589">
        <ele>909.2</ele>
        <time>2015-07-10T06:01:32Z</time>
      </trkpt>
      <trkpt lat="45.34474" lon="5.81591">
        <ele>910.2</ele>
        <time>2015-07-10T06:01:35Z</time>
      </trkpt>
      <trkpt lat="45.34482" lon="5.81593">
        <ele>911</ele>
        <time>2015-07-10T06:01:38Z</time>
      </trkpt>
      <trkpt lat="45.34492" lon="5.81594">
        <ele>911.2</ele>
        <time>2015-07-10T06:01:41Z</time>
      </trkpt>
      <trkpt lat="45.345" lon="5.81596">
        <ele>911.2</ele>
        <time>2015-07-10T06:01:44Z</time>
      </trkpt>
      <trkpt lat="45.3451" lon="5.81598">
        <ele>911.2</ele>
        <time>2015-07-10T06:01:47Z</time>
      </trkpt>
      <trkpt lat="45.34519" lon="5.81601">
        <ele>912.6</ele>
        <time>2015-07-10T06:01:50Z</time>
      </trkpt>
      <trkpt lat="45.34528" lon="5.81603">
        <ele>913.4</ele>
        <time>2015-07-10T06:01:53Z</time>
      </trkpt>
      <trkpt lat="45.34536" lon="5.81606">
        <ele>913.6</ele>
        <time>2015-07-10T06:01:56Z</time>
      </trkpt>
      <trkpt lat="45.34545" lon="5.81609">
        <ele>913.6</ele>
        <time>2015-07-10T06:01:59Z</time>
      </trkpt>
      <trkpt lat="45.34554" lon="5.81609">
        <ele>915</ele>
        <time>2015-07-10T06:02:02Z</time>
      </trkpt>
      <trkpt lat="45.34564" lon="5.81611">
        <ele>915.4</ele>
        <time>2015-07-10T06:02:05Z</time>
      </trkpt>
      <trkpt lat="45.34573" lon="5.81614">
        <ele>915.4</ele>
        <time>2015-07-10T06:02:08Z</time>
      </trkpt>
      <trkpt lat="45.34581" lon="5.81618">
        <ele>915.4</ele>
        <time>2015-07-10T06:02:11Z</time>
      </trkpt>
      <trkpt lat="45.34587" lon="5.8163">
        <ele>915.4</ele>
        <time>2015-07-10T06:02:14Z</time>
      </trkpt>
      <trkpt lat="45.3459" lon="5.81642">
        <ele>916.8</ele>
        <time>2015-07-10T06:02:17Z</time>
      </trkpt>
      <trkpt lat="45.34589" lon="5.81655">
        <ele>918</ele>
        <time>2015-07-10T06:02:20Z</time>
      </trkpt>
      <trkpt lat="45.34586" lon="5.81672">
        <ele>919</ele>
        <time>2015-07-10T06:02:24Z</time>
      </trkpt>
      <trkpt lat="45.34588" lon="5.81684">
        <ele>919.8</ele>
        <time>2015-07-10T06:02:28Z</time>
      </trkpt>
      <trkpt lat="45.346" lon="5.81686">
        <ele>920.6</ele>
        <time>2015-07-10T06:02:33Z</time>
      </trkpt>
      <trkpt lat="45.3461" lon="5.81682">
        <ele>921.6</ele>
        <time>2015-07-10T06:02:37Z</time>
      </trkpt>
      <trkpt lat="45.3462" lon="5.8168">
        <ele>922.4</ele>
        <time>2015-07-10T06:02:41Z</time>
      </trkpt>
      <trkpt lat="45.34631" lon="5.81677">
        <ele>922.6</ele>
        <time>2015-07-10T06:02:44Z</time>
      </trkpt>
      <trkpt lat="45.3464" lon="5.81676">
        <ele>922.6</ele>
        <time>2015-07-10T06:02:47Z</time>
      </trkpt>
      <trkpt lat="45.34651" lon="5.81677">
        <ele>922.6</ele>
        <time>2015-07-10T06:02:51Z</time>
      </trkpt>
      <trkpt lat="45.34661" lon="5.81677">
        <ele>923</ele>
        <time>2015-07-10T06:02:54Z</time>
      </trkpt>
      <trkpt lat="45.34671" lon="5.81677">
        <ele>924</ele>
        <time>2015-07-10T06:02:57Z</time>
      </trkpt>
      <trkpt lat="45.34682" lon="5.81678">
        <ele>924.2</ele>
        <time>2015-07-10T06:03:00Z</time>
      </trkpt>
      <trkpt lat="45.34693" lon="5.81678">
        <ele>924.4</ele>
        <time>2015-07-10T06:03:04Z</time>
      </trkpt>
      <trkpt lat="45.34702" lon="5.81678">
        <ele>924.4</ele>
        <time>2015-07-10T06:03:07Z</time>
      </trkpt>
      <trkpt lat="45.34711" lon="5.81679">
        <ele>924.4</ele>
        <time>2015-07-10T06:03:10Z</time>
      </trkpt>
      <trkpt lat="45.34723" lon="5.8168">
        <ele>922</ele>
        <time>2015-07-10T06:03:13Z</time>
      </trkpt>
      <trkpt lat="45.34735" lon="5.81678">
        <ele>921</ele>
        <time>2015-07-10T06:03:16Z</time>
      </trkpt>
      <trkpt lat="45.34748" lon="5.81679">
        <ele>920.8</ele>
        <time>2015-07-10T06:03:19Z</time>
      </trkpt>
      <trkpt lat="45.34759" lon="5.81681">
        <ele>919.4</ele>
        <time>2015-07-10T06:03:22Z</time>
      </trkpt>
      <trkpt lat="45.3477" lon="5.81684">
        <ele>918.6</ele>
        <time>2015-07-10T06:03:25Z</time>
      </trkpt>
      <trkpt lat="45.34781" lon="5.8169">
        <ele>917.8</ele>
        <time>2015-07-10T06:03:28Z</time>
      </trkpt>
      <trkpt lat="45.34793" lon="5.81693">
        <ele>917</ele>
        <time>2015-07-10T06:03:31Z</time>
      </trkpt>
      <trkpt lat="45.34804" lon="5.8169">
        <ele>915.4</ele>
        <time>2015-07-10T06:03:34Z</time>
      </trkpt>
      <trkpt lat="45.34812" lon="5.81678">
        <ele>915</ele>
        <time>2015-07-10T06:03:37Z</time>
      </trkpt>
      <trkpt lat="45.34809" lon="5.81664">
        <ele>915</ele>
        <time>2015-07-10T06:03:40Z</time>
      </trkpt>
      <trkpt lat="45.348" lon="5.81655">
        <ele>915</ele>
        <time>2015-07-10T06:03:43Z</time>
      </trkpt>
      <trkpt lat="45.3479" lon="5.81646">
        <ele>914.6</ele>
        <time>2015-07-10T06:03:46Z</time>
      </trkpt>
      <trkpt lat="45.34779" lon="5.8164">
        <ele>913.4</ele>
        <time>2015-07-10T06:03:49Z</time>
      </trkpt>
      <trkpt lat="45.34767" lon="5.81636">
        <ele>912.6</ele>
        <time>2015-07-10T06:03:52Z</time>
      </trkpt>
      <trkpt lat="45.34756" lon="5.8163">
        <ele>912.4</ele>
        <time>2015-07-10T06:03:55Z</time>
      </trkpt>
      <trkpt lat="45.34745" lon="5.81626">
        <ele>912.4</ele>
        <time>2015-07-10T06:03:58Z</time>
      </trkpt>
      <trkpt lat="45.34736" lon="5.81618">
        <ele>912.2</ele>
        <time>2015-07-10T06:04:01Z</time>
      </trkpt>
      <trkpt lat="45.34729" lon="5.81605">
        <ele>911.2</ele>
        <time>2015-07-10T06:04:04Z</time>
      </trkpt>
      <trkpt lat="45.34724" lon="5.8159">
        <ele>910.6</ele>
        <time>2015-07-10T06:04:07Z</time>
      </trkpt>
      <trkpt lat="45.3472" lon="5.81574">
        <ele>909.8</ele>
        <time>2015-07-10T06:04:10Z</time>
      </trkpt>
      <trkpt lat="45.34715" lon="5.8156">
        <ele>909.6</ele>
        <time>2015-07-10T06:04:13Z</time>
      </trkpt>
      <trkpt lat="45.34712" lon="5.81546">
        <ele>909.6</ele>
        <time>2015-07-10T06:04:16Z</time>
      </trkpt>
      <trkpt lat="45.34707" lon="5.81532">
        <ele>909.6</ele>
        <time>2015-07-10T06:04:19Z</time>
      </trkpt>
      <trkpt lat="45.34703" lon="5.81519">
        <ele>909.6</ele>
        <time>2015-07-10T06:04:22Z</time>
      </trkpt>
      <trkpt lat="45.34698" lon="5.81506">
        <ele>909.6</ele>
        <time>2015-07-10T06:04:25Z</time>
      </trkpt>
      <trkpt lat="45.34693" lon="5.81494">
        <ele>909.6</ele>
        <time>2015-07-10T06:04:28Z</time>
      </trkpt>
      <trkpt lat="45.34687" lon="5.81483">
        <ele>909</ele>
        <time>2015-07-10T06:04:31Z</time>
      </trkpt>
      <trkpt lat="45.34679" lon="5.81475">
        <ele>908.8</ele>
        <time>2015-07-10T06:04:34Z</time>
      </trkpt>
      <trkpt lat="45.34671" lon="5.81468">
        <ele>908.8</ele>
        <time>2015-07-10T06:04:37Z</time>
      </trkpt>
      <trkpt lat="45.34662" lon="5.81464">
        <ele>908.8</ele>
        <time>2015-07-10T06:04:40Z</time>
      </trkpt>
      <trkpt lat="45.34653" lon="5.8146">
        <ele>911</ele>
        <time>2015-07-10T06:04:43Z</time>
      </trkpt>
      <trkpt lat="45.34642" lon="5.81453">
        <ele>911.8</ele>
        <time>2015-07-10T06:04:47Z</time>
      </trkpt>
      <trkpt lat="45.34631" lon="5.81445">
        <ele>912</ele>
        <time>2015-07-10T06:04:51Z</time>
      </trkpt>
      <trkpt lat="45.34622" lon="5.81433">
        <ele>912</ele>
        <time>2015-07-10T06:04:55Z</time>
      </trkpt>
      <trkpt lat="45.34615" lon="5.81424">
        <ele>912.6</ele>
        <time>2015-07-10T06:04:58Z</time>
      </trkpt>
      <trkpt lat="45.34606" lon="5.81412">
        <ele>913.6</ele>
        <time>2015-07-10T06:05:02Z</time>
      </trkpt>
      <trkpt lat="45.34599" lon="5.81398">
        <ele>915.8</ele>
        <time>2015-07-10T06:05:06Z</time>
      </trkpt>
      <trkpt lat="45.34598" lon="5.81386">
        <ele>916.2</ele>
        <time>2015-07-10T06:05:11Z</time>
      </trkpt>
      <trkpt lat="45.34609" lon="5.81382">
        <ele>916.2</ele>
        <time>2015-07-10T06:05:18Z</time>
      </trkpt>
      <trkpt lat="45.34619" lon="5.81378">
        <ele>916.4</ele>
        <time>2015-07-10T06:05:22Z</time>
      </trkpt>
      <trkpt lat="45.34629" lon="5.81377">
        <ele>919</ele>
        <time>2015-07-10T06:05:26Z</time>
      </trkpt>
      <trkpt lat="45.3464" lon="5.81379">
        <ele>921.2</ele>
        <time>2015-07-10T06:05:30Z</time>
      </trkpt>
      <trkpt lat="45.34651" lon="5.81382">
        <ele>922.2</ele>
        <time>2015-07-10T06:05:34Z</time>
      </trkpt>
      <trkpt lat="45.34661" lon="5.81383">
        <ele>923.4</ele>
        <time>2015-07-10T06:05:38Z</time>
      </trkpt>
      <trkpt lat="45.34669" lon="5.81385">
        <ele>925</ele>
        <time>2015-07-10T06:05:42Z</time>
      </trkpt>
      <trkpt lat="45.3468" lon="5.81387">
        <ele>928.2</ele>
        <time>2015-07-10T06:05:47Z</time>
      </trkpt>
      <trkpt lat="45.34687" lon="5.81387">
        <ele>928.8</ele>
        <time>2015-07-10T06:05:51Z</time>
      </trkpt>
      <trkpt lat="45.34696" lon="5.81386">
        <ele>931.8</ele>
        <time>2015-07-10T06:05:56Z</time>
      </trkpt>
      <trkpt lat="45.34704" lon="5.81385">
        <ele>933.8</ele>
        <time>2015-07-10T06:06:01Z</time>
      </trkpt>
      <trkpt lat="45.34713" lon="5.81385">
        <ele>936.4</ele>
        <time>2015-07-10T06:06:06Z</time>
      </trkpt>
      <trkpt lat="45.34721" lon="5.81384">
        <ele>938</ele>
        <time>2015-07-10T06:06:12Z</time>
      </trkpt>
      <trkpt lat="45.3473" lon="5.8138">
        <ele>941.8</ele>
        <time>2015-07-10T06:06:19Z</time>
      </trkpt>
      <trkpt lat="45.34739" lon="5.81377">
        <ele>943.2</ele>
        <time>2015-07-10T06:06:25Z</time>
      </trkpt>
      <trkpt lat="45.34747" lon="5.81374">
        <ele>945.2</ele>
        <time>2015-07-10T06:06:31Z</time>
      </trkpt>
      <trkpt lat="45.34757" lon="5.81373">
        <ele>946.8</ele>
        <time>2015-07-10T06:06:37Z</time>
      </trkpt>
      <trkpt lat="45.34771" lon="5.81367">
        <ele>948.2</ele>
        <time>2015-07-10T06:06:42Z</time>
      </trkpt>
      <trkpt lat="45.34778" lon="5.81361">
        <ele>949.8</ele>
        <time>2015-07-10T06:06:46Z</time>
      </trkpt>
      <trkpt lat="45.34785" lon="5.81355">
        <ele>951</ele>
        <time>2015-07-10T06:06:51Z</time>
      </trkpt>
      <trkpt lat="45.34796" lon="5.81353">
        <ele>953</ele>
        <time>2015-07-10T06:06:57Z</time>
      </trkpt>
      <trkpt lat="45.34807" lon="5.81353">
        <ele>955</ele>
        <time>2015-07-10T06:07:02Z</time>
      </trkpt>
      <trkpt lat="45.34817" lon="5.81357">
        <ele>956.4</ele>
        <time>2015-07-10T06:07:07Z</time>
      </trkpt>
      <trkpt lat="45.34825" lon="5.81351">
        <ele>960.4</ele>
        <time>2015-07-10T06:07:15Z</time>
      </trkpt>
      <trkpt lat="45.34831" lon="5.81341">
        <ele>962.4</ele>
        <time>2015-07-10T06:07:21Z</time>
      </trkpt>
      <trkpt lat="45.34839" lon="5.81337">
        <ele>965.6</ele>
        <time>2015-07-10T06:07:30Z</time>
      </trkpt>
      <trkpt lat="45.34845" lon="5.81329">
        <ele>969.6</ele>
        <time>2015-07-10T06:07:39Z</time>
      </trkpt>
      <trkpt lat="45.34853" lon="5.81332">
        <ele>973.4</ele>
        <time>2015-07-10T06:07:49Z</time>
      </trkpt>
      <trkpt lat="45.34863" lon="5.81332">
        <ele>976.6</ele>
        <time>2015-07-10T06:07:56Z</time>
      </trkpt>
      <trkpt lat="45.34872" lon="5.81335">
        <ele>978.6</ele>
        <time>2015-07-10T06:08:03Z</time>
      </trkpt>
      <trkpt lat="45.34876" lon="5.81348">
        <ele>982.2</ele>
        <time>2015-07-10T06:08:12Z</time>
      </trkpt>
      <trkpt lat="45.34883" lon="5.81354">
        <ele>984.4</ele>
        <time>2015-07-10T06:08:19Z</time>
      </trkpt>
      <trkpt lat="45.34894" lon="5.81356">
        <ele>987</ele>
        <time>2015-07-10T06:08:25Z</time>
      </trkpt>
      <trkpt lat="45.34899" lon="5.81367">
        <ele>987.8</ele>
        <time>2015-07-10T06:08:30Z</time>
      </trkpt>
      <trkpt lat="45.34905" lon="5.81376">
        <ele>987.8</ele>
        <time>2015-07-10T06:08:36Z</time>
      </trkpt>
      <trkpt lat="45.34899" lon="5.81375">
        <ele>987.8</ele>
        <time>2015-07-10T06:08:55Z</time>
      </trkpt>
      <trkpt lat="45.34891" lon="5.81362">
        <ele>987.8</ele>
        <time>2015-07-10T06:08:59Z</time>
      </trkpt>
      <trkpt lat="45.34887" lon="5.81347">
        <ele>988.8</ele>
        <time>2015-07-10T06:09:04Z</time>
      </trkpt>
      <trkpt lat="45.34883" lon="5.81335">
        <ele>989.6</ele>
        <time>2015-07-10T06:09:09Z</time>
      </trkpt>
      <trkpt lat="45.34885" lon="5.81323">
        <ele>989.6</ele>
        <time>2015-07-10T06:09:14Z</time>
      </trkpt>
      <trkpt lat="45.34894" lon="5.81319">
        <ele>993.4</ele>
        <time>2015-07-10T06:09:27Z</time>
      </trkpt>
      <trkpt lat="45.34903" lon="5.8131">
        <ele>998.4</ele>
        <time>2015-07-10T06:09:40Z</time>
      </trkpt>
      <trkpt lat="45.3491" lon="5.81301">
        <ele>1002</ele>
        <time>2015-07-10T06:09:53Z</time>
      </trkpt>
      <trkpt lat="45.34919" lon="5.81297">
        <ele>1005.6</ele>
        <time>2015-07-10T06:10:08Z</time>
      </trkpt>
      <trkpt lat="45.34929" lon="5.81298">
        <ele>1009.4</ele>
        <time>2015-07-10T06:10:21Z</time>
      </trkpt>
      <trkpt lat="45.34938" lon="5.81297">
        <ele>1013.8</ele>
        <time>2015-07-10T06:10:33Z</time>
      </trkpt>
      <trkpt lat="45.34947" lon="5.81289">
        <ele>1017.6</ele>
        <time>2015-07-10T06:10:47Z</time>
      </trkpt>
      <trkpt lat="45.34949" lon="5.81277">
        <ele>1019.6</ele>
        <time>2015-07-10T06:11:02Z</time>
      </trkpt>
      <trkpt lat="45.34952" lon="5.8126">
        <ele>1026.8</ele>
        <time>2015-07-10T06:11:21Z</time>
      </trkpt>
      <trkpt lat="45.34947" lon="5.81241">
        <ele>1028.6</ele>
        <time>2015-07-10T06:11:32Z</time>
      </trkpt>
      <trkpt lat="45.34945" lon="5.81222">
        <ele>1032.4</ele>
        <time>2015-07-10T06:11:45Z</time>
      </trkpt>
      <trkpt lat="45.34952" lon="5.81207">
        <ele>1038</ele>
        <time>2015-07-10T06:12:04Z</time>
      </trkpt>
      <trkpt lat="45.34951" lon="5.81195">
        <ele>1041.2</ele>
        <time>2015-07-10T06:12:19Z</time>
      </trkpt>
      <trkpt lat="45.34951" lon="5.8118">
        <ele>1042.8</ele>
        <time>2015-07-10T06:12:33Z</time>
      </trkpt>
      <trkpt lat="45.34958" lon="5.81169">
        <ele>1050.4</ele>
        <time>2015-07-10T06:12:51Z</time>
      </trkpt>
      <trkpt lat="45.34968" lon="5.81162">
        <ele>1056.8</ele>
        <time>2015-07-10T06:13:09Z</time>
      </trkpt>
      <trkpt lat="45.34976" lon="5.81151">
        <ele>1061.8</ele>
        <time>2015-07-10T06:13:27Z</time>
      </trkpt>
      <trkpt lat="45.34984" lon="5.81138">
        <ele>1067</ele>
        <time>2015-07-10T06:13:41Z</time>
      </trkpt>
      <trkpt lat="45.34992" lon="5.81131">
        <ele>1071.6</ele>
        <time>2015-07-10T06:13:56Z</time>
      </trkpt>
      <trkpt lat="45.35002" lon="5.81125">
        <ele>1077.6</ele>
        <time>2015-07-10T06:14:13Z</time>
      </trkpt>
      <trkpt lat="45.3501" lon="5.81118">
        <ele>1085.2</ele>
        <time>2015-07-10T06:14:36Z</time>
      </trkpt>
      <trkpt lat="45.35023" lon="5.81115">
        <ele>1091.4</ele>
        <time>2015-07-10T06:14:55Z</time>
      </trkpt>
      <trkpt lat="45.35029" lon="5.81112">
        <ele>1096.8</ele>
        <time>2015-07-10T06:15:11Z</time>
      </trkpt>
      <trkpt lat="45.3504" lon="5.81104">
        <ele>1105.6</ele>
        <time>2015-07-10T06:15:37Z</time>
      </trkpt>
      <trkpt lat="45.35048" lon="5.81097">
        <ele>1111.8</ele>
        <time>2015-07-10T06:15:55Z</time>
      </trkpt>
      <trkpt lat="45.35061" lon="5.81097">
        <ele>1117.4</ele>
        <time>2015-07-10T06:16:11Z</time>
      </trkpt>
      <trkpt lat="45.35076" lon="5.811">
        <ele>1121.6</ele>
        <time>2015-07-10T06:16:25Z</time>
      </trkpt>
      <trkpt lat="45.35085" lon="5.81101">
        <ele>1127</ele>
        <time>2015-07-10T06:16:41Z</time>
      </trkpt>
      <trkpt lat="45.35096" lon="5.81103">
        <ele>1133</ele>
        <time>2015-07-10T06:17:00Z</time>
      </trkpt>
      <trkpt lat="45.35104" lon="5.81097">
        <ele>1142.4</ele>
        <time>2015-07-10T06:17:24Z</time>
      </trkpt>
      <trkpt lat="45.35116" lon="5.81092">
        <ele>1147.2</ele>
        <time>2015-07-10T06:17:39Z</time>
      </trkpt>
      <trkpt lat="45.35124" lon="5.81084">
        <ele>1153.4</ele>
        <time>2015-07-10T06:17:56Z</time>
      </trkpt>
      <trkpt lat="45.35131" lon="5.81081">
        <ele>1158.8</ele>
        <time>2015-07-10T06:18:11Z</time>
      </trkpt>
      <trkpt lat="45.35135" lon="5.81075">
        <ele>1164.6</ele>
        <time>2015-07-10T06:18:31Z</time>
      </trkpt>
      <trkpt lat="45.35139" lon="5.81068">
        <ele>1168.8</ele>
        <time>2015-07-10T06:18:51Z</time>
      </trkpt>
      <trkpt lat="45.35145" lon="5.81056">
        <ele>1171.4</ele>
        <time>2015-07-10T06:19:04Z</time>
      </trkpt>
      <trkpt lat="45.35157" lon="5.81048">
        <ele>1166.4</ele>
        <time>2015-07-10T06:19:19Z</time>
      </trkpt>
      <trkpt lat="45.35169" lon="5.81044">
        <ele>1171.8</ele>
        <time>2015-07-10T06:19:29Z</time>
      </trkpt>
      <trkpt lat="45.35179" lon="5.81041">
        <ele>1175.2</ele>
        <time>2015-07-10T06:19:41Z</time>
      </trkpt>
      <trkpt lat="45.35186" lon="5.81043">
        <ele>1179</ele>
        <time>2015-07-10T06:19:54Z</time>
      </trkpt>
      <trkpt lat="45.35197" lon="5.81041">
        <ele>1184</ele>
        <time>2015-07-10T06:20:14Z</time>
      </trkpt>
      <trkpt lat="45.35211" lon="5.81035">
        <ele>1187.8</ele>
        <time>2015-07-10T06:20:22Z</time>
      </trkpt>
      <trkpt lat="45.35221" lon="5.81032">
        <ele>1190.2</ele>
        <time>2015-07-10T06:20:30Z</time>
      </trkpt>
      <trkpt lat="45.35232" lon="5.81027">
        <ele>1196.2</ele>
        <time>2015-07-10T06:20:42Z</time>
      </trkpt>
      <trkpt lat="45.35228" lon="5.81014">
        <ele>1197.8</ele>
        <time>2015-07-10T06:20:48Z</time>
      </trkpt>
      <trkpt lat="45.35239" lon="5.81011">
        <ele>1198.4</ele>
        <time>2015-07-10T06:20:53Z</time>
      </trkpt>
      <trkpt lat="45.35247" lon="5.81019">
        <ele>1199.8</ele>
        <time>2015-07-10T06:20:58Z</time>
      </trkpt>
      <trkpt lat="45.35256" lon="5.81027">
        <ele>1201.2</ele>
        <time>2015-07-10T06:21:03Z</time>
      </trkpt>
      <trkpt lat="45.35264" lon="5.81032">
        <ele>1203.4</ele>
        <time>2015-07-10T06:21:07Z</time>
      </trkpt>
      <trkpt lat="45.35274" lon="5.81035">
        <ele>1203.6</ele>
        <time>2015-07-10T06:21:12Z</time>
      </trkpt>
      <trkpt lat="45.35284" lon="5.81036">
        <ele>1204.2</ele>
        <time>2015-07-10T06:21:16Z</time>
      </trkpt>
      <trkpt lat="45.35293" lon="5.8104">
        <ele>1204.6</ele>
        <time>2015-07-10T06:21:20Z</time>
      </trkpt>
      <trkpt lat="45.35303" lon="5.81044">
        <ele>1206</ele>
        <time>2015-07-10T06:21:25Z</time>
      </trkpt>
      <trkpt lat="45.35312" lon="5.81048">
        <ele>1207.6</ele>
        <time>2015-07-10T06:21:29Z</time>
      </trkpt>
      <trkpt lat="45.35323" lon="5.81053">
        <ele>1208.4</ele>
        <time>2015-07-10T06:21:34Z</time>
      </trkpt>
      <trkpt lat="45.35333" lon="5.81056">
        <ele>1209.6</ele>
        <time>2015-07-10T06:21:39Z</time>
      </trkpt>
      <trkpt lat="45.35341" lon="5.8106">
        <ele>1212</ele>
        <time>2015-07-10T06:21:43Z</time>
      </trkpt>
      <trkpt lat="45.35352" lon="5.81064">
        <ele>1212.6</ele>
        <time>2015-07-10T06:21:48Z</time>
      </trkpt>
      <trkpt lat="45.35364" lon="5.8107">
        <ele>1212.6</ele>
        <time>2015-07-10T06:21:52Z</time>
      </trkpt>
      <trkpt lat="45.35373" lon="5.81077">
        <ele>1215</ele>
        <time>2015-07-10T06:21:58Z</time>
      </trkpt>
      <trkpt lat="45.35381" lon="5.81089">
        <ele>1215.2</ele>
        <time>2015-07-10T06:22:04Z</time>
      </trkpt>
      <trkpt lat="45.35388" lon="5.81097">
        <ele>1217.6</ele>
        <time>2015-07-10T06:22:09Z</time>
      </trkpt>
      <trkpt lat="45.354" lon="5.81106">
        <ele>1218.8</ele>
        <time>2015-07-10T06:22:14Z</time>
      </trkpt>
      <trkpt lat="45.35411" lon="5.81117">
        <ele>1219.6</ele>
        <time>2015-07-10T06:22:18Z</time>
      </trkpt>
      <trkpt lat="45.35425" lon="5.81131">
        <ele>1220.4</ele>
        <time>2015-07-10T06:22:22Z</time>
      </trkpt>
      <trkpt lat="45.35432" lon="5.81143">
        <ele>1221.2</ele>
        <time>2015-07-10T06:22:26Z</time>
      </trkpt>
      <trkpt lat="45.3544" lon="5.81154">
        <ele>1221.4</ele>
        <time>2015-07-10T06:22:30Z</time>
      </trkpt>
      <trkpt lat="45.35445" lon="5.81165">
        <ele>1223.2</ele>
        <time>2015-07-10T06:22:34Z</time>
      </trkpt>
      <trkpt lat="45.35455" lon="5.8117">
        <ele>1225</ele>
        <time>2015-07-10T06:22:39Z</time>
      </trkpt>
      <trkpt lat="45.3546" lon="5.81157">
        <ele>1225.6</ele>
        <time>2015-07-10T06:22:44Z</time>
      </trkpt>
      <trkpt lat="45.35453" lon="5.81143">
        <ele>1228</ele>
        <time>2015-07-10T06:22:49Z</time>
      </trkpt>
      <trkpt lat="45.35444" lon="5.81135">
        <ele>1228.4</ele>
        <time>2015-07-10T06:22:53Z</time>
      </trkpt>
      <trkpt lat="45.35439" lon="5.81123">
        <ele>1230</ele>
        <time>2015-07-10T06:22:57Z</time>
      </trkpt>
      <trkpt lat="45.35436" lon="5.81112">
        <ele>1230.8</ele>
        <time>2015-07-10T06:23:01Z</time>
      </trkpt>
      <trkpt lat="45.35431" lon="5.81101">
        <ele>1231.2</ele>
        <time>2015-07-10T06:23:05Z</time>
      </trkpt>
      <trkpt lat="45.35426" lon="5.8109">
        <ele>1232.8</ele>
        <time>2015-07-10T06:23:09Z</time>
      </trkpt>
      <trkpt lat="45.35421" lon="5.81079">
        <ele>1233.6</ele>
        <time>2015-07-10T06:23:13Z</time>
      </trkpt>
      <trkpt lat="45.35418" lon="5.81067">
        <ele>1234</ele>
        <time>2015-07-10T06:23:17Z</time>
      </trkpt>
      <trkpt lat="45.35414" lon="5.81055">
        <ele>1235</ele>
        <time>2015-07-10T06:23:21Z</time>
      </trkpt>
      <trkpt lat="45.3541" lon="5.81043">
        <ele>1235.8</ele>
        <time>2015-07-10T06:23:25Z</time>
      </trkpt>
      <trkpt lat="45.35408" lon="5.8103">
        <ele>1237.6</ele>
        <time>2015-07-10T06:23:29Z</time>
      </trkpt>
      <trkpt lat="45.35402" lon="5.81019">
        <ele>1238.2</ele>
        <time>2015-07-10T06:23:34Z</time>
      </trkpt>
      <trkpt lat="45.35404" lon="5.81006">
        <ele>1239.4</ele>
        <time>2015-07-10T06:23:39Z</time>
      </trkpt>
      <trkpt lat="45.35413" lon="5.81006">
        <ele>1241.8</ele>
        <time>2015-07-10T06:23:44Z</time>
      </trkpt>
      <trkpt lat="45.35424" lon="5.81014">
        <ele>1242.4</ele>
        <time>2015-07-10T06:23:50Z</time>
      </trkpt>
      <trkpt lat="45.35435" lon="5.81021">
        <ele>1243.8</ele>
        <time>2015-07-10T06:23:55Z</time>
      </trkpt>
      <trkpt lat="45.35445" lon="5.8103">
        <ele>1245.2</ele>
        <time>2015-07-10T06:24:00Z</time>
      </trkpt>
      <trkpt lat="45.35456" lon="5.81034">
        <ele>1247</ele>
        <time>2015-07-10T06:24:05Z</time>
      </trkpt>
      <trkpt lat="45.35466" lon="5.81039">
        <ele>1249.2</ele>
        <time>2015-07-10T06:24:11Z</time>
      </trkpt>
      <trkpt lat="45.35474" lon="5.81048">
        <ele>1250.6</ele>
        <time>2015-07-10T06:24:16Z</time>
      </trkpt>
      <trkpt lat="45.35482" lon="5.81061">
        <ele>1252.2</ele>
        <time>2015-07-10T06:24:22Z</time>
      </trkpt>
      <trkpt lat="45.35493" lon="5.81074">
        <ele>1255</ele>
        <time>2015-07-10T06:24:27Z</time>
      </trkpt>
      <trkpt lat="45.35507" lon="5.81081">
        <ele>1255.6</ele>
        <time>2015-07-10T06:24:32Z</time>
      </trkpt>
      <trkpt lat="45.35516" lon="5.81086">
        <ele>1255.6</ele>
        <time>2015-07-10T06:24:36Z</time>
      </trkpt>
      <trkpt lat="45.35525" lon="5.81092">
        <ele>1256.2</ele>
        <time>2015-07-10T06:24:40Z</time>
      </trkpt>
      <trkpt lat="45.35534" lon="5.81095">
        <ele>1257.2</ele>
        <time>2015-07-10T06:24:44Z</time>
      </trkpt>
      <trkpt lat="45.35542" lon="5.81099">
        <ele>1259</ele>
        <time>2015-07-10T06:24:50Z</time>
      </trkpt>
      <trkpt lat="45.35556" lon="5.81103">
        <ele>1262.8</ele>
        <time>2015-07-10T06:24:59Z</time>
      </trkpt>
      <trkpt lat="45.35568" lon="5.81106">
        <ele>1265.6</ele>
        <time>2015-07-10T06:25:06Z</time>
      </trkpt>
      <trkpt lat="45.35577" lon="5.81109">
        <ele>1268</ele>
        <time>2015-07-10T06:25:14Z</time>
      </trkpt>
      <trkpt lat="45.35589" lon="5.81114">
        <ele>1271</ele>
        <time>2015-07-10T06:25:22Z</time>
      </trkpt>
      <trkpt lat="45.356" lon="5.81122">
        <ele>1273</ele>
        <time>2015-07-10T06:25:29Z</time>
      </trkpt>
      <trkpt lat="45.35613" lon="5.81127">
        <ele>1275.8</ele>
        <time>2015-07-10T06:25:38Z</time>
      </trkpt>
      <trkpt lat="45.35623" lon="5.81126">
        <ele>1279.4</ele>
        <time>2015-07-10T06:25:52Z</time>
      </trkpt>
      <trkpt lat="45.35636" lon="5.81123">
        <ele>1281.8</ele>
        <time>2015-07-10T06:26:00Z</time>
      </trkpt>
      <trkpt lat="45.35649" lon="5.81124">
        <ele>1285.2</ele>
        <time>2015-07-10T06:26:08Z</time>
      </trkpt>
      <trkpt lat="45.3566" lon="5.81121">
        <ele>1288.8</ele>
        <time>2015-07-10T06:26:17Z</time>
      </trkpt>
      <trkpt lat="45.35668" lon="5.81108">
        <ele>1291.4</ele>
        <time>2015-07-10T06:26:25Z</time>
      </trkpt>
      <trkpt lat="45.3567" lon="5.81094">
        <ele>1292.8</ele>
        <time>2015-07-10T06:26:31Z</time>
      </trkpt>
      <trkpt lat="45.3567" lon="5.81078">
        <ele>1292.8</ele>
        <time>2015-07-10T06:26:36Z</time>
      </trkpt>
      <trkpt lat="45.35671" lon="5.81062">
        <ele>1293.6</ele>
        <time>2015-07-10T06:26:41Z</time>
      </trkpt>
      <trkpt lat="45.35669" lon="5.81048">
        <ele>1294.2</ele>
        <time>2015-07-10T06:26:47Z</time>
      </trkpt>
      <trkpt lat="45.35664" lon="5.81035">
        <ele>1296.8</ele>
        <time>2015-07-10T06:26:52Z</time>
      </trkpt>
      <trkpt lat="45.35665" lon="5.8102">
        <ele>1299.2</ele>
        <time>2015-07-10T06:26:59Z</time>
      </trkpt>
      <trkpt lat="45.3567" lon="5.81004">
        <ele>1303.4</ele>
        <time>2015-07-10T06:27:08Z</time>
      </trkpt>
      <trkpt lat="45.35677" lon="5.81007">
        <ele>1307.6</ele>
        <time>2015-07-10T06:27:24Z</time>
      </trkpt>
      <trkpt lat="45.35688" lon="5.81012">
        <ele>1311</ele>
        <time>2015-07-10T06:27:32Z</time>
      </trkpt>
      <trkpt lat="45.35699" lon="5.81024">
        <ele>1312.8</ele>
        <time>2015-07-10T06:27:40Z</time>
      </trkpt>
      <trkpt lat="45.35711" lon="5.81034">
        <ele>1315</ele>
        <time>2015-07-10T06:27:48Z</time>
      </trkpt>
      <trkpt lat="45.35722" lon="5.81044">
        <ele>1317.4</ele>
        <time>2015-07-10T06:27:53Z</time>
      </trkpt>
      <trkpt lat="45.35729" lon="5.81055">
        <ele>1317.6</ele>
        <time>2015-07-10T06:27:58Z</time>
      </trkpt>
      <trkpt lat="45.35739" lon="5.81066">
        <ele>1319.8</ele>
        <time>2015-07-10T06:28:04Z</time>
      </trkpt>
      <trkpt lat="45.35747" lon="5.81074">
        <ele>1322.4</ele>
        <time>2015-07-10T06:28:13Z</time>
      </trkpt>
      <trkpt lat="45.35756" lon="5.8108">
        <ele>1326.8</ele>
        <time>2015-07-10T06:28:21Z</time>
      </trkpt>
      <trkpt lat="45.35775" lon="5.8109">
        <ele>1331</ele>
        <time>2015-07-10T06:28:35Z</time>
      </trkpt>
      <trkpt lat="45.3579" lon="5.81094">
        <ele>1334.4</ele>
        <time>2015-07-10T06:28:48Z</time>
      </trkpt>
      <trkpt lat="45.35803" lon="5.81108">
        <ele>1337.6</ele>
        <time>2015-07-10T06:29:02Z</time>
      </trkpt>
      <trkpt lat="45.35809" lon="5.81122">
        <ele>1340.8</ele>
        <time>2015-07-10T06:29:12Z</time>
      </trkpt>
      <trkpt lat="45.35823" lon="5.81129">
        <ele>1345</ele>
        <time>2015-07-10T06:29:26Z</time>
      </trkpt>
      <trkpt lat="45.35836" lon="5.81128">
        <ele>1352.2</ele>
        <time>2015-07-10T06:29:45Z</time>
      </trkpt>
      <trkpt lat="45.35853" lon="5.8113">
        <ele>1356.6</ele>
        <time>2015-07-10T06:30:00Z</time>
      </trkpt>
      <trkpt lat="45.35867" lon="5.81139">
        <ele>1361.4</ele>
        <time>2015-07-10T06:30:15Z</time>
      </trkpt>
      <trkpt lat="45.35879" lon="5.81146">
        <ele>1365.2</ele>
        <time>2015-07-10T06:30:24Z</time>
      </trkpt>
      <trkpt lat="45.35889" lon="5.81153">
        <ele>1369.2</ele>
        <time>2015-07-10T06:30:34Z</time>
      </trkpt>
      <trkpt lat="45.35901" lon="5.81161">
        <ele>1371.6</ele>
        <time>2015-07-10T06:30:43Z</time>
      </trkpt>
      <trkpt lat="45.35909" lon="5.81171">
        <ele>1375.2</ele>
        <time>2015-07-10T06:30:54Z</time>
      </trkpt>
      <trkpt lat="45.35921" lon="5.81168">
        <ele>1379.6</ele>
        <time>2015-07-10T06:31:11Z</time>
      </trkpt>
      <trkpt lat="45.35937" lon="5.81168">
        <ele>1385</ele>
        <time>2015-07-10T06:31:26Z</time>
      </trkpt>
      <trkpt lat="45.35949" lon="5.81164">
        <ele>1390.8</ele>
        <time>2015-07-10T06:31:43Z</time>
      </trkpt>
      <trkpt lat="45.35961" lon="5.81153">
        <ele>1394.8</ele>
        <time>2015-07-10T06:31:55Z</time>
      </trkpt>
      <trkpt lat="45.3597" lon="5.81147">
        <ele>1399.6</ele>
        <time>2015-07-10T06:32:08Z</time>
      </trkpt>
      <trkpt lat="45.35977" lon="5.81143">
        <ele>1403.2</ele>
        <time>2015-07-10T06:32:18Z</time>
      </trkpt>
      <trkpt lat="45.35984" lon="5.81137">
        <ele>1408.2</ele>
        <time>2015-07-10T06:32:32Z</time>
      </trkpt>
      <trkpt lat="45.35993" lon="5.81136">
        <ele>1411.6</ele>
        <time>2015-07-10T06:32:43Z</time>
      </trkpt>
      <trkpt lat="45.35997" lon="5.81127">
        <ele>1418.2</ele>
        <time>2015-07-10T06:33:00Z</time>
      </trkpt>
      <trkpt lat="45.36014" lon="5.81122">
        <ele>1424</ele>
        <time>2015-07-10T06:33:15Z</time>
      </trkpt>
      <trkpt lat="45.36023" lon="5.81116">
        <ele>1428.4</ele>
        <time>2015-07-10T06:33:27Z</time>
      </trkpt>
      <trkpt lat="45.3603" lon="5.8111">
        <ele>1434.4</ele>
        <time>2015-07-10T06:33:43Z</time>
      </trkpt>
      <trkpt lat="45.36037" lon="5.81103">
        <ele>1437</ele>
        <time>2015-07-10T06:33:52Z</time>
      </trkpt>
      <trkpt lat="45.36037" lon="5.81091">
        <ele>1440.8</ele>
        <time>2015-07-10T06:34:03Z</time>
      </trkpt>
      <trkpt lat="45.36044" lon="5.81087">
        <ele>1444.6</ele>
        <time>2015-07-10T06:34:15Z</time>
      </trkpt>
      <trkpt lat="45.36045" lon="5.81077">
        <ele>1449.4</ele>
        <time>2015-07-10T06:34:29Z</time>
      </trkpt>
      <trkpt lat="45.36045" lon="5.81065">
        <ele>1453</ele>
        <time>2015-07-10T06:34:40Z</time>
      </trkpt>
      <trkpt lat="45.36054" lon="5.81057">
        <ele>1456.8</ele>
        <time>2015-07-10T06:34:51Z</time>
      </trkpt>
      <trkpt lat="45.36061" lon="5.81053">
        <ele>1460.4</ele>
        <time>2015-07-10T06:35:03Z</time>
      </trkpt>
      <trkpt lat="45.36068" lon="5.81048">
        <ele>1463.8</ele>
        <time>2015-07-10T06:35:16Z</time>
      </trkpt>
      <trkpt lat="45.36071" lon="5.81043">
        <ele>1470.4</ele>
        <time>2015-07-10T06:35:36Z</time>
      </trkpt>
      <trkpt lat="45.36077" lon="5.81025">
        <ele>1479</ele>
        <time>2015-07-10T06:36:02Z</time>
      </trkpt>
      <trkpt lat="45.36092" lon="5.81022">
        <ele>1482.8</ele>
        <time>2015-07-10T06:36:20Z</time>
      </trkpt>
      <trkpt lat="45.36099" lon="5.81018">
        <ele>1488</ele>
        <time>2015-07-10T06:36:35Z</time>
      </trkpt>
      <trkpt lat="45.3611" lon="5.81016">
        <ele>1493.6</ele>
        <time>2015-07-10T06:36:53Z</time>
      </trkpt>
      <trkpt lat="45.36118" lon="5.81013">
        <ele>1499.4</ele>
        <time>2015-07-10T06:37:10Z</time>
      </trkpt>
      <trkpt lat="45.3613" lon="5.81012">
        <ele>1503.2</ele>
        <time>2015-07-10T06:37:24Z</time>
      </trkpt>
      <trkpt lat="45.36139" lon="5.81006">
        <ele>1508</ele>
        <time>2015-07-10T06:37:39Z</time>
      </trkpt>
      <trkpt lat="45.36154" lon="5.81013">
        <ele>1513.8</ele>
        <time>2015-07-10T06:37:58Z</time>
      </trkpt>
      <trkpt lat="45.36167" lon="5.81009">
        <ele>1518</ele>
        <time>2015-07-10T06:38:11Z</time>
      </trkpt>
      <trkpt lat="45.36177" lon="5.81008">
        <ele>1522.4</ele>
        <time>2015-07-10T06:38:25Z</time>
      </trkpt>
      <trkpt lat="45.36183" lon="5.81003">
        <ele>1527.4</ele>
        <time>2015-07-10T06:38:40Z</time>
      </trkpt>
      <trkpt lat="45.36192" lon="5.81001">
        <ele>1533.6</ele>
        <time>2015-07-10T06:39:01Z</time>
      </trkpt>
      <trkpt lat="45.36207" lon="5.81">
        <ele>1537.2</ele>
        <time>2015-07-10T06:39:14Z</time>
      </trkpt>
      <trkpt lat="45.36216" lon="5.81001">
        <ele>1541.8</ele>
        <time>2015-07-10T06:39:28Z</time>
      </trkpt>
      <trkpt lat="45.36226" lon="5.81009">
        <ele>1545.4</ele>
        <time>2015-07-10T06:39:42Z</time>
      </trkpt>
      <trkpt lat="45.36235" lon="5.81003">
        <ele>1549</ele>
        <time>2015-07-10T06:39:53Z</time>
      </trkpt>
      <trkpt lat="45.36244" lon="5.81">
        <ele>1552.8</ele>
        <time>2015-07-10T06:40:07Z</time>
      </trkpt>
      <trkpt lat="45.36253" lon="5.80995">
        <ele>1558</ele>
        <time>2015-07-10T06:40:23Z</time>
      </trkpt>
      <trkpt lat="45.36259" lon="5.80985">
        <ele>1562.2</ele>
        <time>2015-07-10T06:40:38Z</time>
      </trkpt>
      <trkpt lat="45.36266" lon="5.80979">
        <ele>1567.4</ele>
        <time>2015-07-10T06:40:56Z</time>
      </trkpt>
      <trkpt lat="45.36274" lon="5.8099">
        <ele>1571.6</ele>
        <time>2015-07-10T06:41:13Z</time>
      </trkpt>
      <trkpt lat="45.36288" lon="5.8098">
        <ele>1575.6</ele>
        <time>2015-07-10T06:41:24Z</time>
      </trkpt>
      <trkpt lat="45.36291" lon="5.80972">
        <ele>1579.8</ele>
        <time>2015-07-10T06:41:34Z</time>
      </trkpt>
      <trkpt lat="45.36295" lon="5.80958">
        <ele>1585.4</ele>
        <time>2015-07-10T06:41:52Z</time>
      </trkpt>
      <trkpt lat="45.36297" lon="5.80955">
        <ele>1590.4</ele>
        <time>2015-07-10T06:42:09Z</time>
      </trkpt>
      <trkpt lat="45.36307" lon="5.80963">
        <ele>1593.2</ele>
        <time>2015-07-10T06:42:18Z</time>
      </trkpt>
      <trkpt lat="45.36314" lon="5.8095">
        <ele>1595.2</ele>
        <time>2015-07-10T06:42:26Z</time>
      </trkpt>
      <trkpt lat="45.3631" lon="5.80938">
        <ele>1598</ele>
        <time>2015-07-10T06:42:34Z</time>
      </trkpt>
      <trkpt lat="45.36316" lon="5.80944">
        <ele>1602</ele>
        <time>2015-07-10T06:42:44Z</time>
      </trkpt>
      <trkpt lat="45.36324" lon="5.80954">
        <ele>1603.2</ele>
        <time>2015-07-10T06:42:51Z</time>
      </trkpt>
      <trkpt lat="45.36331" lon="5.80968">
        <ele>1605.8</ele>
        <time>2015-07-10T06:42:59Z</time>
      </trkpt>
      <trkpt lat="45.36341" lon="5.80975">
        <ele>1608.2</ele>
        <time>2015-07-10T06:43:05Z</time>
      </trkpt>
      <trkpt lat="45.36348" lon="5.80987">
        <ele>1609.6</ele>
        <time>2015-07-10T06:43:11Z</time>
      </trkpt>
      <trkpt lat="45.3635" lon="5.80999">
        <ele>1612.4</ele>
        <time>2015-07-10T06:43:19Z</time>
      </trkpt>
      <trkpt lat="45.36355" lon="5.81018">
        <ele>1617.2</ele>
        <time>2015-07-10T06:43:32Z</time>
      </trkpt>
      <trkpt lat="45.36362" lon="5.81036">
        <ele>1620.4</ele>
        <time>2015-07-10T06:43:42Z</time>
      </trkpt>
      <trkpt lat="45.36372" lon="5.81051">
        <ele>1625</ele>
        <time>2015-07-10T06:43:54Z</time>
      </trkpt>
      <trkpt lat="45.36376" lon="5.81067">
        <ele>1629.2</ele>
        <time>2015-07-10T06:44:06Z</time>
      </trkpt>
      <trkpt lat="45.36382" lon="5.81079">
        <ele>1634</ele>
        <time>2015-07-10T06:44:20Z</time>
      </trkpt>
      <trkpt lat="45.3639" lon="5.81094">
        <ele>1638.4</ele>
        <time>2015-07-10T06:44:36Z</time>
      </trkpt>
      <trkpt lat="45.364" lon="5.81105">
        <ele>1644</ele>
        <time>2015-07-10T06:44:52Z</time>
      </trkpt>
      <trkpt lat="45.36404" lon="5.81122">
        <ele>1649.2</ele>
        <time>2015-07-10T06:45:06Z</time>
      </trkpt>
      <trkpt lat="45.3641" lon="5.81136">
        <ele>1651.8</ele>
        <time>2015-07-10T06:45:14Z</time>
      </trkpt>
      <trkpt lat="45.36413" lon="5.81149">
        <ele>1655.2</ele>
        <time>2015-07-10T06:45:24Z</time>
      </trkpt>
      <trkpt lat="45.36412" lon="5.81161">
        <ele>1658.8</ele>
        <time>2015-07-10T06:45:33Z</time>
      </trkpt>
      <trkpt lat="45.36417" lon="5.81177">
        <ele>1663.4</ele>
        <time>2015-07-10T06:45:44Z</time>
      </trkpt>
      <trkpt lat="45.36425" lon="5.81191">
        <ele>1666.2</ele>
        <time>2015-07-10T06:45:52Z</time>
      </trkpt>
      <trkpt lat="45.36438" lon="5.81204">
        <ele>1668.4</ele>
        <time>2015-07-10T06:46:02Z</time>
      </trkpt>
      <trkpt lat="45.36447" lon="5.81213">
        <ele>1670</ele>
        <time>2015-07-10T06:46:08Z</time>
      </trkpt>
      <trkpt lat="45.36458" lon="5.81212">
        <ele>1672.2</ele>
        <time>2015-07-10T06:46:15Z</time>
      </trkpt>
      <trkpt lat="45.36467" lon="5.81198">
        <ele>1674.4</ele>
        <time>2015-07-10T06:46:22Z</time>
      </trkpt>
      <trkpt lat="45.36475" lon="5.81203">
        <ele>1676.8</ele>
        <time>2015-07-10T06:46:29Z</time>
      </trkpt>
      <trkpt lat="45.36485" lon="5.81194">
        <ele>1679.2</ele>
        <time>2015-07-10T06:46:37Z</time>
      </trkpt>
      <trkpt lat="45.36493" lon="5.81188">
        <ele>1681</ele>
        <time>2015-07-10T06:46:43Z</time>
      </trkpt>
      <trkpt lat="45.36501" lon="5.81176">
        <ele>1684</ele>
        <time>2015-07-10T06:46:52Z</time>
      </trkpt>
      <trkpt lat="45.3651" lon="5.81164">
        <ele>1685.6</ele>
        <time>2015-07-10T06:46:59Z</time>
      </trkpt>
      <trkpt lat="45.36516" lon="5.8116">
        <ele>1687</ele>
        <time>2015-07-10T06:47:05Z</time>
      </trkpt>
      <trkpt lat="45.36522" lon="5.81172">
        <ele>1687.2</ele>
        <time>2015-07-10T06:47:10Z</time>
      </trkpt>
      <trkpt lat="45.36528" lon="5.81187">
        <ele>1690.6</ele>
        <time>2015-07-10T06:47:22Z</time>
      </trkpt>
      <trkpt lat="45.36539" lon="5.81199">
        <ele>1695.6</ele>
        <time>2015-07-10T06:47:40Z</time>
      </trkpt>
      <trkpt lat="45.36554" lon="5.81205">
        <ele>1701.2</ele>
        <time>2015-07-10T06:48:01Z</time>
      </trkpt>
      <trkpt lat="45.36566" lon="5.81202">
        <ele>1704.8</ele>
        <time>2015-07-10T06:48:16Z</time>
      </trkpt>
      <trkpt lat="45.36577" lon="5.81205">
        <ele>1708.4</ele>
        <time>2015-07-10T06:48:28Z</time>
      </trkpt>
      <trkpt lat="45.36589" lon="5.81205">
        <ele>1712</ele>
        <time>2015-07-10T06:48:41Z</time>
      </trkpt>
      <trkpt lat="45.36597" lon="5.81197">
        <ele>1716</ele>
        <time>2015-07-10T06:48:53Z</time>
      </trkpt>
      <trkpt lat="45.36607" lon="5.81196">
        <ele>1719.6</ele>
        <time>2015-07-10T06:49:06Z</time>
      </trkpt>
      <trkpt lat="45.36611" lon="5.8121">
        <ele>1723.4</ele>
        <time>2015-07-10T06:49:19Z</time>
      </trkpt>
      <trkpt lat="45.36619" lon="5.81219">
        <ele>1727.2</ele>
        <time>2015-07-10T06:49:34Z</time>
      </trkpt>
      <trkpt lat="45.36629" lon="5.81224">
        <ele>1732.2</ele>
        <time>2015-07-10T06:49:50Z</time>
      </trkpt>
      <trkpt lat="45.36638" lon="5.81228">
        <ele>1737.2</ele>
        <time>2015-07-10T06:50:08Z</time>
      </trkpt>
      <trkpt lat="45.36647" lon="5.81231">
        <ele>1741.4</ele>
        <time>2015-07-10T06:50:21Z</time>
      </trkpt>
      <trkpt lat="45.36653" lon="5.81235">
        <ele>1745.6</ele>
        <time>2015-07-10T06:50:37Z</time>
      </trkpt>
      <trkpt lat="45.36656" lon="5.81243">
        <ele>1749.6</ele>
        <time>2015-07-10T06:50:50Z</time>
      </trkpt>
      <trkpt lat="45.36659" lon="5.81252">
        <ele>1752.4</ele>
        <time>2015-07-10T06:51:01Z</time>
      </trkpt>
      <trkpt lat="45.36656" lon="5.81262">
        <ele>1758.2</ele>
        <time>2015-07-10T06:51:20Z</time>
      </trkpt>
      <trkpt lat="45.36644" lon="5.81268">
        <ele>1760.4</ele>
        <time>2015-07-10T06:51:39Z</time>
      </trkpt>
      <trkpt lat="45.36634" lon="5.81271">
        <ele>1761.6</ele>
        <time>2015-07-10T06:51:52Z</time>
      </trkpt>
      <trkpt lat="45.36622" lon="5.81271">
        <ele>1765.4</ele>
        <time>2015-07-10T06:52:02Z</time>
      </trkpt>
      <trkpt lat="45.36612" lon="5.81271">
        <ele>1766</ele>
        <time>2015-07-10T06:52:14Z</time>
      </trkpt>
      <trkpt lat="45.36598" lon="5.81264">
        <ele>1764</ele>
        <time>2015-07-10T06:52:24Z</time>
      </trkpt>
      <trkpt lat="45.36587" lon="5.81269">
        <ele>1764</ele>
        <time>2015-07-10T06:52:32Z</time>
      </trkpt>
      <trkpt lat="45.36576" lon="5.81275">
        <ele>1769.8</ele>
        <time>2015-07-10T06:52:46Z</time>
      </trkpt>
      <trkpt lat="45.36568" lon="5.81284">
        <ele>1774.4</ele>
        <time>2015-07-10T06:52:58Z</time>
      </trkpt>
      <trkpt lat="45.36568" lon="5.81298">
        <ele>1781</ele>
        <time>2015-07-10T06:53:16Z</time>
      </trkpt>
      <trkpt lat="45.36563" lon="5.81306">
        <ele>1787</ele>
        <time>2015-07-10T06:53:34Z</time>
      </trkpt>
      <trkpt lat="45.36558" lon="5.81303">
        <ele>1792.8</ele>
        <time>2015-07-10T06:53:54Z</time>
      </trkpt>
      <trkpt lat="45.36565" lon="5.81303">
        <ele>1796.2</ele>
        <time>2015-07-10T06:54:12Z</time>
      </trkpt>
      <trkpt lat="45.36574" lon="5.81301">
        <ele>1802.8</ele>
        <time>2015-07-10T06:54:34Z</time>
      </trkpt>
      <trkpt lat="45.36581" lon="5.81302">
        <ele>1808.2</ele>
        <time>2015-07-10T06:54:50Z</time>
      </trkpt>
      <trkpt lat="45.36592" lon="5.81304">
        <ele>1803</ele>
        <time>2015-07-10T06:55:03Z</time>
      </trkpt>
      <trkpt lat="45.366" lon="5.81302">
        <ele>1802.8</ele>
        <time>2015-07-10T06:55:10Z</time>
      </trkpt>
      <trkpt lat="45.36609" lon="5.81307">
        <ele>1802.4</ele>
        <time>2015-07-10T06:55:21Z</time>
      </trkpt>
      <trkpt lat="45.3662" lon="5.81311">
        <ele>1803.6</ele>
        <time>2015-07-10T06:55:34Z</time>
      </trkpt>
      <trkpt lat="45.36629" lon="5.81305">
        <ele>1810.6</ele>
        <time>2015-07-10T06:55:54Z</time>
      </trkpt>
      <trkpt lat="45.36638" lon="5.81312">
        <ele>1817.6</ele>
        <time>2015-07-10T06:56:15Z</time>
      </trkpt>
      <trkpt lat="45.36647" lon="5.81314">
        <ele>1821</ele>
        <time>2015-07-10T06:56:28Z</time>
      </trkpt>
      <trkpt lat="45.36657" lon="5.81317">
        <ele>1825.4</ele>
        <time>2015-07-10T06:56:43Z</time>
      </trkpt>
      <trkpt lat="45.36667" lon="5.81322">
        <ele>1827.8</ele>
        <time>2015-07-10T06:56:52Z</time>
      </trkpt>
      <trkpt lat="45.36674" lon="5.81328">
        <ele>1830</ele>
        <time>2015-07-10T06:57:04Z</time>
      </trkpt>
      <trkpt lat="45.36681" lon="5.81321">
        <ele>1835</ele>
        <time>2015-07-10T06:57:20Z</time>
      </trkpt>
      <trkpt lat="45.36691" lon="5.81317">
        <ele>1837.8</ele>
        <time>2015-07-10T06:57:32Z</time>
      </trkpt>
      <trkpt lat="45.36701" lon="5.81314">
        <ele>1841.6</ele>
        <time>2015-07-10T06:57:45Z</time>
      </trkpt>
      <trkpt lat="45.36712" lon="5.8131">
        <ele>1845.8</ele>
        <time>2015-07-10T06:57:58Z</time>
      </trkpt>
      <trkpt lat="45.36716" lon="5.81299">
        <ele>1851.8</ele>
        <time>2015-07-10T06:58:17Z</time>
      </trkpt>
      <trkpt lat="45.36719" lon="5.81294">
        <ele>1858</ele>
        <time>2015-07-10T06:58:38Z</time>
      </trkpt>
      <trkpt lat="45.36715" lon="5.8128">
        <ele>1863.4</ele>
        <time>2015-07-10T06:58:54Z</time>
      </trkpt>
      <trkpt lat="45.36718" lon="5.81279">
        <ele>1869</ele>
        <time>2015-07-10T07:00:06Z</time>
      </trkpt>
      <trkpt lat="45.36732" lon="5.8128">
        <ele>1873</ele>
        <time>2015-07-10T07:00:19Z</time>
      </trkpt>
      <trkpt lat="45.36741" lon="5.81277">
        <ele>1873.8</ele>
        <time>2015-07-10T07:00:24Z</time>
      </trkpt>
      <trkpt lat="45.36749" lon="5.81277">
        <ele>1874</ele>
        <time>2015-07-10T07:00:34Z</time>
      </trkpt>
      <trkpt lat="45.36755" lon="5.81272">
        <ele>1878.6</ele>
        <time>2015-07-10T07:00:51Z</time>
      </trkpt>
      <trkpt lat="45.36765" lon="5.81274">
        <ele>1877.4</ele>
        <time>2015-07-10T07:01:08Z</time>
      </trkpt>
      <trkpt lat="45.36772" lon="5.81268">
        <ele>1880.6</ele>
        <time>2015-07-10T07:01:25Z</time>
      </trkpt>
      <trkpt lat="45.36782" lon="5.81265">
        <ele>1885.6</ele>
        <time>2015-07-10T07:01:43Z</time>
      </trkpt>
      <trkpt lat="45.36794" lon="5.81262">
        <ele>1886.4</ele>
        <time>2015-07-10T07:02:04Z</time>
      </trkpt>
      <trkpt lat="45.36803" lon="5.81257">
        <ele>1886.4</ele>
        <time>2015-07-10T07:02:15Z</time>
      </trkpt>
      <trkpt lat="45.36812" lon="5.81255">
        <ele>1889.2</ele>
        <time>2015-07-10T07:02:26Z</time>
      </trkpt>
      <trkpt lat="45.36819" lon="5.81254">
        <ele>1893.8</ele>
        <time>2015-07-10T07:02:38Z</time>
      </trkpt>
      <trkpt lat="45.36826" lon="5.81253">
        <ele>1897.6</ele>
        <time>2015-07-10T07:03:01Z</time>
      </trkpt>
      <trkpt lat="45.36833" lon="5.81248">
        <ele>1900.6</ele>
        <time>2015-07-10T07:03:24Z</time>
      </trkpt>
      <trkpt lat="45.3684" lon="5.8126">
        <ele>1899.8</ele>
        <time>2015-07-10T07:03:40Z</time>
      </trkpt>
      <trkpt lat="45.36848" lon="5.81256">
        <ele>1901</ele>
        <time>2015-07-10T07:03:53Z</time>
      </trkpt>
      <trkpt lat="45.36855" lon="5.81253">
        <ele>1903.6</ele>
        <time>2015-07-10T07:04:10Z</time>
      </trkpt>
      <trkpt lat="45.36863" lon="5.81247">
        <ele>1909.2</ele>
        <time>2015-07-10T07:04:25Z</time>
      </trkpt>
      <trkpt lat="45.36873" lon="5.81243">
        <ele>1911.8</ele>
        <time>2015-07-10T07:04:36Z</time>
      </trkpt>
      <trkpt lat="45.3688" lon="5.81244">
        <ele>1917.2</ele>
        <time>2015-07-10T07:04:59Z</time>
      </trkpt>
      <trkpt lat="45.36888" lon="5.81244">
        <ele>1921</ele>
        <time>2015-07-10T07:05:19Z</time>
      </trkpt>
      <trkpt lat="45.36898" lon="5.81247">
        <ele>1926.2</ele>
        <time>2015-07-10T07:05:35Z</time>
      </trkpt>
      <trkpt lat="45.36905" lon="5.81246">
        <ele>1931.8</ele>
        <time>2015-07-10T07:05:54Z</time>
      </trkpt>
      <trkpt lat="45.36913" lon="5.81249">
        <ele>1936.4</ele>
        <time>2015-07-10T07:06:10Z</time>
      </trkpt>
      <trkpt lat="45.3692" lon="5.81256">
        <ele>1939.4</ele>
        <time>2015-07-10T07:06:24Z</time>
      </trkpt>
      <trkpt lat="45.36926" lon="5.81248">
        <ele>1945</ele>
        <time>2015-07-10T07:06:43Z</time>
      </trkpt>
      <trkpt lat="45.36934" lon="5.81243">
        <ele>1950.4</ele>
        <time>2015-07-10T07:07:01Z</time>
      </trkpt>
      <trkpt lat="45.36936" lon="5.81232">
        <ele>1955.8</ele>
        <time>2015-07-10T07:07:22Z</time>
      </trkpt>
      <trkpt lat="45.36943" lon="5.81238">
        <ele>1962.2</ele>
        <time>2015-07-10T07:07:39Z</time>
      </trkpt>
      <trkpt lat="45.36951" lon="5.81235">
        <ele>1969.8</ele>
        <time>2015-07-10T07:08:02Z</time>
      </trkpt>
      <trkpt lat="45.36961" lon="5.81228">
        <ele>1974</ele>
        <time>2015-07-10T07:08:16Z</time>
      </trkpt>
      <trkpt lat="45.36968" lon="5.81222">
        <ele>1977</ele>
        <time>2015-07-10T07:08:27Z</time>
      </trkpt>
      <trkpt lat="45.36977" lon="5.8122">
        <ele>1979.6</ele>
        <time>2015-07-10T07:08:38Z</time>
      </trkpt>
      <trkpt lat="45.36986" lon="5.81218">
        <ele>1982.2</ele>
        <time>2015-07-10T07:08:48Z</time>
      </trkpt>
      <trkpt lat="45.36993" lon="5.81212">
        <ele>1987.4</ele>
        <time>2015-07-10T07:09:01Z</time>
      </trkpt>
      <trkpt lat="45.37003" lon="5.8121">
        <ele>1991.6</ele>
        <time>2015-07-10T07:09:15Z</time>
      </trkpt>
      <trkpt lat="45.37011" lon="5.81217">
        <ele>1996</ele>
        <time>2015-07-10T07:09:33Z</time>
      </trkpt>
      <trkpt lat="45.3702" lon="5.81214">
        <ele>1998</ele>
        <time>2015-07-10T07:09:48Z</time>
      </trkpt>
      <trkpt lat="45.3703" lon="5.81209">
        <ele>2004.4</ele>
        <time>2015-07-10T07:10:06Z</time>
      </trkpt>
      <trkpt lat="45.3704" lon="5.81202">
        <ele>2007.6</ele>
        <time>2015-07-10T07:10:18Z</time>
      </trkpt>
      <trkpt lat="45.37043" lon="5.812">
        <ele>2008</ele>
        <time>2015-07-10T07:10:22Z</time>
      </trkpt>
      <trkpt lat="45.37046" lon="5.81205">
        <ele>2008.8</ele>
        <time>2015-07-10T07:10:30Z</time>
      </trkpt>
      <trkpt lat="45.37051" lon="5.81211">
        <ele>2005.6</ele>
        <time>2015-07-10T07:11:05Z</time>
      </trkpt>
      <trkpt lat="45.3706" lon="5.81219">
        <ele>2002</ele>
        <time>2015-07-10T07:11:17Z</time>
      </trkpt>
      <trkpt lat="45.37062" lon="5.81234">
        <ele>1999</ele>
        <time>2015-07-10T07:11:23Z</time>
      </trkpt>
      <trkpt lat="45.37068" lon="5.81246">
        <ele>1994.4</ele>
        <time>2015-07-10T07:11:29Z</time>
      </trkpt>
      <trkpt lat="45.37069" lon="5.81259">
        <ele>1989.6</ele>
        <time>2015-07-10T07:11:36Z</time>
      </trkpt>
      <trkpt lat="45.37075" lon="5.8127">
        <ele>1984.6</ele>
        <time>2015-07-10T07:11:43Z</time>
      </trkpt>
      <trkpt lat="45.37076" lon="5.81283">
        <ele>1980.8</ele>
        <time>2015-07-10T07:11:48Z</time>
      </trkpt>
      <trkpt lat="45.37073" lon="5.81294">
        <ele>1976.8</ele>
        <time>2015-07-10T07:11:57Z</time>
      </trkpt>
      <trkpt lat="45.37074" lon="5.81306">
        <ele>1972.2</ele>
        <time>2015-07-10T07:12:03Z</time>
      </trkpt>
      <trkpt lat="45.37074" lon="5.81319">
        <ele>1968</ele>
        <time>2015-07-10T07:12:08Z</time>
      </trkpt>
      <trkpt lat="45.37068" lon="5.81328">
        <ele>1963.8</ele>
        <time>2015-07-10T07:12:13Z</time>
      </trkpt>
      <trkpt lat="45.37078" lon="5.81335">
        <ele>1961.6</ele>
        <time>2015-07-10T07:12:18Z</time>
      </trkpt>
      <trkpt lat="45.37085" lon="5.81342">
        <ele>1960</ele>
        <time>2015-07-10T07:12:22Z</time>
      </trkpt>
      <trkpt lat="45.37093" lon="5.81346">
        <ele>1957.4</ele>
        <time>2015-07-10T07:12:29Z</time>
      </trkpt>
      <trkpt lat="45.37098" lon="5.81358">
        <ele>1952.8</ele>
        <time>2015-07-10T07:12:36Z</time>
      </trkpt>
      <trkpt lat="45.37095" lon="5.81372">
        <ele>1947.8</ele>
        <time>2015-07-10T07:12:42Z</time>
      </trkpt>
      <trkpt lat="45.37098" lon="5.81387">
        <ele>1942.6</ele>
        <time>2015-07-10T07:12:47Z</time>
      </trkpt>
      <trkpt lat="45.37099" lon="5.81399">
        <ele>1938.2</ele>
        <time>2015-07-10T07:12:51Z</time>
      </trkpt>
      <trkpt lat="45.37101" lon="5.81415">
        <ele>1934</ele>
        <time>2015-07-10T07:12:55Z</time>
      </trkpt>
      <trkpt lat="45.37105" lon="5.8143">
        <ele>1929</ele>
        <time>2015-07-10T07:12:59Z</time>
      </trkpt>
      <trkpt lat="45.37108" lon="5.81445">
        <ele>1924.2</ele>
        <time>2015-07-10T07:13:03Z</time>
      </trkpt>
      <trkpt lat="45.37112" lon="5.8146">
        <ele>1920</ele>
        <time>2015-07-10T07:13:07Z</time>
      </trkpt>
      <trkpt lat="45.37113" lon="5.81473">
        <ele>1915.8</ele>
        <time>2015-07-10T07:13:11Z</time>
      </trkpt>
      <trkpt lat="45.37113" lon="5.81485">
        <ele>1911.2</ele>
        <time>2015-07-10T07:13:15Z</time>
      </trkpt>
      <trkpt lat="45.37113" lon="5.81498">
        <ele>1907</ele>
        <time>2015-07-10T07:13:20Z</time>
      </trkpt>
      <trkpt lat="45.37107" lon="5.81508">
        <ele>1903</ele>
        <time>2015-07-10T07:13:27Z</time>
      </trkpt>
      <trkpt lat="45.37104" lon="5.81522">
        <ele>1898</ele>
        <time>2015-07-10T07:13:34Z</time>
      </trkpt>
      <trkpt lat="45.37101" lon="5.81534">
        <ele>1893.6</ele>
        <time>2015-07-10T07:13:39Z</time>
      </trkpt>
      <trkpt lat="45.3711" lon="5.81541">
        <ele>1890.4</ele>
        <time>2015-07-10T07:13:44Z</time>
      </trkpt>
      <trkpt lat="45.37116" lon="5.8155">
        <ele>1887</ele>
        <time>2015-07-10T07:13:49Z</time>
      </trkpt>
      <trkpt lat="45.37111" lon="5.81562">
        <ele>1882.8</ele>
        <time>2015-07-10T07:13:54Z</time>
      </trkpt>
      <trkpt lat="45.37107" lon="5.81573">
        <ele>1878.8</ele>
        <time>2015-07-10T07:13:59Z</time>
      </trkpt>
      <trkpt lat="45.37102" lon="5.81583">
        <ele>1875.6</ele>
        <time>2015-07-10T07:14:03Z</time>
      </trkpt>
      <trkpt lat="45.37095" lon="5.81596">
        <ele>1871</ele>
        <time>2015-07-10T07:14:07Z</time>
      </trkpt>
      <trkpt lat="45.37086" lon="5.81605">
        <ele>1868.8</ele>
        <time>2015-07-10T07:14:10Z</time>
      </trkpt>
      <trkpt lat="45.37077" lon="5.81613">
        <ele>1866.4</ele>
        <time>2015-07-10T07:14:13Z</time>
      </trkpt>
      <trkpt lat="45.37068" lon="5.81619">
        <ele>1863.6</ele>
        <time>2015-07-10T07:14:16Z</time>
      </trkpt>
      <trkpt lat="45.3706" lon="5.81623">
        <ele>1861.2</ele>
        <time>2015-07-10T07:14:20Z</time>
      </trkpt>
      <trkpt lat="45.37051" lon="5.81622">
        <ele>1857.8</ele>
        <time>2015-07-10T07:14:26Z</time>
      </trkpt>
      <trkpt lat="45.37041" lon="5.81625">
        <ele>1852.6</ele>
        <time>2015-07-10T07:14:33Z</time>
      </trkpt>
      <trkpt lat="45.37036" lon="5.81623">
        <ele>1848.2</ele>
        <time>2015-07-10T07:14:41Z</time>
      </trkpt>
      <trkpt lat="45.37027" lon="5.81615">
        <ele>1842.6</ele>
        <time>2015-07-10T07:14:53Z</time>
      </trkpt>
      <trkpt lat="45.37016" lon="5.81617">
        <ele>1838.4</ele>
        <time>2015-07-10T07:15:01Z</time>
      </trkpt>
      <trkpt lat="45.3701" lon="5.81615">
        <ele>1834.6</ele>
        <time>2015-07-10T07:15:09Z</time>
      </trkpt>
      <trkpt lat="45.37004" lon="5.81609">
        <ele>1828.2</ele>
        <time>2015-07-10T07:15:20Z</time>
      </trkpt>
      <trkpt lat="45.36996" lon="5.81617">
        <ele>1821.8</ele>
        <time>2015-07-10T07:15:33Z</time>
      </trkpt>
      <trkpt lat="45.36989" lon="5.81608">
        <ele>1816</ele>
        <time>2015-07-10T07:15:43Z</time>
      </trkpt>
      <trkpt lat="45.36983" lon="5.81606">
        <ele>1810.4</ele>
        <time>2015-07-10T07:15:54Z</time>
      </trkpt>
      <trkpt lat="45.36978" lon="5.81604">
        <ele>1803.4</ele>
        <time>2015-07-10T07:16:06Z</time>
      </trkpt>
      <trkpt lat="45.36972" lon="5.8161">
        <ele>1798.8</ele>
        <time>2015-07-10T07:16:16Z</time>
      </trkpt>
      <trkpt lat="45.36965" lon="5.81623">
        <ele>1794.6</ele>
        <time>2015-07-10T07:16:24Z</time>
      </trkpt>
      <trkpt lat="45.36959" lon="5.81631">
        <ele>1788.6</ele>
        <time>2015-07-10T07:16:42Z</time>
      </trkpt>
      <trkpt lat="45.36953" lon="5.81646">
        <ele>1781.6</ele>
        <time>2015-07-10T07:16:57Z</time>
      </trkpt>
      <trkpt lat="45.36949" lon="5.81656">
        <ele>1779.4</ele>
        <time>2015-07-10T07:17:03Z</time>
      </trkpt>
      <trkpt lat="45.36957" lon="5.81665">
        <ele>1776</ele>
        <time>2015-07-10T07:17:13Z</time>
      </trkpt>
      <trkpt lat="45.36962" lon="5.81678">
        <ele>1771.4</ele>
        <time>2015-07-10T07:17:23Z</time>
      </trkpt>
      <trkpt lat="45.36968" lon="5.81688">
        <ele>1766.2</ele>
        <time>2015-07-10T07:17:33Z</time>
      </trkpt>
      <trkpt lat="45.3697" lon="5.81699">
        <ele>1760.8</ele>
        <time>2015-07-10T07:17:44Z</time>
      </trkpt>
      <trkpt lat="45.36963" lon="5.81701">
        <ele>1756</ele>
        <time>2015-07-10T07:17:58Z</time>
      </trkpt>
      <trkpt lat="45.36962" lon="5.81715">
        <ele>1749.4</ele>
        <time>2015-07-10T07:18:16Z</time>
      </trkpt>
      <trkpt lat="45.36968" lon="5.81724">
        <ele>1744</ele>
        <time>2015-07-10T07:18:28Z</time>
      </trkpt>
      <trkpt lat="45.36976" lon="5.81734">
        <ele>1738.6</ele>
        <time>2015-07-10T07:18:38Z</time>
      </trkpt>
      <trkpt lat="45.36983" lon="5.81743">
        <ele>1737.2</ele>
        <time>2015-07-10T07:18:43Z</time>
      </trkpt>
      <trkpt lat="45.36989" lon="5.81752">
        <ele>1736.4</ele>
        <time>2015-07-10T07:18:48Z</time>
      </trkpt>
      <trkpt lat="45.36996" lon="5.81762">
        <ele>1731.8</ele>
        <time>2015-07-10T07:19:07Z</time>
      </trkpt>
      <trkpt lat="45.36991" lon="5.81769">
        <ele>1726.8</ele>
        <time>2015-07-10T07:19:22Z</time>
      </trkpt>
      <trkpt lat="45.36992" lon="5.81777">
        <ele>1719.8</ele>
        <time>2015-07-10T07:19:38Z</time>
      </trkpt>
      <trkpt lat="45.36993" lon="5.81794">
        <ele>1711.8</ele>
        <time>2015-07-10T07:20:03Z</time>
      </trkpt>
      <trkpt lat="45.36997" lon="5.81807">
        <ele>1706.8</ele>
        <time>2015-07-10T07:20:13Z</time>
      </trkpt>
      <trkpt lat="45.37006" lon="5.81818">
        <ele>1702.8</ele>
        <time>2015-07-10T07:20:22Z</time>
      </trkpt>
      <trkpt lat="45.37017" lon="5.8182">
        <ele>1699</ele>
        <time>2015-07-10T07:20:32Z</time>
      </trkpt>
      <trkpt lat="45.37026" lon="5.81827">
        <ele>1691.6</ele>
        <time>2015-07-10T07:20:50Z</time>
      </trkpt>
      <trkpt lat="45.3703" lon="5.81836">
        <ele>1685.8</ele>
        <time>2015-07-10T07:21:07Z</time>
      </trkpt>
      <trkpt lat="45.37038" lon="5.81844">
        <ele>1682.8</ele>
        <time>2015-07-10T07:21:18Z</time>
      </trkpt>
      <trkpt lat="45.37046" lon="5.81853">
        <ele>1680.2</ele>
        <time>2015-07-10T07:21:25Z</time>
      </trkpt>
      <trkpt lat="45.37053" lon="5.81864">
        <ele>1678.4</ele>
        <time>2015-07-10T07:21:28Z</time>
      </trkpt>
      <trkpt lat="45.3706" lon="5.81872">
        <ele>1676</ele>
        <time>2015-07-10T07:21:31Z</time>
      </trkpt>
      <trkpt lat="45.37072" lon="5.81877">
        <ele>1673.8</ele>
        <time>2015-07-10T07:21:35Z</time>
      </trkpt>
      <trkpt lat="45.37082" lon="5.81879">
        <ele>1672.6</ele>
        <time>2015-07-10T07:21:39Z</time>
      </trkpt>
      <trkpt lat="45.37088" lon="5.81878">
        <ele>1674.6</ele>
        <time>2015-07-10T07:21:46Z</time>
      </trkpt>
      <trkpt lat="45.37095" lon="5.81881">
        <ele>1674</ele>
        <time>2015-07-10T07:21:52Z</time>
      </trkpt>
      <trkpt lat="45.37101" lon="5.81893">
        <ele>1672.6</ele>
        <time>2015-07-10T07:21:56Z</time>
      </trkpt>
      <trkpt lat="45.37106" lon="5.81908">
        <ele>1672.4</ele>
        <time>2015-07-10T07:22:00Z</time>
      </trkpt>
      <trkpt lat="45.37113" lon="5.81918">
        <ele>1671.6</ele>
        <time>2015-07-10T07:22:04Z</time>
      </trkpt>
      <trkpt lat="45.37119" lon="5.81928">
        <ele>1671.6</ele>
        <time>2015-07-10T07:22:08Z</time>
      </trkpt>
      <trkpt lat="45.37126" lon="5.81941">
        <ele>1670.4</ele>
        <time>2015-07-10T07:22:12Z</time>
      </trkpt>
      <trkpt lat="45.3713" lon="5.81952">
        <ele>1668.4</ele>
        <time>2015-07-10T07:22:16Z</time>
      </trkpt>
      <trkpt lat="45.37133" lon="5.81964">
        <ele>1665.4</ele>
        <time>2015-07-10T07:22:21Z</time>
      </trkpt>
      <trkpt lat="45.37129" lon="5.81972">
        <ele>1660.4</ele>
        <time>2015-07-10T07:22:29Z</time>
      </trkpt>
      <trkpt lat="45.37131" lon="5.81986">
        <ele>1656.6</ele>
        <time>2015-07-10T07:22:35Z</time>
      </trkpt>
      <trkpt lat="45.37133" lon="5.81996">
        <ele>1652.6</ele>
        <time>2015-07-10T07:22:42Z</time>
      </trkpt>
      <trkpt lat="45.37131" lon="5.82008">
        <ele>1648.6</ele>
        <time>2015-07-10T07:22:49Z</time>
      </trkpt>
      <trkpt lat="45.37133" lon="5.8202">
        <ele>1645.6</ele>
        <time>2015-07-10T07:22:55Z</time>
      </trkpt>
      <trkpt lat="45.37134" lon="5.82033">
        <ele>1642.6</ele>
        <time>2015-07-10T07:22:59Z</time>
      </trkpt>
      <trkpt lat="45.37138" lon="5.82048">
        <ele>1640.4</ele>
        <time>2015-07-10T07:23:04Z</time>
      </trkpt>
      <trkpt lat="45.37139" lon="5.82063">
        <ele>1638</ele>
        <time>2015-07-10T07:23:07Z</time>
      </trkpt>
      <trkpt lat="45.37142" lon="5.82078">
        <ele>1636.8</ele>
        <time>2015-07-10T07:23:10Z</time>
      </trkpt>
      <trkpt lat="45.37142" lon="5.82092">
        <ele>1635</ele>
        <time>2015-07-10T07:23:13Z</time>
      </trkpt>
      <trkpt lat="45.37135" lon="5.82105">
        <ele>1633.4</ele>
        <time>2015-07-10T07:23:17Z</time>
      </trkpt>
      <trkpt lat="45.37129" lon="5.82115">
        <ele>1632.8</ele>
        <time>2015-07-10T07:23:20Z</time>
      </trkpt>
      <trkpt lat="45.37122" lon="5.82124">
        <ele>1632.4</ele>
        <time>2015-07-10T07:23:24Z</time>
      </trkpt>
      <trkpt lat="45.37114" lon="5.82134">
        <ele>1631.4</ele>
        <time>2015-07-10T07:23:28Z</time>
      </trkpt>
      <trkpt lat="45.37107" lon="5.82146">
        <ele>1631</ele>
        <time>2015-07-10T07:23:32Z</time>
      </trkpt>
      <trkpt lat="45.37098" lon="5.82156">
        <ele>1631</ele>
        <time>2015-07-10T07:23:36Z</time>
      </trkpt>
      <trkpt lat="45.37095" lon="5.82172">
        <ele>1630.4</ele>
        <time>2015-07-10T07:23:40Z</time>
      </trkpt>
      <trkpt lat="45.37091" lon="5.82186">
        <ele>1629.8</ele>
        <time>2015-07-10T07:23:43Z</time>
      </trkpt>
      <trkpt lat="45.37088" lon="5.82203">
        <ele>1628.2</ele>
        <time>2015-07-10T07:23:47Z</time>
      </trkpt>
      <trkpt lat="45.37089" lon="5.82218">
        <ele>1628.2</ele>
        <time>2015-07-10T07:23:51Z</time>
      </trkpt>
      <trkpt lat="45.37085" lon="5.82232">
        <ele>1628.2</ele>
        <time>2015-07-10T07:23:55Z</time>
      </trkpt>
      <trkpt lat="45.37081" lon="5.82246">
        <ele>1627.8</ele>
        <time>2015-07-10T07:23:59Z</time>
      </trkpt>
      <trkpt lat="45.37078" lon="5.82258">
        <ele>1625.6</ele>
        <time>2015-07-10T07:24:03Z</time>
      </trkpt>
      <trkpt lat="45.3708" lon="5.82271">
        <ele>1622.4</ele>
        <time>2015-07-10T07:24:07Z</time>
      </trkpt>
      <trkpt lat="45.37085" lon="5.82284">
        <ele>1619.6</ele>
        <time>2015-07-10T07:24:12Z</time>
      </trkpt>
      <trkpt lat="45.37073" lon="5.82282">
        <ele>1617.6</ele>
        <time>2015-07-10T07:24:17Z</time>
      </trkpt>
      <trkpt lat="45.37061" lon="5.8228">
        <ele>1614.6</ele>
        <time>2015-07-10T07:24:22Z</time>
      </trkpt>
      <trkpt lat="45.37061" lon="5.82293">
        <ele>1610.8</ele>
        <time>2015-07-10T07:24:27Z</time>
      </trkpt>
      <trkpt lat="45.3706" lon="5.82302">
        <ele>1606.8</ele>
        <time>2015-07-10T07:24:32Z</time>
      </trkpt>
      <trkpt lat="45.3705" lon="5.82299">
        <ele>1604.4</ele>
        <time>2015-07-10T07:24:36Z</time>
      </trkpt>
      <trkpt lat="45.37042" lon="5.82295">
        <ele>1601.8</ele>
        <time>2015-07-10T07:24:42Z</time>
      </trkpt>
      <trkpt lat="45.37046" lon="5.8231">
        <ele>1598.8</ele>
        <time>2015-07-10T07:24:47Z</time>
      </trkpt>
      <trkpt lat="45.37039" lon="5.82316">
        <ele>1594.8</ele>
        <time>2015-07-10T07:24:54Z</time>
      </trkpt>
      <trkpt lat="45.37029" lon="5.82316">
        <ele>1591.4</ele>
        <time>2015-07-10T07:25:00Z</time>
      </trkpt>
      <trkpt lat="45.3702" lon="5.8233">
        <ele>1585.8</ele>
        <time>2015-07-10T07:25:06Z</time>
      </trkpt>
      <trkpt lat="45.37009" lon="5.82328">
        <ele>1582</ele>
        <time>2015-07-10T07:25:11Z</time>
      </trkpt>
      <trkpt lat="45.37003" lon="5.82341">
        <ele>1578</ele>
        <time>2015-07-10T07:25:17Z</time>
      </trkpt>
      <trkpt lat="45.36994" lon="5.82351">
        <ele>1573.8</ele>
        <time>2015-07-10T07:25:22Z</time>
      </trkpt>
      <trkpt lat="45.36984" lon="5.82355">
        <ele>1571.4</ele>
        <time>2015-07-10T07:25:26Z</time>
      </trkpt>
      <trkpt lat="45.36974" lon="5.82361">
        <ele>1568.6</ele>
        <time>2015-07-10T07:25:30Z</time>
      </trkpt>
      <trkpt lat="45.36968" lon="5.82371">
        <ele>1564.4</ele>
        <time>2015-07-10T07:25:34Z</time>
      </trkpt>
      <trkpt lat="45.36961" lon="5.82378">
        <ele>1560.4</ele>
        <time>2015-07-10T07:25:41Z</time>
      </trkpt>
      <trkpt lat="45.3695" lon="5.82366">
        <ele>1558.4</ele>
        <time>2015-07-10T07:25:52Z</time>
      </trkpt>
      <trkpt lat="45.36945" lon="5.82352">
        <ele>1555.4</ele>
        <time>2015-07-10T07:26:00Z</time>
      </trkpt>
      <trkpt lat="45.36943" lon="5.82366">
        <ele>1553.8</ele>
        <time>2015-07-10T07:26:06Z</time>
      </trkpt>
      <trkpt lat="45.36944" lon="5.82379">
        <ele>1551.8</ele>
        <time>2015-07-10T07:26:12Z</time>
      </trkpt>
      <trkpt lat="45.3694" lon="5.82395">
        <ele>1549.6</ele>
        <time>2015-07-10T07:26:18Z</time>
      </trkpt>
      <trkpt lat="45.36932" lon="5.82395">
        <ele>1545.6</ele>
        <time>2015-07-10T07:26:25Z</time>
      </trkpt>
      <trkpt lat="45.36929" lon="5.82383">
        <ele>1544</ele>
        <time>2015-07-10T07:26:32Z</time>
      </trkpt>
      <trkpt lat="45.36926" lon="5.82379">
        <ele>1540</ele>
        <time>2015-07-10T07:26:42Z</time>
      </trkpt>
      <trkpt lat="45.3692" lon="5.82393">
        <ele>1536.6</ele>
        <time>2015-07-10T07:26:49Z</time>
      </trkpt>
      <trkpt lat="45.36916" lon="5.82405">
        <ele>1535.2</ele>
        <time>2015-07-10T07:26:56Z</time>
      </trkpt>
      <trkpt lat="45.36907" lon="5.82423">
        <ele>1531.2</ele>
        <time>2015-07-10T07:27:10Z</time>
      </trkpt>
      <trkpt lat="45.36904" lon="5.82418">
        <ele>1528.8</ele>
        <time>2015-07-10T07:27:17Z</time>
      </trkpt>
      <trkpt lat="45.36898" lon="5.824">
        <ele>1526.2</ele>
        <time>2015-07-10T07:27:31Z</time>
      </trkpt>
      <trkpt lat="45.36895" lon="5.82387">
        <ele>1524</ele>
        <time>2015-07-10T07:27:36Z</time>
      </trkpt>
      <trkpt lat="45.36893" lon="5.82372">
        <ele>1523.2</ele>
        <time>2015-07-10T07:27:41Z</time>
      </trkpt>
      <trkpt lat="45.36887" lon="5.82355">
        <ele>1522</ele>
        <time>2015-07-10T07:27:46Z</time>
      </trkpt>
      <trkpt lat="45.36886" lon="5.82341">
        <ele>1520.8</ele>
        <time>2015-07-10T07:27:50Z</time>
      </trkpt>
      <trkpt lat="45.36886" lon="5.82325">
        <ele>1518.4</ele>
        <time>2015-07-10T07:27:55Z</time>
      </trkpt>
      <trkpt lat="45.36887" lon="5.82307">
        <ele>1516.2</ele>
        <time>2015-07-10T07:27:59Z</time>
      </trkpt>
      <trkpt lat="45.3689" lon="5.82288">
        <ele>1514</ele>
        <time>2015-07-10T07:28:03Z</time>
      </trkpt>
      <trkpt lat="45.36887" lon="5.82285">
        <ele>1511</ele>
        <time>2015-07-10T07:28:10Z</time>
      </trkpt>
      <trkpt lat="45.36879" lon="5.82294">
        <ele>1510.2</ele>
        <time>2015-07-10T07:28:14Z</time>
      </trkpt>
      <trkpt lat="45.36874" lon="5.82308">
        <ele>1507.4</ele>
        <time>2015-07-10T07:28:19Z</time>
      </trkpt>
      <trkpt lat="45.36868" lon="5.82316">
        <ele>1506</ele>
        <time>2015-07-10T07:28:23Z</time>
      </trkpt>
      <trkpt lat="45.3686" lon="5.82325">
        <ele>1504.2</ele>
        <time>2015-07-10T07:28:27Z</time>
      </trkpt>
      <trkpt lat="45.36849" lon="5.82335">
        <ele>1502.4</ele>
        <time>2015-07-10T07:28:31Z</time>
      </trkpt>
      <trkpt lat="45.36843" lon="5.82348">
        <ele>1499.2</ele>
        <time>2015-07-10T07:28:35Z</time>
      </trkpt>
      <trkpt lat="45.36837" lon="5.82358">
        <ele>1498</ele>
        <time>2015-07-10T07:28:40Z</time>
      </trkpt>
      <trkpt lat="45.36829" lon="5.82358">
        <ele>1491.6</ele>
        <time>2015-07-10T07:28:48Z</time>
      </trkpt>
      <trkpt lat="45.36822" lon="5.82344">
        <ele>1490.6</ele>
        <time>2015-07-10T07:28:53Z</time>
      </trkpt>
      <trkpt lat="45.36819" lon="5.82329">
        <ele>1488</ele>
        <time>2015-07-10T07:28:59Z</time>
      </trkpt>
      <trkpt lat="45.36826" lon="5.82315">
        <ele>1486.4</ele>
        <time>2015-07-10T07:29:04Z</time>
      </trkpt>
      <trkpt lat="45.36831" lon="5.82303">
        <ele>1484.4</ele>
        <time>2015-07-10T07:29:08Z</time>
      </trkpt>
      <trkpt lat="45.36835" lon="5.82287">
        <ele>1482.6</ele>
        <time>2015-07-10T07:29:13Z</time>
      </trkpt>
      <trkpt lat="45.3683" lon="5.82288">
        <ele>1479</ele>
        <time>2015-07-10T07:29:19Z</time>
      </trkpt>
      <trkpt lat="45.36823" lon="5.82298">
        <ele>1477.6</ele>
        <time>2015-07-10T07:29:24Z</time>
      </trkpt>
      <trkpt lat="45.36814" lon="5.82305">
        <ele>1476</ele>
        <time>2015-07-10T07:29:28Z</time>
      </trkpt>
      <trkpt lat="45.3681" lon="5.82301">
        <ele>1472.2</ele>
        <time>2015-07-10T07:29:35Z</time>
      </trkpt>
      <trkpt lat="45.36816" lon="5.8229">
        <ele>1470.8</ele>
        <time>2015-07-10T07:29:39Z</time>
      </trkpt>
      <trkpt lat="45.3682" lon="5.82277">
        <ele>1469.4</ele>
        <time>2015-07-10T07:29:44Z</time>
      </trkpt>
      <trkpt lat="45.36819" lon="5.82264">
        <ele>1463.4</ele>
        <time>2015-07-10T07:29:59Z</time>
      </trkpt>
      <trkpt lat="45.3681" lon="5.82273">
        <ele>1462.8</ele>
        <time>2015-07-10T07:30:10Z</time>
      </trkpt>
      <trkpt lat="45.368" lon="5.8228">
        <ele>1460.8</ele>
        <time>2015-07-10T07:30:15Z</time>
      </trkpt>
      <trkpt lat="45.36788" lon="5.82289">
        <ele>1458.8</ele>
        <time>2015-07-10T07:30:20Z</time>
      </trkpt>
      <trkpt lat="45.36779" lon="5.82296">
        <ele>1458.4</ele>
        <time>2015-07-10T07:30:24Z</time>
      </trkpt>
      <trkpt lat="45.36776" lon="5.82292">
        <ele>1455.2</ele>
        <time>2015-07-10T07:30:29Z</time>
      </trkpt>
      <trkpt lat="45.36781" lon="5.8228">
        <ele>1452.8</ele>
        <time>2015-07-10T07:30:34Z</time>
      </trkpt>
      <trkpt lat="45.36785" lon="5.82268">
        <ele>1450</ele>
        <time>2015-07-10T07:30:39Z</time>
      </trkpt>
      <trkpt lat="45.3679" lon="5.82253">
        <ele>1446.8</ele>
        <time>2015-07-10T07:30:43Z</time>
      </trkpt>
      <trkpt lat="45.36796" lon="5.82239">
        <ele>1445.4</ele>
        <time>2015-07-10T07:30:48Z</time>
      </trkpt>
      <trkpt lat="45.36795" lon="5.82225">
        <ele>1442.4</ele>
        <time>2015-07-10T07:30:54Z</time>
      </trkpt>
      <trkpt lat="45.36787" lon="5.82211">
        <ele>1441.6</ele>
        <time>2015-07-10T07:30:59Z</time>
      </trkpt>
      <trkpt lat="45.36777" lon="5.82205">
        <ele>1439</ele>
        <time>2015-07-10T07:31:03Z</time>
      </trkpt>
      <trkpt lat="45.36769" lon="5.82196">
        <ele>1437.4</ele>
        <time>2015-07-10T07:31:07Z</time>
      </trkpt>
      <trkpt lat="45.36763" lon="5.82185">
        <ele>1436.6</ele>
        <time>2015-07-10T07:31:11Z</time>
      </trkpt>
      <trkpt lat="45.36757" lon="5.82174">
        <ele>1434.6</ele>
        <time>2015-07-10T07:31:15Z</time>
      </trkpt>
      <trkpt lat="45.36752" lon="5.82161">
        <ele>1432</ele>
        <time>2015-07-10T07:31:20Z</time>
      </trkpt>
      <trkpt lat="45.36745" lon="5.82146">
        <ele>1429.2</ele>
        <time>2015-07-10T07:31:25Z</time>
      </trkpt>
      <trkpt lat="45.36743" lon="5.82134">
        <ele>1427</ele>
        <time>2015-07-10T07:31:30Z</time>
      </trkpt>
      <trkpt lat="45.36738" lon="5.82147">
        <ele>1423.6</ele>
        <time>2015-07-10T07:31:36Z</time>
      </trkpt>
      <trkpt lat="45.36738" lon="5.8216">
        <ele>1421.4</ele>
        <time>2015-07-10T07:31:41Z</time>
      </trkpt>
      <trkpt lat="45.36742" lon="5.82174">
        <ele>1420</ele>
        <time>2015-07-10T07:31:47Z</time>
      </trkpt>
      <trkpt lat="45.36747" lon="5.82187">
        <ele>1419.4</ele>
        <time>2015-07-10T07:31:53Z</time>
      </trkpt>
      <trkpt lat="45.36753" lon="5.82201">
        <ele>1415.6</ele>
        <time>2015-07-10T07:31:59Z</time>
      </trkpt>
      <trkpt lat="45.36754" lon="5.82216">
        <ele>1413</ele>
        <time>2015-07-10T07:32:06Z</time>
      </trkpt>
      <trkpt lat="45.36756" lon="5.82229">
        <ele>1407</ele>
        <time>2015-07-10T07:32:23Z</time>
      </trkpt>
      <trkpt lat="45.36747" lon="5.82228">
        <ele>1400.2</ele>
        <time>2015-07-10T07:32:39Z</time>
      </trkpt>
      <trkpt lat="45.36732" lon="5.82228">
        <ele>1393.8</ele>
        <time>2015-07-10T07:32:50Z</time>
      </trkpt>
      <trkpt lat="45.36719" lon="5.82227">
        <ele>1387.8</ele>
        <time>2015-07-10T07:33:01Z</time>
      </trkpt>
      <trkpt lat="45.3671" lon="5.82218">
        <ele>1386.4</ele>
        <time>2015-07-10T07:33:05Z</time>
      </trkpt>
      <trkpt lat="45.36699" lon="5.82206">
        <ele>1384.8</ele>
        <time>2015-07-10T07:33:09Z</time>
      </trkpt>
      <trkpt lat="45.3669" lon="5.82197">
        <ele>1382</ele>
        <time>2015-07-10T07:33:14Z</time>
      </trkpt>
      <trkpt lat="45.36687" lon="5.82184">
        <ele>1379.8</ele>
        <time>2015-07-10T07:33:19Z</time>
      </trkpt>
      <trkpt lat="45.36681" lon="5.82199">
        <ele>1375</ele>
        <time>2015-07-10T07:33:25Z</time>
      </trkpt>
      <trkpt lat="45.36678" lon="5.82209">
        <ele>1372.4</ele>
        <time>2015-07-10T07:33:30Z</time>
      </trkpt>
      <trkpt lat="45.36677" lon="5.8222">
        <ele>1368.2</ele>
        <time>2015-07-10T07:33:38Z</time>
      </trkpt>
      <trkpt lat="45.36671" lon="5.82215">
        <ele>1366.2</ele>
        <time>2015-07-10T07:33:43Z</time>
      </trkpt>
      <trkpt lat="45.36665" lon="5.82211">
        <ele>1361.2</ele>
        <time>2015-07-10T07:33:52Z</time>
      </trkpt>
      <trkpt lat="45.36669" lon="5.82226">
        <ele>1358.8</ele>
        <time>2015-07-10T07:33:57Z</time>
      </trkpt>
      <trkpt lat="45.3667" lon="5.82242">
        <ele>1357</ele>
        <time>2015-07-10T07:34:02Z</time>
      </trkpt>
      <trkpt lat="45.36664" lon="5.82257">
        <ele>1355.6</ele>
        <time>2015-07-10T07:34:06Z</time>
      </trkpt>
      <trkpt lat="45.36657" lon="5.82271">
        <ele>1353</ele>
        <time>2015-07-10T07:34:10Z</time>
      </trkpt>
      <trkpt lat="45.36651" lon="5.82283">
        <ele>1350.2</ele>
        <time>2015-07-10T07:34:15Z</time>
      </trkpt>
      <trkpt lat="45.36647" lon="5.823">
        <ele>1347.6</ele>
        <time>2015-07-10T07:34:20Z</time>
      </trkpt>
      <trkpt lat="45.36644" lon="5.82315">
        <ele>1345.6</ele>
        <time>2015-07-10T07:34:24Z</time>
      </trkpt>
      <trkpt lat="45.36639" lon="5.82332">
        <ele>1344.4</ele>
        <time>2015-07-10T07:34:28Z</time>
      </trkpt>
      <trkpt lat="45.36638" lon="5.82346">
        <ele>1342.8</ele>
        <time>2015-07-10T07:34:32Z</time>
      </trkpt>
      <trkpt lat="45.36639" lon="5.82362">
        <ele>1340.6</ele>
        <time>2015-07-10T07:34:37Z</time>
      </trkpt>
      <trkpt lat="45.36639" lon="5.82377">
        <ele>1338.2</ele>
        <time>2015-07-10T07:34:41Z</time>
      </trkpt>
      <trkpt lat="45.36631" lon="5.82375">
        <ele>1334</ele>
        <time>2015-07-10T07:34:50Z</time>
      </trkpt>
      <trkpt lat="45.36629" lon="5.82363">
        <ele>1331.4</ele>
        <time>2015-07-10T07:34:54Z</time>
      </trkpt>
      <trkpt lat="45.36626" lon="5.82351">
        <ele>1331</ele>
        <time>2015-07-10T07:34:58Z</time>
      </trkpt>
      <trkpt lat="45.36623" lon="5.82337">
        <ele>1328.8</ele>
        <time>2015-07-10T07:35:02Z</time>
      </trkpt>
      <trkpt lat="45.36621" lon="5.82324">
        <ele>1327.8</ele>
        <time>2015-07-10T07:35:06Z</time>
      </trkpt>
      <trkpt lat="45.3662" lon="5.82313">
        <ele>1326.4</ele>
        <time>2015-07-10T07:35:11Z</time>
      </trkpt>
      <trkpt lat="45.36615" lon="5.82294">
        <ele>1324.6</ele>
        <time>2015-07-10T07:35:17Z</time>
      </trkpt>
      <trkpt lat="45.36608" lon="5.82275">
        <ele>1322.8</ele>
        <time>2015-07-10T07:35:22Z</time>
      </trkpt>
      <trkpt lat="45.36606" lon="5.82257">
        <ele>1319.8</ele>
        <time>2015-07-10T07:35:29Z</time>
      </trkpt>
      <trkpt lat="45.36596" lon="5.82267">
        <ele>1316.6</ele>
        <time>2015-07-10T07:35:36Z</time>
      </trkpt>
      <trkpt lat="45.36588" lon="5.82276">
        <ele>1313</ele>
        <time>2015-07-10T07:35:42Z</time>
      </trkpt>
      <trkpt lat="45.3658" lon="5.82288">
        <ele>1308.4</ele>
        <time>2015-07-10T07:35:48Z</time>
      </trkpt>
      <trkpt lat="45.36574" lon="5.82299">
        <ele>1305.2</ele>
        <time>2015-07-10T07:35:54Z</time>
      </trkpt>
      <trkpt lat="45.36574" lon="5.82314">
        <ele>1300.2</ele>
        <time>2015-07-10T07:36:02Z</time>
      </trkpt>
      <trkpt lat="45.36566" lon="5.82329">
        <ele>1296.8</ele>
        <time>2015-07-10T07:36:09Z</time>
      </trkpt>
      <trkpt lat="45.3656" lon="5.82341">
        <ele>1294</ele>
        <time>2015-07-10T07:36:16Z</time>
      </trkpt>
      <trkpt lat="45.36556" lon="5.82355">
        <ele>1290.6</ele>
        <time>2015-07-10T07:36:21Z</time>
      </trkpt>
      <trkpt lat="45.36554" lon="5.82372">
        <ele>1286.6</ele>
        <time>2015-07-10T07:36:28Z</time>
      </trkpt>
      <trkpt lat="45.36552" lon="5.82387">
        <ele>1282.6</ele>
        <time>2015-07-10T07:36:36Z</time>
      </trkpt>
      <trkpt lat="45.36546" lon="5.82399">
        <ele>1278.6</ele>
        <time>2015-07-10T07:36:46Z</time>
      </trkpt>
      <trkpt lat="45.36537" lon="5.82407">
        <ele>1275</ele>
        <time>2015-07-10T07:36:53Z</time>
      </trkpt>
      <trkpt lat="45.36526" lon="5.82415">
        <ele>1270.8</ele>
        <time>2015-07-10T07:37:01Z</time>
      </trkpt>
      <trkpt lat="45.36521" lon="5.82421">
        <ele>1268.6</ele>
        <time>2015-07-10T07:37:11Z</time>
      </trkpt>
      <trkpt lat="45.36518" lon="5.82433">
        <ele>1264.4</ele>
        <time>2015-07-10T07:37:19Z</time>
      </trkpt>
      <trkpt lat="45.36517" lon="5.82451">
        <ele>1259.8</ele>
        <time>2015-07-10T07:37:31Z</time>
      </trkpt>
      <trkpt lat="45.36514" lon="5.82469">
        <ele>1255</ele>
        <time>2015-07-10T07:37:40Z</time>
      </trkpt>
      <trkpt lat="45.36506" lon="5.82478">
        <ele>1250.4</ele>
        <time>2015-07-10T07:37:50Z</time>
      </trkpt>
      <trkpt lat="45.36501" lon="5.82489">
        <ele>1245.8</ele>
        <time>2015-07-10T07:38:02Z</time>
      </trkpt>
      <trkpt lat="45.36498" lon="5.82505">
        <ele>1241.8</ele>
        <time>2015-07-10T07:38:22Z</time>
      </trkpt>
      <trkpt lat="45.3649" lon="5.82521">
        <ele>1237</ele>
        <time>2015-07-10T07:38:34Z</time>
      </trkpt>
      <trkpt lat="45.36485" lon="5.82532">
        <ele>1231.6</ele>
        <time>2015-07-10T07:38:44Z</time>
      </trkpt>
      <trkpt lat="45.36478" lon="5.8255">
        <ele>1227.8</ele>
        <time>2015-07-10T07:38:52Z</time>
      </trkpt>
      <trkpt lat="45.36472" lon="5.82568">
        <ele>1226.2</ele>
        <time>2015-07-10T07:38:58Z</time>
      </trkpt>
      <trkpt lat="45.36463" lon="5.82583">
        <ele>1224.2</ele>
        <time>2015-07-10T07:39:02Z</time>
      </trkpt>
      <trkpt lat="45.36455" lon="5.82593">
        <ele>1222.6</ele>
        <time>2015-07-10T07:39:05Z</time>
      </trkpt>
      <trkpt lat="45.36447" lon="5.82603">
        <ele>1221</ele>
        <time>2015-07-10T07:39:09Z</time>
      </trkpt>
      <trkpt lat="45.3644" lon="5.82615">
        <ele>1217.2</ele>
        <time>2015-07-10T07:39:13Z</time>
      </trkpt>
      <trkpt lat="45.3643" lon="5.82621">
        <ele>1213.2</ele>
        <time>2015-07-10T07:39:17Z</time>
      </trkpt>
      <trkpt lat="45.36421" lon="5.82628">
        <ele>1208</ele>
        <time>2015-07-10T07:39:22Z</time>
      </trkpt>
      <trkpt lat="45.36411" lon="5.8264">
        <ele>1203.6</ele>
        <time>2015-07-10T07:39:27Z</time>
      </trkpt>
      <trkpt lat="45.36403" lon="5.82651">
        <ele>1198.6</ele>
        <time>2015-07-10T07:39:32Z</time>
      </trkpt>
      <trkpt lat="45.36396" lon="5.82658">
        <ele>1194.6</ele>
        <time>2015-07-10T07:39:36Z</time>
      </trkpt>
      <trkpt lat="45.36387" lon="5.82665">
        <ele>1191.2</ele>
        <time>2015-07-10T07:39:40Z</time>
      </trkpt>
      <trkpt lat="45.36377" lon="5.82676">
        <ele>1188.4</ele>
        <time>2015-07-10T07:39:44Z</time>
      </trkpt>
      <trkpt lat="45.36371" lon="5.82689">
        <ele>1183.8</ele>
        <time>2015-07-10T07:39:48Z</time>
      </trkpt>
      <trkpt lat="45.36362" lon="5.82696">
        <ele>1181.2</ele>
        <time>2015-07-10T07:39:52Z</time>
      </trkpt>
      <trkpt lat="45.36353" lon="5.82703">
        <ele>1177.4</ele>
        <time>2015-07-10T07:39:56Z</time>
      </trkpt>
      <trkpt lat="45.36343" lon="5.82712">
        <ele>1174.2</ele>
        <time>2015-07-10T07:40:00Z</time>
      </trkpt>
      <trkpt lat="45.36333" lon="5.82718">
        <ele>1172.6</ele>
        <time>2015-07-10T07:40:04Z</time>
      </trkpt>
      <trkpt lat="45.36323" lon="5.82725">
        <ele>1169.2</ele>
        <time>2015-07-10T07:40:08Z</time>
      </trkpt>
      <trkpt lat="45.36316" lon="5.82737">
        <ele>1166.2</ele>
        <time>2015-07-10T07:40:12Z</time>
      </trkpt>
      <trkpt lat="45.36311" lon="5.82749">
        <ele>1164.2</ele>
        <time>2015-07-10T07:40:16Z</time>
      </trkpt>
      <trkpt lat="45.36304" lon="5.82762">
        <ele>1162</ele>
        <time>2015-07-10T07:40:20Z</time>
      </trkpt>
      <trkpt lat="45.36299" lon="5.82774">
        <ele>1158</ele>
        <time>2015-07-10T07:40:24Z</time>
      </trkpt>
      <trkpt lat="45.36295" lon="5.82787">
        <ele>1155.4</ele>
        <time>2015-07-10T07:40:28Z</time>
      </trkpt>
      <trkpt lat="45.3629" lon="5.82798">
        <ele>1153</ele>
        <time>2015-07-10T07:40:31Z</time>
      </trkpt>
      <trkpt lat="45.36285" lon="5.8281">
        <ele>1150.4</ele>
        <time>2015-07-10T07:40:34Z</time>
      </trkpt>
      <trkpt lat="45.36278" lon="5.82826">
        <ele>1147.4</ele>
        <time>2015-07-10T07:40:38Z</time>
      </trkpt>
      <trkpt lat="45.36272" lon="5.82836">
        <ele>1145.4</ele>
        <time>2015-07-10T07:40:41Z</time>
      </trkpt>
      <trkpt lat="45.36266" lon="5.82846">
        <ele>1143.4</ele>
        <time>2015-07-10T07:40:44Z</time>
      </trkpt>
      <trkpt lat="45.36261" lon="5.82856">
        <ele>1140.6</ele>
        <time>2015-07-10T07:40:47Z</time>
      </trkpt>
      <trkpt lat="45.36255" lon="5.82867">
        <ele>1138.4</ele>
        <time>2015-07-10T07:40:50Z</time>
      </trkpt>
      <trkpt lat="45.36248" lon="5.82877">
        <ele>1135.8</ele>
        <time>2015-07-10T07:40:53Z</time>
      </trkpt>
      <trkpt lat="45.3624" lon="5.82886">
        <ele>1134.2</ele>
        <time>2015-07-10T07:40:56Z</time>
      </trkpt>
      <trkpt lat="45.36231" lon="5.82898">
        <ele>1132.4</ele>
        <time>2015-07-10T07:41:00Z</time>
      </trkpt>
      <trkpt lat="45.36224" lon="5.82906">
        <ele>1129.2</ele>
        <time>2015-07-10T07:41:03Z</time>
      </trkpt>
      <trkpt lat="45.36216" lon="5.82913">
        <ele>1126.8</ele>
        <time>2015-07-10T07:41:07Z</time>
      </trkpt>
      <trkpt lat="45.36207" lon="5.82922">
        <ele>1124.4</ele>
        <time>2015-07-10T07:41:11Z</time>
      </trkpt>
      <trkpt lat="45.36197" lon="5.82932">
        <ele>1123</ele>
        <time>2015-07-10T07:41:15Z</time>
      </trkpt>
      <trkpt lat="45.36185" lon="5.8294">
        <ele>1120.6</ele>
        <time>2015-07-10T07:41:19Z</time>
      </trkpt>
      <trkpt lat="45.36173" lon="5.82942">
        <ele>1117.6</ele>
        <time>2015-07-10T07:41:24Z</time>
      </trkpt>
      <trkpt lat="45.36161" lon="5.82947">
        <ele>1115</ele>
        <time>2015-07-10T07:41:28Z</time>
      </trkpt>
      <trkpt lat="45.3615" lon="5.82949">
        <ele>1113.4</ele>
        <time>2015-07-10T07:41:32Z</time>
      </trkpt>
      <trkpt lat="45.36139" lon="5.8295">
        <ele>1110.2</ele>
        <time>2015-07-10T07:41:36Z</time>
      </trkpt>
      <trkpt lat="45.36129" lon="5.82953">
        <ele>1108.6</ele>
        <time>2015-07-10T07:41:39Z</time>
      </trkpt>
      <trkpt lat="45.3612" lon="5.82964">
        <ele>1106.8</ele>
        <time>2015-07-10T07:41:43Z</time>
      </trkpt>
      <trkpt lat="45.36114" lon="5.82978">
        <ele>1106.6</ele>
        <time>2015-07-10T07:41:47Z</time>
      </trkpt>
      <trkpt lat="45.36121" lon="5.82985">
        <ele>1105.6</ele>
        <time>2015-07-10T07:41:54Z</time>
      </trkpt>
      <trkpt lat="45.36131" lon="5.8299">
        <ele>1105.6</ele>
        <time>2015-07-10T07:41:59Z</time>
      </trkpt>
      <trkpt lat="45.36141" lon="5.8299">
        <ele>1107.8</ele>
        <time>2015-07-10T07:42:04Z</time>
      </trkpt>
      <trkpt lat="45.36153" lon="5.8299">
        <ele>1108.8</ele>
        <time>2015-07-10T07:42:09Z</time>
      </trkpt>
      <trkpt lat="45.36163" lon="5.8299">
        <ele>1109.6</ele>
        <time>2015-07-10T07:42:13Z</time>
      </trkpt>
      <trkpt lat="45.36175" lon="5.82995">
        <ele>1110.8</ele>
        <time>2015-07-10T07:42:17Z</time>
      </trkpt>
      <trkpt lat="45.36185" lon="5.83">
        <ele>1111</ele>
        <time>2015-07-10T07:42:21Z</time>
      </trkpt>
      <trkpt lat="45.36194" lon="5.83005">
        <ele>1111</ele>
        <time>2015-07-10T07:42:25Z</time>
      </trkpt>
      <trkpt lat="45.36204" lon="5.83004">
        <ele>1111.6</ele>
        <time>2015-07-10T07:42:34Z</time>
      </trkpt>
      <trkpt lat="45.36209" lon="5.83005">
        <ele>1112.4</ele>
        <time>2015-07-10T07:43:41Z</time>
      </trkpt>
      <trkpt lat="45.362" lon="5.83017">
        <ele>1112.4</ele>
        <time>2015-07-10T07:43:50Z</time>
      </trkpt>
      <trkpt lat="45.36189" lon="5.83016">
        <ele>1112.4</ele>
        <time>2015-07-10T07:43:54Z</time>
      </trkpt>
      <trkpt lat="45.3618" lon="5.83016">
        <ele>1112.4</ele>
        <time>2015-07-10T07:43:57Z</time>
      </trkpt>
      <trkpt lat="45.3617" lon="5.83016">
        <ele>1111.6</ele>
        <time>2015-07-10T07:44:00Z</time>
      </trkpt>
      <trkpt lat="45.36157" lon="5.8302">
        <ele>1109.4</ele>
        <time>2015-07-10T07:44:04Z</time>
      </trkpt>
      <trkpt lat="45.36147" lon="5.83022">
        <ele>1108.8</ele>
        <time>2015-07-10T07:44:07Z</time>
      </trkpt>
      <trkpt lat="45.36136" lon="5.83024">
        <ele>1108.2</ele>
        <time>2015-07-10T07:44:11Z</time>
      </trkpt>
      <trkpt lat="45.36125" lon="5.83027">
        <ele>1108</ele>
        <time>2015-07-10T07:44:15Z</time>
      </trkpt>
      <trkpt lat="45.36112" lon="5.83031">
        <ele>1109.8</ele>
        <time>2015-07-10T07:44:19Z</time>
      </trkpt>
      <trkpt lat="45.36101" lon="5.83039">
        <ele>1111.4</ele>
        <time>2015-07-10T07:44:23Z</time>
      </trkpt>
      <trkpt lat="45.36092" lon="5.83046">
        <ele>1112.4</ele>
        <time>2015-07-10T07:44:27Z</time>
      </trkpt>
      <trkpt lat="45.36081" lon="5.83053">
        <ele>1112.8</ele>
        <time>2015-07-10T07:44:31Z</time>
      </trkpt>
      <trkpt lat="45.36069" lon="5.83059">
        <ele>1113.6</ele>
        <time>2015-07-10T07:44:35Z</time>
      </trkpt>
      <trkpt lat="45.36061" lon="5.83063">
        <ele>1113.8</ele>
        <time>2015-07-10T07:44:38Z</time>
      </trkpt>
      <trkpt lat="45.36049" lon="5.8307">
        <ele>1114.4</ele>
        <time>2015-07-10T07:44:42Z</time>
      </trkpt>
      <trkpt lat="45.36039" lon="5.83075">
        <ele>1114.6</ele>
        <time>2015-07-10T07:44:46Z</time>
      </trkpt>
      <trkpt lat="45.36029" lon="5.83076">
        <ele>1114.6</ele>
        <time>2015-07-10T07:44:50Z</time>
      </trkpt>
      <trkpt lat="45.36019" lon="5.83082">
        <ele>1114.6</ele>
        <time>2015-07-10T07:44:54Z</time>
      </trkpt>
      <trkpt lat="45.3601" lon="5.83091">
        <ele>1115.8</ele>
        <time>2015-07-10T07:44:58Z</time>
      </trkpt>
      <trkpt lat="45.36" lon="5.83099">
        <ele>1116.6</ele>
        <time>2015-07-10T07:45:02Z</time>
      </trkpt>
      <trkpt lat="45.35991" lon="5.83106">
        <ele>1116.8</ele>
        <time>2015-07-10T07:45:06Z</time>
      </trkpt>
      <trkpt lat="45.35982" lon="5.83114">
        <ele>1116.8</ele>
        <time>2015-07-10T07:45:10Z</time>
      </trkpt>
      <trkpt lat="45.35973" lon="5.83123">
        <ele>1117.2</ele>
        <time>2015-07-10T07:45:14Z</time>
      </trkpt>
      <trkpt lat="45.35964" lon="5.83133">
        <ele>1118.4</ele>
        <time>2015-07-10T07:45:18Z</time>
      </trkpt>
      <trkpt lat="45.35955" lon="5.83141">
        <ele>1118.6</ele>
        <time>2015-07-10T07:45:22Z</time>
      </trkpt>
      <trkpt lat="45.35946" lon="5.8315">
        <ele>1118.6</ele>
        <time>2015-07-10T07:45:26Z</time>
      </trkpt>
      <trkpt lat="45.35938" lon="5.83157">
        <ele>1119.4</ele>
        <time>2015-07-10T07:45:29Z</time>
      </trkpt>
      <trkpt lat="45.35928" lon="5.83163">
        <ele>1119.6</ele>
        <time>2015-07-10T07:45:33Z</time>
      </trkpt>
      <trkpt lat="45.35918" lon="5.83171">
        <ele>1119.6</ele>
        <time>2015-07-10T07:45:37Z</time>
      </trkpt>
      <trkpt lat="45.3591" lon="5.8318">
        <ele>1119.6</ele>
        <time>2015-07-10T07:45:41Z</time>
      </trkpt>
      <trkpt lat="45.35902" lon="5.8319">
        <ele>1121.6</ele>
        <time>2015-07-10T07:45:45Z</time>
      </trkpt>
      <trkpt lat="45.35893" lon="5.832">
        <ele>1120</ele>
        <time>2015-07-10T07:45:49Z</time>
      </trkpt>
      <trkpt lat="45.35883" lon="5.83211">
        <ele>1119.6</ele>
        <time>2015-07-10T07:45:53Z</time>
      </trkpt>
      <trkpt lat="45.35876" lon="5.83221">
        <ele>1121.8</ele>
        <time>2015-07-10T07:45:57Z</time>
      </trkpt>
      <trkpt lat="45.35868" lon="5.83231">
        <ele>1122</ele>
        <time>2015-07-10T07:46:01Z</time>
      </trkpt>
      <trkpt lat="45.35858" lon="5.83239">
        <ele>1122.6</ele>
        <time>2015-07-10T07:46:05Z</time>
      </trkpt>
      <trkpt lat="45.35848" lon="5.83247">
        <ele>1122.8</ele>
        <time>2015-07-10T07:46:09Z</time>
      </trkpt>
      <trkpt lat="45.35839" lon="5.83256">
        <ele>1122.8</ele>
        <time>2015-07-10T07:46:13Z</time>
      </trkpt>
      <trkpt lat="45.35829" lon="5.83263">
        <ele>1123</ele>
        <time>2015-07-10T07:46:17Z</time>
      </trkpt>
      <trkpt lat="45.3582" lon="5.83268">
        <ele>1124</ele>
        <time>2015-07-10T07:46:21Z</time>
      </trkpt>
      <trkpt lat="45.3581" lon="5.83267">
        <ele>1125.4</ele>
        <time>2015-07-10T07:46:25Z</time>
      </trkpt>
      <trkpt lat="45.35802" lon="5.83258">
        <ele>1125.6</ele>
        <time>2015-07-10T07:46:29Z</time>
      </trkpt>
      <trkpt lat="45.35796" lon="5.83245">
        <ele>1126.2</ele>
        <time>2015-07-10T07:46:33Z</time>
      </trkpt>
      <trkpt lat="45.35793" lon="5.83229">
        <ele>1127.6</ele>
        <time>2015-07-10T07:46:37Z</time>
      </trkpt>
      <trkpt lat="45.35791" lon="5.83213">
        <ele>1128.6</ele>
        <time>2015-07-10T07:46:41Z</time>
      </trkpt>
      <trkpt lat="45.3579" lon="5.832">
        <ele>1129.2</ele>
        <time>2015-07-10T07:46:44Z</time>
      </trkpt>
      <trkpt lat="45.35788" lon="5.83185">
        <ele>1129.4</ele>
        <time>2015-07-10T07:46:48Z</time>
      </trkpt>
      <trkpt lat="45.35781" lon="5.83175">
        <ele>1129.8</ele>
        <time>2015-07-10T07:46:52Z</time>
      </trkpt>
      <trkpt lat="45.35773" lon="5.83167">
        <ele>1130.8</ele>
        <time>2015-07-10T07:46:56Z</time>
      </trkpt>
      <trkpt lat="45.35765" lon="5.8316">
        <ele>1131</ele>
        <time>2015-07-10T07:47:00Z</time>
      </trkpt>
      <trkpt lat="45.35756" lon="5.83153">
        <ele>1132.6</ele>
        <time>2015-07-10T07:47:04Z</time>
      </trkpt>
      <trkpt lat="45.35748" lon="5.83146">
        <ele>1133</ele>
        <time>2015-07-10T07:47:08Z</time>
      </trkpt>
      <trkpt lat="45.35737" lon="5.83141">
        <ele>1135</ele>
        <time>2015-07-10T07:47:13Z</time>
      </trkpt>
      <trkpt lat="45.35729" lon="5.83143">
        <ele>1136.2</ele>
        <time>2015-07-10T07:47:17Z</time>
      </trkpt>
      <trkpt lat="45.35719" lon="5.83145">
        <ele>1137.2</ele>
        <time>2015-07-10T07:47:22Z</time>
      </trkpt>
      <trkpt lat="45.35708" lon="5.83145">
        <ele>1138.6</ele>
        <time>2015-07-10T07:47:27Z</time>
      </trkpt>
      <trkpt lat="45.35698" lon="5.83146">
        <ele>1138.6</ele>
        <time>2015-07-10T07:47:31Z</time>
      </trkpt>
      <trkpt lat="45.35688" lon="5.83149">
        <ele>1140.6</ele>
        <time>2015-07-10T07:47:36Z</time>
      </trkpt>
      <trkpt lat="45.3568" lon="5.8315">
        <ele>1142.4</ele>
        <time>2015-07-10T07:47:41Z</time>
      </trkpt>
      <trkpt lat="45.35668" lon="5.83144">
        <ele>1143.2</ele>
        <time>2015-07-10T07:47:48Z</time>
      </trkpt>
      <trkpt lat="45.35656" lon="5.83132">
        <ele>1144.8</ele>
        <time>2015-07-10T07:47:54Z</time>
      </trkpt>
      <trkpt lat="45.35649" lon="5.83119">
        <ele>1146</ele>
        <time>2015-07-10T07:47:59Z</time>
      </trkpt>
      <trkpt lat="45.35642" lon="5.83102">
        <ele>1147</ele>
        <time>2015-07-10T07:48:04Z</time>
      </trkpt>
      <trkpt lat="45.35637" lon="5.83088">
        <ele>1148.8</ele>
        <time>2015-07-10T07:48:08Z</time>
      </trkpt>
      <trkpt lat="45.35632" lon="5.83076">
        <ele>1149.4</ele>
        <time>2015-07-10T07:48:12Z</time>
      </trkpt>
      <trkpt lat="45.35625" lon="5.83063">
        <ele>1150.8</ele>
        <time>2015-07-10T07:48:17Z</time>
      </trkpt>
      <trkpt lat="45.35616" lon="5.83061">
        <ele>1152.2</ele>
        <time>2015-07-10T07:48:22Z</time>
      </trkpt>
      <trkpt lat="45.35608" lon="5.83061">
        <ele>1153.2</ele>
        <time>2015-07-10T07:48:27Z</time>
      </trkpt>
      <trkpt lat="45.35598" lon="5.83066">
        <ele>1154.8</ele>
        <time>2015-07-10T07:48:32Z</time>
      </trkpt>
      <trkpt lat="45.35589" lon="5.83072">
        <ele>1155.8</ele>
        <time>2015-07-10T07:48:36Z</time>
      </trkpt>
      <trkpt lat="45.3558" lon="5.83077">
        <ele>1156.4</ele>
        <time>2015-07-10T07:48:41Z</time>
      </trkpt>
      <trkpt lat="45.3557" lon="5.83082">
        <ele>1157.2</ele>
        <time>2015-07-10T07:48:46Z</time>
      </trkpt>
      <trkpt lat="45.3556" lon="5.83088">
        <ele>1159.6</ele>
        <time>2015-07-10T07:48:51Z</time>
      </trkpt>
      <trkpt lat="45.35549" lon="5.83094">
        <ele>1161.8</ele>
        <time>2015-07-10T07:48:57Z</time>
      </trkpt>
      <trkpt lat="45.35539" lon="5.83097">
        <ele>1164.8</ele>
        <time>2015-07-10T07:49:04Z</time>
      </trkpt>
      <trkpt lat="45.35531" lon="5.83104">
        <ele>1166.6</ele>
        <time>2015-07-10T07:49:11Z</time>
      </trkpt>
      <trkpt lat="45.35524" lon="5.83113">
        <ele>1168.4</ele>
        <time>2015-07-10T07:49:17Z</time>
      </trkpt>
      <trkpt lat="45.35518" lon="5.83122">
        <ele>1169.8</ele>
        <time>2015-07-10T07:49:21Z</time>
      </trkpt>
      <trkpt lat="45.35509" lon="5.8313">
        <ele>1171</ele>
        <time>2015-07-10T07:49:26Z</time>
      </trkpt>
      <trkpt lat="45.35502" lon="5.83135">
        <ele>1172.4</ele>
        <time>2015-07-10T07:49:30Z</time>
      </trkpt>
      <trkpt lat="45.35493" lon="5.8314">
        <ele>1173.2</ele>
        <time>2015-07-10T07:49:35Z</time>
      </trkpt>
      <trkpt lat="45.35484" lon="5.83145">
        <ele>1174.6</ele>
        <time>2015-07-10T07:49:41Z</time>
      </trkpt>
      <trkpt lat="45.35477" lon="5.83153">
        <ele>1176.8</ele>
        <time>2015-07-10T07:49:47Z</time>
      </trkpt>
      <trkpt lat="45.35471" lon="5.83163">
        <ele>1179.2</ele>
        <time>2015-07-10T07:49:53Z</time>
      </trkpt>
      <trkpt lat="45.35464" lon="5.83173">
        <ele>1182</ele>
        <time>2015-07-10T07:50:00Z</time>
      </trkpt>
      <trkpt lat="45.35459" lon="5.83185">
        <ele>1184.6</ele>
        <time>2015-07-10T07:50:08Z</time>
      </trkpt>
      <trkpt lat="45.35453" lon="5.83195">
        <ele>1188.2</ele>
        <time>2015-07-10T07:50:17Z</time>
      </trkpt>
      <trkpt lat="45.35447" lon="5.83204">
        <ele>1191.2</ele>
        <time>2015-07-10T07:50:26Z</time>
      </trkpt>
      <trkpt lat="45.35441" lon="5.83215">
        <ele>1194</ele>
        <time>2015-07-10T07:50:36Z</time>
      </trkpt>
      <trkpt lat="45.35432" lon="5.83226">
        <ele>1195.8</ele>
        <time>2015-07-10T07:50:43Z</time>
      </trkpt>
      <trkpt lat="45.35427" lon="5.83235">
        <ele>1198.2</ele>
        <time>2015-07-10T07:50:52Z</time>
      </trkpt>
      <trkpt lat="45.35423" lon="5.83247">
        <ele>1202.4</ele>
        <time>2015-07-10T07:51:02Z</time>
      </trkpt>
      <trkpt lat="45.35417" lon="5.83259">
        <ele>1205.6</ele>
        <time>2015-07-10T07:51:12Z</time>
      </trkpt>
      <trkpt lat="45.3541" lon="5.83272">
        <ele>1209</ele>
        <time>2015-07-10T07:51:23Z</time>
      </trkpt>
      <trkpt lat="45.35403" lon="5.8328">
        <ele>1211.6</ele>
        <time>2015-07-10T07:51:31Z</time>
      </trkpt>
      <trkpt lat="45.35397" lon="5.83291">
        <ele>1213</ele>
        <time>2015-07-10T07:51:36Z</time>
      </trkpt>
      <trkpt lat="45.35389" lon="5.83298">
        <ele>1214.6</ele>
        <time>2015-07-10T07:51:41Z</time>
      </trkpt>
      <trkpt lat="45.35381" lon="5.83307">
        <ele>1216.8</ele>
        <time>2015-07-10T07:51:47Z</time>
      </trkpt>
      <trkpt lat="45.35375" lon="5.83317">
        <ele>1217.6</ele>
        <time>2015-07-10T07:51:52Z</time>
      </trkpt>
      <trkpt lat="45.35368" lon="5.83329">
        <ele>1218.2</ele>
        <time>2015-07-10T07:51:57Z</time>
      </trkpt>
      <trkpt lat="45.35363" lon="5.83341">
        <ele>1219.4</ele>
        <time>2015-07-10T07:52:02Z</time>
      </trkpt>
      <trkpt lat="45.35359" lon="5.83351">
        <ele>1221.4</ele>
        <time>2015-07-10T07:52:08Z</time>
      </trkpt>
      <trkpt lat="45.35352" lon="5.83361">
        <ele>1225.4</ele>
        <time>2015-07-10T07:52:18Z</time>
      </trkpt>
      <trkpt lat="45.35344" lon="5.83366">
        <ele>1230.4</ele>
        <time>2015-07-10T07:52:33Z</time>
      </trkpt>
      <trkpt lat="45.35335" lon="5.83375">
        <ele>1234.8</ele>
        <time>2015-07-10T07:52:48Z</time>
      </trkpt>
      <trkpt lat="45.35325" lon="5.83385">
        <ele>1240</ele>
        <time>2015-07-10T07:53:03Z</time>
      </trkpt>
      <trkpt lat="45.35314" lon="5.83385">
        <ele>1245.6</ele>
        <time>2015-07-10T07:53:17Z</time>
      </trkpt>
      <trkpt lat="45.35304" lon="5.83387">
        <ele>1251.2</ele>
        <time>2015-07-10T07:53:32Z</time>
      </trkpt>
      <trkpt lat="45.35296" lon="5.83394">
        <ele>1256</ele>
        <time>2015-07-10T07:53:45Z</time>
      </trkpt>
      <trkpt lat="45.35286" lon="5.83401">
        <ele>1260</ele>
        <time>2015-07-10T07:53:59Z</time>
      </trkpt>
      <trkpt lat="45.35278" lon="5.83402">
        <ele>1265.4</ele>
        <time>2015-07-10T07:54:14Z</time>
      </trkpt>
      <trkpt lat="45.35267" lon="5.83408">
        <ele>1270</ele>
        <time>2015-07-10T07:54:26Z</time>
      </trkpt>
      <trkpt lat="45.35257" lon="5.83408">
        <ele>1274.2</ele>
        <time>2015-07-10T07:54:38Z</time>
      </trkpt>
      <trkpt lat="45.35248" lon="5.83412">
        <ele>1277</ele>
        <time>2015-07-10T07:54:48Z</time>
      </trkpt>
      <trkpt lat="45.35238" lon="5.83413">
        <ele>1280.2</ele>
        <time>2015-07-10T07:54:57Z</time>
      </trkpt>
      <trkpt lat="45.35227" lon="5.8342">
        <ele>1282.2</ele>
        <time>2015-07-10T07:55:06Z</time>
      </trkpt>
      <trkpt lat="45.35216" lon="5.83435">
        <ele>1285.2</ele>
        <time>2015-07-10T07:55:15Z</time>
      </trkpt>
      <trkpt lat="45.35206" lon="5.83444">
        <ele>1287.6</ele>
        <time>2015-07-10T07:55:26Z</time>
      </trkpt>
      <trkpt lat="45.35194" lon="5.83452">
        <ele>1291</ele>
        <time>2015-07-10T07:55:36Z</time>
      </trkpt>
      <trkpt lat="45.35185" lon="5.83462">
        <ele>1294.6</ele>
        <time>2015-07-10T07:55:47Z</time>
      </trkpt>
      <trkpt lat="45.35175" lon="5.83476">
        <ele>1298.8</ele>
        <time>2015-07-10T07:55:59Z</time>
      </trkpt>
      <trkpt lat="45.35175" lon="5.83494">
        <ele>1302</ele>
        <time>2015-07-10T07:56:09Z</time>
      </trkpt>
      <trkpt lat="45.35175" lon="5.83509">
        <ele>1304.4</ele>
        <time>2015-07-10T07:56:17Z</time>
      </trkpt>
      <trkpt lat="45.3517" lon="5.8352">
        <ele>1306.6</ele>
        <time>2015-07-10T07:56:25Z</time>
      </trkpt>
      <trkpt lat="45.35164" lon="5.8353">
        <ele>1309.4</ele>
        <time>2015-07-10T07:56:33Z</time>
      </trkpt>
      <trkpt lat="45.35156" lon="5.83537">
        <ele>1312.4</ele>
        <time>2015-07-10T07:56:41Z</time>
      </trkpt>
      <trkpt lat="45.35149" lon="5.83545">
        <ele>1314.8</ele>
        <time>2015-07-10T07:56:49Z</time>
      </trkpt>
      <trkpt lat="45.35143" lon="5.83552">
        <ele>1317.8</ele>
        <time>2015-07-10T07:56:58Z</time>
      </trkpt>
      <trkpt lat="45.35139" lon="5.83564">
        <ele>1320</ele>
        <time>2015-07-10T07:57:06Z</time>
      </trkpt>
      <trkpt lat="45.35134" lon="5.83575">
        <ele>1321</ele>
        <time>2015-07-10T07:57:11Z</time>
      </trkpt>
      <trkpt lat="45.35132" lon="5.8359">
        <ele>1323</ele>
        <time>2015-07-10T07:57:16Z</time>
      </trkpt>
      <trkpt lat="45.3513" lon="5.83602">
        <ele>1323.4</ele>
        <time>2015-07-10T07:57:20Z</time>
      </trkpt>
      <trkpt lat="45.35124" lon="5.83616">
        <ele>1325.4</ele>
        <time>2015-07-10T07:57:24Z</time>
      </trkpt>
      <trkpt lat="45.35122" lon="5.83626">
        <ele>1325.8</ele>
        <time>2015-07-10T07:57:28Z</time>
      </trkpt>
      <trkpt lat="45.35118" lon="5.83636">
        <ele>1326.6</ele>
        <time>2015-07-10T07:57:32Z</time>
      </trkpt>
      <trkpt lat="45.35112" lon="5.83647">
        <ele>1326.8</ele>
        <time>2015-07-10T07:57:36Z</time>
      </trkpt>
      <trkpt lat="45.35108" lon="5.83657">
        <ele>1328.2</ele>
        <time>2015-07-10T07:57:40Z</time>
      </trkpt>
      <trkpt lat="45.35105" lon="5.83665">
        <ele>1328.2</ele>
        <time>2015-07-10T07:57:44Z</time>
      </trkpt>
      <trkpt lat="45.35095" lon="5.83674">
        <ele>1329</ele>
        <time>2015-07-10T07:57:48Z</time>
      </trkpt>
      <trkpt lat="45.35085" lon="5.83681">
        <ele>1331</ele>
        <time>2015-07-10T07:57:52Z</time>
      </trkpt>
      <trkpt lat="45.35074" lon="5.83689">
        <ele>1332.2</ele>
        <time>2015-07-10T07:57:57Z</time>
      </trkpt>
      <trkpt lat="45.35064" lon="5.83694">
        <ele>1332.4</ele>
        <time>2015-07-10T07:58:05Z</time>
      </trkpt>
      <trkpt lat="45.35054" lon="5.83699">
        <ele>1333</ele>
        <time>2015-07-10T07:58:13Z</time>
      </trkpt>
      <trkpt lat="45.35042" lon="5.83703">
        <ele>1335</ele>
        <time>2015-07-10T07:58:20Z</time>
      </trkpt>
      <trkpt lat="45.35032" lon="5.83708">
        <ele>1336.4</ele>
        <time>2015-07-10T07:58:24Z</time>
      </trkpt>
      <trkpt lat="45.35023" lon="5.83714">
        <ele>1337.4</ele>
        <time>2015-07-10T07:58:29Z</time>
      </trkpt>
      <trkpt lat="45.35014" lon="5.83719">
        <ele>1338.8</ele>
        <time>2015-07-10T07:58:34Z</time>
      </trkpt>
      <trkpt lat="45.35003" lon="5.83721">
        <ele>1340.8</ele>
        <time>2015-07-10T07:58:39Z</time>
      </trkpt>
      <trkpt lat="45.34995" lon="5.83726">
        <ele>1343</ele>
        <time>2015-07-10T07:58:45Z</time>
      </trkpt>
      <trkpt lat="45.34985" lon="5.83734">
        <ele>1345.8</ele>
        <time>2015-07-10T07:58:52Z</time>
      </trkpt>
      <trkpt lat="45.34977" lon="5.83739">
        <ele>1348.4</ele>
        <time>2015-07-10T07:58:59Z</time>
      </trkpt>
      <trkpt lat="45.34968" lon="5.83745">
        <ele>1350.8</ele>
        <time>2015-07-10T07:59:06Z</time>
      </trkpt>
      <trkpt lat="45.3496" lon="5.83751">
        <ele>1352.4</ele>
        <time>2015-07-10T07:59:14Z</time>
      </trkpt>
      <trkpt lat="45.34951" lon="5.83749">
        <ele>1353.6</ele>
        <time>2015-07-10T07:59:20Z</time>
      </trkpt>
      <trkpt lat="45.34941" lon="5.83752">
        <ele>1354.4</ele>
        <time>2015-07-10T07:59:25Z</time>
      </trkpt>
      <trkpt lat="45.34931" lon="5.83758">
        <ele>1356</ele>
        <time>2015-07-10T07:59:31Z</time>
      </trkpt>
      <trkpt lat="45.34921" lon="5.83764">
        <ele>1358</ele>
        <time>2015-07-10T07:59:37Z</time>
      </trkpt>
      <trkpt lat="45.34914" lon="5.83771">
        <ele>1359.4</ele>
        <time>2015-07-10T07:59:43Z</time>
      </trkpt>
      <trkpt lat="45.34904" lon="5.83776">
        <ele>1361.6</ele>
        <time>2015-07-10T07:59:50Z</time>
      </trkpt>
      <trkpt lat="45.34895" lon="5.8378">
        <ele>1363</ele>
        <time>2015-07-10T07:59:56Z</time>
      </trkpt>
      <trkpt lat="45.34887" lon="5.83787">
        <ele>1365.2</ele>
        <time>2015-07-10T08:00:03Z</time>
      </trkpt>
      <trkpt lat="45.3488" lon="5.83794">
        <ele>1368</ele>
        <time>2015-07-10T08:00:12Z</time>
      </trkpt>
      <trkpt lat="45.34873" lon="5.83802">
        <ele>1371.4</ele>
        <time>2015-07-10T08:00:23Z</time>
      </trkpt>
      <trkpt lat="45.34866" lon="5.83811">
        <ele>1376</ele>
        <time>2015-07-10T08:00:36Z</time>
      </trkpt>
      <trkpt lat="45.34858" lon="5.83817">
        <ele>1379</ele>
        <time>2015-07-10T08:00:47Z</time>
      </trkpt>
      <trkpt lat="45.34849" lon="5.83808">
        <ele>1381.8</ele>
        <time>2015-07-10T08:00:59Z</time>
      </trkpt>
      <trkpt lat="45.34841" lon="5.83802">
        <ele>1384.6</ele>
        <time>2015-07-10T08:01:09Z</time>
      </trkpt>
      <trkpt lat="45.34837" lon="5.83813">
        <ele>1388</ele>
        <time>2015-07-10T08:01:22Z</time>
      </trkpt>
      <trkpt lat="45.34834" lon="5.83827">
        <ele>1391.6</ele>
        <time>2015-07-10T08:01:33Z</time>
      </trkpt>
      <trkpt lat="45.34825" lon="5.83832">
        <ele>1394</ele>
        <time>2015-07-10T08:01:42Z</time>
      </trkpt>
      <trkpt lat="45.34815" lon="5.83835">
        <ele>1398</ele>
        <time>2015-07-10T08:01:55Z</time>
      </trkpt>
      <trkpt lat="45.34812" lon="5.83822">
        <ele>1399</ele>
        <time>2015-07-10T08:02:00Z</time>
      </trkpt>
      <trkpt lat="45.34813" lon="5.83806">
        <ele>1400</ele>
        <time>2015-07-10T08:02:05Z</time>
      </trkpt>
      <trkpt lat="45.34816" lon="5.83792">
        <ele>1401.6</ele>
        <time>2015-07-10T08:02:10Z</time>
      </trkpt>
      <trkpt lat="45.34817" lon="5.83774">
        <ele>1402</ele>
        <time>2015-07-10T08:02:17Z</time>
      </trkpt>
      <trkpt lat="45.34817" lon="5.83757">
        <ele>1404.6</ele>
        <time>2015-07-10T08:02:23Z</time>
      </trkpt>
      <trkpt lat="45.34818" lon="5.83738">
        <ele>1407.2</ele>
        <time>2015-07-10T08:02:29Z</time>
      </trkpt>
      <trkpt lat="45.34815" lon="5.83722">
        <ele>1409.2</ele>
        <time>2015-07-10T08:02:35Z</time>
      </trkpt>
      <trkpt lat="45.34806" lon="5.8371">
        <ele>1410.8</ele>
        <time>2015-07-10T08:02:41Z</time>
      </trkpt>
      <trkpt lat="45.34797" lon="5.83701">
        <ele>1409.6</ele>
        <time>2015-07-10T08:02:46Z</time>
      </trkpt>
      <trkpt lat="45.34789" lon="5.83695">
        <ele>1408.6</ele>
        <time>2015-07-10T08:02:51Z</time>
      </trkpt>
      <trkpt lat="45.34791" lon="5.83702">
        <ele>1408</ele>
        <time>2015-07-10T08:03:02Z</time>
      </trkpt>
      <trkpt lat="45.34783" lon="5.83708">
        <ele>1408</ele>
        <time>2015-07-10T08:03:07Z</time>
      </trkpt>
      <trkpt lat="45.34774" lon="5.83715">
        <ele>1409.8</ele>
        <time>2015-07-10T08:03:11Z</time>
      </trkpt>
      <trkpt lat="45.34764" lon="5.8372">
        <ele>1411</ele>
        <time>2015-07-10T08:03:16Z</time>
      </trkpt>
      <trkpt lat="45.34754" lon="5.83727">
        <ele>1412</ele>
        <time>2015-07-10T08:03:21Z</time>
      </trkpt>
      <trkpt lat="45.34744" lon="5.83734">
        <ele>1412</ele>
        <time>2015-07-10T08:03:26Z</time>
      </trkpt>
      <trkpt lat="45.34734" lon="5.83742">
        <ele>1413.8</ele>
        <time>2015-07-10T08:03:31Z</time>
      </trkpt>
      <trkpt lat="45.34724" lon="5.83755">
        <ele>1414.4</ele>
        <time>2015-07-10T08:03:35Z</time>
      </trkpt>
      <trkpt lat="45.34716" lon="5.83763">
        <ele>1415.8</ele>
        <time>2015-07-10T08:03:41Z</time>
      </trkpt>
      <trkpt lat="45.34707" lon="5.83772">
        <ele>1416.4</ele>
        <time>2015-07-10T08:03:46Z</time>
      </trkpt>
      <trkpt lat="45.347" lon="5.83783">
        <ele>1418.8</ele>
        <time>2015-07-10T08:03:51Z</time>
      </trkpt>
      <trkpt lat="45.34689" lon="5.8379">
        <ele>1420</ele>
        <time>2015-07-10T08:03:57Z</time>
      </trkpt>
      <trkpt lat="45.3468" lon="5.83797">
        <ele>1422.2</ele>
        <time>2015-07-10T08:04:03Z</time>
      </trkpt>
      <trkpt lat="45.34668" lon="5.83809">
        <ele>1423.8</ele>
        <time>2015-07-10T08:04:09Z</time>
      </trkpt>
      <trkpt lat="45.34657" lon="5.83814">
        <ele>1424.8</ele>
        <time>2015-07-10T08:04:15Z</time>
      </trkpt>
      <trkpt lat="45.34647" lon="5.83819">
        <ele>1428.2</ele>
        <time>2015-07-10T08:04:22Z</time>
      </trkpt>
      <trkpt lat="45.34636" lon="5.83822">
        <ele>1429.2</ele>
        <time>2015-07-10T08:04:28Z</time>
      </trkpt>
      <trkpt lat="45.34625" lon="5.83827">
        <ele>1430.6</ele>
        <time>2015-07-10T08:04:33Z</time>
      </trkpt>
      <trkpt lat="45.34613" lon="5.83827">
        <ele>1431.6</ele>
        <time>2015-07-10T08:04:39Z</time>
      </trkpt>
      <trkpt lat="45.34603" lon="5.83829">
        <ele>1432</ele>
        <time>2015-07-10T08:04:44Z</time>
      </trkpt>
      <trkpt lat="45.34591" lon="5.83825">
        <ele>1433.4</ele>
        <time>2015-07-10T08:04:49Z</time>
      </trkpt>
      <trkpt lat="45.34582" lon="5.83822">
        <ele>1435</ele>
        <time>2015-07-10T08:04:53Z</time>
      </trkpt>
      <trkpt lat="45.34574" lon="5.83812">
        <ele>1437</ele>
        <time>2015-07-10T08:05:00Z</time>
      </trkpt>
      <trkpt lat="45.34563" lon="5.8381">
        <ele>1438.6</ele>
        <time>2015-07-10T08:05:06Z</time>
      </trkpt>
      <trkpt lat="45.34549" lon="5.83812">
        <ele>1440.6</ele>
        <time>2015-07-10T08:05:12Z</time>
      </trkpt>
      <trkpt lat="45.34538" lon="5.838">
        <ele>1442.6</ele>
        <time>2015-07-10T08:05:17Z</time>
      </trkpt>
      <trkpt lat="45.34528" lon="5.83798">
        <ele>1443.6</ele>
        <time>2015-07-10T08:05:22Z</time>
      </trkpt>
      <trkpt lat="45.34519" lon="5.83802">
        <ele>1445.8</ele>
        <time>2015-07-10T08:05:28Z</time>
      </trkpt>
      <trkpt lat="45.34509" lon="5.83802">
        <ele>1447.4</ele>
        <time>2015-07-10T08:05:33Z</time>
      </trkpt>
      <trkpt lat="45.34499" lon="5.83806">
        <ele>1449</ele>
        <time>2015-07-10T08:05:40Z</time>
      </trkpt>
      <trkpt lat="45.34489" lon="5.83807">
        <ele>1449.6</ele>
        <time>2015-07-10T08:05:48Z</time>
      </trkpt>
      <trkpt lat="45.3448" lon="5.83806">
        <ele>1449.8</ele>
        <time>2015-07-10T08:05:54Z</time>
      </trkpt>
      <trkpt lat="45.3447" lon="5.83811">
        <ele>1451.6</ele>
        <time>2015-07-10T08:06:00Z</time>
      </trkpt>
      <trkpt lat="45.3446" lon="5.83821">
        <ele>1454.6</ele>
        <time>2015-07-10T08:06:09Z</time>
      </trkpt>
      <trkpt lat="45.34451" lon="5.83825">
        <ele>1457.4</ele>
        <time>2015-07-10T08:06:18Z</time>
      </trkpt>
      <trkpt lat="45.3444" lon="5.83827">
        <ele>1459.4</ele>
        <time>2015-07-10T08:06:28Z</time>
      </trkpt>
      <trkpt lat="45.3443" lon="5.83827">
        <ele>1460.8</ele>
        <time>2015-07-10T08:06:36Z</time>
      </trkpt>
      <trkpt lat="45.3442" lon="5.83828">
        <ele>1462.6</ele>
        <time>2015-07-10T08:06:43Z</time>
      </trkpt>
      <trkpt lat="45.3441" lon="5.83831">
        <ele>1465</ele>
        <time>2015-07-10T08:06:51Z</time>
      </trkpt>
      <trkpt lat="45.34399" lon="5.83831">
        <ele>1466.6</ele>
        <time>2015-07-10T08:06:58Z</time>
      </trkpt>
      <trkpt lat="45.3439" lon="5.83826">
        <ele>1468</ele>
        <time>2015-07-10T08:07:05Z</time>
      </trkpt>
      <trkpt lat="45.3438" lon="5.83829">
        <ele>1470.6</ele>
        <time>2015-07-10T08:07:12Z</time>
      </trkpt>
      <trkpt lat="45.34369" lon="5.8383">
        <ele>1472</ele>
        <time>2015-07-10T08:07:18Z</time>
      </trkpt>
      <trkpt lat="45.34359" lon="5.83827">
        <ele>1473.8</ele>
        <time>2015-07-10T08:07:24Z</time>
      </trkpt>
      <trkpt lat="45.3435" lon="5.83827">
        <ele>1476.4</ele>
        <time>2015-07-10T08:07:29Z</time>
      </trkpt>
      <trkpt lat="45.3434" lon="5.83828">
        <ele>1478</ele>
        <time>2015-07-10T08:07:35Z</time>
      </trkpt>
      <trkpt lat="45.34329" lon="5.83831">
        <ele>1479.8</ele>
        <time>2015-07-10T08:07:41Z</time>
      </trkpt>
      <trkpt lat="45.3432" lon="5.83839">
        <ele>1481</ele>
        <time>2015-07-10T08:07:46Z</time>
      </trkpt>
      <trkpt lat="45.3432" lon="5.83853">
        <ele>1482.4</ele>
        <time>2015-07-10T08:07:52Z</time>
      </trkpt>
      <trkpt lat="45.34331" lon="5.83862">
        <ele>1484.6</ele>
        <time>2015-07-10T08:08:37Z</time>
      </trkpt>
      <trkpt lat="45.34344" lon="5.83868">
        <ele>1485.2</ele>
        <time>2015-07-10T08:08:42Z</time>
      </trkpt>
      <trkpt lat="45.34348" lon="5.83882">
        <ele>1485.6</ele>
        <time>2015-07-10T08:08:46Z</time>
      </trkpt>
      <trkpt lat="45.34351" lon="5.83896">
        <ele>1488</ele>
        <time>2015-07-10T08:08:51Z</time>
      </trkpt>
      <trkpt lat="45.34354" lon="5.83912">
        <ele>1491</ele>
        <time>2015-07-10T08:08:57Z</time>
      </trkpt>
      <trkpt lat="45.34354" lon="5.83927">
        <ele>1493</ele>
        <time>2015-07-10T08:09:04Z</time>
      </trkpt>
      <trkpt lat="45.34362" lon="5.83936">
        <ele>1495.8</ele>
        <time>2015-07-10T08:09:10Z</time>
      </trkpt>
      <trkpt lat="45.34369" lon="5.83946">
        <ele>1496.8</ele>
        <time>2015-07-10T08:09:15Z</time>
      </trkpt>
      <trkpt lat="45.34375" lon="5.83952">
        <ele>1498.4</ele>
        <time>2015-07-10T08:09:20Z</time>
      </trkpt>
      <trkpt lat="45.34378" lon="5.83966">
        <ele>1499.6</ele>
        <time>2015-07-10T08:09:26Z</time>
      </trkpt>
      <trkpt lat="45.34383" lon="5.83977">
        <ele>1502.2</ele>
        <time>2015-07-10T08:09:33Z</time>
      </trkpt>
      <trkpt lat="45.34389" lon="5.83988">
        <ele>1505.2</ele>
        <time>2015-07-10T08:09:42Z</time>
      </trkpt>
      <trkpt lat="45.34394" lon="5.83996">
        <ele>1507.4</ele>
        <time>2015-07-10T08:09:50Z</time>
      </trkpt>
      <trkpt lat="45.34403" lon="5.84001">
        <ele>1511.4</ele>
        <time>2015-07-10T08:09:59Z</time>
      </trkpt>
      <trkpt lat="45.3441" lon="5.84012">
        <ele>1513.4</ele>
        <time>2015-07-10T08:10:08Z</time>
      </trkpt>
      <trkpt lat="45.34407" lon="5.84018">
        <ele>1514.4</ele>
        <time>2015-07-10T08:10:24Z</time>
      </trkpt>
      <trkpt lat="45.34404" lon="5.84025">
        <ele>1507.6</ele>
        <time>2015-07-10T08:10:56Z</time>
      </trkpt>
      <trkpt lat="45.34396" lon="5.84036">
        <ele>1502.8</ele>
        <time>2015-07-10T08:11:09Z</time>
      </trkpt>
      <trkpt lat="45.34388" lon="5.84057">
        <ele>1498.8</ele>
        <time>2015-07-10T08:11:18Z</time>
      </trkpt>
      <trkpt lat="45.34383" lon="5.84069">
        <ele>1495</ele>
        <time>2015-07-10T08:11:30Z</time>
      </trkpt>
      <trkpt lat="45.34384" lon="5.84087">
        <ele>1494.2</ele>
        <time>2015-07-10T08:11:35Z</time>
      </trkpt>
      <trkpt lat="45.34384" lon="5.84103">
        <ele>1493.4</ele>
        <time>2015-07-10T08:11:39Z</time>
      </trkpt>
      <trkpt lat="45.34385" lon="5.84117">
        <ele>1493</ele>
        <time>2015-07-10T08:11:42Z</time>
      </trkpt>
      <trkpt lat="45.34383" lon="5.84134">
        <ele>1491.6</ele>
        <time>2015-07-10T08:11:46Z</time>
      </trkpt>
      <trkpt lat="45.34381" lon="5.84148">
        <ele>1491.4</ele>
        <time>2015-07-10T08:11:50Z</time>
      </trkpt>
      <trkpt lat="45.34379" lon="5.84166">
        <ele>1493.4</ele>
        <time>2015-07-10T08:11:55Z</time>
      </trkpt>
      <trkpt lat="45.34378" lon="5.8418">
        <ele>1495</ele>
        <time>2015-07-10T08:12:00Z</time>
      </trkpt>
      <trkpt lat="45.34378" lon="5.84202">
        <ele>1495.6</ele>
        <time>2015-07-10T08:12:05Z</time>
      </trkpt>
      <trkpt lat="45.3438" lon="5.84218">
        <ele>1497.8</ele>
        <time>2015-07-10T08:12:10Z</time>
      </trkpt>
      <trkpt lat="45.34384" lon="5.84232">
        <ele>1498.4</ele>
        <time>2015-07-10T08:12:15Z</time>
      </trkpt>
      <trkpt lat="45.34388" lon="5.84247">
        <ele>1499.4</ele>
        <time>2015-07-10T08:12:20Z</time>
      </trkpt>
      <trkpt lat="45.3439" lon="5.84265">
        <ele>1501.6</ele>
        <time>2015-07-10T08:12:27Z</time>
      </trkpt>
      <trkpt lat="45.3439" lon="5.84283">
        <ele>1503.4</ele>
        <time>2015-07-10T08:12:34Z</time>
      </trkpt>
      <trkpt lat="45.34383" lon="5.84303">
        <ele>1505.4</ele>
        <time>2015-07-10T08:12:41Z</time>
      </trkpt>
      <trkpt lat="45.34375" lon="5.84317">
        <ele>1507.4</ele>
        <time>2015-07-10T08:12:47Z</time>
      </trkpt>
      <trkpt lat="45.34367" lon="5.84327">
        <ele>1509.2</ele>
        <time>2015-07-10T08:12:53Z</time>
      </trkpt>
      <trkpt lat="45.34359" lon="5.84335">
        <ele>1510.8</ele>
        <time>2015-07-10T08:13:00Z</time>
      </trkpt>
      <trkpt lat="45.34353" lon="5.8434">
        <ele>1512</ele>
        <time>2015-07-10T08:13:23Z</time>
      </trkpt>
      <trkpt lat="45.34341" lon="5.8435">
        <ele>1511.6</ele>
        <time>2015-07-10T08:13:29Z</time>
      </trkpt>
      <trkpt lat="45.3433" lon="5.84356">
        <ele>1509</ele>
        <time>2015-07-10T08:13:39Z</time>
      </trkpt>
      <trkpt lat="45.34321" lon="5.84363">
        <ele>1507</ele>
        <time>2015-07-10T08:13:44Z</time>
      </trkpt>
      <trkpt lat="45.34311" lon="5.84367">
        <ele>1505</ele>
        <time>2015-07-10T08:13:50Z</time>
      </trkpt>
      <trkpt lat="45.34301" lon="5.84365">
        <ele>1503.2</ele>
        <time>2015-07-10T08:13:55Z</time>
      </trkpt>
      <trkpt lat="45.34291" lon="5.84367">
        <ele>1501.8</ele>
        <time>2015-07-10T08:13:59Z</time>
      </trkpt>
      <trkpt lat="45.34279" lon="5.84367">
        <ele>1500.2</ele>
        <time>2015-07-10T08:14:03Z</time>
      </trkpt>
      <trkpt lat="45.34267" lon="5.84369">
        <ele>1496.8</ele>
        <time>2015-07-10T08:14:08Z</time>
      </trkpt>
      <trkpt lat="45.34259" lon="5.84378">
        <ele>1494.6</ele>
        <time>2015-07-10T08:14:12Z</time>
      </trkpt>
      <trkpt lat="45.34247" lon="5.84383">
        <ele>1492.6</ele>
        <time>2015-07-10T08:14:16Z</time>
      </trkpt>
      <trkpt lat="45.34237" lon="5.84388">
        <ele>1490.4</ele>
        <time>2015-07-10T08:14:20Z</time>
      </trkpt>
      <trkpt lat="45.34225" lon="5.84389">
        <ele>1488</ele>
        <time>2015-07-10T08:14:24Z</time>
      </trkpt>
      <trkpt lat="45.34215" lon="5.8439">
        <ele>1486.2</ele>
        <time>2015-07-10T08:14:28Z</time>
      </trkpt>
      <trkpt lat="45.34204" lon="5.84393">
        <ele>1484.8</ele>
        <time>2015-07-10T08:14:33Z</time>
      </trkpt>
      <trkpt lat="45.34193" lon="5.84403">
        <ele>1482.2</ele>
        <time>2015-07-10T08:14:37Z</time>
      </trkpt>
      <trkpt lat="45.34184" lon="5.84408">
        <ele>1479.6</ele>
        <time>2015-07-10T08:14:41Z</time>
      </trkpt>
      <trkpt lat="45.34177" lon="5.84424">
        <ele>1477.2</ele>
        <time>2015-07-10T08:14:46Z</time>
      </trkpt>
      <trkpt lat="45.34168" lon="5.84438">
        <ele>1475.8</ele>
        <time>2015-07-10T08:14:50Z</time>
      </trkpt>
      <trkpt lat="45.34163" lon="5.84448">
        <ele>1473.4</ele>
        <time>2015-07-10T08:15:18Z</time>
      </trkpt>
      <trkpt lat="45.34157" lon="5.84445">
        <ele>1473.4</ele>
        <time>2015-07-10T08:16:02Z</time>
      </trkpt>
      <trkpt lat="45.34158" lon="5.84452">
        <ele>1479.2</ele>
        <time>2015-07-10T08:16:23Z</time>
      </trkpt>
      <trkpt lat="45.34166" lon="5.84483">
        <ele>1480</ele>
        <time>2015-07-10T08:16:33Z</time>
      </trkpt>
      <trkpt lat="45.34172" lon="5.845">
        <ele>1482.8</ele>
        <time>2015-07-10T08:16:54Z</time>
      </trkpt>
      <trkpt lat="45.34177" lon="5.84515">
        <ele>1486</ele>
        <time>2015-07-10T08:17:11Z</time>
      </trkpt>
      <trkpt lat="45.34184" lon="5.84519">
        <ele>1491.8</ele>
        <time>2015-07-10T08:17:29Z</time>
      </trkpt>
      <trkpt lat="45.34189" lon="5.84525">
        <ele>1495.4</ele>
        <time>2015-07-10T08:17:58Z</time>
      </trkpt>
      <trkpt lat="45.3419" lon="5.84548">
        <ele>1492.4</ele>
        <time>2015-07-10T08:18:11Z</time>
      </trkpt>
      <trkpt lat="45.34196" lon="5.84562">
        <ele>1493.4</ele>
        <time>2015-07-10T08:18:24Z</time>
      </trkpt>
      <trkpt lat="45.34202" lon="5.84574">
        <ele>1496.6</ele>
        <time>2015-07-10T08:18:38Z</time>
      </trkpt>
      <trkpt lat="45.34203" lon="5.84584">
        <ele>1499.6</ele>
        <time>2015-07-10T08:18:59Z</time>
      </trkpt>
      <trkpt lat="45.34214" lon="5.84594">
        <ele>1505.4</ele>
        <time>2015-07-10T08:19:17Z</time>
      </trkpt>
      <trkpt lat="45.34224" lon="5.84604">
        <ele>1511</ele>
        <time>2015-07-10T08:19:33Z</time>
      </trkpt>
      <trkpt lat="45.34228" lon="5.84616">
        <ele>1514.6</ele>
        <time>2015-07-10T08:19:51Z</time>
      </trkpt>
      <trkpt lat="45.34235" lon="5.84626">
        <ele>1519.6</ele>
        <time>2015-07-10T08:20:15Z</time>
      </trkpt>
      <trkpt lat="45.34236" lon="5.84639">
        <ele>1519.6</ele>
        <time>2015-07-10T08:20:30Z</time>
      </trkpt>
      <trkpt lat="45.34238" lon="5.84659">
        <ele>1519.6</ele>
        <time>2015-07-10T08:20:42Z</time>
      </trkpt>
      <trkpt lat="45.34245" lon="5.84669">
        <ele>1522</ele>
        <time>2015-07-10T08:20:58Z</time>
      </trkpt>
      <trkpt lat="45.3425" lon="5.84664">
        <ele>1526.4</ele>
        <time>2015-07-10T08:21:14Z</time>
      </trkpt>
      <trkpt lat="45.34253" lon="5.84659">
        <ele>1532.2</ele>
        <time>2015-07-10T08:21:33Z</time>
      </trkpt>
      <trkpt lat="45.34262" lon="5.84656">
        <ele>1537.2</ele>
        <time>2015-07-10T08:21:50Z</time>
      </trkpt>
      <trkpt lat="45.34268" lon="5.84654">
        <ele>1541.8</ele>
        <time>2015-07-10T08:22:07Z</time>
      </trkpt>
      <trkpt lat="45.34271" lon="5.84672">
        <ele>1544.2</ele>
        <time>2015-07-10T08:22:17Z</time>
      </trkpt>
      <trkpt lat="45.34269" lon="5.8469">
        <ele>1544.6</ele>
        <time>2015-07-10T08:22:24Z</time>
      </trkpt>
      <trkpt lat="45.34267" lon="5.84708">
        <ele>1545</ele>
        <time>2015-07-10T08:22:29Z</time>
      </trkpt>
      <trkpt lat="45.34267" lon="5.84725">
        <ele>1545.8</ele>
        <time>2015-07-10T08:22:33Z</time>
      </trkpt>
      <trkpt lat="45.34266" lon="5.84744">
        <ele>1546</ele>
        <time>2015-07-10T08:22:38Z</time>
      </trkpt>
      <trkpt lat="45.34268" lon="5.84767">
        <ele>1546.2</ele>
        <time>2015-07-10T08:22:43Z</time>
      </trkpt>
      <trkpt lat="45.34271" lon="5.84785">
        <ele>1547.4</ele>
        <time>2015-07-10T08:22:47Z</time>
      </trkpt>
      <trkpt lat="45.34275" lon="5.84801">
        <ele>1547.6</ele>
        <time>2015-07-10T08:22:51Z</time>
      </trkpt>
      <trkpt lat="45.34278" lon="5.84815">
        <ele>1547.6</ele>
        <time>2015-07-10T08:22:55Z</time>
      </trkpt>
      <trkpt lat="45.3428" lon="5.84828">
        <ele>1547.6</ele>
        <time>2015-07-10T08:22:59Z</time>
      </trkpt>
      <trkpt lat="45.34282" lon="5.84843">
        <ele>1548.2</ele>
        <time>2015-07-10T08:23:03Z</time>
      </trkpt>
      <trkpt lat="45.34283" lon="5.84859">
        <ele>1548.6</ele>
        <time>2015-07-10T08:23:07Z</time>
      </trkpt>
      <trkpt lat="45.34284" lon="5.84873">
        <ele>1548.6</ele>
        <time>2015-07-10T08:23:12Z</time>
      </trkpt>
      <trkpt lat="45.34284" lon="5.84888">
        <ele>1548.6</ele>
        <time>2015-07-10T08:23:55Z</time>
      </trkpt>
      <trkpt lat="45.34281" lon="5.84911">
        <ele>1548.6</ele>
        <time>2015-07-10T08:24:03Z</time>
      </trkpt>
      <trkpt lat="45.34276" lon="5.84925">
        <ele>1548.6</ele>
        <time>2015-07-10T08:24:07Z</time>
      </trkpt>
      <trkpt lat="45.34273" lon="5.84939">
        <ele>1548.6</ele>
        <time>2015-07-10T08:24:11Z</time>
      </trkpt>
      <trkpt lat="45.34271" lon="5.84954">
        <ele>1549.4</ele>
        <time>2015-07-10T08:24:15Z</time>
      </trkpt>
      <trkpt lat="45.34268" lon="5.84968">
        <ele>1549.4</ele>
        <time>2015-07-10T08:24:19Z</time>
      </trkpt>
      <trkpt lat="45.34265" lon="5.8498">
        <ele>1549.4</ele>
        <time>2015-07-10T08:24:23Z</time>
      </trkpt>
      <trkpt lat="45.34259" lon="5.84991">
        <ele>1550.2</ele>
        <time>2015-07-10T08:24:27Z</time>
      </trkpt>
      <trkpt lat="45.34252" lon="5.85004">
        <ele>1550.4</ele>
        <time>2015-07-10T08:24:31Z</time>
      </trkpt>
      <trkpt lat="45.34245" lon="5.85017">
        <ele>1550.4</ele>
        <time>2015-07-10T08:24:35Z</time>
      </trkpt>
      <trkpt lat="45.34237" lon="5.85027">
        <ele>1550.6</ele>
        <time>2015-07-10T08:24:39Z</time>
      </trkpt>
      <trkpt lat="45.34229" lon="5.85036">
        <ele>1551.2</ele>
        <time>2015-07-10T08:24:43Z</time>
      </trkpt>
      <trkpt lat="45.34221" lon="5.85046">
        <ele>1551.6</ele>
        <time>2015-07-10T08:24:47Z</time>
      </trkpt>
      <trkpt lat="45.34213" lon="5.85056">
        <ele>1552</ele>
        <time>2015-07-10T08:24:51Z</time>
      </trkpt>
      <trkpt lat="45.34203" lon="5.85066">
        <ele>1552.2</ele>
        <time>2015-07-10T08:24:56Z</time>
      </trkpt>
      <trkpt lat="45.34196" lon="5.85077">
        <ele>1552.2</ele>
        <time>2015-07-10T08:25:00Z</time>
      </trkpt>
      <trkpt lat="45.34188" lon="5.85085">
        <ele>1552.8</ele>
        <time>2015-07-10T08:25:05Z</time>
      </trkpt>
      <trkpt lat="45.34177" lon="5.8509">
        <ele>1550.8</ele>
        <time>2015-07-10T08:25:09Z</time>
      </trkpt>
      <trkpt lat="45.34167" lon="5.85099">
        <ele>1549.6</ele>
        <time>2015-07-10T08:25:14Z</time>
      </trkpt>
      <trkpt lat="45.34156" lon="5.85106">
        <ele>1548.2</ele>
        <time>2015-07-10T08:25:18Z</time>
      </trkpt>
      <trkpt lat="45.34146" lon="5.85113">
        <ele>1546.6</ele>
        <time>2015-07-10T08:25:22Z</time>
      </trkpt>
      <trkpt lat="45.34138" lon="5.85121">
        <ele>1546</ele>
        <time>2015-07-10T08:25:26Z</time>
      </trkpt>
      <trkpt lat="45.34128" lon="5.85125">
        <ele>1544.4</ele>
        <time>2015-07-10T08:25:30Z</time>
      </trkpt>
      <trkpt lat="45.34118" lon="5.85132">
        <ele>1542.8</ele>
        <time>2015-07-10T08:25:35Z</time>
      </trkpt>
      <trkpt lat="45.34106" lon="5.85137">
        <ele>1541.4</ele>
        <time>2015-07-10T08:25:40Z</time>
      </trkpt>
      <trkpt lat="45.34098" lon="5.85144">
        <ele>1542.6</ele>
        <time>2015-07-10T08:25:47Z</time>
      </trkpt>
      <trkpt lat="45.34091" lon="5.85152">
        <ele>1546</ele>
        <time>2015-07-10T08:25:56Z</time>
      </trkpt>
      <trkpt lat="45.34085" lon="5.85161">
        <ele>1551</ele>
        <time>2015-07-10T08:26:10Z</time>
      </trkpt>
      <trkpt lat="45.34079" lon="5.85172">
        <ele>1554.8</ele>
        <time>2015-07-10T08:26:23Z</time>
      </trkpt>
      <trkpt lat="45.34076" lon="5.85184">
        <ele>1558.8</ele>
        <time>2015-07-10T08:26:35Z</time>
      </trkpt>
      <trkpt lat="45.34068" lon="5.85191">
        <ele>1559.2</ele>
        <time>2015-07-10T08:26:43Z</time>
      </trkpt>
      <trkpt lat="45.34057" lon="5.85197">
        <ele>1555</ele>
        <time>2015-07-10T08:26:47Z</time>
      </trkpt>
      <trkpt lat="45.34056" lon="5.85206">
        <ele>1552</ele>
        <time>2015-07-10T08:26:52Z</time>
      </trkpt>
      <trkpt lat="45.34062" lon="5.85221">
        <ele>1548.8</ele>
        <time>2015-07-10T08:26:57Z</time>
      </trkpt>
      <trkpt lat="45.34067" lon="5.85235">
        <ele>1546.4</ele>
        <time>2015-07-10T08:27:01Z</time>
      </trkpt>
      <trkpt lat="45.34077" lon="5.85239">
        <ele>1545.6</ele>
        <time>2015-07-10T08:27:06Z</time>
      </trkpt>
      <trkpt lat="45.34088" lon="5.85239">
        <ele>1545.6</ele>
        <time>2015-07-10T08:27:10Z</time>
      </trkpt>
      <trkpt lat="45.34102" lon="5.85243">
        <ele>1543.8</ele>
        <time>2015-07-10T08:27:16Z</time>
      </trkpt>
      <trkpt lat="45.3411" lon="5.85254">
        <ele>1538.8</ele>
        <time>2015-07-10T08:27:23Z</time>
      </trkpt>
      <trkpt lat="45.34107" lon="5.85266">
        <ele>1534.4</ele>
        <time>2015-07-10T08:27:31Z</time>
      </trkpt>
      <trkpt lat="45.34117" lon="5.85277">
        <ele>1529</ele>
        <time>2015-07-10T08:27:38Z</time>
      </trkpt>
      <trkpt lat="45.34126" lon="5.85286">
        <ele>1527.2</ele>
        <time>2015-07-10T08:27:43Z</time>
      </trkpt>
      <trkpt lat="45.34136" lon="5.85293">
        <ele>1524.4</ele>
        <time>2015-07-10T08:27:48Z</time>
      </trkpt>
      <trkpt lat="45.34145" lon="5.85303">
        <ele>1523</ele>
        <time>2015-07-10T08:27:53Z</time>
      </trkpt>
      <trkpt lat="45.34158" lon="5.85312">
        <ele>1522.6</ele>
        <time>2015-07-10T08:27:59Z</time>
      </trkpt>
      <trkpt lat="45.34169" lon="5.8532">
        <ele>1524.4</ele>
        <time>2015-07-10T08:28:03Z</time>
      </trkpt>
      <trkpt lat="45.34179" lon="5.85326">
        <ele>1524.8</ele>
        <time>2015-07-10T08:28:08Z</time>
      </trkpt>
      <trkpt lat="45.34192" lon="5.85329">
        <ele>1525</ele>
        <time>2015-07-10T08:28:13Z</time>
      </trkpt>
      <trkpt lat="45.34206" lon="5.8534">
        <ele>1526.4</ele>
        <time>2015-07-10T08:28:19Z</time>
      </trkpt>
      <trkpt lat="45.34218" lon="5.85349">
        <ele>1526.4</ele>
        <time>2015-07-10T08:28:25Z</time>
      </trkpt>
      <trkpt lat="45.34228" lon="5.85361">
        <ele>1526.4</ele>
        <time>2015-07-10T08:28:31Z</time>
      </trkpt>
      <trkpt lat="45.34244" lon="5.85359">
        <ele>1527.2</ele>
        <time>2015-07-10T08:28:36Z</time>
      </trkpt>
      <trkpt lat="45.34259" lon="5.8536">
        <ele>1527.4</ele>
        <time>2015-07-10T08:28:41Z</time>
      </trkpt>
      <trkpt lat="45.34268" lon="5.85369">
        <ele>1527.4</ele>
        <time>2015-07-10T08:28:45Z</time>
      </trkpt>
      <trkpt lat="45.34278" lon="5.8538">
        <ele>1526.8</ele>
        <time>2015-07-10T08:28:49Z</time>
      </trkpt>
      <trkpt lat="45.34288" lon="5.85389">
        <ele>1523.4</ele>
        <time>2015-07-10T08:28:53Z</time>
      </trkpt>
      <trkpt lat="45.34296" lon="5.854">
        <ele>1518.6</ele>
        <time>2015-07-10T08:28:58Z</time>
      </trkpt>
      <trkpt lat="45.34307" lon="5.85408">
        <ele>1516.2</ele>
        <time>2015-07-10T08:29:03Z</time>
      </trkpt>
      <trkpt lat="45.34316" lon="5.85414">
        <ele>1514.8</ele>
        <time>2015-07-10T08:29:07Z</time>
      </trkpt>
      <trkpt lat="45.34327" lon="5.85415">
        <ele>1514.2</ele>
        <time>2015-07-10T08:29:11Z</time>
      </trkpt>
      <trkpt lat="45.3434" lon="5.85414">
        <ele>1514</ele>
        <time>2015-07-10T08:29:16Z</time>
      </trkpt>
      <trkpt lat="45.34354" lon="5.85416">
        <ele>1516</ele>
        <time>2015-07-10T08:29:21Z</time>
      </trkpt>
      <trkpt lat="45.34369" lon="5.85417">
        <ele>1517.2</ele>
        <time>2015-07-10T08:29:26Z</time>
      </trkpt>
      <trkpt lat="45.34383" lon="5.85421">
        <ele>1517.2</ele>
        <time>2015-07-10T08:29:31Z</time>
      </trkpt>
      <trkpt lat="45.34397" lon="5.85428">
        <ele>1517.2</ele>
        <time>2015-07-10T08:29:37Z</time>
      </trkpt>
      <trkpt lat="45.3441" lon="5.85429">
        <ele>1517.2</ele>
        <time>2015-07-10T08:29:41Z</time>
      </trkpt>
      <trkpt lat="45.34423" lon="5.85432">
        <ele>1517.2</ele>
        <time>2015-07-10T08:29:47Z</time>
      </trkpt>
      <trkpt lat="45.34435" lon="5.85436">
        <ele>1517.6</ele>
        <time>2015-07-10T08:29:52Z</time>
      </trkpt>
      <trkpt lat="45.34444" lon="5.85455">
        <ele>1519.2</ele>
        <time>2015-07-10T08:29:58Z</time>
      </trkpt>
      <trkpt lat="45.3445" lon="5.85472">
        <ele>1519.8</ele>
        <time>2015-07-10T08:30:02Z</time>
      </trkpt>
      <trkpt lat="45.34458" lon="5.85487">
        <ele>1520</ele>
        <time>2015-07-10T08:30:06Z</time>
      </trkpt>
      <trkpt lat="45.34473" lon="5.85494">
        <ele>1517.8</ele>
        <time>2015-07-10T08:30:11Z</time>
      </trkpt>
      <trkpt lat="45.34484" lon="5.85508">
        <ele>1516.8</ele>
        <time>2015-07-10T08:30:16Z</time>
      </trkpt>
      <trkpt lat="45.34499" lon="5.85512">
        <ele>1516</ele>
        <time>2015-07-10T08:30:21Z</time>
      </trkpt>
      <trkpt lat="45.3451" lon="5.85523">
        <ele>1515</ele>
        <time>2015-07-10T08:30:26Z</time>
      </trkpt>
      <trkpt lat="45.34521" lon="5.85531">
        <ele>1513.4</ele>
        <time>2015-07-10T08:30:30Z</time>
      </trkpt>
      <trkpt lat="45.34531" lon="5.8554">
        <ele>1513.2</ele>
        <time>2015-07-10T08:30:35Z</time>
      </trkpt>
      <trkpt lat="45.3455" lon="5.85541">
        <ele>1512.4</ele>
        <time>2015-07-10T08:30:40Z</time>
      </trkpt>
      <trkpt lat="45.34563" lon="5.85546">
        <ele>1512.4</ele>
        <time>2015-07-10T08:30:45Z</time>
      </trkpt>
      <trkpt lat="45.34578" lon="5.85547">
        <ele>1512.4</ele>
        <time>2015-07-10T08:30:50Z</time>
      </trkpt>
      <trkpt lat="45.34592" lon="5.8555">
        <ele>1512.4</ele>
        <time>2015-07-10T08:30:54Z</time>
      </trkpt>
      <trkpt lat="45.34606" lon="5.85555">
        <ele>1514.6</ele>
        <time>2015-07-10T08:31:00Z</time>
      </trkpt>
      <trkpt lat="45.34624" lon="5.85555">
        <ele>1514.6</ele>
        <time>2015-07-10T08:31:06Z</time>
      </trkpt>
      <trkpt lat="45.34638" lon="5.85558">
        <ele>1514.6</ele>
        <time>2015-07-10T08:31:14Z</time>
      </trkpt>
      <trkpt lat="45.34647" lon="5.85571">
        <ele>1513.8</ele>
        <time>2015-07-10T08:31:20Z</time>
      </trkpt>
      <trkpt lat="45.34659" lon="5.85583">
        <ele>1510.8</ele>
        <time>2015-07-10T08:31:25Z</time>
      </trkpt>
      <trkpt lat="45.34671" lon="5.85589">
        <ele>1508.8</ele>
        <time>2015-07-10T08:31:29Z</time>
      </trkpt>
      <trkpt lat="45.34677" lon="5.85603">
        <ele>1506.4</ele>
        <time>2015-07-10T08:31:33Z</time>
      </trkpt>
      <trkpt lat="45.34684" lon="5.85615">
        <ele>1505.2</ele>
        <time>2015-07-10T08:31:37Z</time>
      </trkpt>
      <trkpt lat="45.34689" lon="5.8563">
        <ele>1503.2</ele>
        <time>2015-07-10T08:31:41Z</time>
      </trkpt>
      <trkpt lat="45.34695" lon="5.85644">
        <ele>1501.6</ele>
        <time>2015-07-10T08:31:45Z</time>
      </trkpt>
      <trkpt lat="45.34701" lon="5.85656">
        <ele>1500.2</ele>
        <time>2015-07-10T08:31:50Z</time>
      </trkpt>
      <trkpt lat="45.3471" lon="5.85666">
        <ele>1498</ele>
        <time>2015-07-10T08:31:54Z</time>
      </trkpt>
      <trkpt lat="45.34722" lon="5.85675">
        <ele>1495.8</ele>
        <time>2015-07-10T08:31:58Z</time>
      </trkpt>
      <trkpt lat="45.34731" lon="5.85689">
        <ele>1495.4</ele>
        <time>2015-07-10T08:32:02Z</time>
      </trkpt>
      <trkpt lat="45.34736" lon="5.85701">
        <ele>1493.8</ele>
        <time>2015-07-10T08:32:05Z</time>
      </trkpt>
      <trkpt lat="45.3474" lon="5.85719">
        <ele>1492</ele>
        <time>2015-07-10T08:32:09Z</time>
      </trkpt>
      <trkpt lat="45.34745" lon="5.8573">
        <ele>1491</ele>
        <time>2015-07-10T08:32:12Z</time>
      </trkpt>
      <trkpt lat="45.3475" lon="5.85741">
        <ele>1489</ele>
        <time>2015-07-10T08:32:15Z</time>
      </trkpt>
      <trkpt lat="45.34759" lon="5.85754">
        <ele>1487.2</ele>
        <time>2015-07-10T08:32:19Z</time>
      </trkpt>
      <trkpt lat="45.34765" lon="5.85769">
        <ele>1486.4</ele>
        <time>2015-07-10T08:32:23Z</time>
      </trkpt>
      <trkpt lat="45.3477" lon="5.85782">
        <ele>1484.4</ele>
        <time>2015-07-10T08:32:28Z</time>
      </trkpt>
      <trkpt lat="45.34782" lon="5.85787">
        <ele>1484.2</ele>
        <time>2015-07-10T08:32:56Z</time>
      </trkpt>
      <trkpt lat="45.34791" lon="5.85798">
        <ele>1482.4</ele>
        <time>2015-07-10T08:33:08Z</time>
      </trkpt>
      <trkpt lat="45.34802" lon="5.85806">
        <ele>1481.2</ele>
        <time>2015-07-10T08:33:19Z</time>
      </trkpt>
      <trkpt lat="45.34792" lon="5.85818">
        <ele>1480.4</ele>
        <time>2015-07-10T08:33:25Z</time>
      </trkpt>
      <trkpt lat="45.34783" lon="5.85827">
        <ele>1479.4</ele>
        <time>2015-07-10T08:33:29Z</time>
      </trkpt>
      <trkpt lat="45.34774" lon="5.85835">
        <ele>1479</ele>
        <time>2015-07-10T08:33:33Z</time>
      </trkpt>
      <trkpt lat="45.34767" lon="5.85841">
        <ele>1479</ele>
        <time>2015-07-10T08:33:37Z</time>
      </trkpt>
      <trkpt lat="45.34755" lon="5.85847">
        <ele>1479</ele>
        <time>2015-07-10T08:33:42Z</time>
      </trkpt>
      <trkpt lat="45.34745" lon="5.85855">
        <ele>1479</ele>
        <time>2015-07-10T08:33:46Z</time>
      </trkpt>
      <trkpt lat="45.34733" lon="5.85869">
        <ele>1479</ele>
        <time>2015-07-10T08:33:50Z</time>
      </trkpt>
      <trkpt lat="45.34725" lon="5.8588">
        <ele>1479</ele>
        <time>2015-07-10T08:33:54Z</time>
      </trkpt>
      <trkpt lat="45.34716" lon="5.85891">
        <ele>1479</ele>
        <time>2015-07-10T08:33:59Z</time>
      </trkpt>
      <trkpt lat="45.34707" lon="5.85905">
        <ele>1480.6</ele>
        <time>2015-07-10T08:34:04Z</time>
      </trkpt>
      <trkpt lat="45.34698" lon="5.85914">
        <ele>1481.2</ele>
        <time>2015-07-10T08:34:09Z</time>
      </trkpt>
      <trkpt lat="45.34689" lon="5.85929">
        <ele>1481.4</ele>
        <time>2015-07-10T08:34:15Z</time>
      </trkpt>
      <trkpt lat="45.34678" lon="5.8594">
        <ele>1481.4</ele>
        <time>2015-07-10T08:34:20Z</time>
      </trkpt>
      <trkpt lat="45.34668" lon="5.85953">
        <ele>1481.4</ele>
        <time>2015-07-10T08:34:24Z</time>
      </trkpt>
      <trkpt lat="45.3466" lon="5.85967">
        <ele>1479.4</ele>
        <time>2015-07-10T08:34:28Z</time>
      </trkpt>
      <trkpt lat="45.34649" lon="5.8598">
        <ele>1479</ele>
        <time>2015-07-10T08:34:32Z</time>
      </trkpt>
      <trkpt lat="45.34641" lon="5.85993">
        <ele>1479</ele>
        <time>2015-07-10T08:34:36Z</time>
      </trkpt>
      <trkpt lat="45.34633" lon="5.86007">
        <ele>1478.4</ele>
        <time>2015-07-10T08:34:40Z</time>
      </trkpt>
      <trkpt lat="45.3463" lon="5.86027">
        <ele>1477.8</ele>
        <time>2015-07-10T08:34:45Z</time>
      </trkpt>
      <trkpt lat="45.34633" lon="5.86043">
        <ele>1477.4</ele>
        <time>2015-07-10T08:34:49Z</time>
      </trkpt>
      <trkpt lat="45.34629" lon="5.86064">
        <ele>1476.4</ele>
        <time>2015-07-10T08:34:53Z</time>
      </trkpt>
      <trkpt lat="45.34627" lon="5.86083">
        <ele>1475.4</ele>
        <time>2015-07-10T08:34:56Z</time>
      </trkpt>
      <trkpt lat="45.34626" lon="5.861">
        <ele>1474.4</ele>
        <time>2015-07-10T08:34:59Z</time>
      </trkpt>
      <trkpt lat="45.34622" lon="5.86121">
        <ele>1472</ele>
        <time>2015-07-10T08:35:02Z</time>
      </trkpt>
      <trkpt lat="45.3462" lon="5.86139">
        <ele>1471.6</ele>
        <time>2015-07-10T08:35:05Z</time>
      </trkpt>
      <trkpt lat="45.34622" lon="5.86152">
        <ele>1471.6</ele>
        <time>2015-07-10T08:35:09Z</time>
      </trkpt>
      <trkpt lat="45.34622" lon="5.86165">
        <ele>1470.8</ele>
        <time>2015-07-10T08:35:14Z</time>
      </trkpt>
      <trkpt lat="45.34622" lon="5.86184">
        <ele>1472.2</ele>
        <time>2015-07-10T08:35:20Z</time>
      </trkpt>
      <trkpt lat="45.34623" lon="5.8621">
        <ele>1472.8</ele>
        <time>2015-07-10T08:35:24Z</time>
      </trkpt>
      <trkpt lat="45.34625" lon="5.86221">
        <ele>1473.6</ele>
        <time>2015-07-10T08:35:28Z</time>
      </trkpt>
      <trkpt lat="45.3463" lon="5.86239">
        <ele>1470.4</ele>
        <time>2015-07-10T08:35:33Z</time>
      </trkpt>
      <trkpt lat="45.34637" lon="5.86251">
        <ele>1468.4</ele>
        <time>2015-07-10T08:35:37Z</time>
      </trkpt>
      <trkpt lat="45.3464" lon="5.86264">
        <ele>1468.2</ele>
        <time>2015-07-10T08:35:41Z</time>
      </trkpt>
      <trkpt lat="45.34639" lon="5.86282">
        <ele>1468.2</ele>
        <time>2015-07-10T08:35:45Z</time>
      </trkpt>
      <trkpt lat="45.3464" lon="5.86297">
        <ele>1468.2</ele>
        <time>2015-07-10T08:35:49Z</time>
      </trkpt>
      <trkpt lat="45.34643" lon="5.86313">
        <ele>1468.2</ele>
        <time>2015-07-10T08:35:52Z</time>
      </trkpt>
      <trkpt lat="45.34648" lon="5.86329">
        <ele>1467.8</ele>
        <time>2015-07-10T08:35:55Z</time>
      </trkpt>
      <trkpt lat="45.34654" lon="5.86344">
        <ele>1467</ele>
        <time>2015-07-10T08:35:58Z</time>
      </trkpt>
      <trkpt lat="45.34662" lon="5.86356">
        <ele>1467</ele>
        <time>2015-07-10T08:36:03Z</time>
      </trkpt>
      <trkpt lat="45.34667" lon="5.86373">
        <ele>1467</ele>
        <time>2015-07-10T08:36:07Z</time>
      </trkpt>
      <trkpt lat="45.34672" lon="5.86389">
        <ele>1467</ele>
        <time>2015-07-10T08:36:11Z</time>
      </trkpt>
      <trkpt lat="45.34673" lon="5.86402">
        <ele>1468.6</ele>
        <time>2015-07-10T08:36:17Z</time>
      </trkpt>
      <trkpt lat="45.34673" lon="5.86419">
        <ele>1471.2</ele>
        <time>2015-07-10T08:36:23Z</time>
      </trkpt>
      <trkpt lat="45.34674" lon="5.86432">
        <ele>1472.6</ele>
        <time>2015-07-10T08:36:28Z</time>
      </trkpt>
      <trkpt lat="45.34673" lon="5.86446">
        <ele>1474.2</ele>
        <time>2015-07-10T08:36:35Z</time>
      </trkpt>
      <trkpt lat="45.34669" lon="5.86457">
        <ele>1479</ele>
        <time>2015-07-10T08:36:52Z</time>
      </trkpt>
      <trkpt lat="45.34663" lon="5.86468">
        <ele>1483</ele>
        <time>2015-07-10T08:37:05Z</time>
      </trkpt>
      <trkpt lat="45.34655" lon="5.86475">
        <ele>1486.8</ele>
        <time>2015-07-10T08:37:17Z</time>
      </trkpt>
      <trkpt lat="45.34639" lon="5.86485">
        <ele>1488.8</ele>
        <time>2015-07-10T08:37:25Z</time>
      </trkpt>
      <trkpt lat="45.34627" lon="5.86494">
        <ele>1490.4</ele>
        <time>2015-07-10T08:37:32Z</time>
      </trkpt>
      <trkpt lat="45.34618" lon="5.86503">
        <ele>1492.6</ele>
        <time>2015-07-10T08:37:39Z</time>
      </trkpt>
      <trkpt lat="45.34607" lon="5.86508">
        <ele>1495.2</ele>
        <time>2015-07-10T08:37:46Z</time>
      </trkpt>
      <trkpt lat="45.34595" lon="5.86507">
        <ele>1497.6</ele>
        <time>2015-07-10T08:37:56Z</time>
      </trkpt>
      <trkpt lat="45.34584" lon="5.86508">
        <ele>1500.2</ele>
        <time>2015-07-10T08:38:02Z</time>
      </trkpt>
      <trkpt lat="45.34569" lon="5.86493">
        <ele>1502</ele>
        <time>2015-07-10T08:38:10Z</time>
      </trkpt>
      <trkpt lat="45.34562" lon="5.86484">
        <ele>1504</ele>
        <time>2015-07-10T08:38:18Z</time>
      </trkpt>
      <trkpt lat="45.34554" lon="5.86475">
        <ele>1506.2</ele>
        <time>2015-07-10T08:38:25Z</time>
      </trkpt>
      <trkpt lat="45.34547" lon="5.86463">
        <ele>1508.8</ele>
        <time>2015-07-10T08:38:35Z</time>
      </trkpt>
      <trkpt lat="45.34532" lon="5.8646">
        <ele>1511.8</ele>
        <time>2015-07-10T08:38:46Z</time>
      </trkpt>
      <trkpt lat="45.34516" lon="5.86457">
        <ele>1516</ele>
        <time>2015-07-10T08:38:58Z</time>
      </trkpt>
      <trkpt lat="45.34503" lon="5.86448">
        <ele>1519.6</ele>
        <time>2015-07-10T08:39:11Z</time>
      </trkpt>
      <trkpt lat="45.34492" lon="5.86446">
        <ele>1523.8</ele>
        <time>2015-07-10T08:39:24Z</time>
      </trkpt>
      <trkpt lat="45.34478" lon="5.86448">
        <ele>1528.8</ele>
        <time>2015-07-10T08:39:41Z</time>
      </trkpt>
      <trkpt lat="45.34461" lon="5.86458">
        <ele>1534</ele>
        <time>2015-07-10T08:39:57Z</time>
      </trkpt>
      <trkpt lat="45.34446" lon="5.86468">
        <ele>1536.8</ele>
        <time>2015-07-10T08:40:08Z</time>
      </trkpt>
      <trkpt lat="45.34436" lon="5.86471">
        <ele>1538.6</ele>
        <time>2015-07-10T08:40:15Z</time>
      </trkpt>
      <trkpt lat="45.34429" lon="5.86478">
        <ele>1540.6</ele>
        <time>2015-07-10T08:40:24Z</time>
      </trkpt>
      <trkpt lat="45.34427" lon="5.8649">
        <ele>1545</ele>
        <time>2015-07-10T08:40:40Z</time>
      </trkpt>
      <trkpt lat="45.34423" lon="5.86508">
        <ele>1548.2</ele>
        <time>2015-07-10T08:40:52Z</time>
      </trkpt>
      <trkpt lat="45.34417" lon="5.86519">
        <ele>1551.8</ele>
        <time>2015-07-10T08:41:06Z</time>
      </trkpt>
      <trkpt lat="45.34418" lon="5.86528">
        <ele>1556.4</ele>
        <time>2015-07-10T08:41:21Z</time>
      </trkpt>
      <trkpt lat="45.34416" lon="5.86542">
        <ele>1560</ele>
        <time>2015-07-10T08:41:35Z</time>
      </trkpt>
      <trkpt lat="45.34414" lon="5.86552">
        <ele>1563.6</ele>
        <time>2015-07-10T08:41:51Z</time>
      </trkpt>
      <trkpt lat="45.34415" lon="5.86563">
        <ele>1567.8</ele>
        <time>2015-07-10T08:42:07Z</time>
      </trkpt>
      <trkpt lat="45.34415" lon="5.86575">
        <ele>1571.6</ele>
        <time>2015-07-10T08:42:22Z</time>
      </trkpt>
      <trkpt lat="45.34414" lon="5.86587">
        <ele>1574</ele>
        <time>2015-07-10T08:42:33Z</time>
      </trkpt>
      <trkpt lat="45.34412" lon="5.86596">
        <ele>1576.6</ele>
        <time>2015-07-10T08:42:47Z</time>
      </trkpt>
      <trkpt lat="45.34414" lon="5.8661">
        <ele>1581</ele>
        <time>2015-07-10T08:43:02Z</time>
      </trkpt>
      <trkpt lat="45.34416" lon="5.86618">
        <ele>1584.4</ele>
        <time>2015-07-10T08:43:17Z</time>
      </trkpt>
      <trkpt lat="45.34416" lon="5.86628">
        <ele>1588.8</ele>
        <time>2015-07-10T08:43:34Z</time>
      </trkpt>
      <trkpt lat="45.34417" lon="5.86638">
        <ele>1592.4</ele>
        <time>2015-07-10T08:43:50Z</time>
      </trkpt>
      <trkpt lat="45.34423" lon="5.86649">
        <ele>1597.8</ele>
        <time>2015-07-10T08:44:11Z</time>
      </trkpt>
      <trkpt lat="45.34429" lon="5.86658">
        <ele>1602.2</ele>
        <time>2015-07-10T08:44:27Z</time>
      </trkpt>
      <trkpt lat="45.34429" lon="5.86668">
        <ele>1606</ele>
        <time>2015-07-10T08:44:41Z</time>
      </trkpt>
      <trkpt lat="45.34428" lon="5.8668">
        <ele>1609</ele>
        <time>2015-07-10T08:44:54Z</time>
      </trkpt>
      <trkpt lat="45.34426" lon="5.86686">
        <ele>1612</ele>
        <time>2015-07-10T08:45:07Z</time>
      </trkpt>
      <trkpt lat="45.34425" lon="5.86698">
        <ele>1617.4</ele>
        <time>2015-07-10T08:45:26Z</time>
      </trkpt>
      <trkpt lat="45.34431" lon="5.86709">
        <ele>1622.4</ele>
        <time>2015-07-10T08:45:44Z</time>
      </trkpt>
      <trkpt lat="45.34432" lon="5.8672">
        <ele>1626.2</ele>
        <time>2015-07-10T08:46:01Z</time>
      </trkpt>
      <trkpt lat="45.34437" lon="5.86728">
        <ele>1630.8</ele>
        <time>2015-07-10T08:46:17Z</time>
      </trkpt>
      <trkpt lat="45.34443" lon="5.86736">
        <ele>1635</ele>
        <time>2015-07-10T08:46:32Z</time>
      </trkpt>
      <trkpt lat="45.34446" lon="5.86746">
        <ele>1639</ele>
        <time>2015-07-10T08:46:47Z</time>
      </trkpt>
      <trkpt lat="45.34446" lon="5.86755">
        <ele>1643.2</ele>
        <time>2015-07-10T08:47:03Z</time>
      </trkpt>
      <trkpt lat="45.3445" lon="5.86766">
        <ele>1648</ele>
        <time>2015-07-10T08:47:17Z</time>
      </trkpt>
      <trkpt lat="45.34453" lon="5.86776">
        <ele>1651.8</ele>
        <time>2015-07-10T08:47:32Z</time>
      </trkpt>
      <trkpt lat="45.34453" lon="5.86785">
        <ele>1655.2</ele>
        <time>2015-07-10T08:47:47Z</time>
      </trkpt>
      <trkpt lat="45.34459" lon="5.86789">
        <ele>1658.8</ele>
        <time>2015-07-10T08:48:01Z</time>
      </trkpt>
      <trkpt lat="45.34456" lon="5.868">
        <ele>1663.6</ele>
        <time>2015-07-10T08:48:17Z</time>
      </trkpt>
      <trkpt lat="45.34455" lon="5.8681">
        <ele>1668.4</ele>
        <time>2015-07-10T08:48:34Z</time>
      </trkpt>
      <trkpt lat="45.34458" lon="5.86821">
        <ele>1673.4</ele>
        <time>2015-07-10T08:48:51Z</time>
      </trkpt>
      <trkpt lat="45.34459" lon="5.86832">
        <ele>1678.6</ele>
        <time>2015-07-10T08:49:10Z</time>
      </trkpt>
      <trkpt lat="45.3446" lon="5.86841">
        <ele>1682.8</ele>
        <time>2015-07-10T08:49:27Z</time>
      </trkpt>
      <trkpt lat="45.34462" lon="5.86852">
        <ele>1686.2</ele>
        <time>2015-07-10T08:49:42Z</time>
      </trkpt>
      <trkpt lat="45.34469" lon="5.86858">
        <ele>1690.2</ele>
        <time>2015-07-10T08:49:55Z</time>
      </trkpt>
      <trkpt lat="45.34471" lon="5.86867">
        <ele>1694.6</ele>
        <time>2015-07-10T08:50:12Z</time>
      </trkpt>
      <trkpt lat="45.34477" lon="5.86873">
        <ele>1698.4</ele>
        <time>2015-07-10T08:50:26Z</time>
      </trkpt>
      <trkpt lat="45.34472" lon="5.86883">
        <ele>1702</ele>
        <time>2015-07-10T08:50:41Z</time>
      </trkpt>
      <trkpt lat="45.34474" lon="5.86892">
        <ele>1706.8</ele>
        <time>2015-07-10T08:50:59Z</time>
      </trkpt>
      <trkpt lat="45.34473" lon="5.86899">
        <ele>1710.6</ele>
        <time>2015-07-10T08:51:15Z</time>
      </trkpt>
      <trkpt lat="45.34472" lon="5.8691">
        <ele>1715.8</ele>
        <time>2015-07-10T08:51:35Z</time>
      </trkpt>
      <trkpt lat="45.34473" lon="5.86923">
        <ele>1719.8</ele>
        <time>2015-07-10T08:51:50Z</time>
      </trkpt>
      <trkpt lat="45.34474" lon="5.86933">
        <ele>1724</ele>
        <time>2015-07-10T08:52:03Z</time>
      </trkpt>
      <trkpt lat="45.34474" lon="5.86942">
        <ele>1728.8</ele>
        <time>2015-07-10T08:52:22Z</time>
      </trkpt>
      <trkpt lat="45.34471" lon="5.86949">
        <ele>1731.6</ele>
        <time>2015-07-10T08:52:36Z</time>
      </trkpt>
      <trkpt lat="45.34472" lon="5.86962">
        <ele>1737.8</ele>
        <time>2015-07-10T08:52:58Z</time>
      </trkpt>
      <trkpt lat="45.34471" lon="5.86973">
        <ele>1741.6</ele>
        <time>2015-07-10T08:53:14Z</time>
      </trkpt>
      <trkpt lat="45.34472" lon="5.86983">
        <ele>1747.2</ele>
        <time>2015-07-10T08:53:33Z</time>
      </trkpt>
      <trkpt lat="45.3447" lon="5.86994">
        <ele>1749.8</ele>
        <time>2015-07-10T08:53:46Z</time>
      </trkpt>
      <trkpt lat="45.34472" lon="5.87001">
        <ele>1754</ele>
        <time>2015-07-10T08:54:02Z</time>
      </trkpt>
      <trkpt lat="45.34476" lon="5.8701">
        <ele>1758</ele>
        <time>2015-07-10T08:54:18Z</time>
      </trkpt>
      <trkpt lat="45.34477" lon="5.87018">
        <ele>1763.8</ele>
        <time>2015-07-10T08:54:39Z</time>
      </trkpt>
      <trkpt lat="45.34485" lon="5.87023">
        <ele>1767.6</ele>
        <time>2015-07-10T08:54:57Z</time>
      </trkpt>
      <trkpt lat="45.34492" lon="5.87026">
        <ele>1770.2</ele>
        <time>2015-07-10T08:55:13Z</time>
      </trkpt>
      <trkpt lat="45.345" lon="5.87032">
        <ele>1771.6</ele>
        <time>2015-07-10T08:55:25Z</time>
      </trkpt>
      <trkpt lat="45.34505" lon="5.8704">
        <ele>1774.8</ele>
        <time>2015-07-10T08:55:42Z</time>
      </trkpt>
      <trkpt lat="45.3451" lon="5.87049">
        <ele>1779.2</ele>
        <time>2015-07-10T08:56:01Z</time>
      </trkpt>
      <trkpt lat="45.34516" lon="5.8706">
        <ele>1785.8</ele>
        <time>2015-07-10T08:56:27Z</time>
      </trkpt>
      <trkpt lat="45.34518" lon="5.8707">
        <ele>1790.6</ele>
        <time>2015-07-10T08:56:44Z</time>
      </trkpt>
      <trkpt lat="45.3452" lon="5.87079">
        <ele>1795.4</ele>
        <time>2015-07-10T08:57:03Z</time>
      </trkpt>
      <trkpt lat="45.34526" lon="5.87086">
        <ele>1799</ele>
        <time>2015-07-10T08:57:19Z</time>
      </trkpt>
      <trkpt lat="45.34527" lon="5.87094">
        <ele>1803</ele>
        <time>2015-07-10T08:57:39Z</time>
      </trkpt>
      <trkpt lat="45.34531" lon="5.87102">
        <ele>1807.6</ele>
        <time>2015-07-10T08:58:00Z</time>
      </trkpt>
      <trkpt lat="45.34535" lon="5.8711">
        <ele>1811.8</ele>
        <time>2015-07-10T08:58:17Z</time>
      </trkpt>
      <trkpt lat="45.3454" lon="5.87117">
        <ele>1815.6</ele>
        <time>2015-07-10T08:58:33Z</time>
      </trkpt>
      <trkpt lat="45.34542" lon="5.87124">
        <ele>1820</ele>
        <time>2015-07-10T08:58:50Z</time>
      </trkpt>
      <trkpt lat="45.34549" lon="5.8713">
        <ele>1825.6</ele>
        <time>2015-07-10T08:59:07Z</time>
      </trkpt>
      <trkpt lat="45.3455" lon="5.87138">
        <ele>1831.2</ele>
        <time>2015-07-10T08:59:31Z</time>
      </trkpt>
      <trkpt lat="45.34551" lon="5.87147">
        <ele>1835.4</ele>
        <time>2015-07-10T08:59:47Z</time>
      </trkpt>
      <trkpt lat="45.34555" lon="5.87156">
        <ele>1838.6</ele>
        <time>2015-07-10T09:00:02Z</time>
      </trkpt>
      <trkpt lat="45.34558" lon="5.87164">
        <ele>1842.4</ele>
        <time>2015-07-10T09:00:17Z</time>
      </trkpt>
      <trkpt lat="45.34559" lon="5.87168">
        <ele>1847.6</ele>
        <time>2015-07-10T09:00:35Z</time>
      </trkpt>
      <trkpt lat="45.34559" lon="5.87176">
        <ele>1853.4</ele>
        <time>2015-07-10T09:00:58Z</time>
      </trkpt>
      <trkpt lat="45.3456" lon="5.87185">
        <ele>1856.2</ele>
        <time>2015-07-10T09:01:16Z</time>
      </trkpt>
      <trkpt lat="45.34566" lon="5.8719">
        <ele>1861.6</ele>
        <time>2015-07-10T09:01:33Z</time>
      </trkpt>
      <trkpt lat="45.3457" lon="5.87198">
        <ele>1867</ele>
        <time>2015-07-10T09:01:49Z</time>
      </trkpt>
      <trkpt lat="45.34571" lon="5.87206">
        <ele>1870.4</ele>
        <time>2015-07-10T09:02:05Z</time>
      </trkpt>
      <trkpt lat="45.34578" lon="5.87214">
        <ele>1874.8</ele>
        <time>2015-07-10T09:02:22Z</time>
      </trkpt>
      <trkpt lat="45.34573" lon="5.87223">
        <ele>1878.6</ele>
        <time>2015-07-10T09:02:36Z</time>
      </trkpt>
      <trkpt lat="45.34574" lon="5.87229">
        <ele>1884.8</ele>
        <time>2015-07-10T09:02:58Z</time>
      </trkpt>
      <trkpt lat="45.34574" lon="5.87237">
        <ele>1890.6</ele>
        <time>2015-07-10T09:03:17Z</time>
      </trkpt>
      <trkpt lat="45.34575" lon="5.87246">
        <ele>1894.8</ele>
        <time>2015-07-10T09:03:34Z</time>
      </trkpt>
      <trkpt lat="45.34576" lon="5.8726">
        <ele>1900.8</ele>
        <time>2015-07-10T09:03:53Z</time>
      </trkpt>
      <trkpt lat="45.34576" lon="5.8727">
        <ele>1904.6</ele>
        <time>2015-07-10T09:04:06Z</time>
      </trkpt>
      <trkpt lat="45.34576" lon="5.87276">
        <ele>1909.6</ele>
        <time>2015-07-10T09:04:24Z</time>
      </trkpt>
      <trkpt lat="45.34575" lon="5.87284">
        <ele>1914.8</ele>
        <time>2015-07-10T09:04:49Z</time>
      </trkpt>
      <trkpt lat="45.34584" lon="5.87287">
        <ele>1917.2</ele>
        <time>2015-07-10T09:05:02Z</time>
      </trkpt>
      <trkpt lat="45.34591" lon="5.87285">
        <ele>1920.2</ele>
        <time>2015-07-10T09:05:15Z</time>
      </trkpt>
      <trkpt lat="45.34595" lon="5.87293">
        <ele>1923.2</ele>
        <time>2015-07-10T09:05:28Z</time>
      </trkpt>
      <trkpt lat="45.346" lon="5.87297">
        <ele>1925.4</ele>
        <time>2015-07-10T09:05:40Z</time>
      </trkpt>
      <trkpt lat="45.34602" lon="5.87304">
        <ele>1929.6</ele>
        <time>2015-07-10T09:05:57Z</time>
      </trkpt>
      <trkpt lat="45.34596" lon="5.87314">
        <ele>1936.8</ele>
        <time>2015-07-10T09:06:21Z</time>
      </trkpt>
      <trkpt lat="45.34593" lon="5.87324">
        <ele>1941.6</ele>
        <time>2015-07-10T09:06:38Z</time>
      </trkpt>
      <trkpt lat="45.34589" lon="5.87336">
        <ele>1949</ele>
        <time>2015-07-10T09:07:23Z</time>
      </trkpt>
      <trkpt lat="45.34584" lon="5.87346">
        <ele>1956.2</ele>
        <time>2015-07-10T09:07:48Z</time>
      </trkpt>
      <trkpt lat="45.34589" lon="5.87349">
        <ele>1959</ele>
        <time>2015-07-10T09:08:12Z</time>
      </trkpt>
      <trkpt lat="45.34598" lon="5.87348">
        <ele>1963.2</ele>
        <time>2015-07-10T09:08:33Z</time>
      </trkpt>
      <trkpt lat="45.34599" lon="5.87356">
        <ele>1970.6</ele>
        <time>2015-07-10T09:08:51Z</time>
      </trkpt>
      <trkpt lat="45.346" lon="5.87366">
        <ele>1977.4</ele>
        <time>2015-07-10T09:09:08Z</time>
      </trkpt>
      <trkpt lat="45.34604" lon="5.87376">
        <ele>1980.6</ele>
        <time>2015-07-10T09:09:22Z</time>
      </trkpt>
      <trkpt lat="45.34616" lon="5.87373">
        <ele>1983.8</ele>
        <time>2015-07-10T09:09:34Z</time>
      </trkpt>
      <trkpt lat="45.34623" lon="5.87373">
        <ele>1986.4</ele>
        <time>2015-07-10T09:09:44Z</time>
      </trkpt>
      <trkpt lat="45.34629" lon="5.87356">
        <ele>1991</ele>
        <time>2015-07-10T09:10:00Z</time>
      </trkpt>
      <trkpt lat="45.34627" lon="5.87341">
        <ele>1996.2</ele>
        <time>2015-07-10T09:10:13Z</time>
      </trkpt>
      <trkpt lat="45.34628" lon="5.87333">
        <ele>2000.8</ele>
        <time>2015-07-10T09:10:30Z</time>
      </trkpt>
      <trkpt lat="45.34635" lon="5.87329">
        <ele>2003.8</ele>
        <time>2015-07-10T09:10:47Z</time>
      </trkpt>
      <trkpt lat="45.34644" lon="5.8732">
        <ele>2007.8</ele>
        <time>2015-07-10T09:11:03Z</time>
      </trkpt>
      <trkpt lat="45.34648" lon="5.87322">
        <ele>2012.8</ele>
        <time>2015-07-10T09:11:21Z</time>
      </trkpt>
      <trkpt lat="45.34649" lon="5.8731">
        <ele>2017.8</ele>
        <time>2015-07-10T09:11:40Z</time>
      </trkpt>
      <trkpt lat="45.34656" lon="5.87315">
        <ele>2019.6</ele>
        <time>2015-07-10T09:11:48Z</time>
      </trkpt>
      <trkpt lat="45.34666" lon="5.87315">
        <ele>2019.6</ele>
        <time>2015-07-10T09:11:55Z</time>
      </trkpt>
      <trkpt lat="45.34676" lon="5.87316">
        <ele>2020.2</ele>
        <time>2015-07-10T09:12:02Z</time>
      </trkpt>
      <trkpt lat="45.34686" lon="5.87319">
        <ele>2020.2</ele>
        <time>2015-07-10T09:12:08Z</time>
      </trkpt>
      <trkpt lat="45.34695" lon="5.87318">
        <ele>2021.8</ele>
        <time>2015-07-10T09:12:16Z</time>
      </trkpt>
      <trkpt lat="45.347" lon="5.87321">
        <ele>2022</ele>
        <time>2015-07-10T09:12:23Z</time>
      </trkpt>
      <trkpt lat="45.34701" lon="5.87322">
        <ele>2022</ele>
        <time>2015-07-10T09:12:25Z</time>
      </trkpt>
      <trkpt lat="45.34692" lon="5.87321">
        <ele>2022</ele>
        <time>2015-07-10T09:12:59Z</time>
      </trkpt>
      <trkpt lat="45.34684" lon="5.87317">
        <ele>2022</ele>
        <time>2015-07-10T09:13:08Z</time>
      </trkpt>
      <trkpt lat="45.34675" lon="5.87322">
        <ele>2020</ele>
        <time>2015-07-10T09:13:18Z</time>
      </trkpt>
      <trkpt lat="45.34665" lon="5.87319">
        <ele>2019.6</ele>
        <time>2015-07-10T09:13:24Z</time>
      </trkpt>
      <trkpt lat="45.34655" lon="5.87316">
        <ele>2019.6</ele>
        <time>2015-07-10T09:13:30Z</time>
      </trkpt>
      <trkpt lat="45.34646" lon="5.87308">
        <ele>2019.6</ele>
        <time>2015-07-10T09:13:35Z</time>
      </trkpt>
      <trkpt lat="45.34643" lon="5.87319">
        <ele>2016.2</ele>
        <time>2015-07-10T09:13:45Z</time>
      </trkpt>
      <trkpt lat="45.34633" lon="5.87319">
        <ele>2011.2</ele>
        <time>2015-07-10T09:13:55Z</time>
      </trkpt>
      <trkpt lat="45.34626" lon="5.87325">
        <ele>2006.4</ele>
        <time>2015-07-10T09:14:06Z</time>
      </trkpt>
      <trkpt lat="45.34624" lon="5.87338">
        <ele>2001.4</ele>
        <time>2015-07-10T09:14:15Z</time>
      </trkpt>
      <trkpt lat="45.34624" lon="5.87347">
        <ele>2000.2</ele>
        <time>2015-07-10T09:14:22Z</time>
      </trkpt>
      <trkpt lat="45.34617" lon="5.87354">
        <ele>1993</ele>
        <time>2015-07-10T09:14:32Z</time>
      </trkpt>
      <trkpt lat="45.34609" lon="5.87362">
        <ele>1990.8</ele>
        <time>2015-07-10T09:14:37Z</time>
      </trkpt>
      <trkpt lat="45.34601" lon="5.87369">
        <ele>1986.6</ele>
        <time>2015-07-10T09:14:41Z</time>
      </trkpt>
      <trkpt lat="45.34592" lon="5.87373">
        <ele>1985.8</ele>
        <time>2015-07-10T09:14:45Z</time>
      </trkpt>
      <trkpt lat="45.34581" lon="5.87376">
        <ele>1985.8</ele>
        <time>2015-07-10T09:14:50Z</time>
      </trkpt>
      <trkpt lat="45.3457" lon="5.87379">
        <ele>1988</ele>
        <time>2015-07-10T09:14:54Z</time>
      </trkpt>
      <trkpt lat="45.34559" lon="5.8738">
        <ele>1988.2</ele>
        <time>2015-07-10T09:14:59Z</time>
      </trkpt>
      <trkpt lat="45.34551" lon="5.87383">
        <ele>1991.4</ele>
        <time>2015-07-10T09:15:04Z</time>
      </trkpt>
      <trkpt lat="45.3454" lon="5.87389">
        <ele>1992.6</ele>
        <time>2015-07-10T09:15:09Z</time>
      </trkpt>
      <trkpt lat="45.34528" lon="5.87395">
        <ele>1989.6</ele>
        <time>2015-07-10T09:15:13Z</time>
      </trkpt>
      <trkpt lat="45.34518" lon="5.87395">
        <ele>1988.4</ele>
        <time>2015-07-10T09:15:16Z</time>
      </trkpt>
      <trkpt lat="45.34508" lon="5.87395">
        <ele>1986.2</ele>
        <time>2015-07-10T09:15:20Z</time>
      </trkpt>
      <trkpt lat="45.34502" lon="5.87402">
        <ele>1982.8</ele>
        <time>2015-07-10T09:15:27Z</time>
      </trkpt>
      <trkpt lat="45.34496" lon="5.87409">
        <ele>1979.8</ele>
        <time>2015-07-10T09:15:37Z</time>
      </trkpt>
      <trkpt lat="45.34488" lon="5.87416">
        <ele>1976</ele>
        <time>2015-07-10T09:15:44Z</time>
      </trkpt>
      <trkpt lat="45.34478" lon="5.87418">
        <ele>1971.6</ele>
        <time>2015-07-10T09:15:55Z</time>
      </trkpt>
      <trkpt lat="45.34466" lon="5.87419">
        <ele>1967</ele>
        <time>2015-07-10T09:16:03Z</time>
      </trkpt>
      <trkpt lat="45.34459" lon="5.87411">
        <ele>1965.8</ele>
        <time>2015-07-10T09:16:09Z</time>
      </trkpt>
      <trkpt lat="45.34451" lon="5.87413">
        <ele>1955.8</ele>
        <time>2015-07-10T09:16:49Z</time>
      </trkpt>
      <trkpt lat="45.34443" lon="5.87422">
        <ele>1951</ele>
        <time>2015-07-10T09:17:03Z</time>
      </trkpt>
      <trkpt lat="45.34441" lon="5.87434">
        <ele>1945</ele>
        <time>2015-07-10T09:17:18Z</time>
      </trkpt>
      <trkpt lat="45.34443" lon="5.87449">
        <ele>1939.8</ele>
        <time>2015-07-10T09:17:30Z</time>
      </trkpt>
      <trkpt lat="45.3444" lon="5.87458">
        <ele>1932.8</ele>
        <time>2015-07-10T09:17:43Z</time>
      </trkpt>
      <trkpt lat="45.34435" lon="5.87465">
        <ele>1928.4</ele>
        <time>2015-07-10T09:17:52Z</time>
      </trkpt>
      <trkpt lat="45.34423" lon="5.87456">
        <ele>1921.6</ele>
        <time>2015-07-10T09:18:12Z</time>
      </trkpt>
      <trkpt lat="45.34413" lon="5.87452">
        <ele>1916.6</ele>
        <time>2015-07-10T09:18:20Z</time>
      </trkpt>
      <trkpt lat="45.34405" lon="5.87455">
        <ele>1912</ele>
        <time>2015-07-10T09:18:28Z</time>
      </trkpt>
      <trkpt lat="45.34397" lon="5.87464">
        <ele>1906.8</ele>
        <time>2015-07-10T09:18:36Z</time>
      </trkpt>
      <trkpt lat="45.34398" lon="5.87484">
        <ele>1903.6</ele>
        <time>2015-07-10T09:18:41Z</time>
      </trkpt>
      <trkpt lat="45.34395" lon="5.875">
        <ele>1900.4</ele>
        <time>2015-07-10T09:18:45Z</time>
      </trkpt>
      <trkpt lat="45.34391" lon="5.87516">
        <ele>1897.6</ele>
        <time>2015-07-10T09:18:49Z</time>
      </trkpt>
      <trkpt lat="45.34385" lon="5.87525">
        <ele>1896.4</ele>
        <time>2015-07-10T09:18:53Z</time>
      </trkpt>
      <trkpt lat="45.34376" lon="5.87519">
        <ele>1893.6</ele>
        <time>2015-07-10T09:19:00Z</time>
      </trkpt>
      <trkpt lat="45.34366" lon="5.87513">
        <ele>1887.4</ele>
        <time>2015-07-10T09:19:06Z</time>
      </trkpt>
      <trkpt lat="45.34355" lon="5.87509">
        <ele>1881.2</ele>
        <time>2015-07-10T09:19:14Z</time>
      </trkpt>
      <trkpt lat="45.34345" lon="5.8751">
        <ele>1875</ele>
        <time>2015-07-10T09:19:21Z</time>
      </trkpt>
      <trkpt lat="45.34336" lon="5.87504">
        <ele>1868.8</ele>
        <time>2015-07-10T09:19:30Z</time>
      </trkpt>
      <trkpt lat="45.34328" lon="5.87507">
        <ele>1864.8</ele>
        <time>2015-07-10T09:19:39Z</time>
      </trkpt>
      <trkpt lat="45.34317" lon="5.87508">
        <ele>1860.6</ele>
        <time>2015-07-10T09:19:48Z</time>
      </trkpt>
      <trkpt lat="45.34307" lon="5.87511">
        <ele>1856.6</ele>
        <time>2015-07-10T09:19:56Z</time>
      </trkpt>
      <trkpt lat="45.34296" lon="5.87513">
        <ele>1852.2</ele>
        <time>2015-07-10T09:20:04Z</time>
      </trkpt>
      <trkpt lat="45.34286" lon="5.87512">
        <ele>1847.6</ele>
        <time>2015-07-10T09:20:10Z</time>
      </trkpt>
      <trkpt lat="45.34276" lon="5.87509">
        <ele>1843.6</ele>
        <time>2015-07-10T09:20:16Z</time>
      </trkpt>
      <trkpt lat="45.34267" lon="5.87506">
        <ele>1839.6</ele>
        <time>2015-07-10T09:20:23Z</time>
      </trkpt>
      <trkpt lat="45.34257" lon="5.87503">
        <ele>1834</ele>
        <time>2015-07-10T09:20:30Z</time>
      </trkpt>
      <trkpt lat="45.34247" lon="5.87497">
        <ele>1829.4</ele>
        <time>2015-07-10T09:20:36Z</time>
      </trkpt>
      <trkpt lat="45.34236" lon="5.875">
        <ele>1826</ele>
        <time>2015-07-10T09:20:41Z</time>
      </trkpt>
      <trkpt lat="45.34233" lon="5.87499">
        <ele>1823.6</ele>
        <time>2015-07-10T09:20:47Z</time>
      </trkpt>
      <trkpt lat="45.34229" lon="5.87494">
        <ele>1817.8</ele>
        <time>2015-07-10T09:20:54Z</time>
      </trkpt>
      <trkpt lat="45.34229" lon="5.8749">
        <ele>1811</ele>
        <time>2015-07-10T09:21:01Z</time>
      </trkpt>
      <trkpt lat="45.34227" lon="5.87482">
        <ele>1804</ele>
        <time>2015-07-10T09:21:12Z</time>
      </trkpt>
      <trkpt lat="45.34222" lon="5.87477">
        <ele>1799</ele>
        <time>2015-07-10T09:21:20Z</time>
      </trkpt>
      <trkpt lat="45.34213" lon="5.87483">
        <ele>1796.2</ele>
        <time>2015-07-10T09:21:24Z</time>
      </trkpt>
      <trkpt lat="45.34203" lon="5.87489">
        <ele>1793.6</ele>
        <time>2015-07-10T09:21:27Z</time>
      </trkpt>
      <trkpt lat="45.34194" lon="5.87495">
        <ele>1791</ele>
        <time>2015-07-10T09:21:30Z</time>
      </trkpt>
      <trkpt lat="45.34185" lon="5.87498">
        <ele>1788.4</ele>
        <time>2015-07-10T09:21:34Z</time>
      </trkpt>
      <trkpt lat="45.34191" lon="5.87488">
        <ele>1784.4</ele>
        <time>2015-07-10T09:21:38Z</time>
      </trkpt>
      <trkpt lat="45.34197" lon="5.87477">
        <ele>1780.6</ele>
        <time>2015-07-10T09:21:42Z</time>
      </trkpt>
      <trkpt lat="45.34205" lon="5.87464">
        <ele>1779.8</ele>
        <time>2015-07-10T09:21:46Z</time>
      </trkpt>
      <trkpt lat="45.3421" lon="5.87448">
        <ele>1777</ele>
        <time>2015-07-10T09:21:50Z</time>
      </trkpt>
      <trkpt lat="45.34214" lon="5.87433">
        <ele>1774.6</ele>
        <time>2015-07-10T09:21:54Z</time>
      </trkpt>
      <trkpt lat="45.34218" lon="5.87422">
        <ele>1772.2</ele>
        <time>2015-07-10T09:21:57Z</time>
      </trkpt>
      <trkpt lat="45.34221" lon="5.8741">
        <ele>1769</ele>
        <time>2015-07-10T09:22:01Z</time>
      </trkpt>
      <trkpt lat="45.34224" lon="5.87399">
        <ele>1766.8</ele>
        <time>2015-07-10T09:22:06Z</time>
      </trkpt>
      <trkpt lat="45.34213" lon="5.874">
        <ele>1763.8</ele>
        <time>2015-07-10T09:22:11Z</time>
      </trkpt>
      <trkpt lat="45.34203" lon="5.87408">
        <ele>1760.6</ele>
        <time>2015-07-10T09:22:16Z</time>
      </trkpt>
      <trkpt lat="45.34194" lon="5.87418">
        <ele>1758.2</ele>
        <time>2015-07-10T09:22:21Z</time>
      </trkpt>
      <trkpt lat="45.34189" lon="5.8743">
        <ele>1755.4</ele>
        <time>2015-07-10T09:22:25Z</time>
      </trkpt>
      <trkpt lat="45.34179" lon="5.8744">
        <ele>1751.8</ele>
        <time>2015-07-10T09:22:29Z</time>
      </trkpt>
      <trkpt lat="45.34173" lon="5.87441">
        <ele>1749.2</ele>
        <time>2015-07-10T09:22:33Z</time>
      </trkpt>
      <trkpt lat="45.34177" lon="5.8743">
        <ele>1746.6</ele>
        <time>2015-07-10T09:22:38Z</time>
      </trkpt>
      <trkpt lat="45.34169" lon="5.87434">
        <ele>1743.8</ele>
        <time>2015-07-10T09:22:43Z</time>
      </trkpt>
      <trkpt lat="45.3416" lon="5.87444">
        <ele>1741</ele>
        <time>2015-07-10T09:22:48Z</time>
      </trkpt>
      <trkpt lat="45.34154" lon="5.87455">
        <ele>1737.8</ele>
        <time>2015-07-10T09:22:53Z</time>
      </trkpt>
      <trkpt lat="45.34146" lon="5.87467">
        <ele>1736</ele>
        <time>2015-07-10T09:22:57Z</time>
      </trkpt>
      <trkpt lat="45.34138" lon="5.87477">
        <ele>1733.2</ele>
        <time>2015-07-10T09:23:01Z</time>
      </trkpt>
      <trkpt lat="45.34135" lon="5.87468">
        <ele>1727.6</ele>
        <time>2015-07-10T09:23:13Z</time>
      </trkpt>
      <trkpt lat="45.3413" lon="5.87454">
        <ele>1722.2</ele>
        <time>2015-07-10T09:23:20Z</time>
      </trkpt>
      <trkpt lat="45.34125" lon="5.87439">
        <ele>1717.2</ele>
        <time>2015-07-10T09:23:27Z</time>
      </trkpt>
      <trkpt lat="45.34121" lon="5.87428">
        <ele>1710.2</ele>
        <time>2015-07-10T09:23:34Z</time>
      </trkpt>
      <trkpt lat="45.34115" lon="5.87419">
        <ele>1706.2</ele>
        <time>2015-07-10T09:23:40Z</time>
      </trkpt>
      <trkpt lat="45.34111" lon="5.87407">
        <ele>1702.8</ele>
        <time>2015-07-10T09:23:44Z</time>
      </trkpt>
      <trkpt lat="45.34106" lon="5.87395">
        <ele>1696.4</ele>
        <time>2015-07-10T09:23:48Z</time>
      </trkpt>
      <trkpt lat="45.34099" lon="5.87388">
        <ele>1692.6</ele>
        <time>2015-07-10T09:23:52Z</time>
      </trkpt>
      <trkpt lat="45.34096" lon="5.87377">
        <ele>1687.4</ele>
        <time>2015-07-10T09:23:58Z</time>
      </trkpt>
      <trkpt lat="45.34092" lon="5.87364">
        <ele>1682</ele>
        <time>2015-07-10T09:24:03Z</time>
      </trkpt>
      <trkpt lat="45.34091" lon="5.8735">
        <ele>1676.8</ele>
        <time>2015-07-10T09:24:09Z</time>
      </trkpt>
      <trkpt lat="45.34088" lon="5.87339">
        <ele>1670.8</ele>
        <time>2015-07-10T09:24:15Z</time>
      </trkpt>
      <trkpt lat="45.34084" lon="5.87328">
        <ele>1666.2</ele>
        <time>2015-07-10T09:24:23Z</time>
      </trkpt>
      <trkpt lat="45.34086" lon="5.87315">
        <ele>1661.8</ele>
        <time>2015-07-10T09:24:30Z</time>
      </trkpt>
      <trkpt lat="45.34088" lon="5.87301">
        <ele>1657.8</ele>
        <time>2015-07-10T09:24:38Z</time>
      </trkpt>
      <trkpt lat="45.34089" lon="5.87287">
        <ele>1653</ele>
        <time>2015-07-10T09:24:46Z</time>
      </trkpt>
      <trkpt lat="45.34082" lon="5.87274">
        <ele>1648.8</ele>
        <time>2015-07-10T09:24:53Z</time>
      </trkpt>
      <trkpt lat="45.34079" lon="5.87263">
        <ele>1643.6</ele>
        <time>2015-07-10T09:25:00Z</time>
      </trkpt>
      <trkpt lat="45.34081" lon="5.87245">
        <ele>1638.6</ele>
        <time>2015-07-10T09:25:07Z</time>
      </trkpt>
      <trkpt lat="45.34081" lon="5.87231">
        <ele>1635</ele>
        <time>2015-07-10T09:25:12Z</time>
      </trkpt>
      <trkpt lat="45.3408" lon="5.87218">
        <ele>1631.8</ele>
        <time>2015-07-10T09:25:17Z</time>
      </trkpt>
      <trkpt lat="45.3408" lon="5.87205">
        <ele>1629.8</ele>
        <time>2015-07-10T09:25:23Z</time>
      </trkpt>
      <trkpt lat="45.34077" lon="5.87219">
        <ele>1627</ele>
        <time>2015-07-10T09:25:31Z</time>
      </trkpt>
      <trkpt lat="45.34078" lon="5.87233">
        <ele>1625.6</ele>
        <time>2015-07-10T09:25:37Z</time>
      </trkpt>
      <trkpt lat="45.34078" lon="5.87234">
        <ele>1624.8</ele>
        <time>2015-07-10T09:27:19Z</time>
      </trkpt>
      <trkpt lat="45.34072" lon="5.87229">
        <ele>1624.8</ele>
        <time>2015-07-10T09:27:44Z</time>
      </trkpt>
      <trkpt lat="45.34062" lon="5.87238">
        <ele>1627.2</ele>
        <time>2015-07-10T09:27:54Z</time>
      </trkpt>
      <trkpt lat="45.34057" lon="5.87251">
        <ele>1628</ele>
        <time>2015-07-10T09:28:03Z</time>
      </trkpt>
      <trkpt lat="45.34049" lon="5.87261">
        <ele>1630</ele>
        <time>2015-07-10T09:28:09Z</time>
      </trkpt>
      <trkpt lat="45.3404" lon="5.87266">
        <ele>1631.2</ele>
        <time>2015-07-10T09:28:14Z</time>
      </trkpt>
      <trkpt lat="45.34035" lon="5.87275">
        <ele>1633.4</ele>
        <time>2015-07-10T09:28:20Z</time>
      </trkpt>
      <trkpt lat="45.34026" lon="5.87279">
        <ele>1635.2</ele>
        <time>2015-07-10T09:28:27Z</time>
      </trkpt>
      <trkpt lat="45.34018" lon="5.87278">
        <ele>1636.8</ele>
        <time>2015-07-10T09:28:33Z</time>
      </trkpt>
      <trkpt lat="45.34015" lon="5.87279">
        <ele>1638.6</ele>
        <time>2015-07-10T09:28:41Z</time>
      </trkpt>
      <trkpt lat="45.3401" lon="5.87286">
        <ele>1639.2</ele>
        <time>2015-07-10T09:28:51Z</time>
      </trkpt>
      <trkpt lat="45.34003" lon="5.87297">
        <ele>1640.6</ele>
        <time>2015-07-10T09:28:59Z</time>
      </trkpt>
      <trkpt lat="45.33994" lon="5.87301">
        <ele>1642.2</ele>
        <time>2015-07-10T09:29:09Z</time>
      </trkpt>
      <trkpt lat="45.33987" lon="5.87307">
        <ele>1643.6</ele>
        <time>2015-07-10T09:29:17Z</time>
      </trkpt>
      <trkpt lat="45.33979" lon="5.87312">
        <ele>1644.2</ele>
        <time>2015-07-10T09:29:24Z</time>
      </trkpt>
      <trkpt lat="45.33973" lon="5.87322">
        <ele>1646.4</ele>
        <time>2015-07-10T09:29:32Z</time>
      </trkpt>
      <trkpt lat="45.3397" lon="5.87334">
        <ele>1647</ele>
        <time>2015-07-10T09:29:38Z</time>
      </trkpt>
      <trkpt lat="45.33965" lon="5.87343">
        <ele>1648.2</ele>
        <time>2015-07-10T09:29:42Z</time>
      </trkpt>
      <trkpt lat="45.33958" lon="5.87352">
        <ele>1648.2</ele>
        <time>2015-07-10T09:29:46Z</time>
      </trkpt>
      <trkpt lat="45.33951" lon="5.87359">
        <ele>1648.2</ele>
        <time>2015-07-10T09:29:50Z</time>
      </trkpt>
      <trkpt lat="45.33943" lon="5.87365">
        <ele>1648.2</ele>
        <time>2015-07-10T09:29:55Z</time>
      </trkpt>
      <trkpt lat="45.33935" lon="5.87363">
        <ele>1648.2</ele>
        <time>2015-07-10T09:30:01Z</time>
      </trkpt>
      <trkpt lat="45.3393" lon="5.87354">
        <ele>1649</ele>
        <time>2015-07-10T09:30:08Z</time>
      </trkpt>
      <trkpt lat="45.3392" lon="5.87349">
        <ele>1649</ele>
        <time>2015-07-10T09:30:13Z</time>
      </trkpt>
      <trkpt lat="45.33907" lon="5.87348">
        <ele>1649</ele>
        <time>2015-07-10T09:30:18Z</time>
      </trkpt>
      <trkpt lat="45.33897" lon="5.87343">
        <ele>1648.6</ele>
        <time>2015-07-10T09:30:23Z</time>
      </trkpt>
      <trkpt lat="45.33888" lon="5.87338">
        <ele>1646.8</ele>
        <time>2015-07-10T09:30:28Z</time>
      </trkpt>
      <trkpt lat="45.33877" lon="5.87335">
        <ele>1648.2</ele>
        <time>2015-07-10T09:30:33Z</time>
      </trkpt>
      <trkpt lat="45.33869" lon="5.87329">
        <ele>1649.4</ele>
        <time>2015-07-10T09:30:38Z</time>
      </trkpt>
      <trkpt lat="45.33857" lon="5.87325">
        <ele>1649.4</ele>
        <time>2015-07-10T09:30:44Z</time>
      </trkpt>
      <trkpt lat="45.33847" lon="5.8732">
        <ele>1650.6</ele>
        <time>2015-07-10T09:30:50Z</time>
      </trkpt>
      <trkpt lat="45.3384" lon="5.8732">
        <ele>1652</ele>
        <time>2015-07-10T09:30:57Z</time>
      </trkpt>
      <trkpt lat="45.3383" lon="5.87316">
        <ele>1654</ele>
        <time>2015-07-10T09:31:03Z</time>
      </trkpt>
      <trkpt lat="45.33817" lon="5.87316">
        <ele>1655.2</ele>
        <time>2015-07-10T09:31:11Z</time>
      </trkpt>
      <trkpt lat="45.33809" lon="5.87319">
        <ele>1658.2</ele>
        <time>2015-07-10T09:31:20Z</time>
      </trkpt>
      <trkpt lat="45.33801" lon="5.87326">
        <ele>1661</ele>
        <time>2015-07-10T09:31:31Z</time>
      </trkpt>
      <trkpt lat="45.33794" lon="5.87324">
        <ele>1663.4</ele>
        <time>2015-07-10T09:31:41Z</time>
      </trkpt>
      <trkpt lat="45.3378" lon="5.87315">
        <ele>1663.8</ele>
        <time>2015-07-10T09:31:49Z</time>
      </trkpt>
      <trkpt lat="45.3377" lon="5.87306">
        <ele>1663.8</ele>
        <time>2015-07-10T09:31:55Z</time>
      </trkpt>
      <trkpt lat="45.3376" lon="5.87302">
        <ele>1661.8</ele>
        <time>2015-07-10T09:32:02Z</time>
      </trkpt>
      <trkpt lat="45.33751" lon="5.87303">
        <ele>1666.6</ele>
        <time>2015-07-10T09:32:13Z</time>
      </trkpt>
      <trkpt lat="45.33742" lon="5.873">
        <ele>1669.2</ele>
        <time>2015-07-10T09:32:21Z</time>
      </trkpt>
      <trkpt lat="45.33732" lon="5.87297">
        <ele>1673.2</ele>
        <time>2015-07-10T09:32:33Z</time>
      </trkpt>
      <trkpt lat="45.33723" lon="5.873">
        <ele>1675.8</ele>
        <time>2015-07-10T09:32:45Z</time>
      </trkpt>
      <trkpt lat="45.33713" lon="5.87299">
        <ele>1678.4</ele>
        <time>2015-07-10T09:32:56Z</time>
      </trkpt>
      <trkpt lat="45.33702" lon="5.87291">
        <ele>1679.4</ele>
        <time>2015-07-10T09:33:07Z</time>
      </trkpt>
      <trkpt lat="45.33688" lon="5.87291">
        <ele>1681.8</ele>
        <time>2015-07-10T09:33:17Z</time>
      </trkpt>
      <trkpt lat="45.33678" lon="5.87295">
        <ele>1684</ele>
        <time>2015-07-10T09:33:23Z</time>
      </trkpt>
      <trkpt lat="45.33667" lon="5.87297">
        <ele>1686.2</ele>
        <time>2015-07-10T09:33:32Z</time>
      </trkpt>
      <trkpt lat="45.33656" lon="5.87296">
        <ele>1689.2</ele>
        <time>2015-07-10T09:33:40Z</time>
      </trkpt>
      <trkpt lat="45.33646" lon="5.87294">
        <ele>1689.4</ele>
        <time>2015-07-10T09:33:46Z</time>
      </trkpt>
      <trkpt lat="45.33632" lon="5.87294">
        <ele>1691.2</ele>
        <time>2015-07-10T09:33:54Z</time>
      </trkpt>
      <trkpt lat="45.3362" lon="5.87286">
        <ele>1691.4</ele>
        <time>2015-07-10T09:33:59Z</time>
      </trkpt>
      <trkpt lat="45.3361" lon="5.87285">
        <ele>1691.4</ele>
        <time>2015-07-10T09:34:03Z</time>
      </trkpt>
      <trkpt lat="45.33602" lon="5.87285">
        <ele>1693.8</ele>
        <time>2015-07-10T09:34:16Z</time>
      </trkpt>
      <trkpt lat="45.33587" lon="5.87278">
        <ele>1696.6</ele>
        <time>2015-07-10T09:34:26Z</time>
      </trkpt>
      <trkpt lat="45.33575" lon="5.8727">
        <ele>1694.6</ele>
        <time>2015-07-10T09:34:31Z</time>
      </trkpt>
      <trkpt lat="45.33566" lon="5.87261">
        <ele>1694.4</ele>
        <time>2015-07-10T09:34:37Z</time>
      </trkpt>
      <trkpt lat="45.33557" lon="5.87257">
        <ele>1694.4</ele>
        <time>2015-07-10T09:34:44Z</time>
      </trkpt>
      <trkpt lat="45.33546" lon="5.87257">
        <ele>1696.6</ele>
        <time>2015-07-10T09:34:50Z</time>
      </trkpt>
      <trkpt lat="45.33536" lon="5.87246">
        <ele>1697.4</ele>
        <time>2015-07-10T09:34:55Z</time>
      </trkpt>
      <trkpt lat="45.33531" lon="5.87244">
        <ele>1697.6</ele>
        <time>2015-07-10T09:34:59Z</time>
      </trkpt>
      <trkpt lat="45.33521" lon="5.87241">
        <ele>1699</ele>
        <time>2015-07-10T09:35:06Z</time>
      </trkpt>
      <trkpt lat="45.33514" lon="5.87236">
        <ele>1699.8</ele>
        <time>2015-07-10T09:35:14Z</time>
      </trkpt>
      <trkpt lat="45.33505" lon="5.87239">
        <ele>1701.8</ele>
        <time>2015-07-10T09:35:25Z</time>
      </trkpt>
      <trkpt lat="45.33494" lon="5.87246">
        <ele>1705.8</ele>
        <time>2015-07-10T09:35:36Z</time>
      </trkpt>
      <trkpt lat="45.33484" lon="5.87245">
        <ele>1707.4</ele>
        <time>2015-07-10T09:35:43Z</time>
      </trkpt>
      <trkpt lat="45.33474" lon="5.87246">
        <ele>1709.2</ele>
        <time>2015-07-10T09:35:50Z</time>
      </trkpt>
      <trkpt lat="45.33465" lon="5.87251">
        <ele>1711.4</ele>
        <time>2015-07-10T09:35:57Z</time>
      </trkpt>
      <trkpt lat="45.33454" lon="5.87258">
        <ele>1712.8</ele>
        <time>2015-07-10T09:36:04Z</time>
      </trkpt>
      <trkpt lat="45.33444" lon="5.87255">
        <ele>1713.8</ele>
        <time>2015-07-10T09:36:10Z</time>
      </trkpt>
      <trkpt lat="45.33435" lon="5.87247">
        <ele>1714.2</ele>
        <time>2015-07-10T09:36:18Z</time>
      </trkpt>
      <trkpt lat="45.33425" lon="5.87245">
        <ele>1711.2</ele>
        <time>2015-07-10T09:36:22Z</time>
      </trkpt>
      <trkpt lat="45.33414" lon="5.87244">
        <ele>1710.6</ele>
        <time>2015-07-10T09:36:26Z</time>
      </trkpt>
      <trkpt lat="45.33406" lon="5.87242">
        <ele>1709.6</ele>
        <time>2015-07-10T09:36:30Z</time>
      </trkpt>
      <trkpt lat="45.33397" lon="5.87237">
        <ele>1711.2</ele>
        <time>2015-07-10T09:36:35Z</time>
      </trkpt>
      <trkpt lat="45.33387" lon="5.87231">
        <ele>1711.8</ele>
        <time>2015-07-10T09:36:41Z</time>
      </trkpt>
      <trkpt lat="45.33377" lon="5.87218">
        <ele>1711.8</ele>
        <time>2015-07-10T09:36:47Z</time>
      </trkpt>
      <trkpt lat="45.33366" lon="5.87208">
        <ele>1711.8</ele>
        <time>2015-07-10T09:36:53Z</time>
      </trkpt>
      <trkpt lat="45.33354" lon="5.87196">
        <ele>1711.8</ele>
        <time>2015-07-10T09:36:58Z</time>
      </trkpt>
      <trkpt lat="45.33348" lon="5.87185">
        <ele>1710</ele>
        <time>2015-07-10T09:37:02Z</time>
      </trkpt>
      <trkpt lat="45.3334" lon="5.87171">
        <ele>1708.6</ele>
        <time>2015-07-10T09:37:06Z</time>
      </trkpt>
      <trkpt lat="45.33333" lon="5.87159">
        <ele>1705.8</ele>
        <time>2015-07-10T09:37:10Z</time>
      </trkpt>
      <trkpt lat="45.33325" lon="5.87146">
        <ele>1703.8</ele>
        <time>2015-07-10T09:37:14Z</time>
      </trkpt>
      <trkpt lat="45.33316" lon="5.87133">
        <ele>1701</ele>
        <time>2015-07-10T09:37:19Z</time>
      </trkpt>
      <trkpt lat="45.33306" lon="5.8712">
        <ele>1698</ele>
        <time>2015-07-10T09:37:24Z</time>
      </trkpt>
      <trkpt lat="45.33301" lon="5.87108">
        <ele>1696.8</ele>
        <time>2015-07-10T09:37:28Z</time>
      </trkpt>
      <trkpt lat="45.33303" lon="5.87096">
        <ele>1696.6</ele>
        <time>2015-07-10T09:37:33Z</time>
      </trkpt>
      <trkpt lat="45.33302" lon="5.87086">
        <ele>1696.6</ele>
        <time>2015-07-10T09:37:41Z</time>
      </trkpt>
      <trkpt lat="45.3329" lon="5.87073">
        <ele>1696.6</ele>
        <time>2015-07-10T09:37:47Z</time>
      </trkpt>
      <trkpt lat="45.33281" lon="5.87062">
        <ele>1696.6</ele>
        <time>2015-07-10T09:37:51Z</time>
      </trkpt>
      <trkpt lat="45.33274" lon="5.87049">
        <ele>1696.6</ele>
        <time>2015-07-10T09:37:56Z</time>
      </trkpt>
      <trkpt lat="45.33267" lon="5.87036">
        <ele>1696.6</ele>
        <time>2015-07-10T09:38:02Z</time>
      </trkpt>
      <trkpt lat="45.33258" lon="5.87025">
        <ele>1696.6</ele>
        <time>2015-07-10T09:38:07Z</time>
      </trkpt>
      <trkpt lat="45.33252" lon="5.87011">
        <ele>1696</ele>
        <time>2015-07-10T09:38:13Z</time>
      </trkpt>
      <trkpt lat="45.33245" lon="5.86998">
        <ele>1694</ele>
        <time>2015-07-10T09:38:18Z</time>
      </trkpt>
      <trkpt lat="45.33238" lon="5.86987">
        <ele>1693</ele>
        <time>2015-07-10T09:38:23Z</time>
      </trkpt>
      <trkpt lat="45.33229" lon="5.86977">
        <ele>1691.4</ele>
        <time>2015-07-10T09:38:27Z</time>
      </trkpt>
      <trkpt lat="45.33226" lon="5.86965">
        <ele>1690.4</ele>
        <time>2015-07-10T09:38:31Z</time>
      </trkpt>
      <trkpt lat="45.33219" lon="5.86952">
        <ele>1690</ele>
        <time>2015-07-10T09:38:36Z</time>
      </trkpt>
      <trkpt lat="45.33211" lon="5.86944">
        <ele>1689.6</ele>
        <time>2015-07-10T09:38:41Z</time>
      </trkpt>
      <trkpt lat="45.33202" lon="5.86937">
        <ele>1690.8</ele>
        <time>2015-07-10T09:38:47Z</time>
      </trkpt>
      <trkpt lat="45.33195" lon="5.86923">
        <ele>1691.8</ele>
        <time>2015-07-10T09:38:52Z</time>
      </trkpt>
      <trkpt lat="45.33189" lon="5.86909">
        <ele>1693.6</ele>
        <time>2015-07-10T09:39:01Z</time>
      </trkpt>
      <trkpt lat="45.33184" lon="5.86889">
        <ele>1692</ele>
        <time>2015-07-10T09:39:08Z</time>
      </trkpt>
      <trkpt lat="45.33184" lon="5.86876">
        <ele>1689.8</ele>
        <time>2015-07-10T09:39:16Z</time>
      </trkpt>
      <trkpt lat="45.33177" lon="5.86858">
        <ele>1687</ele>
        <time>2015-07-10T09:39:23Z</time>
      </trkpt>
      <trkpt lat="45.33165" lon="5.86844">
        <ele>1686</ele>
        <time>2015-07-10T09:39:33Z</time>
      </trkpt>
      <trkpt lat="45.33149" lon="5.86833">
        <ele>1689.8</ele>
        <time>2015-07-10T09:39:43Z</time>
      </trkpt>
      <trkpt lat="45.33141" lon="5.86823">
        <ele>1691.8</ele>
        <time>2015-07-10T09:39:49Z</time>
      </trkpt>
      <trkpt lat="45.33137" lon="5.86813">
        <ele>1692</ele>
        <time>2015-07-10T09:39:54Z</time>
      </trkpt>
      <trkpt lat="45.33133" lon="5.86805">
        <ele>1692</ele>
        <time>2015-07-10T09:40:03Z</time>
      </trkpt>
      <trkpt lat="45.33128" lon="5.86791">
        <ele>1692</ele>
        <time>2015-07-10T09:40:10Z</time>
      </trkpt>
      <trkpt lat="45.33123" lon="5.86782">
        <ele>1691.6</ele>
        <time>2015-07-10T09:40:15Z</time>
      </trkpt>
      <trkpt lat="45.33119" lon="5.8677">
        <ele>1689.6</ele>
        <time>2015-07-10T09:40:21Z</time>
      </trkpt>
      <trkpt lat="45.33112" lon="5.86759">
        <ele>1687.4</ele>
        <time>2015-07-10T09:40:27Z</time>
      </trkpt>
      <trkpt lat="45.33101" lon="5.86752">
        <ele>1686.6</ele>
        <time>2015-07-10T09:40:32Z</time>
      </trkpt>
      <trkpt lat="45.33092" lon="5.86745">
        <ele>1686.4</ele>
        <time>2015-07-10T09:40:36Z</time>
      </trkpt>
      <trkpt lat="45.33083" lon="5.86738">
        <ele>1686.4</ele>
        <time>2015-07-10T09:40:41Z</time>
      </trkpt>
      <trkpt lat="45.3307" lon="5.8673">
        <ele>1690.4</ele>
        <time>2015-07-10T09:40:50Z</time>
      </trkpt>
      <trkpt lat="45.33041" lon="5.86697">
        <ele>1692.6</ele>
        <time>2015-07-10T09:40:58Z</time>
      </trkpt>
      <trkpt lat="45.33035" lon="5.86675">
        <ele>1692.8</ele>
        <time>2015-07-10T09:41:03Z</time>
      </trkpt>
      <trkpt lat="45.33034" lon="5.86655">
        <ele>1692.8</ele>
        <time>2015-07-10T09:41:08Z</time>
      </trkpt>
      <trkpt lat="45.33026" lon="5.86639">
        <ele>1692.8</ele>
        <time>2015-07-10T09:41:14Z</time>
      </trkpt>
      <trkpt lat="45.33022" lon="5.8662">
        <ele>1695</ele>
        <time>2015-07-10T09:41:21Z</time>
      </trkpt>
      <trkpt lat="45.33004" lon="5.86603">
        <ele>1697.2</ele>
        <time>2015-07-10T09:41:27Z</time>
      </trkpt>
      <trkpt lat="45.32997" lon="5.86587">
        <ele>1698.2</ele>
        <time>2015-07-10T09:41:32Z</time>
      </trkpt>
      <trkpt lat="45.32994" lon="5.86573">
        <ele>1698.2</ele>
        <time>2015-07-10T09:41:38Z</time>
      </trkpt>
      <trkpt lat="45.32987" lon="5.86559">
        <ele>1700.4</ele>
        <time>2015-07-10T09:41:44Z</time>
      </trkpt>
      <trkpt lat="45.32978" lon="5.8655">
        <ele>1700.4</ele>
        <time>2015-07-10T09:41:49Z</time>
      </trkpt>
      <trkpt lat="45.3297" lon="5.86551">
        <ele>1701.6</ele>
        <time>2015-07-10T09:41:59Z</time>
      </trkpt>
      <trkpt lat="45.32961" lon="5.86558">
        <ele>1703.4</ele>
        <time>2015-07-10T09:42:08Z</time>
      </trkpt>
      <trkpt lat="45.32951" lon="5.8656">
        <ele>1705.8</ele>
        <time>2015-07-10T09:42:17Z</time>
      </trkpt>
      <trkpt lat="45.32943" lon="5.86552">
        <ele>1708.2</ele>
        <time>2015-07-10T09:42:27Z</time>
      </trkpt>
      <trkpt lat="45.32935" lon="5.8655">
        <ele>1710.6</ele>
        <time>2015-07-10T09:42:39Z</time>
      </trkpt>
      <trkpt lat="45.32925" lon="5.86545">
        <ele>1713.6</ele>
        <time>2015-07-10T09:42:49Z</time>
      </trkpt>
      <trkpt lat="45.32912" lon="5.86546">
        <ele>1715.6</ele>
        <time>2015-07-10T09:42:59Z</time>
      </trkpt>
      <trkpt lat="45.32902" lon="5.86546">
        <ele>1718.4</ele>
        <time>2015-07-10T09:43:05Z</time>
      </trkpt>
      <trkpt lat="45.32893" lon="5.86547">
        <ele>1719.6</ele>
        <time>2015-07-10T09:43:11Z</time>
      </trkpt>
      <trkpt lat="45.32882" lon="5.86551">
        <ele>1721.4</ele>
        <time>2015-07-10T09:43:19Z</time>
      </trkpt>
      <trkpt lat="45.32873" lon="5.86551">
        <ele>1722.8</ele>
        <time>2015-07-10T09:43:24Z</time>
      </trkpt>
      <trkpt lat="45.32865" lon="5.8655">
        <ele>1723.6</ele>
        <time>2015-07-10T09:43:30Z</time>
      </trkpt>
      <trkpt lat="45.32852" lon="5.86548">
        <ele>1724</ele>
        <time>2015-07-10T09:43:36Z</time>
      </trkpt>
      <trkpt lat="45.32845" lon="5.86546">
        <ele>1723.2</ele>
        <time>2015-07-10T09:43:41Z</time>
      </trkpt>
      <trkpt lat="45.32837" lon="5.86545">
        <ele>1720.6</ele>
        <time>2015-07-10T09:43:49Z</time>
      </trkpt>
      <trkpt lat="45.3282" lon="5.86538">
        <ele>1719.2</ele>
        <time>2015-07-10T09:43:56Z</time>
      </trkpt>
      <trkpt lat="45.32807" lon="5.86532">
        <ele>1716.2</ele>
        <time>2015-07-10T09:44:02Z</time>
      </trkpt>
      <trkpt lat="45.32798" lon="5.86533">
        <ele>1715.8</ele>
        <time>2015-07-10T09:44:07Z</time>
      </trkpt>
      <trkpt lat="45.32787" lon="5.86525">
        <ele>1715</ele>
        <time>2015-07-10T09:44:13Z</time>
      </trkpt>
      <trkpt lat="45.32778" lon="5.86518">
        <ele>1713.4</ele>
        <time>2015-07-10T09:44:16Z</time>
      </trkpt>
      <trkpt lat="45.32765" lon="5.86516">
        <ele>1711.8</ele>
        <time>2015-07-10T09:44:20Z</time>
      </trkpt>
      <trkpt lat="45.32756" lon="5.86515">
        <ele>1711.6</ele>
        <time>2015-07-10T09:44:24Z</time>
      </trkpt>
      <trkpt lat="45.32747" lon="5.8651">
        <ele>1711.6</ele>
        <time>2015-07-10T09:44:28Z</time>
      </trkpt>
      <trkpt lat="45.32738" lon="5.86503">
        <ele>1711.6</ele>
        <time>2015-07-10T09:44:34Z</time>
      </trkpt>
      <trkpt lat="45.32728" lon="5.865">
        <ele>1715.6</ele>
        <time>2015-07-10T09:44:40Z</time>
      </trkpt>
      <trkpt lat="45.32718" lon="5.86495">
        <ele>1715.6</ele>
        <time>2015-07-10T09:44:45Z</time>
      </trkpt>
      <trkpt lat="45.32708" lon="5.86491">
        <ele>1714.8</ele>
        <time>2015-07-10T09:44:50Z</time>
      </trkpt>
      <trkpt lat="45.32699" lon="5.86489">
        <ele>1713.6</ele>
        <time>2015-07-10T09:44:54Z</time>
      </trkpt>
      <trkpt lat="45.3269" lon="5.86483">
        <ele>1713.4</ele>
        <time>2015-07-10T09:44:59Z</time>
      </trkpt>
      <trkpt lat="45.32681" lon="5.86478">
        <ele>1715.6</ele>
        <time>2015-07-10T09:45:04Z</time>
      </trkpt>
      <trkpt lat="45.32671" lon="5.86473">
        <ele>1716.6</ele>
        <time>2015-07-10T09:45:09Z</time>
      </trkpt>
      <trkpt lat="45.3266" lon="5.86464">
        <ele>1717</ele>
        <time>2015-07-10T09:45:13Z</time>
      </trkpt>
      <trkpt lat="45.32652" lon="5.86458">
        <ele>1718</ele>
        <time>2015-07-10T09:45:17Z</time>
      </trkpt>
      <trkpt lat="45.32641" lon="5.86453">
        <ele>1718.2</ele>
        <time>2015-07-10T09:45:22Z</time>
      </trkpt>
      <trkpt lat="45.32633" lon="5.86447">
        <ele>1720</ele>
        <time>2015-07-10T09:45:27Z</time>
      </trkpt>
      <trkpt lat="45.32622" lon="5.86443">
        <ele>1721</ele>
        <time>2015-07-10T09:45:38Z</time>
      </trkpt>
      <trkpt lat="45.3261" lon="5.86444">
        <ele>1722.6</ele>
        <time>2015-07-10T09:45:49Z</time>
      </trkpt>
      <trkpt lat="45.32598" lon="5.86443">
        <ele>1723.2</ele>
        <time>2015-07-10T09:45:54Z</time>
      </trkpt>
      <trkpt lat="45.32588" lon="5.86441">
        <ele>1723.4</ele>
        <time>2015-07-10T09:45:58Z</time>
      </trkpt>
      <trkpt lat="45.32575" lon="5.86441">
        <ele>1724.4</ele>
        <time>2015-07-10T09:46:04Z</time>
      </trkpt>
      <trkpt lat="45.32564" lon="5.86443">
        <ele>1726</ele>
        <time>2015-07-10T09:46:09Z</time>
      </trkpt>
      <trkpt lat="45.32553" lon="5.86443">
        <ele>1727.2</ele>
        <time>2015-07-10T09:46:14Z</time>
      </trkpt>
      <trkpt lat="45.32543" lon="5.86444">
        <ele>1727.4</ele>
        <time>2015-07-10T09:46:18Z</time>
      </trkpt>
      <trkpt lat="45.32532" lon="5.86443">
        <ele>1727.4</ele>
        <time>2015-07-10T09:46:25Z</time>
      </trkpt>
      <trkpt lat="45.32519" lon="5.86456">
        <ele>1728.2</ele>
        <time>2015-07-10T09:46:36Z</time>
      </trkpt>
      <trkpt lat="45.32509" lon="5.8646">
        <ele>1729.2</ele>
        <time>2015-07-10T09:46:43Z</time>
      </trkpt>
      <trkpt lat="45.32501" lon="5.86457">
        <ele>1731.2</ele>
        <time>2015-07-10T09:46:50Z</time>
      </trkpt>
      <trkpt lat="45.3249" lon="5.86453">
        <ele>1733.8</ele>
        <time>2015-07-10T09:46:58Z</time>
      </trkpt>
      <trkpt lat="45.32477" lon="5.86447">
        <ele>1731</ele>
        <time>2015-07-10T09:47:04Z</time>
      </trkpt>
      <trkpt lat="45.32466" lon="5.86448">
        <ele>1729.6</ele>
        <time>2015-07-10T09:47:09Z</time>
      </trkpt>
      <trkpt lat="45.32455" lon="5.86452">
        <ele>1729.2</ele>
        <time>2015-07-10T09:47:15Z</time>
      </trkpt>
      <trkpt lat="45.32442" lon="5.86459">
        <ele>1729.4</ele>
        <time>2015-07-10T09:47:20Z</time>
      </trkpt>
      <trkpt lat="45.32433" lon="5.86461">
        <ele>1728</ele>
        <time>2015-07-10T09:47:23Z</time>
      </trkpt>
      <trkpt lat="45.32422" lon="5.86462">
        <ele>1725</ele>
        <time>2015-07-10T09:47:27Z</time>
      </trkpt>
      <trkpt lat="45.3241" lon="5.86463">
        <ele>1721.6</ele>
        <time>2015-07-10T09:47:31Z</time>
      </trkpt>
      <trkpt lat="45.32398" lon="5.86463">
        <ele>1718.6</ele>
        <time>2015-07-10T09:47:35Z</time>
      </trkpt>
      <trkpt lat="45.32388" lon="5.86467">
        <ele>1716.6</ele>
        <time>2015-07-10T09:47:39Z</time>
      </trkpt>
      <trkpt lat="45.32379" lon="5.86466">
        <ele>1716.4</ele>
        <time>2015-07-10T09:47:43Z</time>
      </trkpt>
      <trkpt lat="45.3237" lon="5.86467">
        <ele>1715.4</ele>
        <time>2015-07-10T09:47:48Z</time>
      </trkpt>
      <trkpt lat="45.32362" lon="5.86475">
        <ele>1719.6</ele>
        <time>2015-07-10T09:47:56Z</time>
      </trkpt>
      <trkpt lat="45.32351" lon="5.86472">
        <ele>1721</ele>
        <time>2015-07-10T09:48:03Z</time>
      </trkpt>
      <trkpt lat="45.32341" lon="5.86475">
        <ele>1723.4</ele>
        <time>2015-07-10T09:48:12Z</time>
      </trkpt>
      <trkpt lat="45.32332" lon="5.86466">
        <ele>1723.4</ele>
        <time>2015-07-10T09:48:16Z</time>
      </trkpt>
      <trkpt lat="45.32322" lon="5.86457">
        <ele>1723.4</ele>
        <time>2015-07-10T09:48:21Z</time>
      </trkpt>
      <trkpt lat="45.32314" lon="5.86449">
        <ele>1723.4</ele>
        <time>2015-07-10T09:48:26Z</time>
      </trkpt>
      <trkpt lat="45.32306" lon="5.86441">
        <ele>1723.8</ele>
        <time>2015-07-10T09:48:32Z</time>
      </trkpt>
      <trkpt lat="45.32299" lon="5.86433">
        <ele>1725.2</ele>
        <time>2015-07-10T09:48:37Z</time>
      </trkpt>
      <trkpt lat="45.32291" lon="5.86429">
        <ele>1726.8</ele>
        <time>2015-07-10T09:48:44Z</time>
      </trkpt>
      <trkpt lat="45.32286" lon="5.86417">
        <ele>1727.6</ele>
        <time>2015-07-10T09:48:50Z</time>
      </trkpt>
      <trkpt lat="45.32277" lon="5.86404">
        <ele>1728</ele>
        <time>2015-07-10T09:48:58Z</time>
      </trkpt>
      <trkpt lat="45.32271" lon="5.86395">
        <ele>1728</ele>
        <time>2015-07-10T09:49:02Z</time>
      </trkpt>
      <trkpt lat="45.32268" lon="5.8638">
        <ele>1728</ele>
        <time>2015-07-10T09:49:08Z</time>
      </trkpt>
      <trkpt lat="45.32263" lon="5.86362">
        <ele>1726.6</ele>
        <time>2015-07-10T09:49:13Z</time>
      </trkpt>
      <trkpt lat="45.3226" lon="5.86344">
        <ele>1725.8</ele>
        <time>2015-07-10T09:49:17Z</time>
      </trkpt>
      <trkpt lat="45.32256" lon="5.86327">
        <ele>1725.2</ele>
        <time>2015-07-10T09:49:21Z</time>
      </trkpt>
      <trkpt lat="45.32257" lon="5.86311">
        <ele>1725</ele>
        <time>2015-07-10T09:49:26Z</time>
      </trkpt>
      <trkpt lat="45.32259" lon="5.86296">
        <ele>1724.8</ele>
        <time>2015-07-10T09:49:31Z</time>
      </trkpt>
      <trkpt lat="45.32259" lon="5.86283">
        <ele>1724.2</ele>
        <time>2015-07-10T09:49:35Z</time>
      </trkpt>
      <trkpt lat="45.32254" lon="5.86271">
        <ele>1723.4</ele>
        <time>2015-07-10T09:49:40Z</time>
      </trkpt>
      <trkpt lat="45.32251" lon="5.86259">
        <ele>1723</ele>
        <time>2015-07-10T09:49:48Z</time>
      </trkpt>
      <trkpt lat="45.32244" lon="5.86246">
        <ele>1720.8</ele>
        <time>2015-07-10T09:49:52Z</time>
      </trkpt>
      <trkpt lat="45.32238" lon="5.86233">
        <ele>1719.6</ele>
        <time>2015-07-10T09:49:56Z</time>
      </trkpt>
      <trkpt lat="45.32235" lon="5.86222">
        <ele>1719.6</ele>
        <time>2015-07-10T09:50:00Z</time>
      </trkpt>
      <trkpt lat="45.32238" lon="5.8621">
        <ele>1719.6</ele>
        <time>2015-07-10T09:50:07Z</time>
      </trkpt>
      <trkpt lat="45.32246" lon="5.86201">
        <ele>1717.8</ele>
        <time>2015-07-10T09:50:13Z</time>
      </trkpt>
      <trkpt lat="45.32245" lon="5.86187">
        <ele>1717.6</ele>
        <time>2015-07-10T09:50:19Z</time>
      </trkpt>
      <trkpt lat="45.32242" lon="5.86174">
        <ele>1719.4</ele>
        <time>2015-07-10T09:50:25Z</time>
      </trkpt>
      <trkpt lat="45.32242" lon="5.86159">
        <ele>1720</ele>
        <time>2015-07-10T09:50:31Z</time>
      </trkpt>
      <trkpt lat="45.32245" lon="5.86145">
        <ele>1718.6</ele>
        <time>2015-07-10T09:50:37Z</time>
      </trkpt>
      <trkpt lat="45.32241" lon="5.86131">
        <ele>1716.8</ele>
        <time>2015-07-10T09:50:43Z</time>
      </trkpt>
      <trkpt lat="45.3224" lon="5.86116">
        <ele>1715</ele>
        <time>2015-07-10T09:50:48Z</time>
      </trkpt>
      <trkpt lat="45.3224" lon="5.86099">
        <ele>1712</ele>
        <time>2015-07-10T09:50:54Z</time>
      </trkpt>
      <trkpt lat="45.32235" lon="5.86082">
        <ele>1709.4</ele>
        <time>2015-07-10T09:51:00Z</time>
      </trkpt>
      <trkpt lat="45.3223" lon="5.86069">
        <ele>1708.4</ele>
        <time>2015-07-10T09:51:06Z</time>
      </trkpt>
      <trkpt lat="45.32226" lon="5.86055">
        <ele>1706.2</ele>
        <time>2015-07-10T09:51:11Z</time>
      </trkpt>
      <trkpt lat="45.32219" lon="5.86041">
        <ele>1705.6</ele>
        <time>2015-07-10T09:51:15Z</time>
      </trkpt>
      <trkpt lat="45.32213" lon="5.8603">
        <ele>1706.6</ele>
        <time>2015-07-10T09:51:22Z</time>
      </trkpt>
      <trkpt lat="45.32208" lon="5.8602">
        <ele>1708.2</ele>
        <time>2015-07-10T09:51:28Z</time>
      </trkpt>
      <trkpt lat="45.32206" lon="5.86006">
        <ele>1711.8</ele>
        <time>2015-07-10T09:51:37Z</time>
      </trkpt>
      <trkpt lat="45.32205" lon="5.85989">
        <ele>1710.2</ele>
        <time>2015-07-10T09:51:44Z</time>
      </trkpt>
      <trkpt lat="45.32201" lon="5.85974">
        <ele>1708.6</ele>
        <time>2015-07-10T09:51:49Z</time>
      </trkpt>
      <trkpt lat="45.32194" lon="5.85961">
        <ele>1708.4</ele>
        <time>2015-07-10T09:51:53Z</time>
      </trkpt>
      <trkpt lat="45.3219" lon="5.8595">
        <ele>1707.6</ele>
        <time>2015-07-10T09:51:59Z</time>
      </trkpt>
      <trkpt lat="45.32184" lon="5.85937">
        <ele>1706.8</ele>
        <time>2015-07-10T09:52:04Z</time>
      </trkpt>
      <trkpt lat="45.32175" lon="5.85923">
        <ele>1706.8</ele>
        <time>2015-07-10T09:52:09Z</time>
      </trkpt>
      <trkpt lat="45.32172" lon="5.85909">
        <ele>1706.8</ele>
        <time>2015-07-10T09:52:15Z</time>
      </trkpt>
      <trkpt lat="45.32172" lon="5.85896">
        <ele>1706.2</ele>
        <time>2015-07-10T09:52:19Z</time>
      </trkpt>
      <trkpt lat="45.32166" lon="5.85886">
        <ele>1705.8</ele>
        <time>2015-07-10T09:52:25Z</time>
      </trkpt>
      <trkpt lat="45.32164" lon="5.85876">
        <ele>1707.8</ele>
        <time>2015-07-10T09:52:33Z</time>
      </trkpt>
      <trkpt lat="45.32156" lon="5.85862">
        <ele>1708.8</ele>
        <time>2015-07-10T09:52:39Z</time>
      </trkpt>
      <trkpt lat="45.32148" lon="5.85852">
        <ele>1708.8</ele>
        <time>2015-07-10T09:52:43Z</time>
      </trkpt>
      <trkpt lat="45.32139" lon="5.8584">
        <ele>1708.8</ele>
        <time>2015-07-10T09:52:47Z</time>
      </trkpt>
      <trkpt lat="45.3213" lon="5.85832">
        <ele>1708.8</ele>
        <time>2015-07-10T09:52:52Z</time>
      </trkpt>
      <trkpt lat="45.3212" lon="5.85824">
        <ele>1709.2</ele>
        <time>2015-07-10T09:52:57Z</time>
      </trkpt>
      <trkpt lat="45.32112" lon="5.85819">
        <ele>1710.4</ele>
        <time>2015-07-10T09:53:01Z</time>
      </trkpt>
      <trkpt lat="45.32104" lon="5.85811">
        <ele>1711.4</ele>
        <time>2015-07-10T09:53:09Z</time>
      </trkpt>
      <trkpt lat="45.32098" lon="5.85801">
        <ele>1712.2</ele>
        <time>2015-07-10T09:53:14Z</time>
      </trkpt>
      <trkpt lat="45.32093" lon="5.85795">
        <ele>1712.2</ele>
        <time>2015-07-10T09:53:18Z</time>
      </trkpt>
      <trkpt lat="45.32088" lon="5.8579">
        <ele>1713.6</ele>
        <time>2015-07-10T09:53:24Z</time>
      </trkpt>
      <trkpt lat="45.32086" lon="5.85778">
        <ele>1715.4</ele>
        <time>2015-07-10T09:53:33Z</time>
      </trkpt>
      <trkpt lat="45.32083" lon="5.85763">
        <ele>1718.4</ele>
        <time>2015-07-10T09:53:44Z</time>
      </trkpt>
      <trkpt lat="45.32072" lon="5.85758">
        <ele>1721.8</ele>
        <time>2015-07-10T09:53:57Z</time>
      </trkpt>
      <trkpt lat="45.3206" lon="5.85751">
        <ele>1724.8</ele>
        <time>2015-07-10T09:54:09Z</time>
      </trkpt>
      <trkpt lat="45.32053" lon="5.85742">
        <ele>1725.8</ele>
        <time>2015-07-10T09:54:15Z</time>
      </trkpt>
      <trkpt lat="45.32049" lon="5.85728">
        <ele>1726.8</ele>
        <time>2015-07-10T09:54:21Z</time>
      </trkpt>
      <trkpt lat="45.32043" lon="5.85713">
        <ele>1727</ele>
        <time>2015-07-10T09:54:27Z</time>
      </trkpt>
      <trkpt lat="45.32045" lon="5.85702">
        <ele>1728.2</ele>
        <time>2015-07-10T09:54:33Z</time>
      </trkpt>
      <trkpt lat="45.32052" lon="5.85693">
        <ele>1730.6</ele>
        <time>2015-07-10T09:54:41Z</time>
      </trkpt>
      <trkpt lat="45.32051" lon="5.85681">
        <ele>1732.8</ele>
        <time>2015-07-10T09:54:51Z</time>
      </trkpt>
      <trkpt lat="45.32054" lon="5.85674">
        <ele>1737</ele>
        <time>2015-07-10T09:55:05Z</time>
      </trkpt>
      <trkpt lat="45.32054" lon="5.85664">
        <ele>1738</ele>
        <time>2015-07-10T09:55:12Z</time>
      </trkpt>
      <trkpt lat="45.32047" lon="5.85648">
        <ele>1739.8</ele>
        <time>2015-07-10T09:55:22Z</time>
      </trkpt>
      <trkpt lat="45.3204" lon="5.85634">
        <ele>1741.4</ele>
        <time>2015-07-10T09:55:31Z</time>
      </trkpt>
      <trkpt lat="45.32036" lon="5.85621">
        <ele>1742.8</ele>
        <time>2015-07-10T09:55:39Z</time>
      </trkpt>
      <trkpt lat="45.32023" lon="5.85611">
        <ele>1743.8</ele>
        <time>2015-07-10T09:55:47Z</time>
      </trkpt>
      <trkpt lat="45.32015" lon="5.85599">
        <ele>1743.8</ele>
        <time>2015-07-10T09:55:51Z</time>
      </trkpt>
      <trkpt lat="45.3201" lon="5.85586">
        <ele>1744</ele>
        <time>2015-07-10T09:55:56Z</time>
      </trkpt>
      <trkpt lat="45.32003" lon="5.85577">
        <ele>1747.4</ele>
        <time>2015-07-10T09:56:02Z</time>
      </trkpt>
      <trkpt lat="45.31996" lon="5.8557">
        <ele>1747.8</ele>
        <time>2015-07-10T09:56:08Z</time>
      </trkpt>
      <trkpt lat="45.31988" lon="5.85561">
        <ele>1750</ele>
        <time>2015-07-10T09:56:14Z</time>
      </trkpt>
      <trkpt lat="45.31978" lon="5.85553">
        <ele>1750.8</ele>
        <time>2015-07-10T09:56:21Z</time>
      </trkpt>
      <trkpt lat="45.31968" lon="5.85548">
        <ele>1752.6</ele>
        <time>2015-07-10T09:56:28Z</time>
      </trkpt>
      <trkpt lat="45.31959" lon="5.85538">
        <ele>1755.2</ele>
        <time>2015-07-10T09:56:35Z</time>
      </trkpt>
      <trkpt lat="45.31951" lon="5.85529">
        <ele>1756.2</ele>
        <time>2015-07-10T09:56:41Z</time>
      </trkpt>
      <trkpt lat="45.31944" lon="5.85522">
        <ele>1758.2</ele>
        <time>2015-07-10T09:56:47Z</time>
      </trkpt>
      <trkpt lat="45.31934" lon="5.85513">
        <ele>1759.8</ele>
        <time>2015-07-10T09:56:53Z</time>
      </trkpt>
      <trkpt lat="45.31926" lon="5.85503">
        <ele>1761.8</ele>
        <time>2015-07-10T09:56:59Z</time>
      </trkpt>
      <trkpt lat="45.31918" lon="5.85492">
        <ele>1763.2</ele>
        <time>2015-07-10T09:57:06Z</time>
      </trkpt>
      <trkpt lat="45.31911" lon="5.85484">
        <ele>1764.8</ele>
        <time>2015-07-10T09:57:12Z</time>
      </trkpt>
      <trkpt lat="45.31903" lon="5.85476">
        <ele>1765</ele>
        <time>2015-07-10T09:57:17Z</time>
      </trkpt>
      <trkpt lat="45.31899" lon="5.85478">
        <ele>1765.6</ele>
        <time>2015-07-10T09:57:26Z</time>
      </trkpt>
      <trkpt lat="45.31891" lon="5.85482">
        <ele>1767.4</ele>
        <time>2015-07-10T09:57:34Z</time>
      </trkpt>
      <trkpt lat="45.31881" lon="5.85485">
        <ele>1768.6</ele>
        <time>2015-07-10T09:57:42Z</time>
      </trkpt>
      <trkpt lat="45.3187" lon="5.85491">
        <ele>1771.4</ele>
        <time>2015-07-10T09:57:48Z</time>
      </trkpt>
      <trkpt lat="45.31861" lon="5.85499">
        <ele>1772.8</ele>
        <time>2015-07-10T09:57:54Z</time>
      </trkpt>
      <trkpt lat="45.31854" lon="5.85508">
        <ele>1773.6</ele>
        <time>2015-07-10T09:57:59Z</time>
      </trkpt>
      <trkpt lat="45.31842" lon="5.85508">
        <ele>1774.6</ele>
        <time>2015-07-10T09:58:05Z</time>
      </trkpt>
      <trkpt lat="45.31833" lon="5.85506">
        <ele>1777.2</ele>
        <time>2015-07-10T09:58:11Z</time>
      </trkpt>
      <trkpt lat="45.31822" lon="5.85507">
        <ele>1779.8</ele>
        <time>2015-07-10T09:58:18Z</time>
      </trkpt>
      <trkpt lat="45.31814" lon="5.85514">
        <ele>1781.2</ele>
        <time>2015-07-10T09:58:26Z</time>
      </trkpt>
      <trkpt lat="45.31805" lon="5.85518">
        <ele>1783.6</ele>
        <time>2015-07-10T09:58:32Z</time>
      </trkpt>
      <trkpt lat="45.31793" lon="5.85519">
        <ele>1784.2</ele>
        <time>2015-07-10T09:58:37Z</time>
      </trkpt>
      <trkpt lat="45.31783" lon="5.85521">
        <ele>1786</ele>
        <time>2015-07-10T09:58:44Z</time>
      </trkpt>
      <trkpt lat="45.31773" lon="5.85528">
        <ele>1788.4</ele>
        <time>2015-07-10T09:58:52Z</time>
      </trkpt>
      <trkpt lat="45.31764" lon="5.85534">
        <ele>1790.2</ele>
        <time>2015-07-10T09:58:59Z</time>
      </trkpt>
      <trkpt lat="45.31754" lon="5.85537">
        <ele>1792.2</ele>
        <time>2015-07-10T09:59:07Z</time>
      </trkpt>
      <trkpt lat="45.31743" lon="5.85543">
        <ele>1793.8</ele>
        <time>2015-07-10T09:59:14Z</time>
      </trkpt>
      <trkpt lat="45.31734" lon="5.8555">
        <ele>1796.2</ele>
        <time>2015-07-10T09:59:20Z</time>
      </trkpt>
      <trkpt lat="45.31723" lon="5.85549">
        <ele>1797.2</ele>
        <time>2015-07-10T09:59:27Z</time>
      </trkpt>
      <trkpt lat="45.31713" lon="5.85549">
        <ele>1798.6</ele>
        <time>2015-07-10T09:59:33Z</time>
      </trkpt>
      <trkpt lat="45.31703" lon="5.85544">
        <ele>1800.4</ele>
        <time>2015-07-10T09:59:39Z</time>
      </trkpt>
      <trkpt lat="45.31693" lon="5.8555">
        <ele>1801.6</ele>
        <time>2015-07-10T09:59:47Z</time>
      </trkpt>
      <trkpt lat="45.31682" lon="5.85556">
        <ele>1805.4</ele>
        <time>2015-07-10T09:59:57Z</time>
      </trkpt>
      <trkpt lat="45.31672" lon="5.85562">
        <ele>1808</ele>
        <time>2015-07-10T10:00:07Z</time>
      </trkpt>
      <trkpt lat="45.31662" lon="5.85564">
        <ele>1811.4</ele>
        <time>2015-07-10T10:00:17Z</time>
      </trkpt>
      <trkpt lat="45.31651" lon="5.85562">
        <ele>1813.8</ele>
        <time>2015-07-10T10:00:28Z</time>
      </trkpt>
      <trkpt lat="45.31641" lon="5.85556">
        <ele>1815.8</ele>
        <time>2015-07-10T10:00:38Z</time>
      </trkpt>
      <trkpt lat="45.3163" lon="5.85552">
        <ele>1817.8</ele>
        <time>2015-07-10T10:00:48Z</time>
      </trkpt>
      <trkpt lat="45.3162" lon="5.85554">
        <ele>1819.8</ele>
        <time>2015-07-10T10:00:57Z</time>
      </trkpt>
      <trkpt lat="45.31611" lon="5.85551">
        <ele>1822.6</ele>
        <time>2015-07-10T10:01:06Z</time>
      </trkpt>
      <trkpt lat="45.31602" lon="5.85553">
        <ele>1824.8</ele>
        <time>2015-07-10T10:01:14Z</time>
      </trkpt>
      <trkpt lat="45.31593" lon="5.85556">
        <ele>1826</ele>
        <time>2015-07-10T10:01:21Z</time>
      </trkpt>
      <trkpt lat="45.31583" lon="5.85553">
        <ele>1828.2</ele>
        <time>2015-07-10T10:01:32Z</time>
      </trkpt>
      <trkpt lat="45.31574" lon="5.85557">
        <ele>1830.8</ele>
        <time>2015-07-10T10:01:40Z</time>
      </trkpt>
      <trkpt lat="45.31563" lon="5.85558">
        <ele>1833</ele>
        <time>2015-07-10T10:01:47Z</time>
      </trkpt>
      <trkpt lat="45.31556" lon="5.85549">
        <ele>1833.6</ele>
        <time>2015-07-10T10:01:53Z</time>
      </trkpt>
      <trkpt lat="45.31547" lon="5.85542">
        <ele>1837.2</ele>
        <time>2015-07-10T10:02:00Z</time>
      </trkpt>
      <trkpt lat="45.31538" lon="5.8554">
        <ele>1839.4</ele>
        <time>2015-07-10T10:02:07Z</time>
      </trkpt>
      <trkpt lat="45.31528" lon="5.85538">
        <ele>1840.8</ele>
        <time>2015-07-10T10:02:13Z</time>
      </trkpt>
      <trkpt lat="45.31519" lon="5.85529">
        <ele>1842.4</ele>
        <time>2015-07-10T10:02:20Z</time>
      </trkpt>
      <trkpt lat="45.31513" lon="5.85517">
        <ele>1845</ele>
        <time>2015-07-10T10:02:26Z</time>
      </trkpt>
      <trkpt lat="45.31504" lon="5.85512">
        <ele>1847</ele>
        <time>2015-07-10T10:02:37Z</time>
      </trkpt>
      <trkpt lat="45.31496" lon="5.85518">
        <ele>1849.4</ele>
        <time>2015-07-10T10:02:46Z</time>
      </trkpt>
      <trkpt lat="45.31487" lon="5.85524">
        <ele>1851.4</ele>
        <time>2015-07-10T10:02:54Z</time>
      </trkpt>
      <trkpt lat="45.31477" lon="5.85529">
        <ele>1854</ele>
        <time>2015-07-10T10:03:02Z</time>
      </trkpt>
      <trkpt lat="45.3147" lon="5.85539">
        <ele>1856.8</ele>
        <time>2015-07-10T10:03:09Z</time>
      </trkpt>
      <trkpt lat="45.31461" lon="5.85547">
        <ele>1859.4</ele>
        <time>2015-07-10T10:03:16Z</time>
      </trkpt>
      <trkpt lat="45.31451" lon="5.85548">
        <ele>1862.2</ele>
        <time>2015-07-10T10:03:22Z</time>
      </trkpt>
      <trkpt lat="45.31441" lon="5.85543">
        <ele>1864.4</ele>
        <time>2015-07-10T10:03:29Z</time>
      </trkpt>
      <trkpt lat="45.31432" lon="5.85537">
        <ele>1866.6</ele>
        <time>2015-07-10T10:03:35Z</time>
      </trkpt>
      <trkpt lat="45.31422" lon="5.85534">
        <ele>1868.6</ele>
        <time>2015-07-10T10:03:44Z</time>
      </trkpt>
      <trkpt lat="45.31412" lon="5.85539">
        <ele>1871.4</ele>
        <time>2015-07-10T10:03:56Z</time>
      </trkpt>
      <trkpt lat="45.31403" lon="5.85541">
        <ele>1874</ele>
        <time>2015-07-10T10:04:05Z</time>
      </trkpt>
      <trkpt lat="45.31396" lon="5.8555">
        <ele>1877</ele>
        <time>2015-07-10T10:04:15Z</time>
      </trkpt>
      <trkpt lat="45.31388" lon="5.85554">
        <ele>1880.4</ele>
        <time>2015-07-10T10:04:24Z</time>
      </trkpt>
      <trkpt lat="45.31377" lon="5.85556">
        <ele>1884</ele>
        <time>2015-07-10T10:04:34Z</time>
      </trkpt>
      <trkpt lat="45.31368" lon="5.85562">
        <ele>1886.4</ele>
        <time>2015-07-10T10:04:42Z</time>
      </trkpt>
      <trkpt lat="45.31358" lon="5.8556">
        <ele>1889</ele>
        <time>2015-07-10T10:04:49Z</time>
      </trkpt>
      <trkpt lat="45.31349" lon="5.85566">
        <ele>1893.2</ele>
        <time>2015-07-10T10:04:58Z</time>
      </trkpt>
      <trkpt lat="45.31338" lon="5.85562">
        <ele>1895.4</ele>
        <time>2015-07-10T10:05:06Z</time>
      </trkpt>
      <trkpt lat="45.31328" lon="5.8556">
        <ele>1898.2</ele>
        <time>2015-07-10T10:05:13Z</time>
      </trkpt>
      <trkpt lat="45.31319" lon="5.85556">
        <ele>1901</ele>
        <time>2015-07-10T10:05:21Z</time>
      </trkpt>
      <trkpt lat="45.3131" lon="5.85556">
        <ele>1903.6</ele>
        <time>2015-07-10T10:05:30Z</time>
      </trkpt>
      <trkpt lat="45.31301" lon="5.85558">
        <ele>1906.8</ele>
        <time>2015-07-10T10:05:39Z</time>
      </trkpt>
      <trkpt lat="45.31295" lon="5.85565">
        <ele>1908.4</ele>
        <time>2015-07-10T10:05:46Z</time>
      </trkpt>
      <trkpt lat="45.31288" lon="5.85576">
        <ele>1910.6</ele>
        <time>2015-07-10T10:05:54Z</time>
      </trkpt>
      <trkpt lat="45.31285" lon="5.85588">
        <ele>1912.4</ele>
        <time>2015-07-10T10:06:00Z</time>
      </trkpt>
      <trkpt lat="45.31275" lon="5.85592">
        <ele>1913.8</ele>
        <time>2015-07-10T10:06:06Z</time>
      </trkpt>
      <trkpt lat="45.31267" lon="5.85597">
        <ele>1916</ele>
        <time>2015-07-10T10:06:13Z</time>
      </trkpt>
      <trkpt lat="45.31257" lon="5.85594">
        <ele>1918.6</ele>
        <time>2015-07-10T10:06:21Z</time>
      </trkpt>
      <trkpt lat="45.31246" lon="5.85595">
        <ele>1921</ele>
        <time>2015-07-10T10:06:30Z</time>
      </trkpt>
      <trkpt lat="45.31236" lon="5.8559">
        <ele>1923.8</ele>
        <time>2015-07-10T10:06:40Z</time>
      </trkpt>
      <trkpt lat="45.31227" lon="5.85586">
        <ele>1926.6</ele>
        <time>2015-07-10T10:06:49Z</time>
      </trkpt>
      <trkpt lat="45.3122" lon="5.85589">
        <ele>1929.4</ele>
        <time>2015-07-10T10:06:58Z</time>
      </trkpt>
      <trkpt lat="45.31212" lon="5.85596">
        <ele>1931.6</ele>
        <time>2015-07-10T10:07:06Z</time>
      </trkpt>
      <trkpt lat="45.31203" lon="5.85596">
        <ele>1933.8</ele>
        <time>2015-07-10T10:07:14Z</time>
      </trkpt>
      <trkpt lat="45.31194" lon="5.85597">
        <ele>1937</ele>
        <time>2015-07-10T10:07:22Z</time>
      </trkpt>
      <trkpt lat="45.31184" lon="5.85595">
        <ele>1939.6</ele>
        <time>2015-07-10T10:07:31Z</time>
      </trkpt>
      <trkpt lat="45.31175" lon="5.85593">
        <ele>1942.8</ele>
        <time>2015-07-10T10:07:38Z</time>
      </trkpt>
      <trkpt lat="45.31166" lon="5.85585">
        <ele>1944.4</ele>
        <time>2015-07-10T10:07:44Z</time>
      </trkpt>
      <trkpt lat="45.31157" lon="5.85582">
        <ele>1944.8</ele>
        <time>2015-07-10T10:07:49Z</time>
      </trkpt>
      <trkpt lat="45.31146" lon="5.85584">
        <ele>1947</ele>
        <time>2015-07-10T10:07:56Z</time>
      </trkpt>
      <trkpt lat="45.31136" lon="5.85587">
        <ele>1948.8</ele>
        <time>2015-07-10T10:08:03Z</time>
      </trkpt>
      <trkpt lat="45.31127" lon="5.85582">
        <ele>1950.2</ele>
        <time>2015-07-10T10:08:09Z</time>
      </trkpt>
      <trkpt lat="45.31117" lon="5.85578">
        <ele>1952.4</ele>
        <time>2015-07-10T10:08:16Z</time>
      </trkpt>
      <trkpt lat="45.31107" lon="5.85585">
        <ele>1954.4</ele>
        <time>2015-07-10T10:08:28Z</time>
      </trkpt>
      <trkpt lat="45.31098" lon="5.85583">
        <ele>1956.8</ele>
        <time>2015-07-10T10:08:38Z</time>
      </trkpt>
      <trkpt lat="45.31091" lon="5.85572">
        <ele>1957.8</ele>
        <time>2015-07-10T10:08:46Z</time>
      </trkpt>
      <trkpt lat="45.31086" lon="5.85561">
        <ele>1959.4</ele>
        <time>2015-07-10T10:08:54Z</time>
      </trkpt>
      <trkpt lat="45.31075" lon="5.85559">
        <ele>1962.8</ele>
        <time>2015-07-10T10:09:03Z</time>
      </trkpt>
      <trkpt lat="45.31064" lon="5.85553">
        <ele>1964.8</ele>
        <time>2015-07-10T10:09:11Z</time>
      </trkpt>
      <trkpt lat="45.31054" lon="5.85547">
        <ele>1966.2</ele>
        <time>2015-07-10T10:09:18Z</time>
      </trkpt>
      <trkpt lat="45.31045" lon="5.85548">
        <ele>1968.6</ele>
        <time>2015-07-10T10:09:25Z</time>
      </trkpt>
      <trkpt lat="45.31034" lon="5.85552">
        <ele>1970.4</ele>
        <time>2015-07-10T10:09:32Z</time>
      </trkpt>
      <trkpt lat="45.31025" lon="5.85557">
        <ele>1971.6</ele>
        <time>2015-07-10T10:09:37Z</time>
      </trkpt>
      <trkpt lat="45.31016" lon="5.85559">
        <ele>1972.4</ele>
        <time>2015-07-10T10:09:44Z</time>
      </trkpt>
      <trkpt lat="45.31006" lon="5.85555">
        <ele>1973.2</ele>
        <time>2015-07-10T10:09:49Z</time>
      </trkpt>
      <trkpt lat="45.30997" lon="5.85553">
        <ele>1975.2</ele>
        <time>2015-07-10T10:09:55Z</time>
      </trkpt>
      <trkpt lat="45.30988" lon="5.85549">
        <ele>1977.6</ele>
        <time>2015-07-10T10:10:02Z</time>
      </trkpt>
      <trkpt lat="45.30978" lon="5.85548">
        <ele>1982.2</ele>
        <time>2015-07-10T10:10:14Z</time>
      </trkpt>
      <trkpt lat="45.30968" lon="5.85547">
        <ele>1985.6</ele>
        <time>2015-07-10T10:10:25Z</time>
      </trkpt>
      <trkpt lat="45.30958" lon="5.8555">
        <ele>1989.4</ele>
        <time>2015-07-10T10:10:37Z</time>
      </trkpt>
      <trkpt lat="45.30947" lon="5.85553">
        <ele>1993</ele>
        <time>2015-07-10T10:10:51Z</time>
      </trkpt>
      <trkpt lat="45.30937" lon="5.85557">
        <ele>1996.4</ele>
        <time>2015-07-10T10:11:03Z</time>
      </trkpt>
      <trkpt lat="45.30926" lon="5.8556">
        <ele>2000</ele>
        <time>2015-07-10T10:11:16Z</time>
      </trkpt>
      <trkpt lat="45.30914" lon="5.85558">
        <ele>2002.2</ele>
        <time>2015-07-10T10:11:28Z</time>
      </trkpt>
      <trkpt lat="45.30903" lon="5.85555">
        <ele>2006.2</ele>
        <time>2015-07-10T10:11:40Z</time>
      </trkpt>
      <trkpt lat="45.30892" lon="5.85555">
        <ele>2009.2</ele>
        <time>2015-07-10T10:11:52Z</time>
      </trkpt>
      <trkpt lat="45.30883" lon="5.85554">
        <ele>2011.4</ele>
        <time>2015-07-10T10:12:03Z</time>
      </trkpt>
      <trkpt lat="45.30872" lon="5.85555">
        <ele>2015</ele>
        <time>2015-07-10T10:12:16Z</time>
      </trkpt>
      <trkpt lat="45.30862" lon="5.85561">
        <ele>2018.6</ele>
        <time>2015-07-10T10:12:28Z</time>
      </trkpt>
      <trkpt lat="45.30854" lon="5.85566">
        <ele>2021.4</ele>
        <time>2015-07-10T10:12:39Z</time>
      </trkpt>
      <trkpt lat="45.30843" lon="5.85566">
        <ele>2024.2</ele>
        <time>2015-07-10T10:12:51Z</time>
      </trkpt>
      <trkpt lat="45.30832" lon="5.8556">
        <ele>2027</ele>
        <time>2015-07-10T10:13:02Z</time>
      </trkpt>
      <trkpt lat="45.30824" lon="5.85558">
        <ele>2030.2</ele>
        <time>2015-07-10T10:13:13Z</time>
      </trkpt>
      <trkpt lat="45.30824" lon="5.8555">
        <ele>2030.6</ele>
        <time>2015-07-10T10:13:32Z</time>
      </trkpt>
      <trkpt lat="45.30829" lon="5.85564">
        <ele>2030.6</ele>
        <time>2015-07-10T10:13:46Z</time>
      </trkpt>
      <trkpt lat="45.30833" lon="5.85566">
        <ele>2028.4</ele>
        <time>2015-07-10T10:13:58Z</time>
      </trkpt>
      <trkpt lat="45.30835" lon="5.85554">
        <ele>2028.2</ele>
        <time>2015-07-10T10:14:05Z</time>
      </trkpt>
      <trkpt lat="45.30835" lon="5.85541">
        <ele>2026.4</ele>
        <time>2015-07-10T10:14:12Z</time>
      </trkpt>
      <trkpt lat="45.30838" lon="5.85526">
        <ele>2025.4</ele>
        <time>2015-07-10T10:14:32Z</time>
      </trkpt>
      <trkpt lat="45.30841" lon="5.85516">
        <ele>2023</ele>
        <time>2015-07-10T10:14:38Z</time>
      </trkpt>
      <trkpt lat="45.30842" lon="5.85516">
        <ele>2022.8</ele>
        <time>2015-07-10T10:14:39Z</time>
      </trkpt>
      <trkpt lat="45.30851" lon="5.85504">
        <ele>2020</ele>
        <time>2015-07-10T10:14:47Z</time>
      </trkpt>
      <trkpt lat="45.30858" lon="5.85494">
        <ele>2016.4</ele>
        <time>2015-07-10T10:14:52Z</time>
      </trkpt>
      <trkpt lat="45.30863" lon="5.85481">
        <ele>2014</ele>
        <time>2015-07-10T10:14:57Z</time>
      </trkpt>
      <trkpt lat="45.30857" lon="5.85473">
        <ele>2010.8</ele>
        <time>2015-07-10T10:15:04Z</time>
      </trkpt>
      <trkpt lat="45.30851" lon="5.85462">
        <ele>2005.8</ele>
        <time>2015-07-10T10:15:10Z</time>
      </trkpt>
      <trkpt lat="45.30856" lon="5.85452">
        <ele>2001</ele>
        <time>2015-07-10T10:15:18Z</time>
      </trkpt>
      <trkpt lat="45.30864" lon="5.85438">
        <ele>1994</ele>
        <time>2015-07-10T10:15:31Z</time>
      </trkpt>
      <trkpt lat="45.30873" lon="5.8543">
        <ele>1991.2</ele>
        <time>2015-07-10T10:15:35Z</time>
      </trkpt>
      <trkpt lat="45.30881" lon="5.8542">
        <ele>1987.8</ele>
        <time>2015-07-10T10:15:39Z</time>
      </trkpt>
      <trkpt lat="45.30886" lon="5.85404">
        <ele>1983.8</ele>
        <time>2015-07-10T10:15:43Z</time>
      </trkpt>
      <trkpt lat="45.30894" lon="5.85391">
        <ele>1981.6</ele>
        <time>2015-07-10T10:15:47Z</time>
      </trkpt>
      <trkpt lat="45.30898" lon="5.85379">
        <ele>1977.6</ele>
        <time>2015-07-10T10:15:55Z</time>
      </trkpt>
      <trkpt lat="45.30889" lon="5.85381">
        <ele>1974.6</ele>
        <time>2015-07-10T10:16:02Z</time>
      </trkpt>
      <trkpt lat="45.30886" lon="5.85372">
        <ele>1970.2</ele>
        <time>2015-07-10T10:16:08Z</time>
      </trkpt>
      <trkpt lat="45.30878" lon="5.85372">
        <ele>1968</ele>
        <time>2015-07-10T10:16:14Z</time>
      </trkpt>
      <trkpt lat="45.30877" lon="5.85358">
        <ele>1961.4</ele>
        <time>2015-07-10T10:16:27Z</time>
      </trkpt>
      <trkpt lat="45.30873" lon="5.85344">
        <ele>1957.2</ele>
        <time>2015-07-10T10:16:32Z</time>
      </trkpt>
      <trkpt lat="45.30871" lon="5.8534">
        <ele>1954</ele>
        <time>2015-07-10T10:16:37Z</time>
      </trkpt>
      <trkpt lat="45.30862" lon="5.8534">
        <ele>1951</ele>
        <time>2015-07-10T10:16:43Z</time>
      </trkpt>
      <trkpt lat="45.30854" lon="5.85346">
        <ele>1947.2</ele>
        <time>2015-07-10T10:16:49Z</time>
      </trkpt>
      <trkpt lat="45.30843" lon="5.85344">
        <ele>1944</ele>
        <time>2015-07-10T10:16:54Z</time>
      </trkpt>
      <trkpt lat="45.30838" lon="5.85334">
        <ele>1937.6</ele>
        <time>2015-07-10T10:17:00Z</time>
      </trkpt>
      <trkpt lat="45.30837" lon="5.85324">
        <ele>1934.2</ele>
        <time>2015-07-10T10:17:07Z</time>
      </trkpt>
      <trkpt lat="45.3084" lon="5.85317">
        <ele>1928.2</ele>
        <time>2015-07-10T10:17:29Z</time>
      </trkpt>
      <trkpt lat="45.30833" lon="5.85307">
        <ele>1924.8</ele>
        <time>2015-07-10T10:17:35Z</time>
      </trkpt>
      <trkpt lat="45.30826" lon="5.85312">
        <ele>1920.8</ele>
        <time>2015-07-10T10:17:44Z</time>
      </trkpt>
      <trkpt lat="45.30823" lon="5.85302">
        <ele>1915</ele>
        <time>2015-07-10T10:17:58Z</time>
      </trkpt>
      <trkpt lat="45.30833" lon="5.85295">
        <ele>1912.4</ele>
        <time>2015-07-10T10:18:05Z</time>
      </trkpt>
      <trkpt lat="45.3084" lon="5.8528">
        <ele>1908.8</ele>
        <time>2015-07-10T10:18:10Z</time>
      </trkpt>
      <trkpt lat="45.30847" lon="5.8527">
        <ele>1904</ele>
        <time>2015-07-10T10:18:14Z</time>
      </trkpt>
      <trkpt lat="45.30851" lon="5.8526">
        <ele>1899.6</ele>
        <time>2015-07-10T10:18:24Z</time>
      </trkpt>
      <trkpt lat="45.30844" lon="5.85255">
        <ele>1896.2</ele>
        <time>2015-07-10T10:18:38Z</time>
      </trkpt>
      <trkpt lat="45.30839" lon="5.85252">
        <ele>1891.6</ele>
        <time>2015-07-10T10:18:46Z</time>
      </trkpt>
      <trkpt lat="45.30828" lon="5.85246">
        <ele>1886.8</ele>
        <time>2015-07-10T10:18:53Z</time>
      </trkpt>
      <trkpt lat="45.30822" lon="5.85241">
        <ele>1884.6</ele>
        <time>2015-07-10T10:18:58Z</time>
      </trkpt>
      <trkpt lat="45.3082" lon="5.8523">
        <ele>1878.2</ele>
        <time>2015-07-10T10:19:09Z</time>
      </trkpt>
      <trkpt lat="45.30821" lon="5.85219">
        <ele>1875.4</ele>
        <time>2015-07-10T10:19:14Z</time>
      </trkpt>
      <trkpt lat="45.30831" lon="5.85216">
        <ele>1869.8</ele>
        <time>2015-07-10T10:19:27Z</time>
      </trkpt>
      <trkpt lat="45.30828" lon="5.85205">
        <ele>1861.6</ele>
        <time>2015-07-10T10:19:46Z</time>
      </trkpt>
      <trkpt lat="45.30824" lon="5.8519">
        <ele>1856.2</ele>
        <time>2015-07-10T10:19:53Z</time>
      </trkpt>
      <trkpt lat="45.30826" lon="5.85176">
        <ele>1852.8</ele>
        <time>2015-07-10T10:19:57Z</time>
      </trkpt>
      <trkpt lat="45.30828" lon="5.85163">
        <ele>1848.6</ele>
        <time>2015-07-10T10:20:03Z</time>
      </trkpt>
      <trkpt lat="45.30836" lon="5.85155">
        <ele>1846.8</ele>
        <time>2015-07-10T10:20:06Z</time>
      </trkpt>
      <trkpt lat="45.30842" lon="5.85143">
        <ele>1846.6</ele>
        <time>2015-07-10T10:20:09Z</time>
      </trkpt>
      <trkpt lat="45.30848" lon="5.85132">
        <ele>1844.8</ele>
        <time>2015-07-10T10:20:12Z</time>
      </trkpt>
      <trkpt lat="45.30855" lon="5.85116">
        <ele>1840.6</ele>
        <time>2015-07-10T10:20:16Z</time>
      </trkpt>
      <trkpt lat="45.30861" lon="5.85105">
        <ele>1838.6</ele>
        <time>2015-07-10T10:20:19Z</time>
      </trkpt>
      <trkpt lat="45.30867" lon="5.85094">
        <ele>1836</ele>
        <time>2015-07-10T10:20:22Z</time>
      </trkpt>
      <trkpt lat="45.30873" lon="5.85083">
        <ele>1835.4</ele>
        <time>2015-07-10T10:20:25Z</time>
      </trkpt>
      <trkpt lat="45.30881" lon="5.85074">
        <ele>1833.8</ele>
        <time>2015-07-10T10:20:28Z</time>
      </trkpt>
      <trkpt lat="45.30889" lon="5.85066">
        <ele>1832.6</ele>
        <time>2015-07-10T10:20:31Z</time>
      </trkpt>
      <trkpt lat="45.30895" lon="5.85058">
        <ele>1830.6</ele>
        <time>2015-07-10T10:20:35Z</time>
      </trkpt>
      <trkpt lat="45.30902" lon="5.85046">
        <ele>1827</ele>
        <time>2015-07-10T10:20:39Z</time>
      </trkpt>
      <trkpt lat="45.30911" lon="5.85037">
        <ele>1826</ele>
        <time>2015-07-10T10:20:44Z</time>
      </trkpt>
      <trkpt lat="45.3092" lon="5.85028">
        <ele>1824.4</ele>
        <time>2015-07-10T10:20:48Z</time>
      </trkpt>
      <trkpt lat="45.30931" lon="5.85018">
        <ele>1821</ele>
        <time>2015-07-10T10:20:52Z</time>
      </trkpt>
      <trkpt lat="45.3094" lon="5.85009">
        <ele>1819.2</ele>
        <time>2015-07-10T10:20:56Z</time>
      </trkpt>
      <trkpt lat="45.30948" lon="5.84999">
        <ele>1817.4</ele>
        <time>2015-07-10T10:21:01Z</time>
      </trkpt>
      <trkpt lat="45.30955" lon="5.84989">
        <ele>1815.6</ele>
        <time>2015-07-10T10:21:04Z</time>
      </trkpt>
      <trkpt lat="45.30964" lon="5.84982">
        <ele>1813.6</ele>
        <time>2015-07-10T10:21:08Z</time>
      </trkpt>
      <trkpt lat="45.30973" lon="5.84977">
        <ele>1812.2</ele>
        <time>2015-07-10T10:21:12Z</time>
      </trkpt>
      <trkpt lat="45.30978" lon="5.84966">
        <ele>1810.4</ele>
        <time>2015-07-10T10:21:17Z</time>
      </trkpt>
      <trkpt lat="45.30988" lon="5.84964">
        <ele>1809.2</ele>
        <time>2015-07-10T10:21:21Z</time>
      </trkpt>
      <trkpt lat="45.31" lon="5.84961">
        <ele>1808.2</ele>
        <time>2015-07-10T10:21:25Z</time>
      </trkpt>
      <trkpt lat="45.31008" lon="5.84958">
        <ele>1805</ele>
        <time>2015-07-10T10:21:35Z</time>
      </trkpt>
      <trkpt lat="45.31016" lon="5.84951">
        <ele>1801</ele>
        <time>2015-07-10T10:21:41Z</time>
      </trkpt>
      <trkpt lat="45.31027" lon="5.84949">
        <ele>1797.8</ele>
        <time>2015-07-10T10:21:46Z</time>
      </trkpt>
      <trkpt lat="45.31036" lon="5.84947">
        <ele>1795.6</ele>
        <time>2015-07-10T10:21:51Z</time>
      </trkpt>
      <trkpt lat="45.31039" lon="5.84934">
        <ele>1791.6</ele>
        <time>2015-07-10T10:21:58Z</time>
      </trkpt>
      <trkpt lat="45.31036" lon="5.84924">
        <ele>1787.6</ele>
        <time>2015-07-10T10:22:05Z</time>
      </trkpt>
      <trkpt lat="45.31035" lon="5.84911">
        <ele>1783</ele>
        <time>2015-07-10T10:22:12Z</time>
      </trkpt>
      <trkpt lat="45.31036" lon="5.849">
        <ele>1778.4</ele>
        <time>2015-07-10T10:22:18Z</time>
      </trkpt>
      <trkpt lat="45.31038" lon="5.84886">
        <ele>1772.8</ele>
        <time>2015-07-10T10:22:25Z</time>
      </trkpt>
      <trkpt lat="45.3104" lon="5.84875">
        <ele>1766.6</ele>
        <time>2015-07-10T10:22:32Z</time>
      </trkpt>
      <trkpt lat="45.31036" lon="5.84864">
        <ele>1763.2</ele>
        <time>2015-07-10T10:22:37Z</time>
      </trkpt>
      <trkpt lat="45.31038" lon="5.84851">
        <ele>1757.2</ele>
        <time>2015-07-10T10:22:44Z</time>
      </trkpt>
      <trkpt lat="45.31044" lon="5.8484">
        <ele>1753.4</ele>
        <time>2015-07-10T10:22:50Z</time>
      </trkpt>
      <trkpt lat="45.31043" lon="5.8483">
        <ele>1748.8</ele>
        <time>2015-07-10T10:22:57Z</time>
      </trkpt>
      <trkpt lat="45.31048" lon="5.84823">
        <ele>1745.8</ele>
        <time>2015-07-10T10:23:04Z</time>
      </trkpt>
      <trkpt lat="45.31059" lon="5.8482">
        <ele>1744.2</ele>
        <time>2015-07-10T10:23:08Z</time>
      </trkpt>
      <trkpt lat="45.31069" lon="5.84817">
        <ele>1741</ele>
        <time>2015-07-10T10:23:12Z</time>
      </trkpt>
      <trkpt lat="45.31062" lon="5.84808">
        <ele>1738</ele>
        <time>2015-07-10T10:23:17Z</time>
      </trkpt>
      <trkpt lat="45.31055" lon="5.84802">
        <ele>1733.6</ele>
        <time>2015-07-10T10:23:22Z</time>
      </trkpt>
      <trkpt lat="45.31046" lon="5.84796">
        <ele>1730</ele>
        <time>2015-07-10T10:23:29Z</time>
      </trkpt>
      <trkpt lat="45.31045" lon="5.84785">
        <ele>1727.8</ele>
        <time>2015-07-10T10:23:34Z</time>
      </trkpt>
      <trkpt lat="45.31054" lon="5.84778">
        <ele>1724.2</ele>
        <time>2015-07-10T10:23:38Z</time>
      </trkpt>
      <trkpt lat="45.31063" lon="5.84775">
        <ele>1722.6</ele>
        <time>2015-07-10T10:23:42Z</time>
      </trkpt>
      <trkpt lat="45.31074" lon="5.8477">
        <ele>1718.6</ele>
        <time>2015-07-10T10:23:47Z</time>
      </trkpt>
      <trkpt lat="45.3107" lon="5.84764">
        <ele>1716.8</ele>
        <time>2015-07-10T10:23:53Z</time>
      </trkpt>
      <trkpt lat="45.31062" lon="5.84757">
        <ele>1715.6</ele>
        <time>2015-07-10T10:23:58Z</time>
      </trkpt>
      <trkpt lat="45.3105" lon="5.84758">
        <ele>1713.6</ele>
        <time>2015-07-10T10:24:02Z</time>
      </trkpt>
      <trkpt lat="45.3104" lon="5.84754">
        <ele>1712.2</ele>
        <time>2015-07-10T10:24:07Z</time>
      </trkpt>
      <trkpt lat="45.31037" lon="5.84748">
        <ele>1708.8</ele>
        <time>2015-07-10T10:24:13Z</time>
      </trkpt>
      <trkpt lat="45.31044" lon="5.84739">
        <ele>1705.8</ele>
        <time>2015-07-10T10:24:17Z</time>
      </trkpt>
      <trkpt lat="45.31053" lon="5.84735">
        <ele>1703.8</ele>
        <time>2015-07-10T10:24:20Z</time>
      </trkpt>
      <trkpt lat="45.3106" lon="5.84728">
        <ele>1702</ele>
        <time>2015-07-10T10:24:25Z</time>
      </trkpt>
      <trkpt lat="45.31052" lon="5.8472">
        <ele>1698.4</ele>
        <time>2015-07-10T10:24:32Z</time>
      </trkpt>
      <trkpt lat="45.31042" lon="5.84719">
        <ele>1696.4</ele>
        <time>2015-07-10T10:24:37Z</time>
      </trkpt>
      <trkpt lat="45.31033" lon="5.84716">
        <ele>1693.4</ele>
        <time>2015-07-10T10:24:42Z</time>
      </trkpt>
      <trkpt lat="45.31023" lon="5.84709">
        <ele>1689.6</ele>
        <time>2015-07-10T10:24:48Z</time>
      </trkpt>
      <trkpt lat="45.31015" lon="5.84702">
        <ele>1686.2</ele>
        <time>2015-07-10T10:24:52Z</time>
      </trkpt>
      <trkpt lat="45.3102" lon="5.84694">
        <ele>1681.2</ele>
        <time>2015-07-10T10:25:01Z</time>
      </trkpt>
      <trkpt lat="45.31028" lon="5.84682">
        <ele>1676.2</ele>
        <time>2015-07-10T10:25:07Z</time>
      </trkpt>
      <trkpt lat="45.31034" lon="5.84673">
        <ele>1672.8</ele>
        <time>2015-07-10T10:25:13Z</time>
      </trkpt>
      <trkpt lat="45.31037" lon="5.8466">
        <ele>1668.2</ele>
        <time>2015-07-10T10:25:20Z</time>
      </trkpt>
      <trkpt lat="45.31046" lon="5.84653">
        <ele>1664.8</ele>
        <time>2015-07-10T10:25:25Z</time>
      </trkpt>
      <trkpt lat="45.31051" lon="5.84644">
        <ele>1661.8</ele>
        <time>2015-07-10T10:25:30Z</time>
      </trkpt>
      <trkpt lat="45.3106" lon="5.84634">
        <ele>1658.2</ele>
        <time>2015-07-10T10:25:35Z</time>
      </trkpt>
      <trkpt lat="45.31067" lon="5.84625">
        <ele>1655</ele>
        <time>2015-07-10T10:25:39Z</time>
      </trkpt>
      <trkpt lat="45.31069" lon="5.84619">
        <ele>1651</ele>
        <time>2015-07-10T10:25:45Z</time>
      </trkpt>
      <trkpt lat="45.31065" lon="5.84608">
        <ele>1647</ele>
        <time>2015-07-10T10:25:51Z</time>
      </trkpt>
      <trkpt lat="45.31061" lon="5.846">
        <ele>1643.8</ele>
        <time>2015-07-10T10:25:56Z</time>
      </trkpt>
      <trkpt lat="45.31051" lon="5.84593">
        <ele>1640</ele>
        <time>2015-07-10T10:26:00Z</time>
      </trkpt>
      <trkpt lat="45.31043" lon="5.84589">
        <ele>1637.4</ele>
        <time>2015-07-10T10:26:04Z</time>
      </trkpt>
      <trkpt lat="45.31046" lon="5.84578">
        <ele>1633.2</ele>
        <time>2015-07-10T10:26:09Z</time>
      </trkpt>
      <trkpt lat="45.31045" lon="5.8457">
        <ele>1630</ele>
        <time>2015-07-10T10:26:14Z</time>
      </trkpt>
      <trkpt lat="45.31041" lon="5.84561">
        <ele>1627.2</ele>
        <time>2015-07-10T10:26:18Z</time>
      </trkpt>
      <trkpt lat="45.31051" lon="5.84556">
        <ele>1625.2</ele>
        <time>2015-07-10T10:26:22Z</time>
      </trkpt>
      <trkpt lat="45.31061" lon="5.84552">
        <ele>1621.8</ele>
        <time>2015-07-10T10:26:26Z</time>
      </trkpt>
      <trkpt lat="45.31052" lon="5.84541">
        <ele>1618.6</ele>
        <time>2015-07-10T10:26:31Z</time>
      </trkpt>
      <trkpt lat="45.31043" lon="5.84532">
        <ele>1616</ele>
        <time>2015-07-10T10:26:35Z</time>
      </trkpt>
      <trkpt lat="45.31036" lon="5.84522">
        <ele>1612</ele>
        <time>2015-07-10T10:26:39Z</time>
      </trkpt>
      <trkpt lat="45.31045" lon="5.8452">
        <ele>1611</ele>
        <time>2015-07-10T10:26:43Z</time>
      </trkpt>
      <trkpt lat="45.31051" lon="5.84516">
        <ele>1608.2</ele>
        <time>2015-07-10T10:26:47Z</time>
      </trkpt>
      <trkpt lat="45.31041" lon="5.84506">
        <ele>1607.4</ele>
        <time>2015-07-10T10:26:51Z</time>
      </trkpt>
      <trkpt lat="45.31034" lon="5.84497">
        <ele>1606.2</ele>
        <time>2015-07-10T10:26:54Z</time>
      </trkpt>
      <trkpt lat="45.31042" lon="5.84497">
        <ele>1602.4</ele>
        <time>2015-07-10T10:26:58Z</time>
      </trkpt>
      <trkpt lat="45.31054" lon="5.84494">
        <ele>1600.2</ele>
        <time>2015-07-10T10:27:02Z</time>
      </trkpt>
      <trkpt lat="45.31051" lon="5.84489">
        <ele>1598.4</ele>
        <time>2015-07-10T10:27:07Z</time>
      </trkpt>
      <trkpt lat="45.31044" lon="5.84479">
        <ele>1596.2</ele>
        <time>2015-07-10T10:27:10Z</time>
      </trkpt>
      <trkpt lat="45.31036" lon="5.84468">
        <ele>1594.6</ele>
        <time>2015-07-10T10:27:14Z</time>
      </trkpt>
      <trkpt lat="45.31029" lon="5.84459">
        <ele>1591.6</ele>
        <time>2015-07-10T10:27:18Z</time>
      </trkpt>
      <trkpt lat="45.31028" lon="5.84446">
        <ele>1586.8</ele>
        <time>2015-07-10T10:27:23Z</time>
      </trkpt>
      <trkpt lat="45.31027" lon="5.8443">
        <ele>1581.4</ele>
        <time>2015-07-10T10:27:28Z</time>
      </trkpt>
      <trkpt lat="45.31027" lon="5.84416">
        <ele>1576.8</ele>
        <time>2015-07-10T10:27:32Z</time>
      </trkpt>
      <trkpt lat="45.31027" lon="5.84402">
        <ele>1571.8</ele>
        <time>2015-07-10T10:27:36Z</time>
      </trkpt>
      <trkpt lat="45.31025" lon="5.84389">
        <ele>1568.8</ele>
        <time>2015-07-10T10:27:39Z</time>
      </trkpt>
      <trkpt lat="45.31019" lon="5.8438">
        <ele>1566.8</ele>
        <time>2015-07-10T10:27:42Z</time>
      </trkpt>
      <trkpt lat="45.31012" lon="5.84372">
        <ele>1563.6</ele>
        <time>2015-07-10T10:27:46Z</time>
      </trkpt>
      <trkpt lat="45.31008" lon="5.84358">
        <ele>1558.4</ele>
        <time>2015-07-10T10:27:51Z</time>
      </trkpt>
      <trkpt lat="45.31007" lon="5.84344">
        <ele>1554.6</ele>
        <time>2015-07-10T10:27:56Z</time>
      </trkpt>
      <trkpt lat="45.31003" lon="5.84333">
        <ele>1550.2</ele>
        <time>2015-07-10T10:28:00Z</time>
      </trkpt>
      <trkpt lat="45.30993" lon="5.84327">
        <ele>1546.8</ele>
        <time>2015-07-10T10:28:04Z</time>
      </trkpt>
      <trkpt lat="45.30988" lon="5.84321">
        <ele>1545</ele>
        <time>2015-07-10T10:28:08Z</time>
      </trkpt>
      <trkpt lat="45.30996" lon="5.84308">
        <ele>1543.2</ele>
        <time>2015-07-10T10:28:12Z</time>
      </trkpt>
      <trkpt lat="45.31003" lon="5.84294">
        <ele>1541.2</ele>
        <time>2015-07-10T10:28:16Z</time>
      </trkpt>
      <trkpt lat="45.31002" lon="5.84282">
        <ele>1539</ele>
        <time>2015-07-10T10:28:22Z</time>
      </trkpt>
      <trkpt lat="45.30991" lon="5.84279">
        <ele>1536</ele>
        <time>2015-07-10T10:28:26Z</time>
      </trkpt>
      <trkpt lat="45.30983" lon="5.84274">
        <ele>1533.6</ele>
        <time>2015-07-10T10:28:29Z</time>
      </trkpt>
      <trkpt lat="45.30975" lon="5.84269">
        <ele>1531.2</ele>
        <time>2015-07-10T10:28:32Z</time>
      </trkpt>
      <trkpt lat="45.30966" lon="5.84259">
        <ele>1527.2</ele>
        <time>2015-07-10T10:28:36Z</time>
      </trkpt>
      <trkpt lat="45.30959" lon="5.84251">
        <ele>1523.4</ele>
        <time>2015-07-10T10:28:40Z</time>
      </trkpt>
      <trkpt lat="45.30949" lon="5.8424">
        <ele>1520.6</ele>
        <time>2015-07-10T10:28:44Z</time>
      </trkpt>
      <trkpt lat="45.30939" lon="5.8423">
        <ele>1517.6</ele>
        <time>2015-07-10T10:28:48Z</time>
      </trkpt>
      <trkpt lat="45.30931" lon="5.84219">
        <ele>1514.2</ele>
        <time>2015-07-10T10:28:52Z</time>
      </trkpt>
      <trkpt lat="45.30921" lon="5.84213">
        <ele>1511.8</ele>
        <time>2015-07-10T10:28:56Z</time>
      </trkpt>
      <trkpt lat="45.30911" lon="5.84212">
        <ele>1509.6</ele>
        <time>2015-07-10T10:29:01Z</time>
      </trkpt>
      <trkpt lat="45.30901" lon="5.84209">
        <ele>1505.6</ele>
        <time>2015-07-10T10:29:05Z</time>
      </trkpt>
      <trkpt lat="45.30892" lon="5.84204">
        <ele>1502.4</ele>
        <time>2015-07-10T10:29:09Z</time>
      </trkpt>
      <trkpt lat="45.30882" lon="5.84206">
        <ele>1499.6</ele>
        <time>2015-07-10T10:29:13Z</time>
      </trkpt>
      <trkpt lat="45.30871" lon="5.84208">
        <ele>1496</ele>
        <time>2015-07-10T10:29:18Z</time>
      </trkpt>
      <trkpt lat="45.3086" lon="5.84208">
        <ele>1493.6</ele>
        <time>2015-07-10T10:29:23Z</time>
      </trkpt>
      <trkpt lat="45.30856" lon="5.84199">
        <ele>1489.6</ele>
        <time>2015-07-10T10:29:31Z</time>
      </trkpt>
      <trkpt lat="45.30855" lon="5.84185">
        <ele>1487.6</ele>
        <time>2015-07-10T10:29:35Z</time>
      </trkpt>
      <trkpt lat="45.30856" lon="5.84172">
        <ele>1487.2</ele>
        <time>2015-07-10T10:29:38Z</time>
      </trkpt>
      <trkpt lat="45.30853" lon="5.84154">
        <ele>1485.8</ele>
        <time>2015-07-10T10:29:42Z</time>
      </trkpt>
      <trkpt lat="45.30854" lon="5.84142">
        <ele>1485.4</ele>
        <time>2015-07-10T10:29:46Z</time>
      </trkpt>
      <trkpt lat="45.30856" lon="5.84131">
        <ele>1484.6</ele>
        <time>2015-07-10T10:29:50Z</time>
      </trkpt>
      <trkpt lat="45.30852" lon="5.84118">
        <ele>1483.4</ele>
        <time>2015-07-10T10:29:54Z</time>
      </trkpt>
      <trkpt lat="45.30845" lon="5.84108">
        <ele>1483.2</ele>
        <time>2015-07-10T10:29:58Z</time>
      </trkpt>
      <trkpt lat="45.30839" lon="5.84096">
        <ele>1483.2</ele>
        <time>2015-07-10T10:30:02Z</time>
      </trkpt>
      <trkpt lat="45.30834" lon="5.84084">
        <ele>1482.4</ele>
        <time>2015-07-10T10:30:06Z</time>
      </trkpt>
      <trkpt lat="45.30827" lon="5.84073">
        <ele>1481.8</ele>
        <time>2015-07-10T10:30:10Z</time>
      </trkpt>
      <trkpt lat="45.30822" lon="5.84059">
        <ele>1481.8</ele>
        <time>2015-07-10T10:30:14Z</time>
      </trkpt>
      <trkpt lat="45.30814" lon="5.8405">
        <ele>1481.8</ele>
        <time>2015-07-10T10:30:18Z</time>
      </trkpt>
      <trkpt lat="45.30805" lon="5.84044">
        <ele>1481.6</ele>
        <time>2015-07-10T10:30:21Z</time>
      </trkpt>
      <trkpt lat="45.30801" lon="5.84033">
        <ele>1480.6</ele>
        <time>2015-07-10T10:30:24Z</time>
      </trkpt>
      <trkpt lat="45.30797" lon="5.84021">
        <ele>1480.2</ele>
        <time>2015-07-10T10:30:27Z</time>
      </trkpt>
      <trkpt lat="45.30789" lon="5.84012">
        <ele>1480.2</ele>
        <time>2015-07-10T10:30:31Z</time>
      </trkpt>
      <trkpt lat="45.3078" lon="5.84006">
        <ele>1479.6</ele>
        <time>2015-07-10T10:30:35Z</time>
      </trkpt>
      <trkpt lat="45.30771" lon="5.83996">
        <ele>1479.4</ele>
        <time>2015-07-10T10:30:39Z</time>
      </trkpt>
      <trkpt lat="45.30765" lon="5.83984">
        <ele>1478.2</ele>
        <time>2015-07-10T10:30:43Z</time>
      </trkpt>
      <trkpt lat="45.30755" lon="5.83973">
        <ele>1478.2</ele>
        <time>2015-07-10T10:30:48Z</time>
      </trkpt>
      <trkpt lat="45.30748" lon="5.8396">
        <ele>1477.4</ele>
        <time>2015-07-10T10:30:52Z</time>
      </trkpt>
      <trkpt lat="45.30741" lon="5.83951">
        <ele>1476.6</ele>
        <time>2015-07-10T10:30:56Z</time>
      </trkpt>
      <trkpt lat="45.30735" lon="5.83944">
        <ele>1475.8</ele>
        <time>2015-07-10T10:31:01Z</time>
      </trkpt>
      <trkpt lat="45.30729" lon="5.83928">
        <ele>1475.8</ele>
        <time>2015-07-10T10:31:07Z</time>
      </trkpt>
      <trkpt lat="45.3072" lon="5.83912">
        <ele>1475.8</ele>
        <time>2015-07-10T10:31:14Z</time>
      </trkpt>
      <trkpt lat="45.3071" lon="5.83905">
        <ele>1475.8</ele>
        <time>2015-07-10T10:31:19Z</time>
      </trkpt>
      <trkpt lat="45.307" lon="5.83897">
        <ele>1478.2</ele>
        <time>2015-07-10T10:31:24Z</time>
      </trkpt>
      <trkpt lat="45.30691" lon="5.83891">
        <ele>1478.2</ele>
        <time>2015-07-10T10:31:29Z</time>
      </trkpt>
      <trkpt lat="45.30683" lon="5.83882">
        <ele>1478.2</ele>
        <time>2015-07-10T10:31:35Z</time>
      </trkpt>
      <trkpt lat="45.3067" lon="5.83872">
        <ele>1476.6</ele>
        <time>2015-07-10T10:31:41Z</time>
      </trkpt>
      <trkpt lat="45.30658" lon="5.83863">
        <ele>1475.8</ele>
        <time>2015-07-10T10:31:47Z</time>
      </trkpt>
      <trkpt lat="45.30647" lon="5.83852">
        <ele>1475.8</ele>
        <time>2015-07-10T10:31:52Z</time>
      </trkpt>
      <trkpt lat="45.30635" lon="5.83847">
        <ele>1476.6</ele>
        <time>2015-07-10T10:31:57Z</time>
      </trkpt>
      <trkpt lat="45.30627" lon="5.83835">
        <ele>1478.6</ele>
        <time>2015-07-10T10:32:04Z</time>
      </trkpt>
      <trkpt lat="45.30616" lon="5.83826">
        <ele>1479.4</ele>
        <time>2015-07-10T10:32:09Z</time>
      </trkpt>
      <trkpt lat="45.30605" lon="5.83815">
        <ele>1479.4</ele>
        <time>2015-07-10T10:32:14Z</time>
      </trkpt>
      <trkpt lat="45.30597" lon="5.83805">
        <ele>1477.4</ele>
        <time>2015-07-10T10:32:19Z</time>
      </trkpt>
      <trkpt lat="45.30591" lon="5.83794">
        <ele>1474.8</ele>
        <time>2015-07-10T10:32:24Z</time>
      </trkpt>
      <trkpt lat="45.30583" lon="5.83797">
        <ele>1471.8</ele>
        <time>2015-07-10T10:32:31Z</time>
      </trkpt>
      <trkpt lat="45.30575" lon="5.83787">
        <ele>1468.8</ele>
        <time>2015-07-10T10:32:36Z</time>
      </trkpt>
      <trkpt lat="45.30566" lon="5.83778">
        <ele>1467.8</ele>
        <time>2015-07-10T10:32:40Z</time>
      </trkpt>
      <trkpt lat="45.30555" lon="5.83769">
        <ele>1467</ele>
        <time>2015-07-10T10:32:45Z</time>
      </trkpt>
      <trkpt lat="45.30544" lon="5.83762">
        <ele>1464</ele>
        <time>2015-07-10T10:32:49Z</time>
      </trkpt>
      <trkpt lat="45.30534" lon="5.83752">
        <ele>1462.4</ele>
        <time>2015-07-10T10:32:53Z</time>
      </trkpt>
      <trkpt lat="45.30526" lon="5.83747">
        <ele>1461.6</ele>
        <time>2015-07-10T10:32:57Z</time>
      </trkpt>
      <trkpt lat="45.30512" lon="5.83746">
        <ele>1459.4</ele>
        <time>2015-07-10T10:33:03Z</time>
      </trkpt>
      <trkpt lat="45.30502" lon="5.83744">
        <ele>1457.8</ele>
        <time>2015-07-10T10:33:07Z</time>
      </trkpt>
      <trkpt lat="45.30492" lon="5.83743">
        <ele>1459</ele>
        <time>2015-07-10T10:33:12Z</time>
      </trkpt>
      <trkpt lat="45.3048" lon="5.83745">
        <ele>1457.8</ele>
        <time>2015-07-10T10:33:17Z</time>
      </trkpt>
      <trkpt lat="45.30469" lon="5.83742">
        <ele>1455.4</ele>
        <time>2015-07-10T10:33:22Z</time>
      </trkpt>
      <trkpt lat="45.30459" lon="5.83739">
        <ele>1454.6</ele>
        <time>2015-07-10T10:33:27Z</time>
      </trkpt>
      <trkpt lat="45.30444" lon="5.83738">
        <ele>1454.4</ele>
        <time>2015-07-10T10:33:32Z</time>
      </trkpt>
      <trkpt lat="45.30432" lon="5.83739">
        <ele>1453</ele>
        <time>2015-07-10T10:33:36Z</time>
      </trkpt>
      <trkpt lat="45.3042" lon="5.83739">
        <ele>1451.8</ele>
        <time>2015-07-10T10:33:40Z</time>
      </trkpt>
      <trkpt lat="45.30409" lon="5.83741">
        <ele>1449.8</ele>
        <time>2015-07-10T10:33:45Z</time>
      </trkpt>
      <trkpt lat="45.30396" lon="5.83737">
        <ele>1448</ele>
        <time>2015-07-10T10:33:54Z</time>
      </trkpt>
      <trkpt lat="45.30381" lon="5.83733">
        <ele>1446</ele>
        <time>2015-07-10T10:34:01Z</time>
      </trkpt>
      <trkpt lat="45.30369" lon="5.8373">
        <ele>1444</ele>
        <time>2015-07-10T10:34:06Z</time>
      </trkpt>
      <trkpt lat="45.30355" lon="5.83729">
        <ele>1442.2</ele>
        <time>2015-07-10T10:34:11Z</time>
      </trkpt>
      <trkpt lat="45.30342" lon="5.83729">
        <ele>1440</ele>
        <time>2015-07-10T10:34:16Z</time>
      </trkpt>
      <trkpt lat="45.30327" lon="5.83729">
        <ele>1437.4</ele>
        <time>2015-07-10T10:34:22Z</time>
      </trkpt>
      <trkpt lat="45.30314" lon="5.83721">
        <ele>1436</ele>
        <time>2015-07-10T10:34:26Z</time>
      </trkpt>
      <trkpt lat="45.30306" lon="5.83712">
        <ele>1437.6</ele>
        <time>2015-07-10T10:34:33Z</time>
      </trkpt>
      <trkpt lat="45.30297" lon="5.83705">
        <ele>1440</ele>
        <time>2015-07-10T10:34:44Z</time>
      </trkpt>
      <trkpt lat="45.30287" lon="5.83691">
        <ele>1439.4</ele>
        <time>2015-07-10T10:34:53Z</time>
      </trkpt>
      <trkpt lat="45.30276" lon="5.83689">
        <ele>1436</ele>
        <time>2015-07-10T10:35:00Z</time>
      </trkpt>
      <trkpt lat="45.30265" lon="5.83685">
        <ele>1434.2</ele>
        <time>2015-07-10T10:35:07Z</time>
      </trkpt>
      <trkpt lat="45.30255" lon="5.83682">
        <ele>1432.2</ele>
        <time>2015-07-10T10:35:12Z</time>
      </trkpt>
      <trkpt lat="45.30257" lon="5.83668">
        <ele>1431</ele>
        <time>2015-07-10T10:35:15Z</time>
      </trkpt>
      <trkpt lat="45.30263" lon="5.83656">
        <ele>1430.8</ele>
        <time>2015-07-10T10:35:18Z</time>
      </trkpt>
      <trkpt lat="45.30269" lon="5.83644">
        <ele>1430.8</ele>
        <time>2015-07-10T10:35:21Z</time>
      </trkpt>
      <trkpt lat="45.30276" lon="5.8363">
        <ele>1430.4</ele>
        <time>2015-07-10T10:35:24Z</time>
      </trkpt>
      <trkpt lat="45.3028" lon="5.83615">
        <ele>1428.6</ele>
        <time>2015-07-10T10:35:27Z</time>
      </trkpt>
      <trkpt lat="45.3028" lon="5.83603">
        <ele>1428.2</ele>
        <time>2015-07-10T10:35:30Z</time>
      </trkpt>
      <trkpt lat="45.3027" lon="5.83601">
        <ele>1426.8</ele>
        <time>2015-07-10T10:35:33Z</time>
      </trkpt>
      <trkpt lat="45.30258" lon="5.83602">
        <ele>1424.8</ele>
        <time>2015-07-10T10:35:36Z</time>
      </trkpt>
      <trkpt lat="45.30247" lon="5.83598">
        <ele>1422.6</ele>
        <time>2015-07-10T10:35:39Z</time>
      </trkpt>
      <trkpt lat="45.30237" lon="5.8359">
        <ele>1421.6</ele>
        <time>2015-07-10T10:35:42Z</time>
      </trkpt>
      <trkpt lat="45.3023" lon="5.8358">
        <ele>1420</ele>
        <time>2015-07-10T10:35:46Z</time>
      </trkpt>
      <trkpt lat="45.30219" lon="5.83572">
        <ele>1417.8</ele>
        <time>2015-07-10T10:35:49Z</time>
      </trkpt>
      <trkpt lat="45.30209" lon="5.83568">
        <ele>1416.4</ele>
        <time>2015-07-10T10:35:52Z</time>
      </trkpt>
      <trkpt lat="45.30199" lon="5.8356">
        <ele>1415.2</ele>
        <time>2015-07-10T10:35:55Z</time>
      </trkpt>
      <trkpt lat="45.30191" lon="5.83549">
        <ele>1414</ele>
        <time>2015-07-10T10:35:58Z</time>
      </trkpt>
      <trkpt lat="45.30183" lon="5.83539">
        <ele>1412.8</ele>
        <time>2015-07-10T10:36:01Z</time>
      </trkpt>
      <trkpt lat="45.30178" lon="5.83523">
        <ele>1412</ele>
        <time>2015-07-10T10:36:04Z</time>
      </trkpt>
      <trkpt lat="45.30174" lon="5.83508">
        <ele>1410.8</ele>
        <time>2015-07-10T10:36:07Z</time>
      </trkpt>
      <trkpt lat="45.30169" lon="5.83493">
        <ele>1410</ele>
        <time>2015-07-10T10:36:10Z</time>
      </trkpt>
      <trkpt lat="45.30168" lon="5.83474">
        <ele>1408.6</ele>
        <time>2015-07-10T10:36:13Z</time>
      </trkpt>
      <trkpt lat="45.30165" lon="5.83458">
        <ele>1407.2</ele>
        <time>2015-07-10T10:36:16Z</time>
      </trkpt>
      <trkpt lat="45.30162" lon="5.83443">
        <ele>1405.4</ele>
        <time>2015-07-10T10:36:19Z</time>
      </trkpt>
      <trkpt lat="45.3016" lon="5.83427">
        <ele>1404.2</ele>
        <time>2015-07-10T10:36:22Z</time>
      </trkpt>
      <trkpt lat="45.30161" lon="5.83412">
        <ele>1403.2</ele>
        <time>2015-07-10T10:36:25Z</time>
      </trkpt>
      <trkpt lat="45.30165" lon="5.83398">
        <ele>1402.4</ele>
        <time>2015-07-10T10:36:28Z</time>
      </trkpt>
      <trkpt lat="45.3017" lon="5.83385">
        <ele>1401.4</ele>
        <time>2015-07-10T10:36:31Z</time>
      </trkpt>
      <trkpt lat="45.30174" lon="5.83371">
        <ele>1400.8</ele>
        <time>2015-07-10T10:36:34Z</time>
      </trkpt>
      <trkpt lat="45.30176" lon="5.83359">
        <ele>1400.4</ele>
        <time>2015-07-10T10:36:37Z</time>
      </trkpt>
      <trkpt lat="45.30179" lon="5.83346">
        <ele>1400.4</ele>
        <time>2015-07-10T10:36:40Z</time>
      </trkpt>
      <trkpt lat="45.30183" lon="5.83331">
        <ele>1400.4</ele>
        <time>2015-07-10T10:36:44Z</time>
      </trkpt>
      <trkpt lat="45.30185" lon="5.83318">
        <ele>1399.6</ele>
        <time>2015-07-10T10:36:48Z</time>
      </trkpt>
      <trkpt lat="45.30187" lon="5.83305">
        <ele>1399.6</ele>
        <time>2015-07-10T10:36:51Z</time>
      </trkpt>
      <trkpt lat="45.30188" lon="5.83291">
        <ele>1398.2</ele>
        <time>2015-07-10T10:36:54Z</time>
      </trkpt>
      <trkpt lat="45.30187" lon="5.83278">
        <ele>1397.8</ele>
        <time>2015-07-10T10:36:57Z</time>
      </trkpt>
      <trkpt lat="45.30186" lon="5.83266">
        <ele>1397.6</ele>
        <time>2015-07-10T10:37:00Z</time>
      </trkpt>
      <trkpt lat="45.30183" lon="5.83254">
        <ele>1397.6</ele>
        <time>2015-07-10T10:37:04Z</time>
      </trkpt>
      <trkpt lat="45.30181" lon="5.83241">
        <ele>1396.4</ele>
        <time>2015-07-10T10:37:07Z</time>
      </trkpt>
      <trkpt lat="45.30181" lon="5.83227">
        <ele>1395.2</ele>
        <time>2015-07-10T10:37:11Z</time>
      </trkpt>
      <trkpt lat="45.30181" lon="5.83228">
        <ele>1393.8</ele>
        <time>2015-07-10T10:38:00Z</time>
      </trkpt>
      <trkpt lat="45.30183" lon="5.83244">
        <ele>1393.4</ele>
        <time>2015-07-10T10:38:07Z</time>
      </trkpt>
      <trkpt lat="45.30185" lon="5.83259">
        <ele>1396.8</ele>
        <time>2015-07-10T10:38:14Z</time>
      </trkpt>
      <trkpt lat="45.30187" lon="5.83273">
        <ele>1397.6</ele>
        <time>2015-07-10T10:38:19Z</time>
      </trkpt>
      <trkpt lat="45.3019" lon="5.83287">
        <ele>1397.6</ele>
        <time>2015-07-10T10:38:25Z</time>
      </trkpt>
      <trkpt lat="45.30191" lon="5.83301">
        <ele>1397.6</ele>
        <time>2015-07-10T10:38:31Z</time>
      </trkpt>
      <trkpt lat="45.3019" lon="5.83316">
        <ele>1397.6</ele>
        <time>2015-07-10T10:38:38Z</time>
      </trkpt>
      <trkpt lat="45.30187" lon="5.8333">
        <ele>1397.6</ele>
        <time>2015-07-10T10:38:45Z</time>
      </trkpt>
      <trkpt lat="45.30184" lon="5.83341">
        <ele>1398.8</ele>
        <time>2015-07-10T10:38:52Z</time>
      </trkpt>
      <trkpt lat="45.30184" lon="5.83355">
        <ele>1398.2</ele>
        <time>2015-07-10T10:38:59Z</time>
      </trkpt>
      <trkpt lat="45.3018" lon="5.83367">
        <ele>1398.2</ele>
        <time>2015-07-10T10:39:06Z</time>
      </trkpt>
      <trkpt lat="45.3018" lon="5.83381">
        <ele>1400.2</ele>
        <time>2015-07-10T10:39:12Z</time>
      </trkpt>
      <trkpt lat="45.30178" lon="5.83398">
        <ele>1400.8</ele>
        <time>2015-07-10T10:39:16Z</time>
      </trkpt>
      <trkpt lat="45.30183" lon="5.83413">
        <ele>1401.2</ele>
        <time>2015-07-10T10:39:20Z</time>
      </trkpt>
      <trkpt lat="45.30191" lon="5.83421">
        <ele>1401.2</ele>
        <time>2015-07-10T10:39:23Z</time>
      </trkpt>
      <trkpt lat="45.30201" lon="5.83428">
        <ele>1398.6</ele>
        <time>2015-07-10T10:39:26Z</time>
      </trkpt>
      <trkpt lat="45.3021" lon="5.83433">
        <ele>1396</ele>
        <time>2015-07-10T10:39:29Z</time>
      </trkpt>
      <trkpt lat="45.30221" lon="5.83433">
        <ele>1395</ele>
        <time>2015-07-10T10:39:32Z</time>
      </trkpt>
      <trkpt lat="45.30231" lon="5.83425">
        <ele>1394.8</ele>
        <time>2015-07-10T10:39:35Z</time>
      </trkpt>
      <trkpt lat="45.3024" lon="5.83416">
        <ele>1393.8</ele>
        <time>2015-07-10T10:39:38Z</time>
      </trkpt>
      <trkpt lat="45.30249" lon="5.83408">
        <ele>1392.4</ele>
        <time>2015-07-10T10:39:41Z</time>
      </trkpt>
      <trkpt lat="45.30258" lon="5.834">
        <ele>1392</ele>
        <time>2015-07-10T10:39:44Z</time>
      </trkpt>
      <trkpt lat="45.30267" lon="5.83392">
        <ele>1389.2</ele>
        <time>2015-07-10T10:39:47Z</time>
      </trkpt>
      <trkpt lat="45.30277" lon="5.83383">
        <ele>1387.4</ele>
        <time>2015-07-10T10:39:50Z</time>
      </trkpt>
      <trkpt lat="45.30286" lon="5.83376">
        <ele>1386.4</ele>
        <time>2015-07-10T10:39:53Z</time>
      </trkpt>
      <trkpt lat="45.30294" lon="5.83368">
        <ele>1385.4</ele>
        <time>2015-07-10T10:39:56Z</time>
      </trkpt>
      <trkpt lat="45.30302" lon="5.83359">
        <ele>1384.2</ele>
        <time>2015-07-10T10:39:59Z</time>
      </trkpt>
      <trkpt lat="45.3031" lon="5.83349">
        <ele>1383.4</ele>
        <time>2015-07-10T10:40:02Z</time>
      </trkpt>
      <trkpt lat="45.3032" lon="5.8334">
        <ele>1382</ele>
        <time>2015-07-10T10:40:05Z</time>
      </trkpt>
      <trkpt lat="45.30331" lon="5.83334">
        <ele>1380.6</ele>
        <time>2015-07-10T10:40:08Z</time>
      </trkpt>
      <trkpt lat="45.3034" lon="5.83326">
        <ele>1379.4</ele>
        <time>2015-07-10T10:40:11Z</time>
      </trkpt>
      <trkpt lat="45.3035" lon="5.8332">
        <ele>1377.6</ele>
        <time>2015-07-10T10:40:14Z</time>
      </trkpt>
      <trkpt lat="45.3036" lon="5.83312">
        <ele>1376.8</ele>
        <time>2015-07-10T10:40:17Z</time>
      </trkpt>
      <trkpt lat="45.30369" lon="5.83305">
        <ele>1376.2</ele>
        <time>2015-07-10T10:40:20Z</time>
      </trkpt>
      <trkpt lat="45.30378" lon="5.83296">
        <ele>1374.6</ele>
        <time>2015-07-10T10:40:23Z</time>
      </trkpt>
      <trkpt lat="45.30384" lon="5.83283">
        <ele>1373.8</ele>
        <time>2015-07-10T10:40:26Z</time>
      </trkpt>
      <trkpt lat="45.30385" lon="5.83267">
        <ele>1373.2</ele>
        <time>2015-07-10T10:40:29Z</time>
      </trkpt>
      <trkpt lat="45.30386" lon="5.83251">
        <ele>1370.8</ele>
        <time>2015-07-10T10:40:32Z</time>
      </trkpt>
      <trkpt lat="45.30387" lon="5.83235">
        <ele>1369</ele>
        <time>2015-07-10T10:40:35Z</time>
      </trkpt>
      <trkpt lat="45.30389" lon="5.8322">
        <ele>1368.2</ele>
        <time>2015-07-10T10:40:38Z</time>
      </trkpt>
      <trkpt lat="45.30393" lon="5.83205">
        <ele>1367.2</ele>
        <time>2015-07-10T10:40:41Z</time>
      </trkpt>
      <trkpt lat="45.30397" lon="5.83191">
        <ele>1367</ele>
        <time>2015-07-10T10:40:44Z</time>
      </trkpt>
      <trkpt lat="45.30402" lon="5.83177">
        <ele>1364.2</ele>
        <time>2015-07-10T10:40:47Z</time>
      </trkpt>
      <trkpt lat="45.30406" lon="5.83163">
        <ele>1362.8</ele>
        <time>2015-07-10T10:40:50Z</time>
      </trkpt>
      <trkpt lat="45.30409" lon="5.83147">
        <ele>1361.2</ele>
        <time>2015-07-10T10:40:53Z</time>
      </trkpt>
      <trkpt lat="45.30413" lon="5.83133">
        <ele>1359.8</ele>
        <time>2015-07-10T10:40:56Z</time>
      </trkpt>
      <trkpt lat="45.30417" lon="5.83119">
        <ele>1359.4</ele>
        <time>2015-07-10T10:40:59Z</time>
      </trkpt>
      <trkpt lat="45.30421" lon="5.83105">
        <ele>1358.6</ele>
        <time>2015-07-10T10:41:02Z</time>
      </trkpt>
      <trkpt lat="45.30425" lon="5.8309">
        <ele>1356.6</ele>
        <time>2015-07-10T10:41:05Z</time>
      </trkpt>
      <trkpt lat="45.3043" lon="5.83076">
        <ele>1355.2</ele>
        <time>2015-07-10T10:41:08Z</time>
      </trkpt>
      <trkpt lat="45.30434" lon="5.83062">
        <ele>1353.4</ele>
        <time>2015-07-10T10:41:11Z</time>
      </trkpt>
      <trkpt lat="45.30438" lon="5.83047">
        <ele>1351</ele>
        <time>2015-07-10T10:41:14Z</time>
      </trkpt>
      <trkpt lat="45.3044" lon="5.83032">
        <ele>1349.6</ele>
        <time>2015-07-10T10:41:17Z</time>
      </trkpt>
      <trkpt lat="45.30443" lon="5.83017">
        <ele>1348.8</ele>
        <time>2015-07-10T10:41:20Z</time>
      </trkpt>
      <trkpt lat="45.30446" lon="5.83003">
        <ele>1347.6</ele>
        <time>2015-07-10T10:41:23Z</time>
      </trkpt>
      <trkpt lat="45.30449" lon="5.82989">
        <ele>1346.8</ele>
        <time>2015-07-10T10:41:26Z</time>
      </trkpt>
      <trkpt lat="45.30454" lon="5.82975">
        <ele>1345.2</ele>
        <time>2015-07-10T10:41:29Z</time>
      </trkpt>
      <trkpt lat="45.30459" lon="5.82961">
        <ele>1344.2</ele>
        <time>2015-07-10T10:41:32Z</time>
      </trkpt>
      <trkpt lat="45.30463" lon="5.82948">
        <ele>1344</ele>
        <time>2015-07-10T10:41:35Z</time>
      </trkpt>
      <trkpt lat="45.30466" lon="5.82933">
        <ele>1342.6</ele>
        <time>2015-07-10T10:41:38Z</time>
      </trkpt>
      <trkpt lat="45.30466" lon="5.82921">
        <ele>1340.8</ele>
        <time>2015-07-10T10:41:41Z</time>
      </trkpt>
      <trkpt lat="45.30459" lon="5.82912">
        <ele>1338.8</ele>
        <time>2015-07-10T10:41:44Z</time>
      </trkpt>
      <trkpt lat="45.30449" lon="5.82909">
        <ele>1337.8</ele>
        <time>2015-07-10T10:41:47Z</time>
      </trkpt>
      <trkpt lat="45.30438" lon="5.82911">
        <ele>1337.6</ele>
        <time>2015-07-10T10:41:50Z</time>
      </trkpt>
      <trkpt lat="45.3043" lon="5.82915">
        <ele>1337</ele>
        <time>2015-07-10T10:41:53Z</time>
      </trkpt>
      <trkpt lat="45.30419" lon="5.8292">
        <ele>1336.2</ele>
        <time>2015-07-10T10:41:56Z</time>
      </trkpt>
      <trkpt lat="45.3041" lon="5.82925">
        <ele>1335.6</ele>
        <time>2015-07-10T10:41:59Z</time>
      </trkpt>
      <trkpt lat="45.304" lon="5.82928">
        <ele>1333.6</ele>
        <time>2015-07-10T10:42:02Z</time>
      </trkpt>
      <trkpt lat="45.30391" lon="5.82933">
        <ele>1331.8</ele>
        <time>2015-07-10T10:42:05Z</time>
      </trkpt>
      <trkpt lat="45.30381" lon="5.82933">
        <ele>1331.2</ele>
        <time>2015-07-10T10:42:08Z</time>
      </trkpt>
      <trkpt lat="45.30371" lon="5.82925">
        <ele>1329.6</ele>
        <time>2015-07-10T10:42:11Z</time>
      </trkpt>
      <trkpt lat="45.30363" lon="5.82915">
        <ele>1328.4</ele>
        <time>2015-07-10T10:42:14Z</time>
      </trkpt>
      <trkpt lat="45.30357" lon="5.82905">
        <ele>1328</ele>
        <time>2015-07-10T10:42:17Z</time>
      </trkpt>
      <trkpt lat="45.30352" lon="5.82894">
        <ele>1325.2</ele>
        <time>2015-07-10T10:42:20Z</time>
      </trkpt>
      <trkpt lat="45.30348" lon="5.8288">
        <ele>1323.2</ele>
        <time>2015-07-10T10:42:23Z</time>
      </trkpt>
      <trkpt lat="45.30344" lon="5.82867">
        <ele>1321.2</ele>
        <time>2015-07-10T10:42:27Z</time>
      </trkpt>
      <trkpt lat="45.30349" lon="5.82852">
        <ele>1319.2</ele>
        <time>2015-07-10T10:42:31Z</time>
      </trkpt>
      <trkpt lat="45.30357" lon="5.82842">
        <ele>1317.4</ele>
        <time>2015-07-10T10:42:35Z</time>
      </trkpt>
      <trkpt lat="45.30363" lon="5.82826">
        <ele>1316</ele>
        <time>2015-07-10T10:42:39Z</time>
      </trkpt>
      <trkpt lat="45.30376" lon="5.82807">
        <ele>1314.6</ele>
        <time>2015-07-10T10:42:43Z</time>
      </trkpt>
      <trkpt lat="45.30384" lon="5.82796">
        <ele>1313.2</ele>
        <time>2015-07-10T10:42:46Z</time>
      </trkpt>
      <trkpt lat="45.3039" lon="5.82784">
        <ele>1311.4</ele>
        <time>2015-07-10T10:42:49Z</time>
      </trkpt>
      <trkpt lat="45.30397" lon="5.82769">
        <ele>1309.8</ele>
        <time>2015-07-10T10:42:53Z</time>
      </trkpt>
      <trkpt lat="45.30405" lon="5.82754">
        <ele>1307.6</ele>
        <time>2015-07-10T10:42:57Z</time>
      </trkpt>
      <trkpt lat="45.3041" lon="5.82741">
        <ele>1306.8</ele>
        <time>2015-07-10T10:43:00Z</time>
      </trkpt>
      <trkpt lat="45.30419" lon="5.82727">
        <ele>1305</ele>
        <time>2015-07-10T10:43:04Z</time>
      </trkpt>
      <trkpt lat="45.30424" lon="5.82708">
        <ele>1303.2</ele>
        <time>2015-07-10T10:43:08Z</time>
      </trkpt>
      <trkpt lat="45.30426" lon="5.82689">
        <ele>1302.4</ele>
        <time>2015-07-10T10:43:11Z</time>
      </trkpt>
      <trkpt lat="45.30424" lon="5.82674">
        <ele>1301</ele>
        <time>2015-07-10T10:43:15Z</time>
      </trkpt>
      <trkpt lat="45.30422" lon="5.82657">
        <ele>1300.6</ele>
        <time>2015-07-10T10:43:19Z</time>
      </trkpt>
      <trkpt lat="45.3042" lon="5.82641">
        <ele>1302.2</ele>
        <time>2015-07-10T10:43:23Z</time>
      </trkpt>
      <trkpt lat="45.30417" lon="5.82625">
        <ele>1304.4</ele>
        <time>2015-07-10T10:43:27Z</time>
      </trkpt>
      <trkpt lat="45.3042" lon="5.8261">
        <ele>1304.8</ele>
        <time>2015-07-10T10:43:31Z</time>
      </trkpt>
      <trkpt lat="45.30423" lon="5.82594">
        <ele>1304.8</ele>
        <time>2015-07-10T10:43:35Z</time>
      </trkpt>
      <trkpt lat="45.30421" lon="5.82583">
        <ele>1306.6</ele>
        <time>2015-07-10T10:43:39Z</time>
      </trkpt>
      <trkpt lat="45.30419" lon="5.82571">
        <ele>1307.6</ele>
        <time>2015-07-10T10:43:44Z</time>
      </trkpt>
      <trkpt lat="45.30423" lon="5.82557">
        <ele>1308.2</ele>
        <time>2015-07-10T10:43:49Z</time>
      </trkpt>
      <trkpt lat="45.30427" lon="5.82543">
        <ele>1309.8</ele>
        <time>2015-07-10T10:43:54Z</time>
      </trkpt>
      <trkpt lat="45.30431" lon="5.82531">
        <ele>1311</ele>
        <time>2015-07-10T10:43:59Z</time>
      </trkpt>
      <trkpt lat="45.30434" lon="5.82518">
        <ele>1311.8</ele>
        <time>2015-07-10T10:44:04Z</time>
      </trkpt>
      <trkpt lat="45.30435" lon="5.82502">
        <ele>1312.4</ele>
        <time>2015-07-10T10:44:09Z</time>
      </trkpt>
      <trkpt lat="45.30432" lon="5.82486">
        <ele>1313</ele>
        <time>2015-07-10T10:44:14Z</time>
      </trkpt>
      <trkpt lat="45.30426" lon="5.82475">
        <ele>1314</ele>
        <time>2015-07-10T10:44:18Z</time>
      </trkpt>
      <trkpt lat="45.3042" lon="5.82465">
        <ele>1315.2</ele>
        <time>2015-07-10T10:44:22Z</time>
      </trkpt>
      <trkpt lat="45.30414" lon="5.82453">
        <ele>1315.2</ele>
        <time>2015-07-10T10:44:27Z</time>
      </trkpt>
      <trkpt lat="45.30409" lon="5.82442">
        <ele>1316.6</ele>
        <time>2015-07-10T10:44:31Z</time>
      </trkpt>
      <trkpt lat="45.30404" lon="5.82428">
        <ele>1318</ele>
        <time>2015-07-10T10:44:36Z</time>
      </trkpt>
      <trkpt lat="45.30401" lon="5.82414">
        <ele>1319.2</ele>
        <time>2015-07-10T10:44:41Z</time>
      </trkpt>
      <trkpt lat="45.30403" lon="5.82394">
        <ele>1319.6</ele>
        <time>2015-07-10T10:44:46Z</time>
      </trkpt>
      <trkpt lat="45.304" lon="5.82381">
        <ele>1320.2</ele>
        <time>2015-07-10T10:44:50Z</time>
      </trkpt>
      <trkpt lat="45.30397" lon="5.82367">
        <ele>1321.4</ele>
        <time>2015-07-10T10:44:54Z</time>
      </trkpt>
      <trkpt lat="45.30393" lon="5.82355">
        <ele>1321.6</ele>
        <time>2015-07-10T10:44:58Z</time>
      </trkpt>
      <trkpt lat="45.30386" lon="5.82343">
        <ele>1321.6</ele>
        <time>2015-07-10T10:45:02Z</time>
      </trkpt>
      <trkpt lat="45.30378" lon="5.82335">
        <ele>1322.2</ele>
        <time>2015-07-10T10:45:06Z</time>
      </trkpt>
      <trkpt lat="45.3037" lon="5.82327">
        <ele>1322.4</ele>
        <time>2015-07-10T10:45:10Z</time>
      </trkpt>
      <trkpt lat="45.30362" lon="5.82318">
        <ele>1322.6</ele>
        <time>2015-07-10T10:45:14Z</time>
      </trkpt>
      <trkpt lat="45.30352" lon="5.8231">
        <ele>1324</ele>
        <time>2015-07-10T10:45:18Z</time>
      </trkpt>
      <trkpt lat="45.30344" lon="5.82301">
        <ele>1324.2</ele>
        <time>2015-07-10T10:45:22Z</time>
      </trkpt>
      <trkpt lat="45.30336" lon="5.82291">
        <ele>1324.8</ele>
        <time>2015-07-10T10:45:26Z</time>
      </trkpt>
      <trkpt lat="45.3033" lon="5.82279">
        <ele>1327</ele>
        <time>2015-07-10T10:45:31Z</time>
      </trkpt>
      <trkpt lat="45.30325" lon="5.82267">
        <ele>1328.8</ele>
        <time>2015-07-10T10:45:36Z</time>
      </trkpt>
      <trkpt lat="45.30322" lon="5.82253">
        <ele>1329.6</ele>
        <time>2015-07-10T10:45:41Z</time>
      </trkpt>
      <trkpt lat="45.30314" lon="5.82243">
        <ele>1331</ele>
        <time>2015-07-10T10:45:46Z</time>
      </trkpt>
      <trkpt lat="45.30305" lon="5.82236">
        <ele>1331.8</ele>
        <time>2015-07-10T10:45:50Z</time>
      </trkpt>
      <trkpt lat="45.30297" lon="5.82233">
        <ele>1333</ele>
        <time>2015-07-10T10:45:54Z</time>
      </trkpt>
      <trkpt lat="45.30287" lon="5.82231">
        <ele>1333.2</ele>
        <time>2015-07-10T10:45:59Z</time>
      </trkpt>
      <trkpt lat="45.30277" lon="5.82234">
        <ele>1333.2</ele>
        <time>2015-07-10T10:46:04Z</time>
      </trkpt>
      <trkpt lat="45.30265" lon="5.82239">
        <ele>1333.2</ele>
        <time>2015-07-10T10:46:09Z</time>
      </trkpt>
      <trkpt lat="45.30256" lon="5.82244">
        <ele>1334</ele>
        <time>2015-07-10T10:46:14Z</time>
      </trkpt>
      <trkpt lat="45.30245" lon="5.82251">
        <ele>1334.6</ele>
        <time>2015-07-10T10:46:19Z</time>
      </trkpt>
      <trkpt lat="45.30236" lon="5.82255">
        <ele>1336</ele>
        <time>2015-07-10T10:46:23Z</time>
      </trkpt>
      <trkpt lat="45.30226" lon="5.82259">
        <ele>1337.6</ele>
        <time>2015-07-10T10:46:28Z</time>
      </trkpt>
      <trkpt lat="45.30215" lon="5.82262">
        <ele>1338.8</ele>
        <time>2015-07-10T10:46:33Z</time>
      </trkpt>
      <trkpt lat="45.30203" lon="5.82264">
        <ele>1339.6</ele>
        <time>2015-07-10T10:46:38Z</time>
      </trkpt>
      <trkpt lat="45.30193" lon="5.82265">
        <ele>1340.4</ele>
        <time>2015-07-10T10:46:43Z</time>
      </trkpt>
      <trkpt lat="45.30181" lon="5.82263">
        <ele>1343</ele>
        <time>2015-07-10T10:46:48Z</time>
      </trkpt>
      <trkpt lat="45.30171" lon="5.82259">
        <ele>1344</ele>
        <time>2015-07-10T10:46:53Z</time>
      </trkpt>
      <trkpt lat="45.30162" lon="5.82254">
        <ele>1344.2</ele>
        <time>2015-07-10T10:46:58Z</time>
      </trkpt>
      <trkpt lat="45.30152" lon="5.82248">
        <ele>1345</ele>
        <time>2015-07-10T10:47:04Z</time>
      </trkpt>
      <trkpt lat="45.3014" lon="5.82245">
        <ele>1346.2</ele>
        <time>2015-07-10T10:47:09Z</time>
      </trkpt>
      <trkpt lat="45.3013" lon="5.82241">
        <ele>1347.6</ele>
        <time>2015-07-10T10:47:14Z</time>
      </trkpt>
      <trkpt lat="45.3012" lon="5.82237">
        <ele>1348</ele>
        <time>2015-07-10T10:47:19Z</time>
      </trkpt>
      <trkpt lat="45.30111" lon="5.82229">
        <ele>1349.6</ele>
        <time>2015-07-10T10:47:24Z</time>
      </trkpt>
      <trkpt lat="45.30102" lon="5.82221">
        <ele>1351</ele>
        <time>2015-07-10T10:47:29Z</time>
      </trkpt>
      <trkpt lat="45.30093" lon="5.82211">
        <ele>1352</ele>
        <time>2015-07-10T10:47:34Z</time>
      </trkpt>
      <trkpt lat="45.30083" lon="5.82202">
        <ele>1353.2</ele>
        <time>2015-07-10T10:47:39Z</time>
      </trkpt>
      <trkpt lat="45.30075" lon="5.82194">
        <ele>1354</ele>
        <time>2015-07-10T10:47:44Z</time>
      </trkpt>
      <trkpt lat="45.30067" lon="5.82188">
        <ele>1355.4</ele>
        <time>2015-07-10T10:47:50Z</time>
      </trkpt>
      <trkpt lat="45.30057" lon="5.8218">
        <ele>1356.6</ele>
        <time>2015-07-10T10:47:56Z</time>
      </trkpt>
      <trkpt lat="45.3005" lon="5.82172">
        <ele>1358.2</ele>
        <time>2015-07-10T10:48:01Z</time>
      </trkpt>
      <trkpt lat="45.30041" lon="5.82165">
        <ele>1359.4</ele>
        <time>2015-07-10T10:48:07Z</time>
      </trkpt>
      <trkpt lat="45.30034" lon="5.82156">
        <ele>1360.6</ele>
        <time>2015-07-10T10:48:12Z</time>
      </trkpt>
      <trkpt lat="45.30026" lon="5.82145">
        <ele>1362.2</ele>
        <time>2015-07-10T10:48:17Z</time>
      </trkpt>
      <trkpt lat="45.30021" lon="5.82134">
        <ele>1363</ele>
        <time>2015-07-10T10:48:22Z</time>
      </trkpt>
      <trkpt lat="45.30014" lon="5.8212">
        <ele>1363.8</ele>
        <time>2015-07-10T10:48:27Z</time>
      </trkpt>
      <trkpt lat="45.30008" lon="5.82106">
        <ele>1364.8</ele>
        <time>2015-07-10T10:48:32Z</time>
      </trkpt>
      <trkpt lat="45.30002" lon="5.82095">
        <ele>1365.6</ele>
        <time>2015-07-10T10:48:36Z</time>
      </trkpt>
      <trkpt lat="45.29998" lon="5.82082">
        <ele>1366.4</ele>
        <time>2015-07-10T10:48:41Z</time>
      </trkpt>
      <trkpt lat="45.2999" lon="5.82072">
        <ele>1367.2</ele>
        <time>2015-07-10T10:48:46Z</time>
      </trkpt>
      <trkpt lat="45.29981" lon="5.82067">
        <ele>1368</ele>
        <time>2015-07-10T10:48:51Z</time>
      </trkpt>
      <trkpt lat="45.2997" lon="5.82067">
        <ele>1368.8</ele>
        <time>2015-07-10T10:48:56Z</time>
      </trkpt>
      <trkpt lat="45.2996" lon="5.82067">
        <ele>1369.8</ele>
        <time>2015-07-10T10:49:01Z</time>
      </trkpt>
      <trkpt lat="45.2995" lon="5.82071">
        <ele>1370.6</ele>
        <time>2015-07-10T10:49:06Z</time>
      </trkpt>
      <trkpt lat="45.29941" lon="5.82069">
        <ele>1372.2</ele>
        <time>2015-07-10T10:49:11Z</time>
      </trkpt>
      <trkpt lat="45.29933" lon="5.8207">
        <ele>1372.4</ele>
        <time>2015-07-10T10:49:15Z</time>
      </trkpt>
      <trkpt lat="45.29922" lon="5.82071">
        <ele>1372.4</ele>
        <time>2015-07-10T10:49:20Z</time>
      </trkpt>
      <trkpt lat="45.29912" lon="5.82076">
        <ele>1374.4</ele>
        <time>2015-07-10T10:49:25Z</time>
      </trkpt>
      <trkpt lat="45.29899" lon="5.82082">
        <ele>1376</ele>
        <time>2015-07-10T10:49:30Z</time>
      </trkpt>
      <trkpt lat="45.29888" lon="5.82082">
        <ele>1376.4</ele>
        <time>2015-07-10T10:49:35Z</time>
      </trkpt>
      <trkpt lat="45.29877" lon="5.82084">
        <ele>1377.6</ele>
        <time>2015-07-10T10:49:41Z</time>
      </trkpt>
      <trkpt lat="45.29865" lon="5.8209">
        <ele>1379</ele>
        <time>2015-07-10T10:49:46Z</time>
      </trkpt>
      <trkpt lat="45.29853" lon="5.82093">
        <ele>1380</ele>
        <time>2015-07-10T10:49:51Z</time>
      </trkpt>
      <trkpt lat="45.29844" lon="5.82097">
        <ele>1380.8</ele>
        <time>2015-07-10T10:49:56Z</time>
      </trkpt>
      <trkpt lat="45.29834" lon="5.82098">
        <ele>1382.8</ele>
        <time>2015-07-10T10:50:01Z</time>
      </trkpt>
      <trkpt lat="45.29824" lon="5.82104">
        <ele>1383.2</ele>
        <time>2015-07-10T10:50:06Z</time>
      </trkpt>
      <trkpt lat="45.29813" lon="5.82105">
        <ele>1384.4</ele>
        <time>2015-07-10T10:50:11Z</time>
      </trkpt>
      <trkpt lat="45.29801" lon="5.82108">
        <ele>1384.8</ele>
        <time>2015-07-10T10:50:16Z</time>
      </trkpt>
      <trkpt lat="45.29791" lon="5.82108">
        <ele>1385.8</ele>
        <time>2015-07-10T10:50:21Z</time>
      </trkpt>
      <trkpt lat="45.29779" lon="5.82107">
        <ele>1386.6</ele>
        <time>2015-07-10T10:50:26Z</time>
      </trkpt>
      <trkpt lat="45.29767" lon="5.82105">
        <ele>1387.4</ele>
        <time>2015-07-10T10:50:31Z</time>
      </trkpt>
      <trkpt lat="45.29757" lon="5.82102">
        <ele>1388.8</ele>
        <time>2015-07-10T10:50:36Z</time>
      </trkpt>
      <trkpt lat="45.29745" lon="5.82101">
        <ele>1390.4</ele>
        <time>2015-07-10T10:50:41Z</time>
      </trkpt>
      <trkpt lat="45.29734" lon="5.82103">
        <ele>1391.8</ele>
        <time>2015-07-10T10:50:46Z</time>
      </trkpt>
      <trkpt lat="45.29723" lon="5.82102">
        <ele>1391.8</ele>
        <time>2015-07-10T10:50:50Z</time>
      </trkpt>
      <trkpt lat="45.29711" lon="5.82102">
        <ele>1391.8</ele>
        <time>2015-07-10T10:50:55Z</time>
      </trkpt>
      <trkpt lat="45.29699" lon="5.82103">
        <ele>1393.4</ele>
        <time>2015-07-10T10:51:00Z</time>
      </trkpt>
      <trkpt lat="45.29688" lon="5.82103">
        <ele>1393.6</ele>
        <time>2015-07-10T10:51:04Z</time>
      </trkpt>
      <trkpt lat="45.29679" lon="5.821">
        <ele>1393.6</ele>
        <time>2015-07-10T10:51:08Z</time>
      </trkpt>
      <trkpt lat="45.2967" lon="5.82097">
        <ele>1393.6</ele>
        <time>2015-07-10T10:51:11Z</time>
      </trkpt>
      <trkpt lat="45.29658" lon="5.82096">
        <ele>1393.6</ele>
        <time>2015-07-10T10:51:15Z</time>
      </trkpt>
      <trkpt lat="45.29649" lon="5.82086">
        <ele>1393.6</ele>
        <time>2015-07-10T10:51:19Z</time>
      </trkpt>
      <trkpt lat="45.29638" lon="5.82079">
        <ele>1393.6</ele>
        <time>2015-07-10T10:51:24Z</time>
      </trkpt>
      <trkpt lat="45.29628" lon="5.82075">
        <ele>1393.8</ele>
        <time>2015-07-10T10:51:29Z</time>
      </trkpt>
      <trkpt lat="45.2962" lon="5.82075">
        <ele>1394.6</ele>
        <time>2015-07-10T10:51:34Z</time>
      </trkpt>
      <trkpt lat="45.29608" lon="5.82075">
        <ele>1395.2</ele>
        <time>2015-07-10T10:51:38Z</time>
      </trkpt>
      <trkpt lat="45.29597" lon="5.82075">
        <ele>1395.2</ele>
        <time>2015-07-10T10:51:42Z</time>
      </trkpt>
      <trkpt lat="45.29588" lon="5.82074">
        <ele>1396.2</ele>
        <time>2015-07-10T10:51:47Z</time>
      </trkpt>
      <trkpt lat="45.29578" lon="5.82072">
        <ele>1397.8</ele>
        <time>2015-07-10T10:51:51Z</time>
      </trkpt>
      <trkpt lat="45.29563" lon="5.82073">
        <ele>1398.4</ele>
        <time>2015-07-10T10:51:57Z</time>
      </trkpt>
      <trkpt lat="45.29552" lon="5.82074">
        <ele>1399.2</ele>
        <time>2015-07-10T10:52:01Z</time>
      </trkpt>
      <trkpt lat="45.29541" lon="5.82075">
        <ele>1399.2</ele>
        <time>2015-07-10T10:52:05Z</time>
      </trkpt>
      <trkpt lat="45.2953" lon="5.82077">
        <ele>1400.8</ele>
        <time>2015-07-10T10:52:09Z</time>
      </trkpt>
      <trkpt lat="45.29521" lon="5.82078">
        <ele>1401.4</ele>
        <time>2015-07-10T10:52:13Z</time>
      </trkpt>
      <trkpt lat="45.29509" lon="5.8208">
        <ele>1401.8</ele>
        <time>2015-07-10T10:52:18Z</time>
      </trkpt>
      <trkpt lat="45.29498" lon="5.82084">
        <ele>1403.8</ele>
        <time>2015-07-10T10:52:23Z</time>
      </trkpt>
      <trkpt lat="45.29481" lon="5.8209">
        <ele>1405</ele>
        <time>2015-07-10T10:52:28Z</time>
      </trkpt>
      <trkpt lat="45.2947" lon="5.82089">
        <ele>1405.2</ele>
        <time>2015-07-10T10:52:32Z</time>
      </trkpt>
      <trkpt lat="45.29458" lon="5.82089">
        <ele>1405.2</ele>
        <time>2015-07-10T10:52:36Z</time>
      </trkpt>
      <trkpt lat="45.29446" lon="5.82085">
        <ele>1405.2</ele>
        <time>2015-07-10T10:52:40Z</time>
      </trkpt>
      <trkpt lat="45.29435" lon="5.82079">
        <ele>1405.2</ele>
        <time>2015-07-10T10:52:44Z</time>
      </trkpt>
      <trkpt lat="45.29424" lon="5.82076">
        <ele>1405.2</ele>
        <time>2015-07-10T10:52:48Z</time>
      </trkpt>
      <trkpt lat="45.29412" lon="5.82074">
        <ele>1405.2</ele>
        <time>2015-07-10T10:52:52Z</time>
      </trkpt>
      <trkpt lat="45.29402" lon="5.82076">
        <ele>1405.2</ele>
        <time>2015-07-10T10:52:56Z</time>
      </trkpt>
      <trkpt lat="45.2939" lon="5.82074">
        <ele>1405.2</ele>
        <time>2015-07-10T10:53:00Z</time>
      </trkpt>
      <trkpt lat="45.29379" lon="5.82076">
        <ele>1405.2</ele>
        <time>2015-07-10T10:53:04Z</time>
      </trkpt>
      <trkpt lat="45.2937" lon="5.82076">
        <ele>1405.2</ele>
        <time>2015-07-10T10:53:08Z</time>
      </trkpt>
      <trkpt lat="45.29359" lon="5.82077">
        <ele>1406</ele>
        <time>2015-07-10T10:53:12Z</time>
      </trkpt>
      <trkpt lat="45.29349" lon="5.82073">
        <ele>1406.4</ele>
        <time>2015-07-10T10:53:16Z</time>
      </trkpt>
      <trkpt lat="45.29337" lon="5.82069">
        <ele>1406.8</ele>
        <time>2015-07-10T10:53:20Z</time>
      </trkpt>
      <trkpt lat="45.29327" lon="5.82069">
        <ele>1406.8</ele>
        <time>2015-07-10T10:53:24Z</time>
      </trkpt>
      <trkpt lat="45.29314" lon="5.82073">
        <ele>1407</ele>
        <time>2015-07-10T10:53:28Z</time>
      </trkpt>
      <trkpt lat="45.29301" lon="5.82073">
        <ele>1407.8</ele>
        <time>2015-07-10T10:53:32Z</time>
      </trkpt>
      <trkpt lat="45.29291" lon="5.82072">
        <ele>1407.8</ele>
        <time>2015-07-10T10:53:35Z</time>
      </trkpt>
      <trkpt lat="45.29283" lon="5.82069">
        <ele>1407.8</ele>
        <time>2015-07-10T10:53:38Z</time>
      </trkpt>
      <trkpt lat="45.2927" lon="5.82066">
        <ele>1407.8</ele>
        <time>2015-07-10T10:53:42Z</time>
      </trkpt>
      <trkpt lat="45.29257" lon="5.82065">
        <ele>1407.8</ele>
        <time>2015-07-10T10:53:46Z</time>
      </trkpt>
      <trkpt lat="45.29248" lon="5.82064">
        <ele>1407.8</ele>
        <time>2015-07-10T10:53:49Z</time>
      </trkpt>
      <trkpt lat="45.29237" lon="5.8206">
        <ele>1405.8</ele>
        <time>2015-07-10T10:53:53Z</time>
      </trkpt>
      <trkpt lat="45.29225" lon="5.82057">
        <ele>1405.6</ele>
        <time>2015-07-10T10:53:57Z</time>
      </trkpt>
      <trkpt lat="45.29212" lon="5.8206">
        <ele>1405.6</ele>
        <time>2015-07-10T10:54:00Z</time>
      </trkpt>
      <trkpt lat="45.29202" lon="5.8206">
        <ele>1404.6</ele>
        <time>2015-07-10T10:54:03Z</time>
      </trkpt>
      <trkpt lat="45.29191" lon="5.8206">
        <ele>1403.2</ele>
        <time>2015-07-10T10:54:06Z</time>
      </trkpt>
      <trkpt lat="45.29179" lon="5.82059">
        <ele>1404.8</ele>
        <time>2015-07-10T10:54:10Z</time>
      </trkpt>
      <trkpt lat="45.29169" lon="5.82056">
        <ele>1404.2</ele>
        <time>2015-07-10T10:54:13Z</time>
      </trkpt>
      <trkpt lat="45.2916" lon="5.82054">
        <ele>1403</ele>
        <time>2015-07-10T10:54:16Z</time>
      </trkpt>
      <trkpt lat="45.29149" lon="5.82054">
        <ele>1402.6</ele>
        <time>2015-07-10T10:54:19Z</time>
      </trkpt>
      <trkpt lat="45.2914" lon="5.82046">
        <ele>1401.4</ele>
        <time>2015-07-10T10:54:22Z</time>
      </trkpt>
      <trkpt lat="45.2913" lon="5.82044">
        <ele>1400.4</ele>
        <time>2015-07-10T10:54:25Z</time>
      </trkpt>
      <trkpt lat="45.29119" lon="5.82043">
        <ele>1400</ele>
        <time>2015-07-10T10:54:28Z</time>
      </trkpt>
      <trkpt lat="45.29108" lon="5.82042">
        <ele>1399.4</ele>
        <time>2015-07-10T10:54:31Z</time>
      </trkpt>
      <trkpt lat="45.29098" lon="5.82037">
        <ele>1398.8</ele>
        <time>2015-07-10T10:54:34Z</time>
      </trkpt>
      <trkpt lat="45.2909" lon="5.8203">
        <ele>1398</ele>
        <time>2015-07-10T10:54:37Z</time>
      </trkpt>
      <trkpt lat="45.29082" lon="5.82023">
        <ele>1397.8</ele>
        <time>2015-07-10T10:54:40Z</time>
      </trkpt>
      <trkpt lat="45.29073" lon="5.8202">
        <ele>1397.8</ele>
        <time>2015-07-10T10:54:43Z</time>
      </trkpt>
      <trkpt lat="45.29064" lon="5.8202">
        <ele>1397.8</ele>
        <time>2015-07-10T10:54:47Z</time>
      </trkpt>
      <trkpt lat="45.29055" lon="5.82029">
        <ele>1397.8</ele>
        <time>2015-07-10T10:54:51Z</time>
      </trkpt>
      <trkpt lat="45.29048" lon="5.82038">
        <ele>1397.8</ele>
        <time>2015-07-10T10:54:54Z</time>
      </trkpt>
      <trkpt lat="45.29039" lon="5.82051">
        <ele>1397.8</ele>
        <time>2015-07-10T10:54:58Z</time>
      </trkpt>
      <trkpt lat="45.29032" lon="5.8206">
        <ele>1396.6</ele>
        <time>2015-07-10T10:55:01Z</time>
      </trkpt>
      <trkpt lat="45.29025" lon="5.82069">
        <ele>1395.8</ele>
        <time>2015-07-10T10:55:04Z</time>
      </trkpt>
      <trkpt lat="45.29016" lon="5.82071">
        <ele>1394.8</ele>
        <time>2015-07-10T10:55:07Z</time>
      </trkpt>
      <trkpt lat="45.29004" lon="5.82074">
        <ele>1394</ele>
        <time>2015-07-10T10:55:11Z</time>
      </trkpt>
      <trkpt lat="45.28992" lon="5.82076">
        <ele>1392.6</ele>
        <time>2015-07-10T10:55:15Z</time>
      </trkpt>
      <trkpt lat="45.28982" lon="5.82078">
        <ele>1391.6</ele>
        <time>2015-07-10T10:55:18Z</time>
      </trkpt>
      <trkpt lat="45.2897" lon="5.82076">
        <ele>1390.8</ele>
        <time>2015-07-10T10:55:22Z</time>
      </trkpt>
      <trkpt lat="45.28962" lon="5.82069">
        <ele>1390.8</ele>
        <time>2015-07-10T10:55:25Z</time>
      </trkpt>
      <trkpt lat="45.28956" lon="5.82058">
        <ele>1390.8</ele>
        <time>2015-07-10T10:55:28Z</time>
      </trkpt>
      <trkpt lat="45.28953" lon="5.82044">
        <ele>1390.8</ele>
        <time>2015-07-10T10:55:31Z</time>
      </trkpt>
      <trkpt lat="45.28951" lon="5.8203">
        <ele>1390.2</ele>
        <time>2015-07-10T10:55:34Z</time>
      </trkpt>
      <trkpt lat="45.28948" lon="5.82016">
        <ele>1389.4</ele>
        <time>2015-07-10T10:55:37Z</time>
      </trkpt>
      <trkpt lat="45.28942" lon="5.82006">
        <ele>1388.4</ele>
        <time>2015-07-10T10:55:40Z</time>
      </trkpt>
      <trkpt lat="45.28932" lon="5.81995">
        <ele>1387.6</ele>
        <time>2015-07-10T10:55:44Z</time>
      </trkpt>
      <trkpt lat="45.28922" lon="5.81992">
        <ele>1386.4</ele>
        <time>2015-07-10T10:55:47Z</time>
      </trkpt>
      <trkpt lat="45.28913" lon="5.81989">
        <ele>1385.6</ele>
        <time>2015-07-10T10:55:50Z</time>
      </trkpt>
      <trkpt lat="45.28902" lon="5.81986">
        <ele>1385.4</ele>
        <time>2015-07-10T10:55:54Z</time>
      </trkpt>
      <trkpt lat="45.28892" lon="5.81983">
        <ele>1385.4</ele>
        <time>2015-07-10T10:55:57Z</time>
      </trkpt>
      <trkpt lat="45.28882" lon="5.81979">
        <ele>1385.4</ele>
        <time>2015-07-10T10:56:00Z</time>
      </trkpt>
      <trkpt lat="45.28872" lon="5.81977">
        <ele>1385</ele>
        <time>2015-07-10T10:56:03Z</time>
      </trkpt>
      <trkpt lat="45.28863" lon="5.81972">
        <ele>1384.2</ele>
        <time>2015-07-10T10:56:06Z</time>
      </trkpt>
      <trkpt lat="45.28855" lon="5.81967">
        <ele>1384.2</ele>
        <time>2015-07-10T10:56:09Z</time>
      </trkpt>
      <trkpt lat="45.28846" lon="5.8196">
        <ele>1384.2</ele>
        <time>2015-07-10T10:56:12Z</time>
      </trkpt>
      <trkpt lat="45.28838" lon="5.81955">
        <ele>1384.2</ele>
        <time>2015-07-10T10:56:15Z</time>
      </trkpt>
      <trkpt lat="45.28828" lon="5.81951">
        <ele>1384.2</ele>
        <time>2015-07-10T10:56:19Z</time>
      </trkpt>
      <trkpt lat="45.28817" lon="5.81953">
        <ele>1384.6</ele>
        <time>2015-07-10T10:56:23Z</time>
      </trkpt>
      <trkpt lat="45.28809" lon="5.81956">
        <ele>1385.8</ele>
        <time>2015-07-10T10:56:26Z</time>
      </trkpt>
      <trkpt lat="45.28799" lon="5.81961">
        <ele>1384.4</ele>
        <time>2015-07-10T10:56:30Z</time>
      </trkpt>
      <trkpt lat="45.2879" lon="5.81967">
        <ele>1384.2</ele>
        <time>2015-07-10T10:56:33Z</time>
      </trkpt>
      <trkpt lat="45.28781" lon="5.81972">
        <ele>1383</ele>
        <time>2015-07-10T10:56:36Z</time>
      </trkpt>
      <trkpt lat="45.28771" lon="5.81975">
        <ele>1381.8</ele>
        <time>2015-07-10T10:56:39Z</time>
      </trkpt>
      <trkpt lat="45.28761" lon="5.81977">
        <ele>1381.6</ele>
        <time>2015-07-10T10:56:42Z</time>
      </trkpt>
      <trkpt lat="45.28751" lon="5.81976">
        <ele>1381.6</ele>
        <time>2015-07-10T10:56:45Z</time>
      </trkpt>
      <trkpt lat="45.28737" lon="5.81973">
        <ele>1381.6</ele>
        <time>2015-07-10T10:56:49Z</time>
      </trkpt>
      <trkpt lat="45.28728" lon="5.81969">
        <ele>1380.8</ele>
        <time>2015-07-10T10:56:52Z</time>
      </trkpt>
      <trkpt lat="45.28718" lon="5.81965">
        <ele>1380</ele>
        <time>2015-07-10T10:56:55Z</time>
      </trkpt>
      <trkpt lat="45.2871" lon="5.81958">
        <ele>1379.8</ele>
        <time>2015-07-10T10:56:58Z</time>
      </trkpt>
      <trkpt lat="45.28703" lon="5.81948">
        <ele>1379.8</ele>
        <time>2015-07-10T10:57:01Z</time>
      </trkpt>
      <trkpt lat="45.28696" lon="5.81936">
        <ele>1379.6</ele>
        <time>2015-07-10T10:57:05Z</time>
      </trkpt>
      <trkpt lat="45.28687" lon="5.81925">
        <ele>1378.4</ele>
        <time>2015-07-10T10:57:09Z</time>
      </trkpt>
      <trkpt lat="45.28676" lon="5.81918">
        <ele>1378.4</ele>
        <time>2015-07-10T10:57:13Z</time>
      </trkpt>
      <trkpt lat="45.28667" lon="5.81916">
        <ele>1378.4</ele>
        <time>2015-07-10T10:57:16Z</time>
      </trkpt>
      <trkpt lat="45.28657" lon="5.81912">
        <ele>1378.4</ele>
        <time>2015-07-10T10:57:20Z</time>
      </trkpt>
      <trkpt lat="45.28646" lon="5.81906">
        <ele>1379.4</ele>
        <time>2015-07-10T10:57:24Z</time>
      </trkpt>
      <trkpt lat="45.28636" lon="5.819">
        <ele>1382</ele>
        <time>2015-07-10T10:57:28Z</time>
      </trkpt>
      <trkpt lat="45.28623" lon="5.81897">
        <ele>1382.6</ele>
        <time>2015-07-10T10:57:32Z</time>
      </trkpt>
      <trkpt lat="45.28611" lon="5.81892">
        <ele>1382.6</ele>
        <time>2015-07-10T10:57:36Z</time>
      </trkpt>
      <trkpt lat="45.286" lon="5.81887">
        <ele>1382.6</ele>
        <time>2015-07-10T10:57:40Z</time>
      </trkpt>
      <trkpt lat="45.28589" lon="5.8188">
        <ele>1382.6</ele>
        <time>2015-07-10T10:57:44Z</time>
      </trkpt>
      <trkpt lat="45.2858" lon="5.81877">
        <ele>1382.6</ele>
        <time>2015-07-10T10:57:47Z</time>
      </trkpt>
      <trkpt lat="45.28568" lon="5.81872">
        <ele>1382.6</ele>
        <time>2015-07-10T10:57:51Z</time>
      </trkpt>
      <trkpt lat="45.2856" lon="5.81866">
        <ele>1382.6</ele>
        <time>2015-07-10T10:57:54Z</time>
      </trkpt>
      <trkpt lat="45.2855" lon="5.81862">
        <ele>1381</ele>
        <time>2015-07-10T10:57:57Z</time>
      </trkpt>
      <trkpt lat="45.28539" lon="5.81859">
        <ele>1379.4</ele>
        <time>2015-07-10T10:58:01Z</time>
      </trkpt>
      <trkpt lat="45.28527" lon="5.81857">
        <ele>1378.6</ele>
        <time>2015-07-10T10:58:05Z</time>
      </trkpt>
      <trkpt lat="45.28515" lon="5.81855">
        <ele>1378.6</ele>
        <time>2015-07-10T10:58:09Z</time>
      </trkpt>
      <trkpt lat="45.28504" lon="5.8185">
        <ele>1377.8</ele>
        <time>2015-07-10T10:58:12Z</time>
      </trkpt>
      <trkpt lat="45.28494" lon="5.81846">
        <ele>1377.6</ele>
        <time>2015-07-10T10:58:15Z</time>
      </trkpt>
      <trkpt lat="45.28485" lon="5.8184">
        <ele>1377.6</ele>
        <time>2015-07-10T10:58:18Z</time>
      </trkpt>
      <trkpt lat="45.28474" lon="5.81834">
        <ele>1377.2</ele>
        <time>2015-07-10T10:58:22Z</time>
      </trkpt>
      <trkpt lat="45.28465" lon="5.8183">
        <ele>1376.4</ele>
        <time>2015-07-10T10:58:25Z</time>
      </trkpt>
      <trkpt lat="45.28456" lon="5.81822">
        <ele>1375.2</ele>
        <time>2015-07-10T10:58:28Z</time>
      </trkpt>
      <trkpt lat="45.28447" lon="5.81812">
        <ele>1374.4</ele>
        <time>2015-07-10T10:58:31Z</time>
      </trkpt>
      <trkpt lat="45.28439" lon="5.81802">
        <ele>1373.4</ele>
        <time>2015-07-10T10:58:34Z</time>
      </trkpt>
      <trkpt lat="45.28431" lon="5.81793">
        <ele>1372.6</ele>
        <time>2015-07-10T10:58:37Z</time>
      </trkpt>
      <trkpt lat="45.28421" lon="5.81786">
        <ele>1372.4</ele>
        <time>2015-07-10T10:58:40Z</time>
      </trkpt>
      <trkpt lat="45.28413" lon="5.81779">
        <ele>1371.8</ele>
        <time>2015-07-10T10:58:43Z</time>
      </trkpt>
      <trkpt lat="45.28404" lon="5.81769">
        <ele>1370.4</ele>
        <time>2015-07-10T10:58:46Z</time>
      </trkpt>
      <trkpt lat="45.28394" lon="5.8176">
        <ele>1369.8</ele>
        <time>2015-07-10T10:58:49Z</time>
      </trkpt>
      <trkpt lat="45.28385" lon="5.81754">
        <ele>1369.8</ele>
        <time>2015-07-10T10:58:52Z</time>
      </trkpt>
      <trkpt lat="45.28374" lon="5.81748">
        <ele>1369.8</ele>
        <time>2015-07-10T10:58:56Z</time>
      </trkpt>
      <trkpt lat="45.28364" lon="5.81744">
        <ele>1369.8</ele>
        <time>2015-07-10T10:58:59Z</time>
      </trkpt>
      <trkpt lat="45.28355" lon="5.81738">
        <ele>1369</ele>
        <time>2015-07-10T10:59:02Z</time>
      </trkpt>
      <trkpt lat="45.28345" lon="5.81731">
        <ele>1368.2</ele>
        <time>2015-07-10T10:59:05Z</time>
      </trkpt>
      <trkpt lat="45.28336" lon="5.81727">
        <ele>1368</ele>
        <time>2015-07-10T10:59:08Z</time>
      </trkpt>
      <trkpt lat="45.28328" lon="5.81723">
        <ele>1368</ele>
        <time>2015-07-10T10:59:11Z</time>
      </trkpt>
      <trkpt lat="45.28317" lon="5.81717">
        <ele>1368</ele>
        <time>2015-07-10T10:59:15Z</time>
      </trkpt>
      <trkpt lat="45.28306" lon="5.81712">
        <ele>1370</ele>
        <time>2015-07-10T10:59:19Z</time>
      </trkpt>
      <trkpt lat="45.28296" lon="5.81708">
        <ele>1371.6</ele>
        <time>2015-07-10T10:59:23Z</time>
      </trkpt>
      <trkpt lat="45.28285" lon="5.81703">
        <ele>1372.2</ele>
        <time>2015-07-10T10:59:27Z</time>
      </trkpt>
      <trkpt lat="45.28276" lon="5.81695">
        <ele>1372.2</ele>
        <time>2015-07-10T10:59:31Z</time>
      </trkpt>
      <trkpt lat="45.28267" lon="5.81688">
        <ele>1373</ele>
        <time>2015-07-10T10:59:35Z</time>
      </trkpt>
      <trkpt lat="45.28259" lon="5.81673">
        <ele>1373</ele>
        <time>2015-07-10T10:59:39Z</time>
      </trkpt>
      <trkpt lat="45.28255" lon="5.81653">
        <ele>1373</ele>
        <time>2015-07-10T10:59:43Z</time>
      </trkpt>
      <trkpt lat="45.28252" lon="5.81635">
        <ele>1373</ele>
        <time>2015-07-10T10:59:47Z</time>
      </trkpt>
      <trkpt lat="45.28252" lon="5.81615">
        <ele>1373.8</ele>
        <time>2015-07-10T10:59:51Z</time>
      </trkpt>
      <trkpt lat="45.28255" lon="5.81598">
        <ele>1373.8</ele>
        <time>2015-07-10T10:59:55Z</time>
      </trkpt>
      <trkpt lat="45.28258" lon="5.81584">
        <ele>1373.8</ele>
        <time>2015-07-10T10:59:58Z</time>
      </trkpt>
      <trkpt lat="45.28264" lon="5.8157">
        <ele>1373.8</ele>
        <time>2015-07-10T11:00:02Z</time>
      </trkpt>
      <trkpt lat="45.28269" lon="5.81559">
        <ele>1373.8</ele>
        <time>2015-07-10T11:00:10Z</time>
      </trkpt>
      <trkpt lat="45.28278" lon="5.8155">
        <ele>1375.2</ele>
        <time>2015-07-10T11:00:18Z</time>
      </trkpt>
      <trkpt lat="45.28288" lon="5.81543">
        <ele>1376.2</ele>
        <time>2015-07-10T11:00:25Z</time>
      </trkpt>
      <trkpt lat="45.28292" lon="5.81529">
        <ele>1377.2</ele>
        <time>2015-07-10T11:00:33Z</time>
      </trkpt>
      <trkpt lat="45.2829" lon="5.81515">
        <ele>1378</ele>
        <time>2015-07-10T11:00:42Z</time>
      </trkpt>
      <trkpt lat="45.28288" lon="5.81499">
        <ele>1378.6</ele>
        <time>2015-07-10T11:00:49Z</time>
      </trkpt>
      <trkpt lat="45.28294" lon="5.81488">
        <ele>1379.2</ele>
        <time>2015-07-10T11:00:54Z</time>
      </trkpt>
      <trkpt lat="45.28303" lon="5.81479">
        <ele>1380.2</ele>
        <time>2015-07-10T11:00:59Z</time>
      </trkpt>
      <trkpt lat="45.28313" lon="5.81468">
        <ele>1381.4</ele>
        <time>2015-07-10T11:01:03Z</time>
      </trkpt>
      <trkpt lat="45.28323" lon="5.81458">
        <ele>1382.2</ele>
        <time>2015-07-10T11:01:07Z</time>
      </trkpt>
      <trkpt lat="45.28333" lon="5.81451">
        <ele>1382.2</ele>
        <time>2015-07-10T11:01:11Z</time>
      </trkpt>
      <trkpt lat="45.28345" lon="5.81441">
        <ele>1382.4</ele>
        <time>2015-07-10T11:01:15Z</time>
      </trkpt>
      <trkpt lat="45.28355" lon="5.8143">
        <ele>1383.6</ele>
        <time>2015-07-10T11:01:19Z</time>
      </trkpt>
      <trkpt lat="45.28362" lon="5.81417">
        <ele>1384.8</ele>
        <time>2015-07-10T11:01:24Z</time>
      </trkpt>
      <trkpt lat="45.28367" lon="5.81405">
        <ele>1385.6</ele>
        <time>2015-07-10T11:01:29Z</time>
      </trkpt>
      <trkpt lat="45.28372" lon="5.8139">
        <ele>1388.4</ele>
        <time>2015-07-10T11:01:36Z</time>
      </trkpt>
      <trkpt lat="45.28378" lon="5.81375">
        <ele>1390.2</ele>
        <time>2015-07-10T11:01:44Z</time>
      </trkpt>
      <trkpt lat="45.28386" lon="5.81356">
        <ele>1391</ele>
        <time>2015-07-10T11:01:50Z</time>
      </trkpt>
      <trkpt lat="45.28393" lon="5.81339">
        <ele>1392.2</ele>
        <time>2015-07-10T11:01:55Z</time>
      </trkpt>
      <trkpt lat="45.284" lon="5.81322">
        <ele>1393.4</ele>
        <time>2015-07-10T11:02:00Z</time>
      </trkpt>
      <trkpt lat="45.28406" lon="5.81302">
        <ele>1394</ele>
        <time>2015-07-10T11:02:06Z</time>
      </trkpt>
      <trkpt lat="45.28408" lon="5.81286">
        <ele>1395</ele>
        <time>2015-07-10T11:02:10Z</time>
      </trkpt>
      <trkpt lat="45.28409" lon="5.81268">
        <ele>1393.2</ele>
        <time>2015-07-10T11:02:14Z</time>
      </trkpt>
      <trkpt lat="45.2841" lon="5.81248">
        <ele>1394.4</ele>
        <time>2015-07-10T11:02:19Z</time>
      </trkpt>
      <trkpt lat="45.28412" lon="5.81234">
        <ele>1396</ele>
        <time>2015-07-10T11:02:24Z</time>
      </trkpt>
      <trkpt lat="45.28417" lon="5.81219">
        <ele>1397</ele>
        <time>2015-07-10T11:02:30Z</time>
      </trkpt>
      <trkpt lat="45.28423" lon="5.81204">
        <ele>1398.6</ele>
        <time>2015-07-10T11:02:36Z</time>
      </trkpt>
      <trkpt lat="45.28428" lon="5.8119">
        <ele>1400.2</ele>
        <time>2015-07-10T11:02:42Z</time>
      </trkpt>
      <trkpt lat="45.28431" lon="5.81171">
        <ele>1402.4</ele>
        <time>2015-07-10T11:02:49Z</time>
      </trkpt>
      <trkpt lat="45.28427" lon="5.81156">
        <ele>1404</ele>
        <time>2015-07-10T11:02:57Z</time>
      </trkpt>
      <trkpt lat="45.28418" lon="5.81151">
        <ele>1405.4</ele>
        <time>2015-07-10T11:03:04Z</time>
      </trkpt>
      <trkpt lat="45.28412" lon="5.81144">
        <ele>1406.2</ele>
        <time>2015-07-10T11:03:13Z</time>
      </trkpt>
      <trkpt lat="45.28403" lon="5.81135">
        <ele>1407.8</ele>
        <time>2015-07-10T11:03:23Z</time>
      </trkpt>
      <trkpt lat="45.28393" lon="5.81133">
        <ele>1409.6</ele>
        <time>2015-07-10T11:03:30Z</time>
      </trkpt>
      <trkpt lat="45.28382" lon="5.81128">
        <ele>1409.6</ele>
        <time>2015-07-10T11:03:35Z</time>
      </trkpt>
      <trkpt lat="45.28369" lon="5.81128">
        <ele>1411</ele>
        <time>2015-07-10T11:03:40Z</time>
      </trkpt>
      <trkpt lat="45.28359" lon="5.8113">
        <ele>1411.8</ele>
        <time>2015-07-10T11:03:44Z</time>
      </trkpt>
      <trkpt lat="45.28348" lon="5.81131">
        <ele>1413.2</ele>
        <time>2015-07-10T11:03:48Z</time>
      </trkpt>
      <trkpt lat="45.28335" lon="5.8113">
        <ele>1413.8</ele>
        <time>2015-07-10T11:03:52Z</time>
      </trkpt>
      <trkpt lat="45.28324" lon="5.81129">
        <ele>1413.8</ele>
        <time>2015-07-10T11:03:56Z</time>
      </trkpt>
      <trkpt lat="45.28314" lon="5.81129">
        <ele>1413.8</ele>
        <time>2015-07-10T11:04:00Z</time>
      </trkpt>
      <trkpt lat="45.28304" lon="5.81127">
        <ele>1414.4</ele>
        <time>2015-07-10T11:04:04Z</time>
      </trkpt>
      <trkpt lat="45.28294" lon="5.81122">
        <ele>1415.6</ele>
        <time>2015-07-10T11:04:08Z</time>
      </trkpt>
      <trkpt lat="45.28283" lon="5.81117">
        <ele>1415.8</ele>
        <time>2015-07-10T11:04:12Z</time>
      </trkpt>
      <trkpt lat="45.28272" lon="5.8111">
        <ele>1415.8</ele>
        <time>2015-07-10T11:04:16Z</time>
      </trkpt>
      <trkpt lat="45.28262" lon="5.81102">
        <ele>1415.8</ele>
        <time>2015-07-10T11:04:20Z</time>
      </trkpt>
      <trkpt lat="45.28253" lon="5.81094">
        <ele>1415.8</ele>
        <time>2015-07-10T11:04:24Z</time>
      </trkpt>
      <trkpt lat="45.28244" lon="5.81089">
        <ele>1416.2</ele>
        <time>2015-07-10T11:04:28Z</time>
      </trkpt>
      <trkpt lat="45.28234" lon="5.81085">
        <ele>1417.4</ele>
        <time>2015-07-10T11:04:32Z</time>
      </trkpt>
      <trkpt lat="45.28226" lon="5.8108">
        <ele>1419.6</ele>
        <time>2015-07-10T11:04:36Z</time>
      </trkpt>
      <trkpt lat="45.28217" lon="5.81073">
        <ele>1420</ele>
        <time>2015-07-10T11:04:41Z</time>
      </trkpt>
      <trkpt lat="45.28208" lon="5.81065">
        <ele>1421.2</ele>
        <time>2015-07-10T11:04:46Z</time>
      </trkpt>
      <trkpt lat="45.282" lon="5.81058">
        <ele>1422.2</ele>
        <time>2015-07-10T11:04:50Z</time>
      </trkpt>
      <trkpt lat="45.28193" lon="5.81052">
        <ele>1424.8</ele>
        <time>2015-07-10T11:04:54Z</time>
      </trkpt>
      <trkpt lat="45.28186" lon="5.81045">
        <ele>1425.4</ele>
        <time>2015-07-10T11:04:58Z</time>
      </trkpt>
      <trkpt lat="45.28178" lon="5.81036">
        <ele>1425.4</ele>
        <time>2015-07-10T11:05:02Z</time>
      </trkpt>
      <trkpt lat="45.28171" lon="5.81026">
        <ele>1426.4</ele>
        <time>2015-07-10T11:05:06Z</time>
      </trkpt>
      <trkpt lat="45.28163" lon="5.81016">
        <ele>1426.4</ele>
        <time>2015-07-10T11:05:10Z</time>
      </trkpt>
      <trkpt lat="45.28158" lon="5.81002">
        <ele>1426.4</ele>
        <time>2015-07-10T11:05:14Z</time>
      </trkpt>
      <trkpt lat="45.28155" lon="5.80986">
        <ele>1423.8</ele>
        <time>2015-07-10T11:05:18Z</time>
      </trkpt>
      <trkpt lat="45.28153" lon="5.80973">
        <ele>1422.4</ele>
        <time>2015-07-10T11:05:21Z</time>
      </trkpt>
      <trkpt lat="45.28154" lon="5.80957">
        <ele>1420</ele>
        <time>2015-07-10T11:05:24Z</time>
      </trkpt>
      <trkpt lat="45.28155" lon="5.80944">
        <ele>1418.2</ele>
        <time>2015-07-10T11:05:27Z</time>
      </trkpt>
      <trkpt lat="45.28157" lon="5.80931">
        <ele>1417</ele>
        <time>2015-07-10T11:05:30Z</time>
      </trkpt>
      <trkpt lat="45.28158" lon="5.80916">
        <ele>1415.4</ele>
        <time>2015-07-10T11:05:33Z</time>
      </trkpt>
      <trkpt lat="45.28162" lon="5.80902">
        <ele>1414.2</ele>
        <time>2015-07-10T11:05:36Z</time>
      </trkpt>
      <trkpt lat="45.28165" lon="5.80888">
        <ele>1412</ele>
        <time>2015-07-10T11:05:39Z</time>
      </trkpt>
      <trkpt lat="45.2817" lon="5.80875">
        <ele>1411.6</ele>
        <time>2015-07-10T11:05:42Z</time>
      </trkpt>
      <trkpt lat="45.28175" lon="5.80863">
        <ele>1411.6</ele>
        <time>2015-07-10T11:05:45Z</time>
      </trkpt>
      <trkpt lat="45.28179" lon="5.80851">
        <ele>1410.8</ele>
        <time>2015-07-10T11:05:48Z</time>
      </trkpt>
      <trkpt lat="45.28183" lon="5.80838">
        <ele>1410.2</ele>
        <time>2015-07-10T11:05:51Z</time>
      </trkpt>
      <trkpt lat="45.28187" lon="5.80827">
        <ele>1409.8</ele>
        <time>2015-07-10T11:05:54Z</time>
      </trkpt>
      <trkpt lat="45.28192" lon="5.80816">
        <ele>1409.8</ele>
        <time>2015-07-10T11:05:57Z</time>
      </trkpt>
      <trkpt lat="45.28196" lon="5.80804">
        <ele>1409.8</ele>
        <time>2015-07-10T11:06:00Z</time>
      </trkpt>
      <trkpt lat="45.28201" lon="5.80788">
        <ele>1409.8</ele>
        <time>2015-07-10T11:06:04Z</time>
      </trkpt>
      <trkpt lat="45.28208" lon="5.80774">
        <ele>1409.8</ele>
        <time>2015-07-10T11:06:08Z</time>
      </trkpt>
      <trkpt lat="45.28214" lon="5.80764">
        <ele>1409.8</ele>
        <time>2015-07-10T11:06:11Z</time>
      </trkpt>
      <trkpt lat="45.28221" lon="5.80756">
        <ele>1409.8</ele>
        <time>2015-07-10T11:06:14Z</time>
      </trkpt>
      <trkpt lat="45.28228" lon="5.80745">
        <ele>1412.2</ele>
        <time>2015-07-10T11:06:18Z</time>
      </trkpt>
      <trkpt lat="45.28233" lon="5.80732">
        <ele>1413.4</ele>
        <time>2015-07-10T11:06:23Z</time>
      </trkpt>
      <trkpt lat="45.28234" lon="5.80719">
        <ele>1414.2</ele>
        <time>2015-07-10T11:06:29Z</time>
      </trkpt>
      <trkpt lat="45.28233" lon="5.80702">
        <ele>1416</ele>
        <time>2015-07-10T11:06:35Z</time>
      </trkpt>
      <trkpt lat="45.28239" lon="5.80686">
        <ele>1411</ele>
        <time>2015-07-10T11:06:41Z</time>
      </trkpt>
      <trkpt lat="45.28246" lon="5.80674">
        <ele>1408.4</ele>
        <time>2015-07-10T11:06:46Z</time>
      </trkpt>
      <trkpt lat="45.28253" lon="5.80655">
        <ele>1407.2</ele>
        <time>2015-07-10T11:06:51Z</time>
      </trkpt>
      <trkpt lat="45.28256" lon="5.80638">
        <ele>1407.2</ele>
        <time>2015-07-10T11:06:55Z</time>
      </trkpt>
      <trkpt lat="45.28261" lon="5.80625">
        <ele>1407.2</ele>
        <time>2015-07-10T11:07:00Z</time>
      </trkpt>
      <trkpt lat="45.28263" lon="5.80612">
        <ele>1409.4</ele>
        <time>2015-07-10T11:07:14Z</time>
      </trkpt>
      <trkpt lat="45.28272" lon="5.80598">
        <ele>1407.4</ele>
        <time>2015-07-10T11:07:23Z</time>
      </trkpt>
      <trkpt lat="45.28282" lon="5.80581">
        <ele>1407.2</ele>
        <time>2015-07-10T11:07:28Z</time>
      </trkpt>
      <trkpt lat="45.28289" lon="5.80571">
        <ele>1407.2</ele>
        <time>2015-07-10T11:07:32Z</time>
      </trkpt>
      <trkpt lat="45.28297" lon="5.80558">
        <ele>1406.4</ele>
        <time>2015-07-10T11:07:37Z</time>
      </trkpt>
      <trkpt lat="45.28305" lon="5.80545">
        <ele>1406.4</ele>
        <time>2015-07-10T11:07:42Z</time>
      </trkpt>
      <trkpt lat="45.28314" lon="5.80527">
        <ele>1406.4</ele>
        <time>2015-07-10T11:07:47Z</time>
      </trkpt>
      <trkpt lat="45.28318" lon="5.80509">
        <ele>1405.6</ele>
        <time>2015-07-10T11:07:52Z</time>
      </trkpt>
      <trkpt lat="45.28326" lon="5.80494">
        <ele>1403.8</ele>
        <time>2015-07-10T11:07:56Z</time>
      </trkpt>
      <trkpt lat="45.28334" lon="5.80484">
        <ele>1402</ele>
        <time>2015-07-10T11:08:00Z</time>
      </trkpt>
      <trkpt lat="45.28339" lon="5.8047">
        <ele>1399.2</ele>
        <time>2015-07-10T11:08:05Z</time>
      </trkpt>
      <trkpt lat="45.28338" lon="5.80457">
        <ele>1394.8</ele>
        <time>2015-07-10T11:08:12Z</time>
      </trkpt>
      <trkpt lat="45.28341" lon="5.80446">
        <ele>1392</ele>
        <time>2015-07-10T11:08:18Z</time>
      </trkpt>
      <trkpt lat="45.2835" lon="5.80438">
        <ele>1389.6</ele>
        <time>2015-07-10T11:08:22Z</time>
      </trkpt>
      <trkpt lat="45.2836" lon="5.80431">
        <ele>1387.2</ele>
        <time>2015-07-10T11:08:27Z</time>
      </trkpt>
      <trkpt lat="45.28368" lon="5.80419">
        <ele>1382.8</ele>
        <time>2015-07-10T11:08:33Z</time>
      </trkpt>
      <trkpt lat="45.28367" lon="5.80406">
        <ele>1378</ele>
        <time>2015-07-10T11:08:40Z</time>
      </trkpt>
      <trkpt lat="45.28366" lon="5.80395">
        <ele>1371.8</ele>
        <time>2015-07-10T11:08:50Z</time>
      </trkpt>
      <trkpt lat="45.28367" lon="5.8038">
        <ele>1369.4</ele>
        <time>2015-07-10T11:08:56Z</time>
      </trkpt>
      <trkpt lat="45.28373" lon="5.80373">
        <ele>1372.6</ele>
        <time>2015-07-10T11:09:05Z</time>
      </trkpt>
      <trkpt lat="45.28377" lon="5.80383">
        <ele>1376.6</ele>
        <time>2015-07-10T11:09:19Z</time>
      </trkpt>
      <trkpt lat="45.28383" lon="5.80382">
        <ele>1380.2</ele>
        <time>2015-07-10T11:09:32Z</time>
      </trkpt>
      <trkpt lat="45.28396" lon="5.80363">
        <ele>1382.4</ele>
        <time>2015-07-10T11:09:45Z</time>
      </trkpt>
      <trkpt lat="45.28398" lon="5.80348">
        <ele>1385.8</ele>
        <time>2015-07-10T11:09:58Z</time>
      </trkpt>
      <trkpt lat="45.28401" lon="5.80335">
        <ele>1389.2</ele>
        <time>2015-07-10T11:10:13Z</time>
      </trkpt>
      <trkpt lat="45.28416" lon="5.80323">
        <ele>1387.8</ele>
        <time>2015-07-10T11:10:21Z</time>
      </trkpt>
      <trkpt lat="45.28424" lon="5.80314">
        <ele>1384.8</ele>
        <time>2015-07-10T11:10:25Z</time>
      </trkpt>
      <trkpt lat="45.28428" lon="5.80305">
        <ele>1382.8</ele>
        <time>2015-07-10T11:10:29Z</time>
      </trkpt>
      <trkpt lat="45.28434" lon="5.80296">
        <ele>1381.6</ele>
        <time>2015-07-10T11:10:34Z</time>
      </trkpt>
      <trkpt lat="45.28445" lon="5.80288">
        <ele>1381.6</ele>
        <time>2015-07-10T11:10:39Z</time>
      </trkpt>
      <trkpt lat="45.28452" lon="5.80277">
        <ele>1383.6</ele>
        <time>2015-07-10T11:10:44Z</time>
      </trkpt>
      <trkpt lat="45.28453" lon="5.80256">
        <ele>1384</ele>
        <time>2015-07-10T11:10:49Z</time>
      </trkpt>
      <trkpt lat="45.28455" lon="5.80239">
        <ele>1381.8</ele>
        <time>2015-07-10T11:10:53Z</time>
      </trkpt>
      <trkpt lat="45.2846" lon="5.80222">
        <ele>1379.6</ele>
        <time>2015-07-10T11:10:57Z</time>
      </trkpt>
      <trkpt lat="45.28466" lon="5.80203">
        <ele>1379.2</ele>
        <time>2015-07-10T11:11:01Z</time>
      </trkpt>
      <trkpt lat="45.28467" lon="5.80187">
        <ele>1380.8</ele>
        <time>2015-07-10T11:11:06Z</time>
      </trkpt>
      <trkpt lat="45.28472" lon="5.80163">
        <ele>1384</ele>
        <time>2015-07-10T11:11:12Z</time>
      </trkpt>
      <trkpt lat="45.28473" lon="5.80149">
        <ele>1384</ele>
        <time>2015-07-10T11:11:16Z</time>
      </trkpt>
      <trkpt lat="45.28478" lon="5.8013">
        <ele>1383</ele>
        <time>2015-07-10T11:11:20Z</time>
      </trkpt>
      <trkpt lat="45.28479" lon="5.80115">
        <ele>1381.8</ele>
        <time>2015-07-10T11:11:26Z</time>
      </trkpt>
      <trkpt lat="45.28477" lon="5.80096">
        <ele>1381.8</ele>
        <time>2015-07-10T11:11:33Z</time>
      </trkpt>
      <trkpt lat="45.28468" lon="5.80079">
        <ele>1385</ele>
        <time>2015-07-10T11:11:40Z</time>
      </trkpt>
      <trkpt lat="45.28462" lon="5.80062">
        <ele>1386.4</ele>
        <time>2015-07-10T11:11:47Z</time>
      </trkpt>
      <trkpt lat="45.2846" lon="5.80036">
        <ele>1390.2</ele>
        <time>2015-07-10T11:12:01Z</time>
      </trkpt>
      <trkpt lat="45.28459" lon="5.8002">
        <ele>1393.2</ele>
        <time>2015-07-10T11:12:13Z</time>
      </trkpt>
      <trkpt lat="45.28459" lon="5.80002">
        <ele>1397.2</ele>
        <time>2015-07-10T11:12:27Z</time>
      </trkpt>
      <trkpt lat="45.28453" lon="5.79985">
        <ele>1400.8</ele>
        <time>2015-07-10T11:12:40Z</time>
      </trkpt>
      <trkpt lat="45.28445" lon="5.79969">
        <ele>1404.8</ele>
        <time>2015-07-10T11:12:56Z</time>
      </trkpt>
      <trkpt lat="45.28452" lon="5.79949">
        <ele>1407.8</ele>
        <time>2015-07-10T11:13:07Z</time>
      </trkpt>
      <trkpt lat="45.28448" lon="5.79932">
        <ele>1411.4</ele>
        <time>2015-07-10T11:13:19Z</time>
      </trkpt>
      <trkpt lat="45.28443" lon="5.79919">
        <ele>1414</ele>
        <time>2015-07-10T11:13:30Z</time>
      </trkpt>
      <trkpt lat="45.28439" lon="5.79903">
        <ele>1417.8</ele>
        <time>2015-07-10T11:13:42Z</time>
      </trkpt>
      <trkpt lat="45.28431" lon="5.79889">
        <ele>1422</ele>
        <time>2015-07-10T11:13:57Z</time>
      </trkpt>
      <trkpt lat="45.2843" lon="5.79868">
        <ele>1427</ele>
        <time>2015-07-10T11:14:12Z</time>
      </trkpt>
      <trkpt lat="45.28432" lon="5.79844">
        <ele>1434.2</ele>
        <time>2015-07-10T11:14:37Z</time>
      </trkpt>
      <trkpt lat="45.28431" lon="5.79826">
        <ele>1440.4</ele>
        <time>2015-07-10T11:14:58Z</time>
      </trkpt>
      <trkpt lat="45.28437" lon="5.79806">
        <ele>1444.2</ele>
        <time>2015-07-10T11:15:16Z</time>
      </trkpt>
      <trkpt lat="45.28441" lon="5.79787">
        <ele>1448.6</ele>
        <time>2015-07-10T11:15:29Z</time>
      </trkpt>
      <trkpt lat="45.28436" lon="5.79776">
        <ele>1450.4</ele>
        <time>2015-07-10T11:15:38Z</time>
      </trkpt>
      <trkpt lat="45.28431" lon="5.79765">
        <ele>1453.2</ele>
        <time>2015-07-10T11:15:48Z</time>
      </trkpt>
      <trkpt lat="45.28424" lon="5.79756">
        <ele>1454.8</ele>
        <time>2015-07-10T11:15:58Z</time>
      </trkpt>
      <trkpt lat="45.28416" lon="5.79748">
        <ele>1456.8</ele>
        <time>2015-07-10T11:16:08Z</time>
      </trkpt>
      <trkpt lat="45.28408" lon="5.79735">
        <ele>1460.6</ele>
        <time>2015-07-10T11:16:22Z</time>
      </trkpt>
      <trkpt lat="45.28419" lon="5.79727">
        <ele>1465</ele>
        <time>2015-07-10T11:16:42Z</time>
      </trkpt>
      <trkpt lat="45.2843" lon="5.79715">
        <ele>1468.6</ele>
        <time>2015-07-10T11:16:54Z</time>
      </trkpt>
      <trkpt lat="45.28441" lon="5.79709">
        <ele>1469.8</ele>
        <time>2015-07-10T11:17:06Z</time>
      </trkpt>
      <trkpt lat="45.28447" lon="5.79711">
        <ele>1472.2</ele>
        <time>2015-07-10T11:17:15Z</time>
      </trkpt>
      <trkpt lat="45.28447" lon="5.79711">
        <ele>1476.2</ele>
        <time>2015-07-10T11:17:29Z</time>
      </trkpt>
      <trkpt lat="45.28444" lon="5.79704">
        <ele>1478.8</ele>
        <time>2015-07-10T11:17:40Z</time>
      </trkpt>
      <trkpt lat="45.28431" lon="5.79696">
        <ele>1480.4</ele>
        <time>2015-07-10T11:17:47Z</time>
      </trkpt>
      <trkpt lat="45.28422" lon="5.79689">
        <ele>1481.4</ele>
        <time>2015-07-10T11:17:52Z</time>
      </trkpt>
      <trkpt lat="45.28424" lon="5.79683">
        <ele>1483.8</ele>
        <time>2015-07-10T11:18:03Z</time>
      </trkpt>
      <trkpt lat="45.28434" lon="5.79679">
        <ele>1487.6</ele>
        <time>2015-07-10T11:18:14Z</time>
      </trkpt>
      <trkpt lat="45.28444" lon="5.79669">
        <ele>1489.4</ele>
        <time>2015-07-10T11:18:21Z</time>
      </trkpt>
      <trkpt lat="45.28447" lon="5.79656">
        <ele>1493</ele>
        <time>2015-07-10T11:18:35Z</time>
      </trkpt>
      <trkpt lat="45.28444" lon="5.79645">
        <ele>1497</ele>
        <time>2015-07-10T11:18:48Z</time>
      </trkpt>
      <trkpt lat="45.28437" lon="5.79628">
        <ele>1501.6</ele>
        <time>2015-07-10T11:19:04Z</time>
      </trkpt>
      <trkpt lat="45.28431" lon="5.79618">
        <ele>1504.6</ele>
        <time>2015-07-10T11:19:17Z</time>
      </trkpt>
      <trkpt lat="45.28429" lon="5.79601">
        <ele>1508.8</ele>
        <time>2015-07-10T11:19:31Z</time>
      </trkpt>
      <trkpt lat="45.28426" lon="5.79587">
        <ele>1513.8</ele>
        <time>2015-07-10T11:19:47Z</time>
      </trkpt>
      <trkpt lat="45.28423" lon="5.7957">
        <ele>1518.2</ele>
        <time>2015-07-10T11:20:03Z</time>
      </trkpt>
      <trkpt lat="45.28419" lon="5.79547">
        <ele>1520.2</ele>
        <time>2015-07-10T11:20:13Z</time>
      </trkpt>
      <trkpt lat="45.2842" lon="5.79531">
        <ele>1522.8</ele>
        <time>2015-07-10T11:20:22Z</time>
      </trkpt>
      <trkpt lat="45.28417" lon="5.79516">
        <ele>1526.2</ele>
        <time>2015-07-10T11:20:34Z</time>
      </trkpt>
      <trkpt lat="45.28415" lon="5.79502">
        <ele>1529.4</ele>
        <time>2015-07-10T11:20:45Z</time>
      </trkpt>
      <trkpt lat="45.28414" lon="5.79485">
        <ele>1535.4</ele>
        <time>2015-07-10T11:21:06Z</time>
      </trkpt>
      <trkpt lat="45.28411" lon="5.79471">
        <ele>1538.6</ele>
        <time>2015-07-10T11:21:20Z</time>
      </trkpt>
      <trkpt lat="45.28412" lon="5.7945">
        <ele>1539.8</ele>
        <time>2015-07-10T11:21:31Z</time>
      </trkpt>
      <trkpt lat="45.28417" lon="5.79433">
        <ele>1542.2</ele>
        <time>2015-07-10T11:21:42Z</time>
      </trkpt>
      <trkpt lat="45.28409" lon="5.79413">
        <ele>1542.6</ele>
        <time>2015-07-10T11:21:49Z</time>
      </trkpt>
      <trkpt lat="45.28402" lon="5.794">
        <ele>1545</ele>
        <time>2015-07-10T11:21:54Z</time>
      </trkpt>
      <trkpt lat="45.28396" lon="5.79391">
        <ele>1545.2</ele>
        <time>2015-07-10T11:22:00Z</time>
      </trkpt>
      <trkpt lat="45.28388" lon="5.79381">
        <ele>1546.6</ele>
        <time>2015-07-10T11:22:09Z</time>
      </trkpt>
      <trkpt lat="45.28372" lon="5.79378">
        <ele>1550.2</ele>
        <time>2015-07-10T11:22:22Z</time>
      </trkpt>
      <trkpt lat="45.28356" lon="5.7938">
        <ele>1551.8</ele>
        <time>2015-07-10T11:22:33Z</time>
      </trkpt>
      <trkpt lat="45.28344" lon="5.79388">
        <ele>1553.6</ele>
        <time>2015-07-10T11:22:41Z</time>
      </trkpt>
      <trkpt lat="45.28338" lon="5.79395">
        <ele>1556.6</ele>
        <time>2015-07-10T11:22:50Z</time>
      </trkpt>
      <trkpt lat="45.28328" lon="5.79397">
        <ele>1559.4</ele>
        <time>2015-07-10T11:23:00Z</time>
      </trkpt>
      <trkpt lat="45.28322" lon="5.79397">
        <ele>1562.6</ele>
        <time>2015-07-10T11:23:11Z</time>
      </trkpt>
      <trkpt lat="45.28313" lon="5.79395">
        <ele>1566</ele>
        <time>2015-07-10T11:23:24Z</time>
      </trkpt>
      <trkpt lat="45.28305" lon="5.79385">
        <ele>1566.8</ele>
        <time>2015-07-10T11:23:33Z</time>
      </trkpt>
      <trkpt lat="45.28295" lon="5.79374">
        <ele>1568.4</ele>
        <time>2015-07-10T11:23:42Z</time>
      </trkpt>
      <trkpt lat="45.28296" lon="5.79362">
        <ele>1571.8</ele>
        <time>2015-07-10T11:23:56Z</time>
      </trkpt>
      <trkpt lat="45.28304" lon="5.79355">
        <ele>1575.2</ele>
        <time>2015-07-10T11:24:09Z</time>
      </trkpt>
      <trkpt lat="45.28307" lon="5.79344">
        <ele>1580.6</ele>
        <time>2015-07-10T11:24:25Z</time>
      </trkpt>
      <trkpt lat="45.28309" lon="5.79333">
        <ele>1584.4</ele>
        <time>2015-07-10T11:24:40Z</time>
      </trkpt>
      <trkpt lat="45.28311" lon="5.79322">
        <ele>1588.4</ele>
        <time>2015-07-10T11:24:57Z</time>
      </trkpt>
      <trkpt lat="45.28313" lon="5.79311">
        <ele>1594</ele>
        <time>2015-07-10T11:25:14Z</time>
      </trkpt>
      <trkpt lat="45.28311" lon="5.793">
        <ele>1597.2</ele>
        <time>2015-07-10T11:25:28Z</time>
      </trkpt>
      <trkpt lat="45.28313" lon="5.79289">
        <ele>1601.8</ele>
        <time>2015-07-10T11:25:44Z</time>
      </trkpt>
      <trkpt lat="45.28313" lon="5.79278">
        <ele>1605.8</ele>
        <time>2015-07-10T11:26:00Z</time>
      </trkpt>
      <trkpt lat="45.28309" lon="5.79268">
        <ele>1610.2</ele>
        <time>2015-07-10T11:26:16Z</time>
      </trkpt>
      <trkpt lat="45.28308" lon="5.79255">
        <ele>1613.2</ele>
        <time>2015-07-10T11:26:30Z</time>
      </trkpt>
      <trkpt lat="45.28316" lon="5.79249">
        <ele>1617.8</ele>
        <time>2015-07-10T11:26:48Z</time>
      </trkpt>
      <trkpt lat="45.28318" lon="5.79237">
        <ele>1622</ele>
        <time>2015-07-10T11:27:06Z</time>
      </trkpt>
      <trkpt lat="45.28318" lon="5.79226">
        <ele>1627.4</ele>
        <time>2015-07-10T11:27:24Z</time>
      </trkpt>
      <trkpt lat="45.28316" lon="5.79215">
        <ele>1632.2</ele>
        <time>2015-07-10T11:27:42Z</time>
      </trkpt>
      <trkpt lat="45.28314" lon="5.79204">
        <ele>1635.8</ele>
        <time>2015-07-10T11:27:56Z</time>
      </trkpt>
      <trkpt lat="45.28321" lon="5.79203">
        <ele>1639.4</ele>
        <time>2015-07-10T11:28:15Z</time>
      </trkpt>
      <trkpt lat="45.28323" lon="5.79189">
        <ele>1643.2</ele>
        <time>2015-07-10T11:28:32Z</time>
      </trkpt>
      <trkpt lat="45.28319" lon="5.79179">
        <ele>1648.6</ele>
        <time>2015-07-10T11:28:49Z</time>
      </trkpt>
      <trkpt lat="45.28311" lon="5.79171">
        <ele>1650.8</ele>
        <time>2015-07-10T11:29:02Z</time>
      </trkpt>
      <trkpt lat="45.28308" lon="5.79158">
        <ele>1654</ele>
        <time>2015-07-10T11:29:14Z</time>
      </trkpt>
      <trkpt lat="45.28304" lon="5.79148">
        <ele>1658.8</ele>
        <time>2015-07-10T11:29:31Z</time>
      </trkpt>
      <trkpt lat="45.28302" lon="5.79139">
        <ele>1663.6</ele>
        <time>2015-07-10T11:29:51Z</time>
      </trkpt>
      <trkpt lat="45.28298" lon="5.7913">
        <ele>1667.4</ele>
        <time>2015-07-10T11:30:08Z</time>
      </trkpt>
      <trkpt lat="45.28291" lon="5.79121">
        <ele>1670.2</ele>
        <time>2015-07-10T11:30:22Z</time>
      </trkpt>
      <trkpt lat="45.28285" lon="5.79112">
        <ele>1671</ele>
        <time>2015-07-10T11:30:32Z</time>
      </trkpt>
      <trkpt lat="45.28281" lon="5.79099">
        <ele>1672.8</ele>
        <time>2015-07-10T11:30:41Z</time>
      </trkpt>
      <trkpt lat="45.28279" lon="5.79087">
        <ele>1674.2</ele>
        <time>2015-07-10T11:30:49Z</time>
      </trkpt>
      <trkpt lat="45.28277" lon="5.79073">
        <ele>1676</ele>
        <time>2015-07-10T11:30:59Z</time>
      </trkpt>
      <trkpt lat="45.28277" lon="5.79059">
        <ele>1677.6</ele>
        <time>2015-07-10T11:31:07Z</time>
      </trkpt>
      <trkpt lat="45.28276" lon="5.79048">
        <ele>1680.4</ele>
        <time>2015-07-10T11:31:16Z</time>
      </trkpt>
      <trkpt lat="45.28273" lon="5.79037">
        <ele>1683</ele>
        <time>2015-07-10T11:31:26Z</time>
      </trkpt>
      <trkpt lat="45.28273" lon="5.79027">
        <ele>1685</ele>
        <time>2015-07-10T11:31:37Z</time>
      </trkpt>
      <trkpt lat="45.2827" lon="5.79015">
        <ele>1688.2</ele>
        <time>2015-07-10T11:31:52Z</time>
      </trkpt>
      <trkpt lat="45.28277" lon="5.79005">
        <ele>1693</ele>
        <time>2015-07-10T11:32:10Z</time>
      </trkpt>
      <trkpt lat="45.2828" lon="5.79">
        <ele>1697</ele>
        <time>2015-07-10T11:32:28Z</time>
      </trkpt>
      <trkpt lat="45.28281" lon="5.78989">
        <ele>1700.2</ele>
        <time>2015-07-10T11:32:42Z</time>
      </trkpt>
      <trkpt lat="45.28289" lon="5.78985">
        <ele>1704</ele>
        <time>2015-07-10T11:32:58Z</time>
      </trkpt>
      <trkpt lat="45.28285" lon="5.78976">
        <ele>1708</ele>
        <time>2015-07-10T11:33:13Z</time>
      </trkpt>
      <trkpt lat="45.28281" lon="5.78963">
        <ele>1712.2</ele>
        <time>2015-07-10T11:33:27Z</time>
      </trkpt>
      <trkpt lat="45.28284" lon="5.78953">
        <ele>1717.4</ele>
        <time>2015-07-10T11:33:45Z</time>
      </trkpt>
      <trkpt lat="45.28277" lon="5.78944">
        <ele>1719.8</ele>
        <time>2015-07-10T11:33:58Z</time>
      </trkpt>
      <trkpt lat="45.28279" lon="5.78931">
        <ele>1725</ele>
        <time>2015-07-10T11:34:17Z</time>
      </trkpt>
      <trkpt lat="45.28281" lon="5.78922">
        <ele>1730.6</ele>
        <time>2015-07-10T11:34:34Z</time>
      </trkpt>
      <trkpt lat="45.28284" lon="5.78911">
        <ele>1735.8</ele>
        <time>2015-07-10T11:34:53Z</time>
      </trkpt>
      <trkpt lat="45.28286" lon="5.789">
        <ele>1738.8</ele>
        <time>2015-07-10T11:35:07Z</time>
      </trkpt>
      <trkpt lat="45.28294" lon="5.78896">
        <ele>1743</ele>
        <time>2015-07-10T11:35:27Z</time>
      </trkpt>
      <trkpt lat="45.28302" lon="5.78895">
        <ele>1746.2</ele>
        <time>2015-07-10T11:35:41Z</time>
      </trkpt>
      <trkpt lat="45.28307" lon="5.78886">
        <ele>1750.4</ele>
        <time>2015-07-10T11:35:57Z</time>
      </trkpt>
      <trkpt lat="45.28307" lon="5.78874">
        <ele>1754</ele>
        <time>2015-07-10T11:36:12Z</time>
      </trkpt>
      <trkpt lat="45.28309" lon="5.78861">
        <ele>1758</ele>
        <time>2015-07-10T11:36:28Z</time>
      </trkpt>
      <trkpt lat="45.28309" lon="5.78847">
        <ele>1761.2</ele>
        <time>2015-07-10T11:36:41Z</time>
      </trkpt>
      <trkpt lat="45.28308" lon="5.78834">
        <ele>1765.4</ele>
        <time>2015-07-10T11:36:56Z</time>
      </trkpt>
      <trkpt lat="45.28312" lon="5.7882">
        <ele>1769.2</ele>
        <time>2015-07-10T11:37:09Z</time>
      </trkpt>
      <trkpt lat="45.28311" lon="5.7881">
        <ele>1774</ele>
        <time>2015-07-10T11:37:25Z</time>
      </trkpt>
      <trkpt lat="45.28312" lon="5.78796">
        <ele>1777</ele>
        <time>2015-07-10T11:37:38Z</time>
      </trkpt>
      <trkpt lat="45.28318" lon="5.78784">
        <ele>1780.4</ele>
        <time>2015-07-10T11:37:52Z</time>
      </trkpt>
      <trkpt lat="45.28324" lon="5.7878">
        <ele>1785.2</ele>
        <time>2015-07-10T11:38:12Z</time>
      </trkpt>
      <trkpt lat="45.28333" lon="5.7878">
        <ele>1791</ele>
        <time>2015-07-10T11:38:33Z</time>
      </trkpt>
      <trkpt lat="45.28335" lon="5.78779">
        <ele>1795.6</ele>
        <time>2015-07-10T11:38:50Z</time>
      </trkpt>
      <trkpt lat="45.28341" lon="5.78783">
        <ele>1800.8</ele>
        <time>2015-07-10T11:39:13Z</time>
      </trkpt>
      <trkpt lat="45.28346" lon="5.78769">
        <ele>1802.4</ele>
        <time>2015-07-10T11:39:26Z</time>
      </trkpt>
      <trkpt lat="45.28353" lon="5.78753">
        <ele>1802.4</ele>
        <time>2015-07-10T11:39:35Z</time>
      </trkpt>
      <trkpt lat="45.28356" lon="5.7874">
        <ele>1803</ele>
        <time>2015-07-10T11:39:44Z</time>
      </trkpt>
      <trkpt lat="45.28352" lon="5.78728">
        <ele>1803.2</ele>
        <time>2015-07-10T11:39:55Z</time>
      </trkpt>
      <trkpt lat="45.28354" lon="5.78714">
        <ele>1804.6</ele>
        <time>2015-07-10T11:40:06Z</time>
      </trkpt>
      <trkpt lat="45.28352" lon="5.78702">
        <ele>1805.6</ele>
        <time>2015-07-10T11:40:16Z</time>
      </trkpt>
      <trkpt lat="45.28347" lon="5.78689">
        <ele>1806.8</ele>
        <time>2015-07-10T11:40:28Z</time>
      </trkpt>
      <trkpt lat="45.28343" lon="5.78677">
        <ele>1807.4</ele>
        <time>2015-07-10T11:40:36Z</time>
      </trkpt>
      <trkpt lat="45.28337" lon="5.78666">
        <ele>1807.4</ele>
        <time>2015-07-10T11:40:44Z</time>
      </trkpt>
      <trkpt lat="45.28329" lon="5.78656">
        <ele>1809.4</ele>
        <time>2015-07-10T11:40:59Z</time>
      </trkpt>
      <trkpt lat="45.28334" lon="5.7865">
        <ele>1811.8</ele>
        <time>2015-07-10T11:41:46Z</time>
      </trkpt>
      <trkpt lat="45.28343" lon="5.78643">
        <ele>1815.6</ele>
        <time>2015-07-10T11:41:59Z</time>
      </trkpt>
      <trkpt lat="45.28347" lon="5.78645">
        <ele>1819.6</ele>
        <time>2015-07-10T11:42:14Z</time>
      </trkpt>
      <trkpt lat="45.28354" lon="5.78645">
        <ele>1824.8</ele>
        <time>2015-07-10T11:42:34Z</time>
      </trkpt>
      <trkpt lat="45.28356" lon="5.78646">
        <ele>1829.2</ele>
        <time>2015-07-10T11:42:57Z</time>
      </trkpt>
      <trkpt lat="45.28362" lon="5.78651">
        <ele>1833.2</ele>
        <time>2015-07-10T11:43:17Z</time>
      </trkpt>
      <trkpt lat="45.28369" lon="5.7865">
        <ele>1837.8</ele>
        <time>2015-07-10T11:43:38Z</time>
      </trkpt>
      <trkpt lat="45.28375" lon="5.78659">
        <ele>1843.6</ele>
        <time>2015-07-10T11:44:04Z</time>
      </trkpt>
      <trkpt lat="45.28382" lon="5.78665">
        <ele>1848.8</ele>
        <time>2015-07-10T11:44:23Z</time>
      </trkpt>
      <trkpt lat="45.28393" lon="5.7867">
        <ele>1850.6</ele>
        <time>2015-07-10T11:44:34Z</time>
      </trkpt>
      <trkpt lat="45.284" lon="5.78678">
        <ele>1853.4</ele>
        <time>2015-07-10T11:44:48Z</time>
      </trkpt>
      <trkpt lat="45.28403" lon="5.78687">
        <ele>1857.2</ele>
        <time>2015-07-10T11:45:06Z</time>
      </trkpt>
      <trkpt lat="45.28414" lon="5.78681">
        <ele>1860.2</ele>
        <time>2015-07-10T11:45:22Z</time>
      </trkpt>
      <trkpt lat="45.28413" lon="5.78665">
        <ele>1865.2</ele>
        <time>2015-07-10T11:45:38Z</time>
      </trkpt>
      <trkpt lat="45.28417" lon="5.78653">
        <ele>1867.2</ele>
        <time>2015-07-10T11:45:49Z</time>
      </trkpt>
      <trkpt lat="45.28414" lon="5.78634">
        <ele>1870.2</ele>
        <time>2015-07-10T11:46:10Z</time>
      </trkpt>
      <trkpt lat="45.28419" lon="5.78629">
        <ele>1872.8</ele>
        <time>2015-07-10T11:46:25Z</time>
      </trkpt>
      <trkpt lat="45.28417" lon="5.7861">
        <ele>1876</ele>
        <time>2015-07-10T11:46:43Z</time>
      </trkpt>
      <trkpt lat="45.28427" lon="5.78612">
        <ele>1879</ele>
        <time>2015-07-10T11:46:55Z</time>
      </trkpt>
      <trkpt lat="45.28432" lon="5.78612">
        <ele>1881.6</ele>
        <time>2015-07-10T11:47:07Z</time>
      </trkpt>
      <trkpt lat="45.28439" lon="5.7862">
        <ele>1882.6</ele>
        <time>2015-07-10T11:47:14Z</time>
      </trkpt>
      <trkpt lat="45.28442" lon="5.78614">
        <ele>1885.4</ele>
        <time>2015-07-10T11:47:23Z</time>
      </trkpt>
      <trkpt lat="45.28441" lon="5.78607">
        <ele>1889.2</ele>
        <time>2015-07-10T11:47:35Z</time>
      </trkpt>
      <trkpt lat="45.28443" lon="5.78604">
        <ele>1891</ele>
        <time>2015-07-10T11:47:48Z</time>
      </trkpt>
      <trkpt lat="45.28437" lon="5.78585">
        <ele>1896.2</ele>
        <time>2015-07-10T11:48:16Z</time>
      </trkpt>
      <trkpt lat="45.28444" lon="5.78577">
        <ele>1900</ele>
        <time>2015-07-10T11:48:32Z</time>
      </trkpt>
      <trkpt lat="45.28453" lon="5.78576">
        <ele>1903.2</ele>
        <time>2015-07-10T11:48:50Z</time>
      </trkpt>
      <trkpt lat="45.28457" lon="5.78568">
        <ele>1907.8</ele>
        <time>2015-07-10T11:49:15Z</time>
      </trkpt>
      <trkpt lat="45.28456" lon="5.78555">
        <ele>1909.8</ele>
        <time>2015-07-10T11:49:40Z</time>
      </trkpt>
      <trkpt lat="45.28461" lon="5.78552">
        <ele>1918.6</ele>
        <time>2015-07-10T11:50:21Z</time>
      </trkpt>
      <trkpt lat="45.28448" lon="5.78596">
        <ele>1921.6</ele>
        <time>2015-07-10T11:50:38Z</time>
      </trkpt>
      <trkpt lat="45.28445" lon="5.78628">
        <ele>1924.6</ele>
        <time>2015-07-10T11:50:54Z</time>
      </trkpt>
      <trkpt lat="45.28451" lon="5.78634">
        <ele>1927</ele>
        <time>2015-07-10T11:51:11Z</time>
      </trkpt>
      <trkpt lat="45.28456" lon="5.7864">
        <ele>1932</ele>
        <time>2015-07-10T11:51:30Z</time>
      </trkpt>
      <trkpt lat="45.28468" lon="5.78642">
        <ele>1932.8</ele>
        <time>2015-07-10T11:51:39Z</time>
      </trkpt>
      <trkpt lat="45.28478" lon="5.78647">
        <ele>1935.6</ele>
        <time>2015-07-10T11:51:49Z</time>
      </trkpt>
      <trkpt lat="45.28489" lon="5.7865">
        <ele>1939.2</ele>
        <time>2015-07-10T11:52:01Z</time>
      </trkpt>
      <trkpt lat="45.28502" lon="5.78653">
        <ele>1941.2</ele>
        <time>2015-07-10T11:52:11Z</time>
      </trkpt>
      <trkpt lat="45.28512" lon="5.78659">
        <ele>1944.8</ele>
        <time>2015-07-10T11:52:27Z</time>
      </trkpt>
      <trkpt lat="45.28524" lon="5.78666">
        <ele>1947.2</ele>
        <time>2015-07-10T11:52:37Z</time>
      </trkpt>
      <trkpt lat="45.28532" lon="5.78669">
        <ele>1949.6</ele>
        <time>2015-07-10T11:52:45Z</time>
      </trkpt>
      <trkpt lat="45.28538" lon="5.7867">
        <ele>1952.6</ele>
        <time>2015-07-10T11:52:55Z</time>
      </trkpt>
      <trkpt lat="45.2855" lon="5.78669">
        <ele>1955.2</ele>
        <time>2015-07-10T11:53:06Z</time>
      </trkpt>
      <trkpt lat="45.28559" lon="5.7867">
        <ele>1957.8</ele>
        <time>2015-07-10T11:53:15Z</time>
      </trkpt>
      <trkpt lat="45.2857" lon="5.78669">
        <ele>1959</ele>
        <time>2015-07-10T11:53:24Z</time>
      </trkpt>
      <trkpt lat="45.28582" lon="5.78667">
        <ele>1961.4</ele>
        <time>2015-07-10T11:53:34Z</time>
      </trkpt>
      <trkpt lat="45.2859" lon="5.78673">
        <ele>1964.6</ele>
        <time>2015-07-10T11:53:44Z</time>
      </trkpt>
      <trkpt lat="45.28602" lon="5.78676">
        <ele>1969.8</ele>
        <time>2015-07-10T11:54:01Z</time>
      </trkpt>
      <trkpt lat="45.28612" lon="5.78675">
        <ele>1972</ele>
        <time>2015-07-10T11:54:10Z</time>
      </trkpt>
      <trkpt lat="45.2862" lon="5.78678">
        <ele>1974.8</ele>
        <time>2015-07-10T11:54:20Z</time>
      </trkpt>
      <trkpt lat="45.28631" lon="5.78686">
        <ele>1979.2</ele>
        <time>2015-07-10T11:54:37Z</time>
      </trkpt>
      <trkpt lat="45.28631" lon="5.78701">
        <ele>1984.2</ele>
        <time>2015-07-10T11:54:57Z</time>
      </trkpt>
      <trkpt lat="45.2863" lon="5.7871">
        <ele>1988.2</ele>
        <time>2015-07-10T11:55:13Z</time>
      </trkpt>
      <trkpt lat="45.28629" lon="5.78718">
        <ele>1992.4</ele>
        <time>2015-07-10T11:55:28Z</time>
      </trkpt>
      <trkpt lat="45.28629" lon="5.78722">
        <ele>1996</ele>
        <time>2015-07-10T11:55:42Z</time>
      </trkpt>
      <trkpt lat="45.28636" lon="5.78729">
        <ele>1999.2</ele>
        <time>2015-07-10T11:55:56Z</time>
      </trkpt>
      <trkpt lat="45.28642" lon="5.78736">
        <ele>2003.8</ele>
        <time>2015-07-10T11:56:13Z</time>
      </trkpt>
      <trkpt lat="45.28651" lon="5.7874">
        <ele>2008.4</ele>
        <time>2015-07-10T11:56:28Z</time>
      </trkpt>
      <trkpt lat="45.28648" lon="5.78751">
        <ele>2012.2</ele>
        <time>2015-07-10T11:56:44Z</time>
      </trkpt>
      <trkpt lat="45.28637" lon="5.78764">
        <ele>2015.6</ele>
        <time>2015-07-10T11:56:57Z</time>
      </trkpt>
      <trkpt lat="45.28646" lon="5.78771">
        <ele>2019.6</ele>
        <time>2015-07-10T11:57:12Z</time>
      </trkpt>
      <trkpt lat="45.28649" lon="5.78779">
        <ele>2023.2</ele>
        <time>2015-07-10T11:57:24Z</time>
      </trkpt>
      <trkpt lat="45.28651" lon="5.78787">
        <ele>2028.2</ele>
        <time>2015-07-10T11:57:44Z</time>
      </trkpt>
      <trkpt lat="45.28659" lon="5.78789">
        <ele>2029.8</ele>
        <time>2015-07-10T11:58:00Z</time>
      </trkpt>
      <trkpt lat="45.2867" lon="5.78781">
        <ele>2029.8</ele>
        <time>2015-07-10T11:58:12Z</time>
      </trkpt>
      <trkpt lat="45.28683" lon="5.78779">
        <ele>2032.2</ele>
        <time>2015-07-10T11:58:20Z</time>
      </trkpt>
      <trkpt lat="45.28694" lon="5.78782">
        <ele>2033.2</ele>
        <time>2015-07-10T11:58:25Z</time>
      </trkpt>
      <trkpt lat="45.28703" lon="5.78785">
        <ele>2034.6</ele>
        <time>2015-07-10T11:58:30Z</time>
      </trkpt>
      <trkpt lat="45.28711" lon="5.78786">
        <ele>2035.4</ele>
        <time>2015-07-10T11:58:37Z</time>
      </trkpt>
      <trkpt lat="45.28716" lon="5.7878">
        <ele>2040.2</ele>
        <time>2015-07-10T11:58:50Z</time>
      </trkpt>
      <trkpt lat="45.28726" lon="5.78784">
        <ele>2042.4</ele>
        <time>2015-07-10T11:59:04Z</time>
      </trkpt>
      <trkpt lat="45.28736" lon="5.78787">
        <ele>2043.2</ele>
        <time>2015-07-10T11:59:12Z</time>
      </trkpt>
      <trkpt lat="45.28744" lon="5.78793">
        <ele>2044.8</ele>
        <time>2015-07-10T11:59:17Z</time>
      </trkpt>
      <trkpt lat="45.28755" lon="5.788">
        <ele>2045</ele>
        <time>2015-07-10T11:59:22Z</time>
      </trkpt>
      <trkpt lat="45.28763" lon="5.78807">
        <ele>2046.6</ele>
        <time>2015-07-10T11:59:27Z</time>
      </trkpt>
      <trkpt lat="45.28771" lon="5.78814">
        <ele>2046.6</ele>
        <time>2015-07-10T11:59:35Z</time>
      </trkpt>
      <trkpt lat="45.28773" lon="5.78819">
        <ele>2047.4</ele>
        <time>2015-07-10T11:59:46Z</time>
      </trkpt>
      <trkpt lat="45.28775" lon="5.78812">
        <ele>2047.4</ele>
        <time>2015-07-10T12:00:44Z</time>
      </trkpt>
      <trkpt lat="45.28778" lon="5.7881">
        <ele>2043.2</ele>
        <time>2015-07-10T12:01:16Z</time>
      </trkpt>
      <trkpt lat="45.2878" lon="5.78799">
        <ele>2038.2</ele>
        <time>2015-07-10T12:01:38Z</time>
      </trkpt>
      <trkpt lat="45.28785" lon="5.78788">
        <ele>2033.8</ele>
        <time>2015-07-10T12:03:07Z</time>
      </trkpt>
      <trkpt lat="45.28793" lon="5.78782">
        <ele>2030.6</ele>
        <time>2015-07-10T12:03:15Z</time>
      </trkpt>
      <trkpt lat="45.28795" lon="5.78773">
        <ele>2027.2</ele>
        <time>2015-07-10T12:03:21Z</time>
      </trkpt>
      <trkpt lat="45.28795" lon="5.78761">
        <ele>2023</ele>
        <time>2015-07-10T12:03:28Z</time>
      </trkpt>
      <trkpt lat="45.28794" lon="5.7875">
        <ele>2017.6</ele>
        <time>2015-07-10T12:03:35Z</time>
      </trkpt>
      <trkpt lat="45.28804" lon="5.78744">
        <ele>2012.8</ele>
        <time>2015-07-10T12:03:42Z</time>
      </trkpt>
      <trkpt lat="45.28806" lon="5.78731">
        <ele>2007.8</ele>
        <time>2015-07-10T12:03:50Z</time>
      </trkpt>
      <trkpt lat="45.28809" lon="5.78719">
        <ele>2002.4</ele>
        <time>2015-07-10T12:03:58Z</time>
      </trkpt>
      <trkpt lat="45.2881" lon="5.78708">
        <ele>1997.2</ele>
        <time>2015-07-10T12:04:06Z</time>
      </trkpt>
      <trkpt lat="45.28813" lon="5.78696">
        <ele>1991.2</ele>
        <time>2015-07-10T12:04:15Z</time>
      </trkpt>
      <trkpt lat="45.28813" lon="5.78687">
        <ele>1987.6</ele>
        <time>2015-07-10T12:04:21Z</time>
      </trkpt>
      <trkpt lat="45.28807" lon="5.78675">
        <ele>1984.2</ele>
        <time>2015-07-10T12:04:26Z</time>
      </trkpt>
      <trkpt lat="45.28812" lon="5.78669">
        <ele>1978.8</ele>
        <time>2015-07-10T12:04:33Z</time>
      </trkpt>
      <trkpt lat="45.28816" lon="5.7866">
        <ele>1975</ele>
        <time>2015-07-10T12:04:39Z</time>
      </trkpt>
      <trkpt lat="45.2881" lon="5.78647">
        <ele>1971</ele>
        <time>2015-07-10T12:04:44Z</time>
      </trkpt>
      <trkpt lat="45.28818" lon="5.78641">
        <ele>1966</ele>
        <time>2015-07-10T12:04:50Z</time>
      </trkpt>
      <trkpt lat="45.28821" lon="5.7863">
        <ele>1961.6</ele>
        <time>2015-07-10T12:04:57Z</time>
      </trkpt>
      <trkpt lat="45.28819" lon="5.78619">
        <ele>1958.2</ele>
        <time>2015-07-10T12:05:05Z</time>
      </trkpt>
      <trkpt lat="45.2882" lon="5.78608">
        <ele>1952.4</ele>
        <time>2015-07-10T12:05:15Z</time>
      </trkpt>
      <trkpt lat="45.28824" lon="5.78601">
        <ele>1948.2</ele>
        <time>2015-07-10T12:05:21Z</time>
      </trkpt>
      <trkpt lat="45.28832" lon="5.78597">
        <ele>1941.6</ele>
        <time>2015-07-10T12:05:35Z</time>
      </trkpt>
      <trkpt lat="45.28833" lon="5.78589">
        <ele>1939</ele>
        <time>2015-07-10T12:05:42Z</time>
      </trkpt>
      <trkpt lat="45.28836" lon="5.78581">
        <ele>1934.4</ele>
        <time>2015-07-10T12:05:50Z</time>
      </trkpt>
      <trkpt lat="45.28835" lon="5.78567">
        <ele>1930.6</ele>
        <time>2015-07-10T12:05:57Z</time>
      </trkpt>
      <trkpt lat="45.28828" lon="5.78558">
        <ele>1927.4</ele>
        <time>2015-07-10T12:06:04Z</time>
      </trkpt>
      <trkpt lat="45.28833" lon="5.7855">
        <ele>1921.6</ele>
        <time>2015-07-10T12:06:16Z</time>
      </trkpt>
      <trkpt lat="45.2883" lon="5.78534">
        <ele>1915.6</ele>
        <time>2015-07-10T12:06:24Z</time>
      </trkpt>
      <trkpt lat="45.28826" lon="5.78525">
        <ele>1913.4</ele>
        <time>2015-07-10T12:06:30Z</time>
      </trkpt>
      <trkpt lat="45.28823" lon="5.78519">
        <ele>1909</ele>
        <time>2015-07-10T12:06:45Z</time>
      </trkpt>
      <trkpt lat="45.28812" lon="5.78518">
        <ele>1902.2</ele>
        <time>2015-07-10T12:07:00Z</time>
      </trkpt>
      <trkpt lat="45.28794" lon="5.78517">
        <ele>1895.8</ele>
        <time>2015-07-10T12:07:23Z</time>
      </trkpt>
      <trkpt lat="45.28787" lon="5.78508">
        <ele>1890</ele>
        <time>2015-07-10T12:07:37Z</time>
      </trkpt>
      <trkpt lat="45.2879" lon="5.78492">
        <ele>1885</ele>
        <time>2015-07-10T12:07:48Z</time>
      </trkpt>
      <trkpt lat="45.2879" lon="5.7848">
        <ele>1880.2</ele>
        <time>2015-07-10T12:08:02Z</time>
      </trkpt>
      <trkpt lat="45.28785" lon="5.78474">
        <ele>1874.8</ele>
        <time>2015-07-10T12:08:26Z</time>
      </trkpt>
      <trkpt lat="45.28776" lon="5.78465">
        <ele>1870</ele>
        <time>2015-07-10T12:08:37Z</time>
      </trkpt>
      <trkpt lat="45.28775" lon="5.78452">
        <ele>1865.2</ele>
        <time>2015-07-10T12:08:49Z</time>
      </trkpt>
      <trkpt lat="45.28771" lon="5.7844">
        <ele>1860.2</ele>
        <time>2015-07-10T12:09:03Z</time>
      </trkpt>
      <trkpt lat="45.28765" lon="5.78433">
        <ele>1854.6</ele>
        <time>2015-07-10T12:09:16Z</time>
      </trkpt>
      <trkpt lat="45.28765" lon="5.7842">
        <ele>1850</ele>
        <time>2015-07-10T12:09:26Z</time>
      </trkpt>
      <trkpt lat="45.28772" lon="5.78411">
        <ele>1844.4</ele>
        <time>2015-07-10T12:09:36Z</time>
      </trkpt>
      <trkpt lat="45.28771" lon="5.78405">
        <ele>1839.6</ele>
        <time>2015-07-10T12:09:47Z</time>
      </trkpt>
      <trkpt lat="45.2877" lon="5.78393">
        <ele>1832.4</ele>
        <time>2015-07-10T12:10:04Z</time>
      </trkpt>
      <trkpt lat="45.2876" lon="5.78385">
        <ele>1828.2</ele>
        <time>2015-07-10T12:10:18Z</time>
      </trkpt>
      <trkpt lat="45.28756" lon="5.78371">
        <ele>1822.2</ele>
        <time>2015-07-10T12:10:26Z</time>
      </trkpt>
      <trkpt lat="45.2875" lon="5.78362">
        <ele>1816.6</ele>
        <time>2015-07-10T12:10:35Z</time>
      </trkpt>
      <trkpt lat="45.28742" lon="5.78352">
        <ele>1811.6</ele>
        <time>2015-07-10T12:10:45Z</time>
      </trkpt>
      <trkpt lat="45.28734" lon="5.78346">
        <ele>1808.2</ele>
        <time>2015-07-10T12:10:51Z</time>
      </trkpt>
      <trkpt lat="45.28728" lon="5.78337">
        <ele>1804.2</ele>
        <time>2015-07-10T12:10:57Z</time>
      </trkpt>
      <trkpt lat="45.2872" lon="5.78329">
        <ele>1800</ele>
        <time>2015-07-10T12:11:03Z</time>
      </trkpt>
      <trkpt lat="45.28718" lon="5.78318">
        <ele>1795.8</ele>
        <time>2015-07-10T12:11:09Z</time>
      </trkpt>
      <trkpt lat="45.2872" lon="5.78305">
        <ele>1790.8</ele>
        <time>2015-07-10T12:11:15Z</time>
      </trkpt>
      <trkpt lat="45.28723" lon="5.78294">
        <ele>1784.2</ele>
        <time>2015-07-10T12:11:23Z</time>
      </trkpt>
      <trkpt lat="45.28726" lon="5.78279">
        <ele>1776.2</ele>
        <time>2015-07-10T12:11:34Z</time>
      </trkpt>
      <trkpt lat="45.28725" lon="5.78267">
        <ele>1770.6</ele>
        <time>2015-07-10T12:11:43Z</time>
      </trkpt>
      <trkpt lat="45.28717" lon="5.78259">
        <ele>1764</ele>
        <time>2015-07-10T12:11:53Z</time>
      </trkpt>
      <trkpt lat="45.28708" lon="5.78253">
        <ele>1762.2</ele>
        <time>2015-07-10T12:11:58Z</time>
      </trkpt>
      <trkpt lat="45.287" lon="5.78244">
        <ele>1757.6</ele>
        <time>2015-07-10T12:12:03Z</time>
      </trkpt>
      <trkpt lat="45.28693" lon="5.78238">
        <ele>1753.4</ele>
        <time>2015-07-10T12:12:08Z</time>
      </trkpt>
      <trkpt lat="45.28693" lon="5.78226">
        <ele>1749.4</ele>
        <time>2015-07-10T12:12:14Z</time>
      </trkpt>
      <trkpt lat="45.28681" lon="5.78227">
        <ele>1745.8</ele>
        <time>2015-07-10T12:12:24Z</time>
      </trkpt>
      <trkpt lat="45.2867" lon="5.78225">
        <ele>1741.8</ele>
        <time>2015-07-10T12:12:30Z</time>
      </trkpt>
      <trkpt lat="45.28666" lon="5.78213">
        <ele>1737.6</ele>
        <time>2015-07-10T12:12:36Z</time>
      </trkpt>
      <trkpt lat="45.28673" lon="5.78204">
        <ele>1732.2</ele>
        <time>2015-07-10T12:12:43Z</time>
      </trkpt>
      <trkpt lat="45.28672" lon="5.7819">
        <ele>1726.2</ele>
        <time>2015-07-10T12:12:50Z</time>
      </trkpt>
      <trkpt lat="45.28672" lon="5.78177">
        <ele>1719.8</ele>
        <time>2015-07-10T12:12:58Z</time>
      </trkpt>
      <trkpt lat="45.28676" lon="5.78164">
        <ele>1714</ele>
        <time>2015-07-10T12:13:05Z</time>
      </trkpt>
      <trkpt lat="45.2868" lon="5.7815">
        <ele>1710.2</ele>
        <time>2015-07-10T12:13:09Z</time>
      </trkpt>
      <trkpt lat="45.28687" lon="5.78136">
        <ele>1707</ele>
        <time>2015-07-10T12:13:14Z</time>
      </trkpt>
      <trkpt lat="45.28693" lon="5.78127">
        <ele>1703.2</ele>
        <time>2015-07-10T12:13:19Z</time>
      </trkpt>
      <trkpt lat="45.28697" lon="5.78114">
        <ele>1699.2</ele>
        <time>2015-07-10T12:13:25Z</time>
      </trkpt>
      <trkpt lat="45.28689" lon="5.78113">
        <ele>1695.8</ele>
        <time>2015-07-10T12:13:31Z</time>
      </trkpt>
      <trkpt lat="45.28679" lon="5.78117">
        <ele>1692.6</ele>
        <time>2015-07-10T12:13:36Z</time>
      </trkpt>
      <trkpt lat="45.28669" lon="5.78117">
        <ele>1691.2</ele>
        <time>2015-07-10T12:13:41Z</time>
      </trkpt>
      <trkpt lat="45.2866" lon="5.78116">
        <ele>1689.4</ele>
        <time>2015-07-10T12:13:47Z</time>
      </trkpt>
      <trkpt lat="45.28662" lon="5.78102">
        <ele>1684.4</ele>
        <time>2015-07-10T12:13:53Z</time>
      </trkpt>
      <trkpt lat="45.28662" lon="5.7809">
        <ele>1678.8</ele>
        <time>2015-07-10T12:13:59Z</time>
      </trkpt>
      <trkpt lat="45.2866" lon="5.78077">
        <ele>1673.2</ele>
        <time>2015-07-10T12:14:08Z</time>
      </trkpt>
      <trkpt lat="45.28655" lon="5.78069">
        <ele>1669.4</ele>
        <time>2015-07-10T12:14:14Z</time>
      </trkpt>
      <trkpt lat="45.28654" lon="5.78057">
        <ele>1663.4</ele>
        <time>2015-07-10T12:14:21Z</time>
      </trkpt>
      <trkpt lat="45.28652" lon="5.78044">
        <ele>1659.2</ele>
        <time>2015-07-10T12:14:27Z</time>
      </trkpt>
      <trkpt lat="45.28649" lon="5.78031">
        <ele>1653.2</ele>
        <time>2015-07-10T12:14:35Z</time>
      </trkpt>
      <trkpt lat="45.28642" lon="5.78023">
        <ele>1648.4</ele>
        <time>2015-07-10T12:14:40Z</time>
      </trkpt>
      <trkpt lat="45.28637" lon="5.78012">
        <ele>1643.2</ele>
        <time>2015-07-10T12:14:46Z</time>
      </trkpt>
      <trkpt lat="45.28631" lon="5.78001">
        <ele>1638.6</ele>
        <time>2015-07-10T12:14:52Z</time>
      </trkpt>
      <trkpt lat="45.28629" lon="5.77988">
        <ele>1633.6</ele>
        <time>2015-07-10T12:14:58Z</time>
      </trkpt>
      <trkpt lat="45.2863" lon="5.77978">
        <ele>1628.8</ele>
        <time>2015-07-10T12:15:04Z</time>
      </trkpt>
      <trkpt lat="45.2863" lon="5.77965">
        <ele>1622.8</ele>
        <time>2015-07-10T12:15:10Z</time>
      </trkpt>
      <trkpt lat="45.28633" lon="5.77951">
        <ele>1617.6</ele>
        <time>2015-07-10T12:15:16Z</time>
      </trkpt>
      <trkpt lat="45.28634" lon="5.77943">
        <ele>1612.2</ele>
        <time>2015-07-10T12:15:25Z</time>
      </trkpt>
      <trkpt lat="45.28626" lon="5.77932">
        <ele>1606.8</ele>
        <time>2015-07-10T12:15:33Z</time>
      </trkpt>
      <trkpt lat="45.28625" lon="5.77918">
        <ele>1603</ele>
        <time>2015-07-10T12:15:39Z</time>
      </trkpt>
      <trkpt lat="45.28628" lon="5.77908">
        <ele>1597</ele>
        <time>2015-07-10T12:15:46Z</time>
      </trkpt>
      <trkpt lat="45.2863" lon="5.779">
        <ele>1592.8</ele>
        <time>2015-07-10T12:15:53Z</time>
      </trkpt>
      <trkpt lat="45.28637" lon="5.77892">
        <ele>1588.6</ele>
        <time>2015-07-10T12:16:00Z</time>
      </trkpt>
      <trkpt lat="45.28646" lon="5.77885">
        <ele>1584.2</ele>
        <time>2015-07-10T12:16:11Z</time>
      </trkpt>
      <trkpt lat="45.28658" lon="5.77868">
        <ele>1582</ele>
        <time>2015-07-10T12:16:18Z</time>
      </trkpt>
      <trkpt lat="45.28667" lon="5.7786">
        <ele>1579.2</ele>
        <time>2015-07-10T12:16:23Z</time>
      </trkpt>
      <trkpt lat="45.28678" lon="5.77853">
        <ele>1576.6</ele>
        <time>2015-07-10T12:16:29Z</time>
      </trkpt>
      <trkpt lat="45.28688" lon="5.77851">
        <ele>1573.4</ele>
        <time>2015-07-10T12:16:33Z</time>
      </trkpt>
      <trkpt lat="45.28699" lon="5.77847">
        <ele>1570.8</ele>
        <time>2015-07-10T12:16:37Z</time>
      </trkpt>
      <trkpt lat="45.28711" lon="5.77845">
        <ele>1569.8</ele>
        <time>2015-07-10T12:16:41Z</time>
      </trkpt>
      <trkpt lat="45.28723" lon="5.77842">
        <ele>1567</ele>
        <time>2015-07-10T12:16:45Z</time>
      </trkpt>
      <trkpt lat="45.28735" lon="5.7784">
        <ele>1565.4</ele>
        <time>2015-07-10T12:16:49Z</time>
      </trkpt>
      <trkpt lat="45.28747" lon="5.77837">
        <ele>1562.8</ele>
        <time>2015-07-10T12:16:53Z</time>
      </trkpt>
      <trkpt lat="45.28758" lon="5.77833">
        <ele>1560.4</ele>
        <time>2015-07-10T12:16:58Z</time>
      </trkpt>
      <trkpt lat="45.28769" lon="5.77827">
        <ele>1557</ele>
        <time>2015-07-10T12:17:03Z</time>
      </trkpt>
      <trkpt lat="45.28781" lon="5.77819">
        <ele>1555.6</ele>
        <time>2015-07-10T12:17:08Z</time>
      </trkpt>
      <trkpt lat="45.28795" lon="5.77813">
        <ele>1552</ele>
        <time>2015-07-10T12:17:13Z</time>
      </trkpt>
      <trkpt lat="45.28807" lon="5.77806">
        <ele>1549.8</ele>
        <time>2015-07-10T12:17:17Z</time>
      </trkpt>
      <trkpt lat="45.28819" lon="5.77794">
        <ele>1548.6</ele>
        <time>2015-07-10T12:17:21Z</time>
      </trkpt>
      <trkpt lat="45.28831" lon="5.77786">
        <ele>1545.2</ele>
        <time>2015-07-10T12:17:25Z</time>
      </trkpt>
      <trkpt lat="45.28845" lon="5.77778">
        <ele>1543.4</ele>
        <time>2015-07-10T12:17:29Z</time>
      </trkpt>
      <trkpt lat="45.28857" lon="5.77773">
        <ele>1542.4</ele>
        <time>2015-07-10T12:17:33Z</time>
      </trkpt>
      <trkpt lat="45.28868" lon="5.7777">
        <ele>1539.8</ele>
        <time>2015-07-10T12:17:37Z</time>
      </trkpt>
      <trkpt lat="45.28879" lon="5.77768">
        <ele>1537.4</ele>
        <time>2015-07-10T12:17:41Z</time>
      </trkpt>
      <trkpt lat="45.28889" lon="5.77766">
        <ele>1535.4</ele>
        <time>2015-07-10T12:17:45Z</time>
      </trkpt>
      <trkpt lat="45.28901" lon="5.77763">
        <ele>1532.6</ele>
        <time>2015-07-10T12:17:49Z</time>
      </trkpt>
      <trkpt lat="45.28912" lon="5.77763">
        <ele>1530.4</ele>
        <time>2015-07-10T12:17:53Z</time>
      </trkpt>
      <trkpt lat="45.28922" lon="5.77761">
        <ele>1528.2</ele>
        <time>2015-07-10T12:17:57Z</time>
      </trkpt>
      <trkpt lat="45.28934" lon="5.77761">
        <ele>1526.6</ele>
        <time>2015-07-10T12:18:01Z</time>
      </trkpt>
      <trkpt lat="45.28947" lon="5.77764">
        <ele>1524.2</ele>
        <time>2015-07-10T12:18:05Z</time>
      </trkpt>
      <trkpt lat="45.28959" lon="5.77764">
        <ele>1522.4</ele>
        <time>2015-07-10T12:18:09Z</time>
      </trkpt>
      <trkpt lat="45.2897" lon="5.77766">
        <ele>1520</ele>
        <time>2015-07-10T12:18:14Z</time>
      </trkpt>
      <trkpt lat="45.28981" lon="5.77762">
        <ele>1516.8</ele>
        <time>2015-07-10T12:18:19Z</time>
      </trkpt>
      <trkpt lat="45.28993" lon="5.77758">
        <ele>1515.6</ele>
        <time>2015-07-10T12:18:24Z</time>
      </trkpt>
      <trkpt lat="45.29008" lon="5.77753">
        <ele>1512</ele>
        <time>2015-07-10T12:18:29Z</time>
      </trkpt>
      <trkpt lat="45.29026" lon="5.77754">
        <ele>1510.6</ele>
        <time>2015-07-10T12:18:34Z</time>
      </trkpt>
      <trkpt lat="45.29042" lon="5.77755">
        <ele>1508.4</ele>
        <time>2015-07-10T12:18:38Z</time>
      </trkpt>
      <trkpt lat="45.29055" lon="5.77754">
        <ele>1506.4</ele>
        <time>2015-07-10T12:18:42Z</time>
      </trkpt>
      <trkpt lat="45.29066" lon="5.77752">
        <ele>1503.2</ele>
        <time>2015-07-10T12:18:46Z</time>
      </trkpt>
      <trkpt lat="45.29079" lon="5.77754">
        <ele>1499.8</ele>
        <time>2015-07-10T12:18:51Z</time>
      </trkpt>
      <trkpt lat="45.29093" lon="5.77752">
        <ele>1496.8</ele>
        <time>2015-07-10T12:18:56Z</time>
      </trkpt>
      <trkpt lat="45.29106" lon="5.77762">
        <ele>1495</ele>
        <time>2015-07-10T12:19:00Z</time>
      </trkpt>
      <trkpt lat="45.29113" lon="5.77777">
        <ele>1494.4</ele>
        <time>2015-07-10T12:19:04Z</time>
      </trkpt>
      <trkpt lat="45.29114" lon="5.77791">
        <ele>1493</ele>
        <time>2015-07-10T12:19:08Z</time>
      </trkpt>
      <trkpt lat="45.29116" lon="5.77805">
        <ele>1491.4</ele>
        <time>2015-07-10T12:19:12Z</time>
      </trkpt>
      <trkpt lat="45.29125" lon="5.77818">
        <ele>1488.2</ele>
        <time>2015-07-10T12:19:16Z</time>
      </trkpt>
      <trkpt lat="45.29132" lon="5.77829">
        <ele>1486.2</ele>
        <time>2015-07-10T12:19:21Z</time>
      </trkpt>
      <trkpt lat="45.29141" lon="5.77841">
        <ele>1484</ele>
        <time>2015-07-10T12:19:26Z</time>
      </trkpt>
      <trkpt lat="45.29154" lon="5.7785">
        <ele>1482.6</ele>
        <time>2015-07-10T12:19:31Z</time>
      </trkpt>
      <trkpt lat="45.29165" lon="5.77858">
        <ele>1479.8</ele>
        <time>2015-07-10T12:19:36Z</time>
      </trkpt>
      <trkpt lat="45.29172" lon="5.77871">
        <ele>1478.4</ele>
        <time>2015-07-10T12:19:40Z</time>
      </trkpt>
      <trkpt lat="45.2918" lon="5.77882">
        <ele>1476.8</ele>
        <time>2015-07-10T12:19:45Z</time>
      </trkpt>
      <trkpt lat="45.29187" lon="5.77894">
        <ele>1473.4</ele>
        <time>2015-07-10T12:19:49Z</time>
      </trkpt>
      <trkpt lat="45.29195" lon="5.77903">
        <ele>1470.8</ele>
        <time>2015-07-10T12:19:54Z</time>
      </trkpt>
      <trkpt lat="45.29203" lon="5.77911">
        <ele>1467.6</ele>
        <time>2015-07-10T12:20:00Z</time>
      </trkpt>
      <trkpt lat="45.29213" lon="5.77921">
        <ele>1466.8</ele>
        <time>2015-07-10T12:20:05Z</time>
      </trkpt>
      <trkpt lat="45.29227" lon="5.77932">
        <ele>1464.2</ele>
        <time>2015-07-10T12:20:09Z</time>
      </trkpt>
      <trkpt lat="45.29241" lon="5.77945">
        <ele>1461.8</ele>
        <time>2015-07-10T12:20:13Z</time>
      </trkpt>
      <trkpt lat="45.2925" lon="5.77956">
        <ele>1459.6</ele>
        <time>2015-07-10T12:20:17Z</time>
      </trkpt>
      <trkpt lat="45.29258" lon="5.77967">
        <ele>1458</ele>
        <time>2015-07-10T12:20:21Z</time>
      </trkpt>
      <trkpt lat="45.29275" lon="5.77982">
        <ele>1454.8</ele>
        <time>2015-07-10T12:20:26Z</time>
      </trkpt>
      <trkpt lat="45.29289" lon="5.77991">
        <ele>1453.6</ele>
        <time>2015-07-10T12:20:29Z</time>
      </trkpt>
      <trkpt lat="45.29297" lon="5.77998">
        <ele>1451.6</ele>
        <time>2015-07-10T12:20:32Z</time>
      </trkpt>
      <trkpt lat="45.29307" lon="5.78007">
        <ele>1449.8</ele>
        <time>2015-07-10T12:20:36Z</time>
      </trkpt>
      <trkpt lat="45.29318" lon="5.78012">
        <ele>1448</ele>
        <time>2015-07-10T12:20:40Z</time>
      </trkpt>
      <trkpt lat="45.29347" lon="5.78024">
        <ele>1444.8</ele>
        <time>2015-07-10T12:20:44Z</time>
      </trkpt>
      <trkpt lat="45.2936" lon="5.78035">
        <ele>1443.4</ele>
        <time>2015-07-10T12:20:47Z</time>
      </trkpt>
      <trkpt lat="45.29368" lon="5.7805">
        <ele>1441.8</ele>
        <time>2015-07-10T12:20:51Z</time>
      </trkpt>
      <trkpt lat="45.29372" lon="5.78061">
        <ele>1440.4</ele>
        <time>2015-07-10T12:20:55Z</time>
      </trkpt>
      <trkpt lat="45.29383" lon="5.78068">
        <ele>1437.8</ele>
        <time>2015-07-10T12:21:00Z</time>
      </trkpt>
      <trkpt lat="45.29393" lon="5.78076">
        <ele>1436.2</ele>
        <time>2015-07-10T12:21:04Z</time>
      </trkpt>
      <trkpt lat="45.29408" lon="5.78083">
        <ele>1434</ele>
        <time>2015-07-10T12:21:08Z</time>
      </trkpt>
      <trkpt lat="45.29417" lon="5.78092">
        <ele>1431</ele>
        <time>2015-07-10T12:21:11Z</time>
      </trkpt>
      <trkpt lat="45.29423" lon="5.78104">
        <ele>1428.2</ele>
        <time>2015-07-10T12:21:15Z</time>
      </trkpt>
      <trkpt lat="45.29432" lon="5.78109">
        <ele>1422.4</ele>
        <time>2015-07-10T12:21:20Z</time>
      </trkpt>
      <trkpt lat="45.29438" lon="5.78115">
        <ele>1418.2</ele>
        <time>2015-07-10T12:21:25Z</time>
      </trkpt>
      <trkpt lat="45.29447" lon="5.78124">
        <ele>1415.2</ele>
        <time>2015-07-10T12:21:30Z</time>
      </trkpt>
      <trkpt lat="45.29464" lon="5.7813">
        <ele>1411.6</ele>
        <time>2015-07-10T12:21:34Z</time>
      </trkpt>
      <trkpt lat="45.29476" lon="5.78137">
        <ele>1408.6</ele>
        <time>2015-07-10T12:21:37Z</time>
      </trkpt>
      <trkpt lat="45.29487" lon="5.78142">
        <ele>1405.6</ele>
        <time>2015-07-10T12:21:41Z</time>
      </trkpt>
      <trkpt lat="45.29489" lon="5.7813">
        <ele>1402.6</ele>
        <time>2015-07-10T12:21:46Z</time>
      </trkpt>
      <trkpt lat="45.29491" lon="5.78119">
        <ele>1400.4</ele>
        <time>2015-07-10T12:21:51Z</time>
      </trkpt>
      <trkpt lat="45.29499" lon="5.78109">
        <ele>1398.6</ele>
        <time>2015-07-10T12:21:56Z</time>
      </trkpt>
      <trkpt lat="45.29493" lon="5.78117">
        <ele>1394.4</ele>
        <time>2015-07-10T12:22:03Z</time>
      </trkpt>
      <trkpt lat="45.29505" lon="5.78125">
        <ele>1392.2</ele>
        <time>2015-07-10T12:22:07Z</time>
      </trkpt>
      <trkpt lat="45.29517" lon="5.78131">
        <ele>1390.4</ele>
        <time>2015-07-10T12:22:10Z</time>
      </trkpt>
      <trkpt lat="45.29524" lon="5.78139">
        <ele>1388.8</ele>
        <time>2015-07-10T12:22:13Z</time>
      </trkpt>
      <trkpt lat="45.29528" lon="5.78152">
        <ele>1388</ele>
        <time>2015-07-10T12:22:19Z</time>
      </trkpt>
      <trkpt lat="45.29534" lon="5.78164">
        <ele>1386</ele>
        <time>2015-07-10T12:22:23Z</time>
      </trkpt>
      <trkpt lat="45.29538" lon="5.7818">
        <ele>1383.8</ele>
        <time>2015-07-10T12:22:27Z</time>
      </trkpt>
      <trkpt lat="45.2954" lon="5.78195">
        <ele>1382.2</ele>
        <time>2015-07-10T12:22:31Z</time>
      </trkpt>
      <trkpt lat="45.29543" lon="5.78208">
        <ele>1380.4</ele>
        <time>2015-07-10T12:22:35Z</time>
      </trkpt>
      <trkpt lat="45.29549" lon="5.78206">
        <ele>1378.4</ele>
        <time>2015-07-10T12:22:42Z</time>
      </trkpt>
      <trkpt lat="45.29557" lon="5.78195">
        <ele>1374.8</ele>
        <time>2015-07-10T12:22:46Z</time>
      </trkpt>
      <trkpt lat="45.2956" lon="5.78185">
        <ele>1373.8</ele>
        <time>2015-07-10T12:22:49Z</time>
      </trkpt>
      <trkpt lat="45.29568" lon="5.78176">
        <ele>1373</ele>
        <time>2015-07-10T12:22:52Z</time>
      </trkpt>
      <trkpt lat="45.29572" lon="5.78167">
        <ele>1371.8</ele>
        <time>2015-07-10T12:22:55Z</time>
      </trkpt>
      <trkpt lat="45.2957" lon="5.78152">
        <ele>1369.8</ele>
        <time>2015-07-10T12:22:59Z</time>
      </trkpt>
      <trkpt lat="45.29574" lon="5.78136">
        <ele>1367.8</ele>
        <time>2015-07-10T12:23:04Z</time>
      </trkpt>
      <trkpt lat="45.29578" lon="5.78122">
        <ele>1365</ele>
        <time>2015-07-10T12:23:08Z</time>
      </trkpt>
      <trkpt lat="45.2958" lon="5.7811">
        <ele>1363.4</ele>
        <time>2015-07-10T12:23:12Z</time>
      </trkpt>
      <trkpt lat="45.29585" lon="5.78101">
        <ele>1360.6</ele>
        <time>2015-07-10T12:23:17Z</time>
      </trkpt>
      <trkpt lat="45.29585" lon="5.78107">
        <ele>1358.6</ele>
        <time>2015-07-10T12:23:22Z</time>
      </trkpt>
      <trkpt lat="45.29591" lon="5.78119">
        <ele>1356.4</ele>
        <time>2015-07-10T12:23:26Z</time>
      </trkpt>
      <trkpt lat="45.29596" lon="5.78129">
        <ele>1354.8</ele>
        <time>2015-07-10T12:23:29Z</time>
      </trkpt>
      <trkpt lat="45.29599" lon="5.78143">
        <ele>1353.2</ele>
        <time>2015-07-10T12:23:33Z</time>
      </trkpt>
      <trkpt lat="45.296" lon="5.78156">
        <ele>1351.4</ele>
        <time>2015-07-10T12:23:36Z</time>
      </trkpt>
      <trkpt lat="45.29603" lon="5.78168">
        <ele>1349.6</ele>
        <time>2015-07-10T12:23:40Z</time>
      </trkpt>
      <trkpt lat="45.29605" lon="5.7818">
        <ele>1347.4</ele>
        <time>2015-07-10T12:23:45Z</time>
      </trkpt>
      <trkpt lat="45.29611" lon="5.78193">
        <ele>1346</ele>
        <time>2015-07-10T12:23:49Z</time>
      </trkpt>
      <trkpt lat="45.29615" lon="5.78207">
        <ele>1344.6</ele>
        <time>2015-07-10T12:23:53Z</time>
      </trkpt>
      <trkpt lat="45.29617" lon="5.78223">
        <ele>1344.4</ele>
        <time>2015-07-10T12:23:57Z</time>
      </trkpt>
      <trkpt lat="45.29606" lon="5.78234">
        <ele>1341.8</ele>
        <time>2015-07-10T12:24:02Z</time>
      </trkpt>
      <trkpt lat="45.2961" lon="5.78248">
        <ele>1339.8</ele>
        <time>2015-07-10T12:24:08Z</time>
      </trkpt>
      <trkpt lat="45.29616" lon="5.78261">
        <ele>1337.6</ele>
        <time>2015-07-10T12:24:12Z</time>
      </trkpt>
      <trkpt lat="45.29616" lon="5.78277">
        <ele>1335.4</ele>
        <time>2015-07-10T12:24:16Z</time>
      </trkpt>
      <trkpt lat="45.29618" lon="5.7829">
        <ele>1333.4</ele>
        <time>2015-07-10T12:24:20Z</time>
      </trkpt>
      <trkpt lat="45.2962" lon="5.78305">
        <ele>1329.4</ele>
        <time>2015-07-10T12:24:25Z</time>
      </trkpt>
      <trkpt lat="45.29621" lon="5.78326">
        <ele>1327.8</ele>
        <time>2015-07-10T12:24:32Z</time>
      </trkpt>
      <trkpt lat="45.29631" lon="5.78337">
        <ele>1326</ele>
        <time>2015-07-10T12:24:37Z</time>
      </trkpt>
      <trkpt lat="45.29643" lon="5.78343">
        <ele>1324</ele>
        <time>2015-07-10T12:24:41Z</time>
      </trkpt>
      <trkpt lat="45.2965" lon="5.78355">
        <ele>1322.6</ele>
        <time>2015-07-10T12:24:46Z</time>
      </trkpt>
      <trkpt lat="45.29657" lon="5.78367">
        <ele>1321</ele>
        <time>2015-07-10T12:24:50Z</time>
      </trkpt>
      <trkpt lat="45.29668" lon="5.78378">
        <ele>1318.8</ele>
        <time>2015-07-10T12:24:54Z</time>
      </trkpt>
      <trkpt lat="45.29678" lon="5.78372">
        <ele>1316.2</ele>
        <time>2015-07-10T12:24:58Z</time>
      </trkpt>
      <trkpt lat="45.29683" lon="5.78363">
        <ele>1314.4</ele>
        <time>2015-07-10T12:25:01Z</time>
      </trkpt>
      <trkpt lat="45.29686" lon="5.78353">
        <ele>1312</ele>
        <time>2015-07-10T12:25:05Z</time>
      </trkpt>
      <trkpt lat="45.29687" lon="5.78339">
        <ele>1309.6</ele>
        <time>2015-07-10T12:25:10Z</time>
      </trkpt>
      <trkpt lat="45.29689" lon="5.78326">
        <ele>1306</ele>
        <time>2015-07-10T12:25:15Z</time>
      </trkpt>
      <trkpt lat="45.29692" lon="5.78314">
        <ele>1301.4</ele>
        <time>2015-07-10T12:25:23Z</time>
      </trkpt>
      <trkpt lat="45.29699" lon="5.78311">
        <ele>1296.4</ele>
        <time>2015-07-10T12:25:30Z</time>
      </trkpt>
      <trkpt lat="45.29711" lon="5.78309">
        <ele>1293.2</ele>
        <time>2015-07-10T12:25:35Z</time>
      </trkpt>
      <trkpt lat="45.29724" lon="5.78306">
        <ele>1290.2</ele>
        <time>2015-07-10T12:25:40Z</time>
      </trkpt>
      <trkpt lat="45.29734" lon="5.78299">
        <ele>1285.8</ele>
        <time>2015-07-10T12:25:46Z</time>
      </trkpt>
      <trkpt lat="45.2974" lon="5.78293">
        <ele>1282.4</ele>
        <time>2015-07-10T12:25:51Z</time>
      </trkpt>
      <trkpt lat="45.29748" lon="5.78283">
        <ele>1279.2</ele>
        <time>2015-07-10T12:25:57Z</time>
      </trkpt>
      <trkpt lat="45.29755" lon="5.78276">
        <ele>1274</ele>
        <time>2015-07-10T12:26:06Z</time>
      </trkpt>
      <trkpt lat="45.29765" lon="5.78272">
        <ele>1269.2</ele>
        <time>2015-07-10T12:26:13Z</time>
      </trkpt>
      <trkpt lat="45.29775" lon="5.78266">
        <ele>1265.6</ele>
        <time>2015-07-10T12:26:19Z</time>
      </trkpt>
      <trkpt lat="45.29785" lon="5.78262">
        <ele>1262.4</ele>
        <time>2015-07-10T12:26:23Z</time>
      </trkpt>
      <trkpt lat="45.29795" lon="5.78256">
        <ele>1259.4</ele>
        <time>2015-07-10T12:26:28Z</time>
      </trkpt>
      <trkpt lat="45.29803" lon="5.78248">
        <ele>1256.8</ele>
        <time>2015-07-10T12:26:34Z</time>
      </trkpt>
      <trkpt lat="45.29809" lon="5.78235">
        <ele>1254.6</ele>
        <time>2015-07-10T12:26:47Z</time>
      </trkpt>
      <trkpt lat="45.29812" lon="5.78221">
        <ele>1256.8</ele>
        <time>2015-07-10T12:26:59Z</time>
      </trkpt>
      <trkpt lat="45.29823" lon="5.78212">
        <ele>1257</ele>
        <time>2015-07-10T12:27:06Z</time>
      </trkpt>
      <trkpt lat="45.29832" lon="5.78203">
        <ele>1253.4</ele>
        <time>2015-07-10T12:27:13Z</time>
      </trkpt>
      <trkpt lat="45.29843" lon="5.78195">
        <ele>1248.6</ele>
        <time>2015-07-10T12:27:20Z</time>
      </trkpt>
      <trkpt lat="45.29853" lon="5.78189">
        <ele>1245.2</ele>
        <time>2015-07-10T12:27:25Z</time>
      </trkpt>
      <trkpt lat="45.29862" lon="5.78185">
        <ele>1242.2</ele>
        <time>2015-07-10T12:27:31Z</time>
      </trkpt>
      <trkpt lat="45.29876" lon="5.78184">
        <ele>1235.8</ele>
        <time>2015-07-10T12:27:40Z</time>
      </trkpt>
      <trkpt lat="45.29885" lon="5.78184">
        <ele>1229.2</ele>
        <time>2015-07-10T12:27:50Z</time>
      </trkpt>
      <trkpt lat="45.29895" lon="5.78178">
        <ele>1224.6</ele>
        <time>2015-07-10T12:27:56Z</time>
      </trkpt>
      <trkpt lat="45.29901" lon="5.78172">
        <ele>1221</ele>
        <time>2015-07-10T12:28:03Z</time>
      </trkpt>
      <trkpt lat="45.29912" lon="5.78163">
        <ele>1217</ele>
        <time>2015-07-10T12:28:10Z</time>
      </trkpt>
      <trkpt lat="45.29921" lon="5.78159">
        <ele>1212.4</ele>
        <time>2015-07-10T12:28:17Z</time>
      </trkpt>
      <trkpt lat="45.29933" lon="5.7816">
        <ele>1206.2</ele>
        <time>2015-07-10T12:28:26Z</time>
      </trkpt>
      <trkpt lat="45.29947" lon="5.78154">
        <ele>1202.8</ele>
        <time>2015-07-10T12:28:35Z</time>
      </trkpt>
      <trkpt lat="45.29959" lon="5.78153">
        <ele>1199.4</ele>
        <time>2015-07-10T12:28:42Z</time>
      </trkpt>
      <trkpt lat="45.2997" lon="5.78158">
        <ele>1197.6</ele>
        <time>2015-07-10T12:28:49Z</time>
      </trkpt>
      <trkpt lat="45.2998" lon="5.78169">
        <ele>1195.8</ele>
        <time>2015-07-10T12:28:54Z</time>
      </trkpt>
      <trkpt lat="45.29987" lon="5.7818">
        <ele>1192.6</ele>
        <time>2015-07-10T12:28:59Z</time>
      </trkpt>
      <trkpt lat="45.29991" lon="5.78179">
        <ele>1187.2</ele>
        <time>2015-07-10T12:29:14Z</time>
      </trkpt>
      <trkpt lat="45.29987" lon="5.78188">
        <ele>1184.2</ele>
        <time>2015-07-10T12:29:48Z</time>
      </trkpt>
      <trkpt lat="45.29995" lon="5.78183">
        <ele>1182</ele>
        <time>2015-07-10T12:30:36Z</time>
      </trkpt>
      <trkpt lat="45.29991" lon="5.7817">
        <ele>1179.8</ele>
        <time>2015-07-10T12:30:50Z</time>
      </trkpt>
      <trkpt lat="45.29992" lon="5.78155">
        <ele>1178.6</ele>
        <time>2015-07-10T12:30:59Z</time>
      </trkpt>
      <trkpt lat="45.2999" lon="5.78149">
        <ele>1176.6</ele>
        <time>2015-07-10T12:31:12Z</time>
      </trkpt>
      <trkpt lat="45.30006" lon="5.78143">
        <ele>1176.6</ele>
        <time>2015-07-10T12:31:26Z</time>
      </trkpt>
      <trkpt lat="45.30029" lon="5.78141">
        <ele>1171.8</ele>
        <time>2015-07-10T12:31:43Z</time>
      </trkpt>
      <trkpt lat="45.30045" lon="5.78137">
        <ele>1170.4</ele>
        <time>2015-07-10T12:32:04Z</time>
      </trkpt>
      <trkpt lat="45.30048" lon="5.78126">
        <ele>1166.8</ele>
        <time>2015-07-10T12:32:10Z</time>
      </trkpt>
      <trkpt lat="45.30051" lon="5.78113">
        <ele>1162.8</ele>
        <time>2015-07-10T12:32:17Z</time>
      </trkpt>
      <trkpt lat="45.30061" lon="5.78104">
        <ele>1159</ele>
        <time>2015-07-10T12:32:25Z</time>
      </trkpt>
      <trkpt lat="45.30072" lon="5.78095">
        <ele>1157</ele>
        <time>2015-07-10T12:32:32Z</time>
      </trkpt>
      <trkpt lat="45.3007" lon="5.7808">
        <ele>1155.2</ele>
        <time>2015-07-10T12:32:37Z</time>
      </trkpt>
      <trkpt lat="45.30067" lon="5.78067">
        <ele>1154.2</ele>
        <time>2015-07-10T12:32:41Z</time>
      </trkpt>
      <trkpt lat="45.30068" lon="5.78055">
        <ele>1154.2</ele>
        <time>2015-07-10T12:32:48Z</time>
      </trkpt>
      <trkpt lat="45.30064" lon="5.78042">
        <ele>1153.6</ele>
        <time>2015-07-10T12:32:52Z</time>
      </trkpt>
      <trkpt lat="45.30058" lon="5.78033">
        <ele>1152.6</ele>
        <time>2015-07-10T12:32:56Z</time>
      </trkpt>
      <trkpt lat="45.30048" lon="5.78025">
        <ele>1151.2</ele>
        <time>2015-07-10T12:33:00Z</time>
      </trkpt>
      <trkpt lat="45.30041" lon="5.78019">
        <ele>1148.6</ele>
        <time>2015-07-10T12:33:04Z</time>
      </trkpt>
      <trkpt lat="45.30036" lon="5.78002">
        <ele>1145.6</ele>
        <time>2015-07-10T12:33:08Z</time>
      </trkpt>
      <trkpt lat="45.30042" lon="5.77992">
        <ele>1143.8</ele>
        <time>2015-07-10T12:33:11Z</time>
      </trkpt>
      <trkpt lat="45.30052" lon="5.77989">
        <ele>1143</ele>
        <time>2015-07-10T12:33:14Z</time>
      </trkpt>
      <trkpt lat="45.30062" lon="5.77989">
        <ele>1142.8</ele>
        <time>2015-07-10T12:33:17Z</time>
      </trkpt>
      <trkpt lat="45.30071" lon="5.77987">
        <ele>1142.8</ele>
        <time>2015-07-10T12:33:20Z</time>
      </trkpt>
      <trkpt lat="45.30081" lon="5.77987">
        <ele>1142.8</ele>
        <time>2015-07-10T12:33:23Z</time>
      </trkpt>
      <trkpt lat="45.3009" lon="5.77986">
        <ele>1142.8</ele>
        <time>2015-07-10T12:33:27Z</time>
      </trkpt>
      <trkpt lat="45.301" lon="5.77986">
        <ele>1142</ele>
        <time>2015-07-10T12:33:33Z</time>
      </trkpt>
      <trkpt lat="45.30112" lon="5.77987">
        <ele>1141.4</ele>
        <time>2015-07-10T12:33:37Z</time>
      </trkpt>
      <trkpt lat="45.30121" lon="5.77988">
        <ele>1140</ele>
        <time>2015-07-10T12:33:42Z</time>
      </trkpt>
      <trkpt lat="45.30138" lon="5.77982">
        <ele>1139</ele>
        <time>2015-07-10T12:33:46Z</time>
      </trkpt>
      <trkpt lat="45.30147" lon="5.77974">
        <ele>1136.2</ele>
        <time>2015-07-10T12:33:49Z</time>
      </trkpt>
      <trkpt lat="45.30155" lon="5.77967">
        <ele>1133.4</ele>
        <time>2015-07-10T12:33:52Z</time>
      </trkpt>
      <trkpt lat="45.30167" lon="5.77959">
        <ele>1132.2</ele>
        <time>2015-07-10T12:33:56Z</time>
      </trkpt>
      <trkpt lat="45.30179" lon="5.77957">
        <ele>1129.8</ele>
        <time>2015-07-10T12:34:00Z</time>
      </trkpt>
      <trkpt lat="45.30192" lon="5.77958">
        <ele>1127.6</ele>
        <time>2015-07-10T12:34:04Z</time>
      </trkpt>
      <trkpt lat="45.30201" lon="5.77963">
        <ele>1126</ele>
        <time>2015-07-10T12:34:07Z</time>
      </trkpt>
      <trkpt lat="45.30213" lon="5.77964">
        <ele>1124.2</ele>
        <time>2015-07-10T12:34:11Z</time>
      </trkpt>
      <trkpt lat="45.30238" lon="5.77978">
        <ele>1123.4</ele>
        <time>2015-07-10T12:34:15Z</time>
      </trkpt>
      <trkpt lat="45.30255" lon="5.7799">
        <ele>1122.6</ele>
        <time>2015-07-10T12:34:19Z</time>
      </trkpt>
      <trkpt lat="45.30264" lon="5.78001">
        <ele>1121.6</ele>
        <time>2015-07-10T12:34:22Z</time>
      </trkpt>
      <trkpt lat="45.30272" lon="5.78011">
        <ele>1120.8</ele>
        <time>2015-07-10T12:34:25Z</time>
      </trkpt>
      <trkpt lat="45.30279" lon="5.78023">
        <ele>1120.4</ele>
        <time>2015-07-10T12:34:29Z</time>
      </trkpt>
      <trkpt lat="45.30286" lon="5.78037">
        <ele>1119.4</ele>
        <time>2015-07-10T12:34:34Z</time>
      </trkpt>
      <trkpt lat="45.30296" lon="5.78048">
        <ele>1118</ele>
        <time>2015-07-10T12:34:39Z</time>
      </trkpt>
      <trkpt lat="45.3031" lon="5.78057">
        <ele>1117</ele>
        <time>2015-07-10T12:34:44Z</time>
      </trkpt>
      <trkpt lat="45.30328" lon="5.78065">
        <ele>1114.4</ele>
        <time>2015-07-10T12:34:49Z</time>
      </trkpt>
      <trkpt lat="45.3035" lon="5.7807">
        <ele>1112.4</ele>
        <time>2015-07-10T12:34:53Z</time>
      </trkpt>
      <trkpt lat="45.30363" lon="5.78073">
        <ele>1110.8</ele>
        <time>2015-07-10T12:34:56Z</time>
      </trkpt>
      <trkpt lat="45.30373" lon="5.78077">
        <ele>1108.8</ele>
        <time>2015-07-10T12:35:00Z</time>
      </trkpt>
      <trkpt lat="45.30386" lon="5.78084">
        <ele>1106</ele>
        <time>2015-07-10T12:35:05Z</time>
      </trkpt>
      <trkpt lat="45.30398" lon="5.78089">
        <ele>1105</ele>
        <time>2015-07-10T12:35:09Z</time>
      </trkpt>
      <trkpt lat="45.30407" lon="5.78096">
        <ele>1102.8</ele>
        <time>2015-07-10T12:35:14Z</time>
      </trkpt>
      <trkpt lat="45.30418" lon="5.78099">
        <ele>1100.4</ele>
        <time>2015-07-10T12:35:19Z</time>
      </trkpt>
      <trkpt lat="45.30432" lon="5.78108">
        <ele>1098.2</ele>
        <time>2015-07-10T12:35:24Z</time>
      </trkpt>
      <trkpt lat="45.30444" lon="5.78112">
        <ele>1093.8</ele>
        <time>2015-07-10T12:35:29Z</time>
      </trkpt>
      <trkpt lat="45.30457" lon="5.78112">
        <ele>1090</ele>
        <time>2015-07-10T12:35:34Z</time>
      </trkpt>
      <trkpt lat="45.30472" lon="5.78108">
        <ele>1088.6</ele>
        <time>2015-07-10T12:35:38Z</time>
      </trkpt>
      <trkpt lat="45.30483" lon="5.78095">
        <ele>1086.6</ele>
        <time>2015-07-10T12:35:41Z</time>
      </trkpt>
      <trkpt lat="45.30487" lon="5.78079">
        <ele>1084.8</ele>
        <time>2015-07-10T12:35:44Z</time>
      </trkpt>
      <trkpt lat="45.30489" lon="5.78063">
        <ele>1084</ele>
        <time>2015-07-10T12:35:47Z</time>
      </trkpt>
      <trkpt lat="45.30496" lon="5.78054">
        <ele>1082.6</ele>
        <time>2015-07-10T12:35:50Z</time>
      </trkpt>
      <trkpt lat="45.30509" lon="5.78047">
        <ele>1078.6</ele>
        <time>2015-07-10T12:35:55Z</time>
      </trkpt>
      <trkpt lat="45.30526" lon="5.78047">
        <ele>1076</ele>
        <time>2015-07-10T12:35:59Z</time>
      </trkpt>
      <trkpt lat="45.30544" lon="5.78049">
        <ele>1074.2</ele>
        <time>2015-07-10T12:36:02Z</time>
      </trkpt>
      <trkpt lat="45.30556" lon="5.78051">
        <ele>1072.6</ele>
        <time>2015-07-10T12:36:05Z</time>
      </trkpt>
      <trkpt lat="45.30567" lon="5.78055">
        <ele>1069.8</ele>
        <time>2015-07-10T12:36:08Z</time>
      </trkpt>
      <trkpt lat="45.30578" lon="5.78061">
        <ele>1067.8</ele>
        <time>2015-07-10T12:36:12Z</time>
      </trkpt>
      <trkpt lat="45.30589" lon="5.78067">
        <ele>1066.2</ele>
        <time>2015-07-10T12:36:16Z</time>
      </trkpt>
      <trkpt lat="45.30604" lon="5.78074">
        <ele>1063.4</ele>
        <time>2015-07-10T12:36:20Z</time>
      </trkpt>
      <trkpt lat="45.30614" lon="5.78084">
        <ele>1062.6</ele>
        <time>2015-07-10T12:36:23Z</time>
      </trkpt>
      <trkpt lat="45.30628" lon="5.78095">
        <ele>1060.8</ele>
        <time>2015-07-10T12:36:27Z</time>
      </trkpt>
      <trkpt lat="45.30638" lon="5.78104">
        <ele>1059</ele>
        <time>2015-07-10T12:36:31Z</time>
      </trkpt>
      <trkpt lat="45.30646" lon="5.78112">
        <ele>1057.2</ele>
        <time>2015-07-10T12:36:35Z</time>
      </trkpt>
      <trkpt lat="45.30655" lon="5.78121">
        <ele>1055.6</ele>
        <time>2015-07-10T12:36:39Z</time>
      </trkpt>
      <trkpt lat="45.30665" lon="5.78132">
        <ele>1052.6</ele>
        <time>2015-07-10T12:36:44Z</time>
      </trkpt>
      <trkpt lat="45.30678" lon="5.78143">
        <ele>1050.6</ele>
        <time>2015-07-10T12:36:48Z</time>
      </trkpt>
      <trkpt lat="45.30687" lon="5.78153">
        <ele>1048.6</ele>
        <time>2015-07-10T12:36:52Z</time>
      </trkpt>
      <trkpt lat="45.30698" lon="5.78162">
        <ele>1046.2</ele>
        <time>2015-07-10T12:36:56Z</time>
      </trkpt>
      <trkpt lat="45.30716" lon="5.78172">
        <ele>1044.4</ele>
        <time>2015-07-10T12:37:00Z</time>
      </trkpt>
      <trkpt lat="45.30743" lon="5.78182">
        <ele>1043.4</ele>
        <time>2015-07-10T12:37:03Z</time>
      </trkpt>
      <trkpt lat="45.30754" lon="5.78189">
        <ele>1042</ele>
        <time>2015-07-10T12:37:06Z</time>
      </trkpt>
      <trkpt lat="45.30764" lon="5.78195">
        <ele>1040.4</ele>
        <time>2015-07-10T12:37:09Z</time>
      </trkpt>
      <trkpt lat="45.30775" lon="5.78202">
        <ele>1038.4</ele>
        <time>2015-07-10T12:37:13Z</time>
      </trkpt>
      <trkpt lat="45.30788" lon="5.78214">
        <ele>1037.4</ele>
        <time>2015-07-10T12:37:16Z</time>
      </trkpt>
      <trkpt lat="45.30802" lon="5.78227">
        <ele>1035.8</ele>
        <time>2015-07-10T12:37:19Z</time>
      </trkpt>
      <trkpt lat="45.30811" lon="5.78241">
        <ele>1034.2</ele>
        <time>2015-07-10T12:37:22Z</time>
      </trkpt>
      <trkpt lat="45.30818" lon="5.78254">
        <ele>1033.2</ele>
        <time>2015-07-10T12:37:25Z</time>
      </trkpt>
      <trkpt lat="45.30824" lon="5.78266">
        <ele>1031.6</ele>
        <time>2015-07-10T12:37:28Z</time>
      </trkpt>
      <trkpt lat="45.30832" lon="5.78278">
        <ele>1030.2</ele>
        <time>2015-07-10T12:37:31Z</time>
      </trkpt>
      <trkpt lat="45.30839" lon="5.7829">
        <ele>1029.4</ele>
        <time>2015-07-10T12:37:34Z</time>
      </trkpt>
      <trkpt lat="45.30847" lon="5.783">
        <ele>1027.4</ele>
        <time>2015-07-10T12:37:37Z</time>
      </trkpt>
      <trkpt lat="45.30856" lon="5.7831">
        <ele>1025.4</ele>
        <time>2015-07-10T12:37:40Z</time>
      </trkpt>
      <trkpt lat="45.30865" lon="5.7832">
        <ele>1024</ele>
        <time>2015-07-10T12:37:43Z</time>
      </trkpt>
      <trkpt lat="45.30874" lon="5.7833">
        <ele>1022.8</ele>
        <time>2015-07-10T12:37:46Z</time>
      </trkpt>
      <trkpt lat="45.30882" lon="5.78341">
        <ele>1021</ele>
        <time>2015-07-10T12:37:49Z</time>
      </trkpt>
      <trkpt lat="45.3089" lon="5.78352">
        <ele>1019.6</ele>
        <time>2015-07-10T12:37:52Z</time>
      </trkpt>
      <trkpt lat="45.30896" lon="5.78363">
        <ele>1018.4</ele>
        <time>2015-07-10T12:37:55Z</time>
      </trkpt>
      <trkpt lat="45.30902" lon="5.78374">
        <ele>1018.4</ele>
        <time>2015-07-10T12:37:58Z</time>
      </trkpt>
      <trkpt lat="45.30907" lon="5.78387">
        <ele>1016.4</ele>
        <time>2015-07-10T12:38:01Z</time>
      </trkpt>
      <trkpt lat="45.30912" lon="5.784">
        <ele>1015.4</ele>
        <time>2015-07-10T12:38:04Z</time>
      </trkpt>
      <trkpt lat="45.30922" lon="5.78414">
        <ele>1014.4</ele>
        <time>2015-07-10T12:38:07Z</time>
      </trkpt>
      <trkpt lat="45.3093" lon="5.78425">
        <ele>1013.4</ele>
        <time>2015-07-10T12:38:10Z</time>
      </trkpt>
      <trkpt lat="45.3094" lon="5.78437">
        <ele>1013</ele>
        <time>2015-07-10T12:38:14Z</time>
      </trkpt>
      <trkpt lat="45.30948" lon="5.78447">
        <ele>1011.4</ele>
        <time>2015-07-10T12:38:18Z</time>
      </trkpt>
      <trkpt lat="45.30957" lon="5.78458">
        <ele>1011</ele>
        <time>2015-07-10T12:38:22Z</time>
      </trkpt>
      <trkpt lat="45.30966" lon="5.78467">
        <ele>1011</ele>
        <time>2015-07-10T12:38:26Z</time>
      </trkpt>
      <trkpt lat="45.30975" lon="5.78477">
        <ele>1010.2</ele>
        <time>2015-07-10T12:38:31Z</time>
      </trkpt>
      <trkpt lat="45.30984" lon="5.78488">
        <ele>1010.2</ele>
        <time>2015-07-10T12:38:36Z</time>
      </trkpt>
      <trkpt lat="45.30991" lon="5.785">
        <ele>1010.2</ele>
        <time>2015-07-10T12:38:40Z</time>
      </trkpt>
      <trkpt lat="45.30996" lon="5.78513">
        <ele>1011.8</ele>
        <time>2015-07-10T12:38:44Z</time>
      </trkpt>
      <trkpt lat="45.31003" lon="5.78526">
        <ele>1012.6</ele>
        <time>2015-07-10T12:38:49Z</time>
      </trkpt>
      <trkpt lat="45.31009" lon="5.7854">
        <ele>1012.6</ele>
        <time>2015-07-10T12:38:54Z</time>
      </trkpt>
      <trkpt lat="45.31021" lon="5.78554">
        <ele>1012.6</ele>
        <time>2015-07-10T12:38:59Z</time>
      </trkpt>
      <trkpt lat="45.31035" lon="5.78566">
        <ele>1012.6</ele>
        <time>2015-07-10T12:39:03Z</time>
      </trkpt>
      <trkpt lat="45.31045" lon="5.78578">
        <ele>1009.6</ele>
        <time>2015-07-10T12:39:07Z</time>
      </trkpt>
      <trkpt lat="45.31055" lon="5.7859">
        <ele>1007.4</ele>
        <time>2015-07-10T12:39:11Z</time>
      </trkpt>
      <trkpt lat="45.3107" lon="5.78599">
        <ele>1005.4</ele>
        <time>2015-07-10T12:39:15Z</time>
      </trkpt>
      <trkpt lat="45.31085" lon="5.78605">
        <ele>1004.6</ele>
        <time>2015-07-10T12:39:18Z</time>
      </trkpt>
      <trkpt lat="45.31099" lon="5.78611">
        <ele>1003.2</ele>
        <time>2015-07-10T12:39:21Z</time>
      </trkpt>
      <trkpt lat="45.31111" lon="5.78618">
        <ele>1002</ele>
        <time>2015-07-10T12:39:25Z</time>
      </trkpt>
      <trkpt lat="45.31125" lon="5.78624">
        <ele>1001.4</ele>
        <time>2015-07-10T12:39:29Z</time>
      </trkpt>
      <trkpt lat="45.31138" lon="5.78629">
        <ele>1001</ele>
        <time>2015-07-10T12:39:32Z</time>
      </trkpt>
      <trkpt lat="45.3115" lon="5.78634">
        <ele>1000.2</ele>
        <time>2015-07-10T12:39:35Z</time>
      </trkpt>
      <trkpt lat="45.31159" lon="5.78639">
        <ele>1000.2</ele>
        <time>2015-07-10T12:39:39Z</time>
      </trkpt>
      <trkpt lat="45.31167" lon="5.78643">
        <ele>999.4</ele>
        <time>2015-07-10T12:39:42Z</time>
      </trkpt>
      <trkpt lat="45.31177" lon="5.78651">
        <ele>998.8</ele>
        <time>2015-07-10T12:39:46Z</time>
      </trkpt>
      <trkpt lat="45.3119" lon="5.7866">
        <ele>996.4</ele>
        <time>2015-07-10T12:39:50Z</time>
      </trkpt>
      <trkpt lat="45.31198" lon="5.78669">
        <ele>995.2</ele>
        <time>2015-07-10T12:39:54Z</time>
      </trkpt>
      <trkpt lat="45.31212" lon="5.7868">
        <ele>994.2</ele>
        <time>2015-07-10T12:39:58Z</time>
      </trkpt>
      <trkpt lat="45.31222" lon="5.78686">
        <ele>993.6</ele>
        <time>2015-07-10T12:40:01Z</time>
      </trkpt>
      <trkpt lat="45.31232" lon="5.78693">
        <ele>993.6</ele>
        <time>2015-07-10T12:40:04Z</time>
      </trkpt>
      <trkpt lat="45.31242" lon="5.78699">
        <ele>993.4</ele>
        <time>2015-07-10T12:40:07Z</time>
      </trkpt>
      <trkpt lat="45.31251" lon="5.78703">
        <ele>992.4</ele>
        <time>2015-07-10T12:40:10Z</time>
      </trkpt>
      <trkpt lat="45.31262" lon="5.78706">
        <ele>992.2</ele>
        <time>2015-07-10T12:40:13Z</time>
      </trkpt>
      <trkpt lat="45.31273" lon="5.78707">
        <ele>990.8</ele>
        <time>2015-07-10T12:40:16Z</time>
      </trkpt>
      <trkpt lat="45.31286" lon="5.78711">
        <ele>989.4</ele>
        <time>2015-07-10T12:40:19Z</time>
      </trkpt>
      <trkpt lat="45.31296" lon="5.7871">
        <ele>988.4</ele>
        <time>2015-07-10T12:40:22Z</time>
      </trkpt>
      <trkpt lat="45.31306" lon="5.7871">
        <ele>987.4</ele>
        <time>2015-07-10T12:40:25Z</time>
      </trkpt>
      <trkpt lat="45.31317" lon="5.7871">
        <ele>986.8</ele>
        <time>2015-07-10T12:40:28Z</time>
      </trkpt>
      <trkpt lat="45.31327" lon="5.78707">
        <ele>986.2</ele>
        <time>2015-07-10T12:40:31Z</time>
      </trkpt>
      <trkpt lat="45.31337" lon="5.78706">
        <ele>983.6</ele>
        <time>2015-07-10T12:40:34Z</time>
      </trkpt>
      <trkpt lat="45.31348" lon="5.78704">
        <ele>982.4</ele>
        <time>2015-07-10T12:40:37Z</time>
      </trkpt>
      <trkpt lat="45.31358" lon="5.787">
        <ele>981.4</ele>
        <time>2015-07-10T12:40:40Z</time>
      </trkpt>
      <trkpt lat="45.31369" lon="5.787">
        <ele>980.2</ele>
        <time>2015-07-10T12:40:43Z</time>
      </trkpt>
      <trkpt lat="45.31382" lon="5.78704">
        <ele>979.6</ele>
        <time>2015-07-10T12:40:46Z</time>
      </trkpt>
      <trkpt lat="45.31393" lon="5.78711">
        <ele>979.4</ele>
        <time>2015-07-10T12:40:49Z</time>
      </trkpt>
      <trkpt lat="45.31401" lon="5.78717">
        <ele>977.8</ele>
        <time>2015-07-10T12:40:52Z</time>
      </trkpt>
      <trkpt lat="45.3141" lon="5.78724">
        <ele>977.6</ele>
        <time>2015-07-10T12:40:55Z</time>
      </trkpt>
      <trkpt lat="45.31417" lon="5.78735">
        <ele>976.6</ele>
        <time>2015-07-10T12:40:58Z</time>
      </trkpt>
      <trkpt lat="45.31425" lon="5.78747">
        <ele>976.4</ele>
        <time>2015-07-10T12:41:01Z</time>
      </trkpt>
      <trkpt lat="45.31432" lon="5.7876">
        <ele>975.8</ele>
        <time>2015-07-10T12:41:04Z</time>
      </trkpt>
      <trkpt lat="45.31438" lon="5.78773">
        <ele>975.6</ele>
        <time>2015-07-10T12:41:07Z</time>
      </trkpt>
      <trkpt lat="45.31444" lon="5.78786">
        <ele>975.4</ele>
        <time>2015-07-10T12:41:10Z</time>
      </trkpt>
      <trkpt lat="45.31449" lon="5.78799">
        <ele>975</ele>
        <time>2015-07-10T12:41:13Z</time>
      </trkpt>
      <trkpt lat="45.31454" lon="5.78813">
        <ele>974.8</ele>
        <time>2015-07-10T12:41:16Z</time>
      </trkpt>
      <trkpt lat="45.31458" lon="5.78826">
        <ele>974.8</ele>
        <time>2015-07-10T12:41:19Z</time>
      </trkpt>
      <trkpt lat="45.31462" lon="5.78841">
        <ele>974.2</ele>
        <time>2015-07-10T12:41:22Z</time>
      </trkpt>
      <trkpt lat="45.31465" lon="5.78854">
        <ele>973.8</ele>
        <time>2015-07-10T12:41:25Z</time>
      </trkpt>
      <trkpt lat="45.31468" lon="5.78868">
        <ele>973.8</ele>
        <time>2015-07-10T12:41:28Z</time>
      </trkpt>
      <trkpt lat="45.31469" lon="5.78882">
        <ele>973.8</ele>
        <time>2015-07-10T12:41:31Z</time>
      </trkpt>
      <trkpt lat="45.31472" lon="5.78895">
        <ele>973.2</ele>
        <time>2015-07-10T12:41:34Z</time>
      </trkpt>
      <trkpt lat="45.31474" lon="5.78909">
        <ele>972.6</ele>
        <time>2015-07-10T12:41:37Z</time>
      </trkpt>
      <trkpt lat="45.31475" lon="5.78924">
        <ele>972.4</ele>
        <time>2015-07-10T12:41:40Z</time>
      </trkpt>
      <trkpt lat="45.31475" lon="5.7894">
        <ele>972.4</ele>
        <time>2015-07-10T12:41:43Z</time>
      </trkpt>
      <trkpt lat="45.31474" lon="5.78955">
        <ele>972.4</ele>
        <time>2015-07-10T12:41:46Z</time>
      </trkpt>
      <trkpt lat="45.31474" lon="5.7897">
        <ele>972.4</ele>
        <time>2015-07-10T12:41:49Z</time>
      </trkpt>
      <trkpt lat="45.31472" lon="5.78986">
        <ele>972.4</ele>
        <time>2015-07-10T12:41:52Z</time>
      </trkpt>
      <trkpt lat="45.3147" lon="5.78999">
        <ele>971.4</ele>
        <time>2015-07-10T12:41:55Z</time>
      </trkpt>
      <trkpt lat="45.31471" lon="5.79013">
        <ele>971.2</ele>
        <time>2015-07-10T12:41:58Z</time>
      </trkpt>
      <trkpt lat="45.31475" lon="5.79025">
        <ele>971.2</ele>
        <time>2015-07-10T12:42:01Z</time>
      </trkpt>
      <trkpt lat="45.31479" lon="5.79038">
        <ele>970.6</ele>
        <time>2015-07-10T12:42:04Z</time>
      </trkpt>
      <trkpt lat="45.31483" lon="5.7905">
        <ele>970.4</ele>
        <time>2015-07-10T12:42:07Z</time>
      </trkpt>
      <trkpt lat="45.31487" lon="5.79062">
        <ele>969.8</ele>
        <time>2015-07-10T12:42:10Z</time>
      </trkpt>
      <trkpt lat="45.31492" lon="5.79073">
        <ele>969.6</ele>
        <time>2015-07-10T12:42:13Z</time>
      </trkpt>
      <trkpt lat="45.31497" lon="5.79084">
        <ele>969.6</ele>
        <time>2015-07-10T12:42:16Z</time>
      </trkpt>
      <trkpt lat="45.315" lon="5.79097">
        <ele>969.6</ele>
        <time>2015-07-10T12:42:19Z</time>
      </trkpt>
      <trkpt lat="45.31506" lon="5.79113">
        <ele>969.6</ele>
        <time>2015-07-10T12:42:23Z</time>
      </trkpt>
      <trkpt lat="45.31513" lon="5.7912">
        <ele>969.2</ele>
        <time>2015-07-10T12:42:26Z</time>
      </trkpt>
      <trkpt lat="45.31522" lon="5.79131">
        <ele>968.8</ele>
        <time>2015-07-10T12:42:30Z</time>
      </trkpt>
      <trkpt lat="45.3153" lon="5.79139">
        <ele>968.2</ele>
        <time>2015-07-10T12:42:33Z</time>
      </trkpt>
      <trkpt lat="45.31539" lon="5.79147">
        <ele>967.4</ele>
        <time>2015-07-10T12:42:36Z</time>
      </trkpt>
      <trkpt lat="45.31548" lon="5.79155">
        <ele>966.6</ele>
        <time>2015-07-10T12:42:39Z</time>
      </trkpt>
      <trkpt lat="45.31557" lon="5.79164">
        <ele>965.2</ele>
        <time>2015-07-10T12:42:42Z</time>
      </trkpt>
      <trkpt lat="45.31567" lon="5.79171">
        <ele>964.4</ele>
        <time>2015-07-10T12:42:45Z</time>
      </trkpt>
      <trkpt lat="45.31576" lon="5.79177">
        <ele>963.6</ele>
        <time>2015-07-10T12:42:48Z</time>
      </trkpt>
      <trkpt lat="45.31586" lon="5.79182">
        <ele>963.6</ele>
        <time>2015-07-10T12:42:51Z</time>
      </trkpt>
      <trkpt lat="45.31596" lon="5.79188">
        <ele>963.6</ele>
        <time>2015-07-10T12:42:54Z</time>
      </trkpt>
      <trkpt lat="45.31605" lon="5.79193">
        <ele>963.6</ele>
        <time>2015-07-10T12:42:57Z</time>
      </trkpt>
      <trkpt lat="45.31614" lon="5.79199">
        <ele>962.2</ele>
        <time>2015-07-10T12:43:00Z</time>
      </trkpt>
      <trkpt lat="45.31621" lon="5.79204">
        <ele>961.6</ele>
        <time>2015-07-10T12:43:03Z</time>
      </trkpt>
      <trkpt lat="45.31632" lon="5.79213">
        <ele>961.2</ele>
        <time>2015-07-10T12:43:07Z</time>
      </trkpt>
      <trkpt lat="45.31642" lon="5.7922">
        <ele>960.4</ele>
        <time>2015-07-10T12:43:10Z</time>
      </trkpt>
      <trkpt lat="45.31652" lon="5.79228">
        <ele>959.4</ele>
        <time>2015-07-10T12:43:13Z</time>
      </trkpt>
      <trkpt lat="45.3166" lon="5.79238">
        <ele>958.6</ele>
        <time>2015-07-10T12:43:16Z</time>
      </trkpt>
      <trkpt lat="45.31666" lon="5.7925">
        <ele>957</ele>
        <time>2015-07-10T12:43:19Z</time>
      </trkpt>
      <trkpt lat="45.31671" lon="5.79261">
        <ele>956.4</ele>
        <time>2015-07-10T12:43:22Z</time>
      </trkpt>
      <trkpt lat="45.31675" lon="5.79272">
        <ele>956</ele>
        <time>2015-07-10T12:43:25Z</time>
      </trkpt>
      <trkpt lat="45.31679" lon="5.79287">
        <ele>955</ele>
        <time>2015-07-10T12:43:29Z</time>
      </trkpt>
      <trkpt lat="45.31684" lon="5.793">
        <ele>954.4</ele>
        <time>2015-07-10T12:43:32Z</time>
      </trkpt>
      <trkpt lat="45.31686" lon="5.79314">
        <ele>953.8</ele>
        <time>2015-07-10T12:43:35Z</time>
      </trkpt>
      <trkpt lat="45.31687" lon="5.79327">
        <ele>953.8</ele>
        <time>2015-07-10T12:43:38Z</time>
      </trkpt>
      <trkpt lat="45.31694" lon="5.7934">
        <ele>952.8</ele>
        <time>2015-07-10T12:43:42Z</time>
      </trkpt>
      <trkpt lat="45.31705" lon="5.79349">
        <ele>951.6</ele>
        <time>2015-07-10T12:43:47Z</time>
      </trkpt>
      <trkpt lat="45.31716" lon="5.79354">
        <ele>950.6</ele>
        <time>2015-07-10T12:43:50Z</time>
      </trkpt>
      <trkpt lat="45.31726" lon="5.79365">
        <ele>950</ele>
        <time>2015-07-10T12:43:53Z</time>
      </trkpt>
      <trkpt lat="45.31734" lon="5.79378">
        <ele>949.4</ele>
        <time>2015-07-10T12:43:56Z</time>
      </trkpt>
      <trkpt lat="45.3174" lon="5.79391">
        <ele>948.4</ele>
        <time>2015-07-10T12:43:59Z</time>
      </trkpt>
      <trkpt lat="45.31746" lon="5.79402">
        <ele>947.2</ele>
        <time>2015-07-10T12:44:02Z</time>
      </trkpt>
      <trkpt lat="45.31752" lon="5.79415">
        <ele>946.8</ele>
        <time>2015-07-10T12:44:05Z</time>
      </trkpt>
      <trkpt lat="45.31758" lon="5.79427">
        <ele>946.2</ele>
        <time>2015-07-10T12:44:08Z</time>
      </trkpt>
      <trkpt lat="45.31763" lon="5.7944">
        <ele>945.8</ele>
        <time>2015-07-10T12:44:11Z</time>
      </trkpt>
      <trkpt lat="45.31768" lon="5.79452">
        <ele>945</ele>
        <time>2015-07-10T12:44:14Z</time>
      </trkpt>
      <trkpt lat="45.31772" lon="5.79465">
        <ele>945</ele>
        <time>2015-07-10T12:44:17Z</time>
      </trkpt>
      <trkpt lat="45.31778" lon="5.79477">
        <ele>945</ele>
        <time>2015-07-10T12:44:20Z</time>
      </trkpt>
      <trkpt lat="45.31783" lon="5.79488">
        <ele>944.2</ele>
        <time>2015-07-10T12:44:23Z</time>
      </trkpt>
      <trkpt lat="45.31787" lon="5.795">
        <ele>943.4</ele>
        <time>2015-07-10T12:44:26Z</time>
      </trkpt>
      <trkpt lat="45.31793" lon="5.7951">
        <ele>943.4</ele>
        <time>2015-07-10T12:44:29Z</time>
      </trkpt>
      <trkpt lat="45.31797" lon="5.79521">
        <ele>942.8</ele>
        <time>2015-07-10T12:44:32Z</time>
      </trkpt>
      <trkpt lat="45.31802" lon="5.79534">
        <ele>942.2</ele>
        <time>2015-07-10T12:44:36Z</time>
      </trkpt>
      <trkpt lat="45.31808" lon="5.79545">
        <ele>941</ele>
        <time>2015-07-10T12:44:39Z</time>
      </trkpt>
      <trkpt lat="45.31817" lon="5.79555">
        <ele>940.8</ele>
        <time>2015-07-10T12:44:42Z</time>
      </trkpt>
      <trkpt lat="45.31825" lon="5.79565">
        <ele>939.8</ele>
        <time>2015-07-10T12:44:45Z</time>
      </trkpt>
      <trkpt lat="45.3183" lon="5.79576">
        <ele>939.2</ele>
        <time>2015-07-10T12:44:48Z</time>
      </trkpt>
      <trkpt lat="45.31836" lon="5.79589">
        <ele>938.6</ele>
        <time>2015-07-10T12:44:52Z</time>
      </trkpt>
      <trkpt lat="45.31843" lon="5.79603">
        <ele>937.2</ele>
        <time>2015-07-10T12:44:56Z</time>
      </trkpt>
      <trkpt lat="45.31845" lon="5.79619">
        <ele>936.2</ele>
        <time>2015-07-10T12:45:00Z</time>
      </trkpt>
      <trkpt lat="45.3185" lon="5.79635">
        <ele>936.2</ele>
        <time>2015-07-10T12:45:04Z</time>
      </trkpt>
      <trkpt lat="45.31855" lon="5.79654">
        <ele>935.4</ele>
        <time>2015-07-10T12:45:08Z</time>
      </trkpt>
      <trkpt lat="45.31861" lon="5.79667">
        <ele>934.4</ele>
        <time>2015-07-10T12:45:11Z</time>
      </trkpt>
      <trkpt lat="45.31874" lon="5.79681">
        <ele>933.6</ele>
        <time>2015-07-10T12:45:15Z</time>
      </trkpt>
      <trkpt lat="45.31884" lon="5.79694">
        <ele>932.8</ele>
        <time>2015-07-10T12:45:19Z</time>
      </trkpt>
      <trkpt lat="45.31892" lon="5.79706">
        <ele>932.4</ele>
        <time>2015-07-10T12:45:23Z</time>
      </trkpt>
      <trkpt lat="45.319" lon="5.79719">
        <ele>931.8</ele>
        <time>2015-07-10T12:45:27Z</time>
      </trkpt>
      <trkpt lat="45.31907" lon="5.79733">
        <ele>931.8</ele>
        <time>2015-07-10T12:45:31Z</time>
      </trkpt>
      <trkpt lat="45.31916" lon="5.79746">
        <ele>930</ele>
        <time>2015-07-10T12:45:35Z</time>
      </trkpt>
      <trkpt lat="45.31928" lon="5.7976">
        <ele>929</ele>
        <time>2015-07-10T12:45:39Z</time>
      </trkpt>
      <trkpt lat="45.31937" lon="5.79773">
        <ele>930.6</ele>
        <time>2015-07-10T12:45:42Z</time>
      </trkpt>
      <trkpt lat="45.31946" lon="5.79784">
        <ele>931.2</ele>
        <time>2015-07-10T12:45:45Z</time>
      </trkpt>
      <trkpt lat="45.31954" lon="5.79799">
        <ele>929.4</ele>
        <time>2015-07-10T12:45:48Z</time>
      </trkpt>
      <trkpt lat="45.31962" lon="5.79811">
        <ele>928.2</ele>
        <time>2015-07-10T12:45:51Z</time>
      </trkpt>
      <trkpt lat="45.31969" lon="5.79822">
        <ele>928</ele>
        <time>2015-07-10T12:45:54Z</time>
      </trkpt>
      <trkpt lat="45.31975" lon="5.79833">
        <ele>928</ele>
        <time>2015-07-10T12:45:57Z</time>
      </trkpt>
      <trkpt lat="45.31981" lon="5.79844">
        <ele>927.4</ele>
        <time>2015-07-10T12:46:00Z</time>
      </trkpt>
      <trkpt lat="45.31988" lon="5.79855">
        <ele>926.8</ele>
        <time>2015-07-10T12:46:03Z</time>
      </trkpt>
      <trkpt lat="45.31994" lon="5.79866">
        <ele>926</ele>
        <time>2015-07-10T12:46:06Z</time>
      </trkpt>
      <trkpt lat="45.32" lon="5.79878">
        <ele>925.8</ele>
        <time>2015-07-10T12:46:09Z</time>
      </trkpt>
      <trkpt lat="45.32005" lon="5.79891">
        <ele>925.8</ele>
        <time>2015-07-10T12:46:12Z</time>
      </trkpt>
      <trkpt lat="45.32009" lon="5.79903">
        <ele>925.2</ele>
        <time>2015-07-10T12:46:15Z</time>
      </trkpt>
      <trkpt lat="45.32014" lon="5.79918">
        <ele>924.8</ele>
        <time>2015-07-10T12:46:18Z</time>
      </trkpt>
      <trkpt lat="45.32012" lon="5.79933">
        <ele>924.8</ele>
        <time>2015-07-10T12:46:21Z</time>
      </trkpt>
      <trkpt lat="45.32011" lon="5.79947">
        <ele>924.2</ele>
        <time>2015-07-10T12:46:24Z</time>
      </trkpt>
      <trkpt lat="45.32008" lon="5.79962">
        <ele>923.6</ele>
        <time>2015-07-10T12:46:27Z</time>
      </trkpt>
      <trkpt lat="45.32007" lon="5.79976">
        <ele>923.2</ele>
        <time>2015-07-10T12:46:30Z</time>
      </trkpt>
      <trkpt lat="45.32006" lon="5.7999">
        <ele>923</ele>
        <time>2015-07-10T12:46:33Z</time>
      </trkpt>
      <trkpt lat="45.32007" lon="5.80003">
        <ele>923</ele>
        <time>2015-07-10T12:46:36Z</time>
      </trkpt>
      <trkpt lat="45.3201" lon="5.80017">
        <ele>923</ele>
        <time>2015-07-10T12:46:40Z</time>
      </trkpt>
      <trkpt lat="45.32019" lon="5.80031">
        <ele>923</ele>
        <time>2015-07-10T12:46:44Z</time>
      </trkpt>
      <trkpt lat="45.32028" lon="5.8004">
        <ele>923</ele>
        <time>2015-07-10T12:46:48Z</time>
      </trkpt>
      <trkpt lat="45.32035" lon="5.80051">
        <ele>924</ele>
        <time>2015-07-10T12:46:52Z</time>
      </trkpt>
      <trkpt lat="45.32041" lon="5.80059">
        <ele>925.6</ele>
        <time>2015-07-10T12:46:56Z</time>
      </trkpt>
      <trkpt lat="45.3205" lon="5.80067">
        <ele>926.4</ele>
        <time>2015-07-10T12:47:01Z</time>
      </trkpt>
      <trkpt lat="45.3206" lon="5.80074">
        <ele>927.2</ele>
        <time>2015-07-10T12:47:06Z</time>
      </trkpt>
      <trkpt lat="45.3207" lon="5.80078">
        <ele>927.2</ele>
        <time>2015-07-10T12:47:11Z</time>
      </trkpt>
      <trkpt lat="45.32082" lon="5.80085">
        <ele>927.6</ele>
        <time>2015-07-10T12:47:16Z</time>
      </trkpt>
      <trkpt lat="45.32091" lon="5.80091">
        <ele>928</ele>
        <time>2015-07-10T12:47:21Z</time>
      </trkpt>
      <trkpt lat="45.32103" lon="5.801">
        <ele>929</ele>
        <time>2015-07-10T12:47:26Z</time>
      </trkpt>
      <trkpt lat="45.32122" lon="5.80113">
        <ele>929.6</ele>
        <time>2015-07-10T12:47:31Z</time>
      </trkpt>
      <trkpt lat="45.32134" lon="5.80124">
        <ele>930.6</ele>
        <time>2015-07-10T12:47:36Z</time>
      </trkpt>
      <trkpt lat="45.32141" lon="5.80137">
        <ele>931.2</ele>
        <time>2015-07-10T12:47:41Z</time>
      </trkpt>
      <trkpt lat="45.32147" lon="5.80149">
        <ele>932</ele>
        <time>2015-07-10T12:47:46Z</time>
      </trkpt>
      <trkpt lat="45.32156" lon="5.80161">
        <ele>933.4</ele>
        <time>2015-07-10T12:47:51Z</time>
      </trkpt>
      <trkpt lat="45.32163" lon="5.80173">
        <ele>933.6</ele>
        <time>2015-07-10T12:47:55Z</time>
      </trkpt>
      <trkpt lat="45.32172" lon="5.80186">
        <ele>933.6</ele>
        <time>2015-07-10T12:47:59Z</time>
      </trkpt>
      <trkpt lat="45.32178" lon="5.80199">
        <ele>933.6</ele>
        <time>2015-07-10T12:48:03Z</time>
      </trkpt>
      <trkpt lat="45.32183" lon="5.8021">
        <ele>933.6</ele>
        <time>2015-07-10T12:48:07Z</time>
      </trkpt>
      <trkpt lat="45.3219" lon="5.80222">
        <ele>933.6</ele>
        <time>2015-07-10T12:48:11Z</time>
      </trkpt>
      <trkpt lat="45.32198" lon="5.80231">
        <ele>934.8</ele>
        <time>2015-07-10T12:48:15Z</time>
      </trkpt>
      <trkpt lat="45.32207" lon="5.80243">
        <ele>935.8</ele>
        <time>2015-07-10T12:48:20Z</time>
      </trkpt>
      <trkpt lat="45.32216" lon="5.80252">
        <ele>936.6</ele>
        <time>2015-07-10T12:48:24Z</time>
      </trkpt>
      <trkpt lat="45.32226" lon="5.80261">
        <ele>936.8</ele>
        <time>2015-07-10T12:48:28Z</time>
      </trkpt>
      <trkpt lat="45.32234" lon="5.80274">
        <ele>936.8</ele>
        <time>2015-07-10T12:48:32Z</time>
      </trkpt>
      <trkpt lat="45.32241" lon="5.80287">
        <ele>936.8</ele>
        <time>2015-07-10T12:48:36Z</time>
      </trkpt>
      <trkpt lat="45.32244" lon="5.803">
        <ele>935</ele>
        <time>2015-07-10T12:48:39Z</time>
      </trkpt>
      <trkpt lat="45.32242" lon="5.80313">
        <ele>933</ele>
        <time>2015-07-10T12:48:42Z</time>
      </trkpt>
      <trkpt lat="45.32233" lon="5.80323">
        <ele>932.6</ele>
        <time>2015-07-10T12:48:45Z</time>
      </trkpt>
      <trkpt lat="45.32224" lon="5.8033">
        <ele>932.4</ele>
        <time>2015-07-10T12:48:48Z</time>
      </trkpt>
      <trkpt lat="45.32214" lon="5.80335">
        <ele>931</ele>
        <time>2015-07-10T12:48:51Z</time>
      </trkpt>
      <trkpt lat="45.32204" lon="5.8034">
        <ele>929.8</ele>
        <time>2015-07-10T12:48:54Z</time>
      </trkpt>
      <trkpt lat="45.32196" lon="5.80345">
        <ele>929.2</ele>
        <time>2015-07-10T12:48:57Z</time>
      </trkpt>
      <trkpt lat="45.32186" lon="5.80343">
        <ele>928.4</ele>
        <time>2015-07-10T12:49:00Z</time>
      </trkpt>
      <trkpt lat="45.32177" lon="5.80348">
        <ele>927.6</ele>
        <time>2015-07-10T12:49:04Z</time>
      </trkpt>
      <trkpt lat="45.32183" lon="5.80362">
        <ele>926.2</ele>
        <time>2015-07-10T12:49:08Z</time>
      </trkpt>
      <trkpt lat="45.32193" lon="5.80366">
        <ele>925.6</ele>
        <time>2015-07-10T12:49:11Z</time>
      </trkpt>
      <trkpt lat="45.32202" lon="5.80369">
        <ele>925.4</ele>
        <time>2015-07-10T12:49:14Z</time>
      </trkpt>
      <trkpt lat="45.32212" lon="5.80375">
        <ele>924</ele>
        <time>2015-07-10T12:49:17Z</time>
      </trkpt>
      <trkpt lat="45.32219" lon="5.80387">
        <ele>922.8</ele>
        <time>2015-07-10T12:49:20Z</time>
      </trkpt>
      <trkpt lat="45.32223" lon="5.80401">
        <ele>921.6</ele>
        <time>2015-07-10T12:49:23Z</time>
      </trkpt>
      <trkpt lat="45.32225" lon="5.80415">
        <ele>919.8</ele>
        <time>2015-07-10T12:49:26Z</time>
      </trkpt>
      <trkpt lat="45.32225" lon="5.80429">
        <ele>918.6</ele>
        <time>2015-07-10T12:49:29Z</time>
      </trkpt>
      <trkpt lat="45.32226" lon="5.80445">
        <ele>918.4</ele>
        <time>2015-07-10T12:49:32Z</time>
      </trkpt>
      <trkpt lat="45.32226" lon="5.8046">
        <ele>917.2</ele>
        <time>2015-07-10T12:49:35Z</time>
      </trkpt>
      <trkpt lat="45.32227" lon="5.80475">
        <ele>916.6</ele>
        <time>2015-07-10T12:49:38Z</time>
      </trkpt>
      <trkpt lat="45.32227" lon="5.80488">
        <ele>915.8</ele>
        <time>2015-07-10T12:49:41Z</time>
      </trkpt>
      <trkpt lat="45.32228" lon="5.80501">
        <ele>915.6</ele>
        <time>2015-07-10T12:49:44Z</time>
      </trkpt>
      <trkpt lat="45.32229" lon="5.80515">
        <ele>915.6</ele>
        <time>2015-07-10T12:49:47Z</time>
      </trkpt>
      <trkpt lat="45.3223" lon="5.8053">
        <ele>915.6</ele>
        <time>2015-07-10T12:49:50Z</time>
      </trkpt>
      <trkpt lat="45.3223" lon="5.80543">
        <ele>915.6</ele>
        <time>2015-07-10T12:49:53Z</time>
      </trkpt>
      <trkpt lat="45.32231" lon="5.80558">
        <ele>915.6</ele>
        <time>2015-07-10T12:49:56Z</time>
      </trkpt>
      <trkpt lat="45.32231" lon="5.80572">
        <ele>915.6</ele>
        <time>2015-07-10T12:49:59Z</time>
      </trkpt>
      <trkpt lat="45.3223" lon="5.80585">
        <ele>915.6</ele>
        <time>2015-07-10T12:50:02Z</time>
      </trkpt>
      <trkpt lat="45.3223" lon="5.80597">
        <ele>915.6</ele>
        <time>2015-07-10T12:50:05Z</time>
      </trkpt>
      <trkpt lat="45.32229" lon="5.8061">
        <ele>915.2</ele>
        <time>2015-07-10T12:50:08Z</time>
      </trkpt>
      <trkpt lat="45.32227" lon="5.80622">
        <ele>914.8</ele>
        <time>2015-07-10T12:50:11Z</time>
      </trkpt>
      <trkpt lat="45.32227" lon="5.80635">
        <ele>914.6</ele>
        <time>2015-07-10T12:50:14Z</time>
      </trkpt>
      <trkpt lat="45.32223" lon="5.8065">
        <ele>914.6</ele>
        <time>2015-07-10T12:50:18Z</time>
      </trkpt>
      <trkpt lat="45.32213" lon="5.80656">
        <ele>914.6</ele>
        <time>2015-07-10T12:50:22Z</time>
      </trkpt>
      <trkpt lat="45.32203" lon="5.80659">
        <ele>914.6</ele>
        <time>2015-07-10T12:50:26Z</time>
      </trkpt>
      <trkpt lat="45.32192" lon="5.8066">
        <ele>914.6</ele>
        <time>2015-07-10T12:50:30Z</time>
      </trkpt>
      <trkpt lat="45.32181" lon="5.80659">
        <ele>914.6</ele>
        <time>2015-07-10T12:50:34Z</time>
      </trkpt>
      <trkpt lat="45.32169" lon="5.80658">
        <ele>914.6</ele>
        <time>2015-07-10T12:50:38Z</time>
      </trkpt>
      <trkpt lat="45.32158" lon="5.80657">
        <ele>914.6</ele>
        <time>2015-07-10T12:50:42Z</time>
      </trkpt>
      <trkpt lat="45.32147" lon="5.80655">
        <ele>914.6</ele>
        <time>2015-07-10T12:50:46Z</time>
      </trkpt>
      <trkpt lat="45.32137" lon="5.80655">
        <ele>916.8</ele>
        <time>2015-07-10T12:50:50Z</time>
      </trkpt>
      <trkpt lat="45.32127" lon="5.80655">
        <ele>917</ele>
        <time>2015-07-10T12:50:54Z</time>
      </trkpt>
      <trkpt lat="45.32118" lon="5.80656">
        <ele>917</ele>
        <time>2015-07-10T12:50:58Z</time>
      </trkpt>
      <trkpt lat="45.32106" lon="5.80656">
        <ele>917</ele>
        <time>2015-07-10T12:51:02Z</time>
      </trkpt>
      <trkpt lat="45.32096" lon="5.80657">
        <ele>917.4</ele>
        <time>2015-07-10T12:51:06Z</time>
      </trkpt>
      <trkpt lat="45.32084" lon="5.80655">
        <ele>918.6</ele>
        <time>2015-07-10T12:51:10Z</time>
      </trkpt>
      <trkpt lat="45.32071" lon="5.80653">
        <ele>918.8</ele>
        <time>2015-07-10T12:51:14Z</time>
      </trkpt>
      <trkpt lat="45.32058" lon="5.80652">
        <ele>918.8</ele>
        <time>2015-07-10T12:51:18Z</time>
      </trkpt>
      <trkpt lat="45.32046" lon="5.80652">
        <ele>919.4</ele>
        <time>2015-07-10T12:51:22Z</time>
      </trkpt>
      <trkpt lat="45.32036" lon="5.80653">
        <ele>919.4</ele>
        <time>2015-07-10T12:51:26Z</time>
      </trkpt>
      <trkpt lat="45.32025" lon="5.80648">
        <ele>919.4</ele>
        <time>2015-07-10T12:51:32Z</time>
      </trkpt>
      <trkpt lat="45.32018" lon="5.80643">
        <ele>919.4</ele>
        <time>2015-07-10T12:52:03Z</time>
      </trkpt>
      <trkpt lat="45.32007" lon="5.80648">
        <ele>920.2</ele>
        <time>2015-07-10T12:52:10Z</time>
      </trkpt>
      <trkpt lat="45.31995" lon="5.80653">
        <ele>920.4</ele>
        <time>2015-07-10T12:52:15Z</time>
      </trkpt>
      <trkpt lat="45.31983" lon="5.80653">
        <ele>921</ele>
        <time>2015-07-10T12:52:19Z</time>
      </trkpt>
      <trkpt lat="45.31972" lon="5.80653">
        <ele>921.6</ele>
        <time>2015-07-10T12:52:23Z</time>
      </trkpt>
      <trkpt lat="45.31961" lon="5.80656">
        <ele>922.6</ele>
        <time>2015-07-10T12:52:27Z</time>
      </trkpt>
      <trkpt lat="45.31951" lon="5.8066">
        <ele>922.8</ele>
        <time>2015-07-10T12:52:31Z</time>
      </trkpt>
      <trkpt lat="45.3195" lon="5.80652">
        <ele>922.8</ele>
        <time>2015-07-10T12:52:42Z</time>
      </trkpt>
      <trkpt lat="45.31944" lon="5.80662">
        <ele>922.8</ele>
        <time>2015-07-10T12:52:53Z</time>
      </trkpt>
      <trkpt lat="45.31935" lon="5.80668">
        <ele>922.8</ele>
        <time>2015-07-10T12:53:01Z</time>
      </trkpt>
      <trkpt lat="45.31926" lon="5.80671">
        <ele>922.8</ele>
        <time>2015-07-10T12:53:08Z</time>
      </trkpt>
      <trkpt lat="45.31916" lon="5.80675">
        <ele>920.8</ele>
        <time>2015-07-10T12:53:12Z</time>
      </trkpt>
      <trkpt lat="45.31906" lon="5.80679">
        <ele>920.6</ele>
        <time>2015-07-10T12:53:15Z</time>
      </trkpt>
      <trkpt lat="45.31897" lon="5.80683">
        <ele>920.6</ele>
        <time>2015-07-10T12:53:18Z</time>
      </trkpt>
      <trkpt lat="45.31889" lon="5.80688">
        <ele>919.8</ele>
        <time>2015-07-10T12:53:21Z</time>
      </trkpt>
      <trkpt lat="45.31881" lon="5.80693">
        <ele>919.2</ele>
        <time>2015-07-10T12:53:24Z</time>
      </trkpt>
      <trkpt lat="45.31871" lon="5.80703">
        <ele>918.8</ele>
        <time>2015-07-10T12:53:27Z</time>
      </trkpt>
      <trkpt lat="45.31863" lon="5.80712">
        <ele>918.8</ele>
        <time>2015-07-10T12:53:30Z</time>
      </trkpt>
      <trkpt lat="45.31855" lon="5.80723">
        <ele>918.8</ele>
        <time>2015-07-10T12:53:33Z</time>
      </trkpt>
      <trkpt lat="45.31849" lon="5.80735">
        <ele>917</ele>
        <time>2015-07-10T12:53:36Z</time>
      </trkpt>
      <trkpt lat="45.31844" lon="5.80746">
        <ele>916.8</ele>
        <time>2015-07-10T12:53:39Z</time>
      </trkpt>
      <trkpt lat="45.31846" lon="5.80762">
        <ele>915.8</ele>
        <time>2015-07-10T12:53:43Z</time>
      </trkpt>
      <trkpt lat="45.31854" lon="5.80771">
        <ele>914.4</ele>
        <time>2015-07-10T12:53:47Z</time>
      </trkpt>
      <trkpt lat="45.31866" lon="5.80775">
        <ele>913.4</ele>
        <time>2015-07-10T12:53:51Z</time>
      </trkpt>
      <trkpt lat="45.31876" lon="5.80779">
        <ele>913</ele>
        <time>2015-07-10T12:53:54Z</time>
      </trkpt>
      <trkpt lat="45.31886" lon="5.80781">
        <ele>912.8</ele>
        <time>2015-07-10T12:53:57Z</time>
      </trkpt>
      <trkpt lat="45.31897" lon="5.80783">
        <ele>912.2</ele>
        <time>2015-07-10T12:54:00Z</time>
      </trkpt>
      <trkpt lat="45.31908" lon="5.80786">
        <ele>912</ele>
        <time>2015-07-10T12:54:03Z</time>
      </trkpt>
      <trkpt lat="45.31918" lon="5.80789">
        <ele>913.2</ele>
        <time>2015-07-10T12:54:06Z</time>
      </trkpt>
      <trkpt lat="45.31926" lon="5.80794">
        <ele>914.2</ele>
        <time>2015-07-10T12:54:09Z</time>
      </trkpt>
      <trkpt lat="45.31934" lon="5.80801">
        <ele>914.4</ele>
        <time>2015-07-10T12:54:12Z</time>
      </trkpt>
      <trkpt lat="45.31941" lon="5.80815">
        <ele>914.4</ele>
        <time>2015-07-10T12:54:16Z</time>
      </trkpt>
      <trkpt lat="45.31946" lon="5.8083">
        <ele>914.4</ele>
        <time>2015-07-10T12:54:20Z</time>
      </trkpt>
      <trkpt lat="45.3195" lon="5.80844">
        <ele>915.2</ele>
        <time>2015-07-10T12:54:24Z</time>
      </trkpt>
      <trkpt lat="45.31955" lon="5.80855">
        <ele>915.2</ele>
        <time>2015-07-10T12:54:27Z</time>
      </trkpt>
      <trkpt lat="45.3196" lon="5.80866">
        <ele>916.2</ele>
        <time>2015-07-10T12:54:31Z</time>
      </trkpt>
      <trkpt lat="45.31967" lon="5.80875">
        <ele>917.6</ele>
        <time>2015-07-10T12:54:35Z</time>
      </trkpt>
      <trkpt lat="45.31973" lon="5.80887">
        <ele>918.8</ele>
        <time>2015-07-10T12:54:39Z</time>
      </trkpt>
      <trkpt lat="45.3198" lon="5.80898">
        <ele>919.6</ele>
        <time>2015-07-10T12:54:44Z</time>
      </trkpt>
      <trkpt lat="45.31989" lon="5.80906">
        <ele>921.2</ele>
        <time>2015-07-10T12:54:49Z</time>
      </trkpt>
      <trkpt lat="45.31999" lon="5.8091">
        <ele>921.2</ele>
        <time>2015-07-10T12:54:53Z</time>
      </trkpt>
      <trkpt lat="45.32008" lon="5.8091">
        <ele>921.2</ele>
        <time>2015-07-10T12:54:56Z</time>
      </trkpt>
      <trkpt lat="45.32018" lon="5.80907">
        <ele>921.2</ele>
        <time>2015-07-10T12:55:00Z</time>
      </trkpt>
      <trkpt lat="45.32029" lon="5.80905">
        <ele>921.2</ele>
        <time>2015-07-10T12:55:04Z</time>
      </trkpt>
      <trkpt lat="45.32038" lon="5.80904">
        <ele>921.2</ele>
        <time>2015-07-10T12:55:08Z</time>
      </trkpt>
      <trkpt lat="45.32051" lon="5.80905">
        <ele>921.2</ele>
        <time>2015-07-10T12:55:12Z</time>
      </trkpt>
      <trkpt lat="45.32062" lon="5.80909">
        <ele>921.2</ele>
        <time>2015-07-10T12:55:16Z</time>
      </trkpt>
      <trkpt lat="45.32074" lon="5.80914">
        <ele>921.4</ele>
        <time>2015-07-10T12:55:20Z</time>
      </trkpt>
      <trkpt lat="45.32083" lon="5.80918">
        <ele>922</ele>
        <time>2015-07-10T12:55:24Z</time>
      </trkpt>
      <trkpt lat="45.32095" lon="5.80923">
        <ele>922</ele>
        <time>2015-07-10T12:55:28Z</time>
      </trkpt>
      <trkpt lat="45.32109" lon="5.80925">
        <ele>922.8</ele>
        <time>2015-07-10T12:55:32Z</time>
      </trkpt>
      <trkpt lat="45.32119" lon="5.80925">
        <ele>922.8</ele>
        <time>2015-07-10T12:55:35Z</time>
      </trkpt>
      <trkpt lat="45.3213" lon="5.80926">
        <ele>922.8</ele>
        <time>2015-07-10T12:55:38Z</time>
      </trkpt>
      <trkpt lat="45.32141" lon="5.80925">
        <ele>922.8</ele>
        <time>2015-07-10T12:55:41Z</time>
      </trkpt>
      <trkpt lat="45.3215" lon="5.80924">
        <ele>922.8</ele>
        <time>2015-07-10T12:55:44Z</time>
      </trkpt>
      <trkpt lat="45.32162" lon="5.80922">
        <ele>922.8</ele>
        <time>2015-07-10T12:55:48Z</time>
      </trkpt>
      <trkpt lat="45.32172" lon="5.80922">
        <ele>922.8</ele>
        <time>2015-07-10T12:55:51Z</time>
      </trkpt>
      <trkpt lat="45.32182" lon="5.80921">
        <ele>922.8</ele>
        <time>2015-07-10T12:55:54Z</time>
      </trkpt>
      <trkpt lat="45.32191" lon="5.80922">
        <ele>922.8</ele>
        <time>2015-07-10T12:55:57Z</time>
      </trkpt>
      <trkpt lat="45.322" lon="5.80924">
        <ele>922.8</ele>
        <time>2015-07-10T12:56:00Z</time>
      </trkpt>
      <trkpt lat="45.32208" lon="5.80924">
        <ele>922.8</ele>
        <time>2015-07-10T12:56:03Z</time>
      </trkpt>
      <trkpt lat="45.32217" lon="5.80926">
        <ele>922.8</ele>
        <time>2015-07-10T12:56:06Z</time>
      </trkpt>
      <trkpt lat="45.32226" lon="5.80927">
        <ele>922.8</ele>
        <time>2015-07-10T12:56:09Z</time>
      </trkpt>
      <trkpt lat="45.32235" lon="5.80928">
        <ele>922.8</ele>
        <time>2015-07-10T12:56:12Z</time>
      </trkpt>
      <trkpt lat="45.32243" lon="5.80928">
        <ele>922.8</ele>
        <time>2015-07-10T12:56:16Z</time>
      </trkpt>
      <trkpt lat="45.32254" lon="5.80928">
        <ele>922.8</ele>
        <time>2015-07-10T12:56:20Z</time>
      </trkpt>
      <trkpt lat="45.32265" lon="5.8093">
        <ele>922.8</ele>
        <time>2015-07-10T12:56:24Z</time>
      </trkpt>
      <trkpt lat="45.32276" lon="5.80934">
        <ele>922.8</ele>
        <time>2015-07-10T12:56:28Z</time>
      </trkpt>
      <trkpt lat="45.3229" lon="5.8094">
        <ele>920.8</ele>
        <time>2015-07-10T12:56:32Z</time>
      </trkpt>
      <trkpt lat="45.32302" lon="5.80944">
        <ele>920.6</ele>
        <time>2015-07-10T12:56:36Z</time>
      </trkpt>
      <trkpt lat="45.32313" lon="5.80948">
        <ele>920.6</ele>
        <time>2015-07-10T12:56:40Z</time>
      </trkpt>
      <trkpt lat="45.32323" lon="5.80951">
        <ele>920.6</ele>
        <time>2015-07-10T12:56:43Z</time>
      </trkpt>
      <trkpt lat="45.32334" lon="5.80954">
        <ele>920.6</ele>
        <time>2015-07-10T12:56:46Z</time>
      </trkpt>
      <trkpt lat="45.32346" lon="5.80958">
        <ele>920.6</ele>
        <time>2015-07-10T12:56:50Z</time>
      </trkpt>
      <trkpt lat="45.32358" lon="5.80961">
        <ele>920.2</ele>
        <time>2015-07-10T12:56:54Z</time>
      </trkpt>
      <trkpt lat="45.32367" lon="5.80965">
        <ele>919.6</ele>
        <time>2015-07-10T12:56:57Z</time>
      </trkpt>
      <trkpt lat="45.3238" lon="5.80969">
        <ele>918.8</ele>
        <time>2015-07-10T12:57:01Z</time>
      </trkpt>
      <trkpt lat="45.32392" lon="5.8097">
        <ele>918.2</ele>
        <time>2015-07-10T12:57:04Z</time>
      </trkpt>
      <trkpt lat="45.32403" lon="5.80972">
        <ele>918</ele>
        <time>2015-07-10T12:57:07Z</time>
      </trkpt>
      <trkpt lat="45.32414" lon="5.80974">
        <ele>918</ele>
        <time>2015-07-10T12:57:10Z</time>
      </trkpt>
      <trkpt lat="45.32425" lon="5.80978">
        <ele>918</ele>
        <time>2015-07-10T12:57:13Z</time>
      </trkpt>
      <trkpt lat="45.32435" lon="5.80985">
        <ele>917.6</ele>
        <time>2015-07-10T12:57:16Z</time>
      </trkpt>
      <trkpt lat="45.32445" lon="5.80987">
        <ele>917.2</ele>
        <time>2015-07-10T12:57:19Z</time>
      </trkpt>
      <trkpt lat="45.32455" lon="5.8099">
        <ele>916.4</ele>
        <time>2015-07-10T12:57:22Z</time>
      </trkpt>
      <trkpt lat="45.32465" lon="5.80992">
        <ele>916</ele>
        <time>2015-07-10T12:57:25Z</time>
      </trkpt>
      <trkpt lat="45.32474" lon="5.80996">
        <ele>915.6</ele>
        <time>2015-07-10T12:57:28Z</time>
      </trkpt>
      <trkpt lat="45.32485" lon="5.81">
        <ele>914</ele>
        <time>2015-07-10T12:57:32Z</time>
      </trkpt>
      <trkpt lat="45.32493" lon="5.81002">
        <ele>913.8</ele>
        <time>2015-07-10T12:57:35Z</time>
      </trkpt>
      <trkpt lat="45.32502" lon="5.81004">
        <ele>913.8</ele>
        <time>2015-07-10T12:57:38Z</time>
      </trkpt>
      <trkpt lat="45.32511" lon="5.81006">
        <ele>913.8</ele>
        <time>2015-07-10T12:57:41Z</time>
      </trkpt>
      <trkpt lat="45.32521" lon="5.81008">
        <ele>913</ele>
        <time>2015-07-10T12:57:44Z</time>
      </trkpt>
      <trkpt lat="45.32531" lon="5.81008">
        <ele>912.8</ele>
        <time>2015-07-10T12:57:47Z</time>
      </trkpt>
      <trkpt lat="45.32542" lon="5.8101">
        <ele>912.8</ele>
        <time>2015-07-10T12:57:50Z</time>
      </trkpt>
      <trkpt lat="45.32552" lon="5.8101">
        <ele>914</ele>
        <time>2015-07-10T12:57:53Z</time>
      </trkpt>
      <trkpt lat="45.32563" lon="5.81012">
        <ele>915</ele>
        <time>2015-07-10T12:57:56Z</time>
      </trkpt>
      <trkpt lat="45.32573" lon="5.81014">
        <ele>915.2</ele>
        <time>2015-07-10T12:57:59Z</time>
      </trkpt>
      <trkpt lat="45.32583" lon="5.81016">
        <ele>915.2</ele>
        <time>2015-07-10T12:58:02Z</time>
      </trkpt>
      <trkpt lat="45.3259" lon="5.81016">
        <ele>916.2</ele>
        <time>2015-07-10T12:58:05Z</time>
      </trkpt>
      <trkpt lat="45.32599" lon="5.81017">
        <ele>916.6</ele>
        <time>2015-07-10T12:58:08Z</time>
      </trkpt>
      <trkpt lat="45.32608" lon="5.81019">
        <ele>916.8</ele>
        <time>2015-07-10T12:58:11Z</time>
      </trkpt>
      <trkpt lat="45.32617" lon="5.8102">
        <ele>916.8</ele>
        <time>2015-07-10T12:58:14Z</time>
      </trkpt>
      <trkpt lat="45.32626" lon="5.81019">
        <ele>916.8</ele>
        <time>2015-07-10T12:58:18Z</time>
      </trkpt>
      <trkpt lat="45.32636" lon="5.81018">
        <ele>918.4</ele>
        <time>2015-07-10T12:58:22Z</time>
      </trkpt>
      <trkpt lat="45.32647" lon="5.8102">
        <ele>919</ele>
        <time>2015-07-10T12:58:26Z</time>
      </trkpt>
      <trkpt lat="45.32658" lon="5.81019">
        <ele>920</ele>
        <time>2015-07-10T12:58:30Z</time>
      </trkpt>
      <trkpt lat="45.32669" lon="5.81017">
        <ele>920</ele>
        <time>2015-07-10T12:58:34Z</time>
      </trkpt>
      <trkpt lat="45.32679" lon="5.81018">
        <ele>920</ele>
        <time>2015-07-10T12:58:37Z</time>
      </trkpt>
      <trkpt lat="45.3269" lon="5.81016">
        <ele>920</ele>
        <time>2015-07-10T12:58:41Z</time>
      </trkpt>
      <trkpt lat="45.32699" lon="5.81015">
        <ele>920</ele>
        <time>2015-07-10T12:58:44Z</time>
      </trkpt>
      <trkpt lat="45.32709" lon="5.81014">
        <ele>920.6</ele>
        <time>2015-07-10T12:58:47Z</time>
      </trkpt>
      <trkpt lat="45.32718" lon="5.81014">
        <ele>920.8</ele>
        <time>2015-07-10T12:58:50Z</time>
      </trkpt>
      <trkpt lat="45.32729" lon="5.81014">
        <ele>920.8</ele>
        <time>2015-07-10T12:58:54Z</time>
      </trkpt>
      <trkpt lat="45.32741" lon="5.81014">
        <ele>920.8</ele>
        <time>2015-07-10T12:58:58Z</time>
      </trkpt>
      <trkpt lat="45.3275" lon="5.81016">
        <ele>920.8</ele>
        <time>2015-07-10T12:59:01Z</time>
      </trkpt>
      <trkpt lat="45.3276" lon="5.81017">
        <ele>920.8</ele>
        <time>2015-07-10T12:59:04Z</time>
      </trkpt>
      <trkpt lat="45.32769" lon="5.8102">
        <ele>920.8</ele>
        <time>2015-07-10T12:59:07Z</time>
      </trkpt>
      <trkpt lat="45.32778" lon="5.8102">
        <ele>920.8</ele>
        <time>2015-07-10T12:59:10Z</time>
      </trkpt>
      <trkpt lat="45.32787" lon="5.81017">
        <ele>920.8</ele>
        <time>2015-07-10T12:59:13Z</time>
      </trkpt>
      <trkpt lat="45.32795" lon="5.81015">
        <ele>920.8</ele>
        <time>2015-07-10T12:59:17Z</time>
      </trkpt>
      <trkpt lat="45.32805" lon="5.81017">
        <ele>920.8</ele>
        <time>2015-07-10T12:59:20Z</time>
      </trkpt>
      <trkpt lat="45.32815" lon="5.81018">
        <ele>921.8</ele>
        <time>2015-07-10T12:59:24Z</time>
      </trkpt>
      <trkpt lat="45.32824" lon="5.81022">
        <ele>922.6</ele>
        <time>2015-07-10T12:59:28Z</time>
      </trkpt>
      <trkpt lat="45.32835" lon="5.81029">
        <ele>922.6</ele>
        <time>2015-07-10T12:59:33Z</time>
      </trkpt>
      <trkpt lat="45.32847" lon="5.81033">
        <ele>922.6</ele>
        <time>2015-07-10T12:59:37Z</time>
      </trkpt>
      <trkpt lat="45.32856" lon="5.81039">
        <ele>922.6</ele>
        <time>2015-07-10T12:59:41Z</time>
      </trkpt>
      <trkpt lat="45.32867" lon="5.81046">
        <ele>922.8</ele>
        <time>2015-07-10T12:59:45Z</time>
      </trkpt>
      <trkpt lat="45.32877" lon="5.81055">
        <ele>924.2</ele>
        <time>2015-07-10T12:59:49Z</time>
      </trkpt>
      <trkpt lat="45.32885" lon="5.81065">
        <ele>924.4</ele>
        <time>2015-07-10T12:59:53Z</time>
      </trkpt>
      <trkpt lat="45.32896" lon="5.81073">
        <ele>925.2</ele>
        <time>2015-07-10T12:59:57Z</time>
      </trkpt>
      <trkpt lat="45.32906" lon="5.81076">
        <ele>925.4</ele>
        <time>2015-07-10T13:00:01Z</time>
      </trkpt>
      <trkpt lat="45.32916" lon="5.81081">
        <ele>925.4</ele>
        <time>2015-07-10T13:00:05Z</time>
      </trkpt>
      <trkpt lat="45.32927" lon="5.81088">
        <ele>925.4</ele>
        <time>2015-07-10T13:00:09Z</time>
      </trkpt>
      <trkpt lat="45.32938" lon="5.81095">
        <ele>925.4</ele>
        <time>2015-07-10T13:00:13Z</time>
      </trkpt>
      <trkpt lat="45.32948" lon="5.81103">
        <ele>925.4</ele>
        <time>2015-07-10T13:00:17Z</time>
      </trkpt>
      <trkpt lat="45.32957" lon="5.81107">
        <ele>925.4</ele>
        <time>2015-07-10T13:00:21Z</time>
      </trkpt>
      <trkpt lat="45.32968" lon="5.8111">
        <ele>925.4</ele>
        <time>2015-07-10T13:00:25Z</time>
      </trkpt>
      <trkpt lat="45.32982" lon="5.81109">
        <ele>925.8</ele>
        <time>2015-07-10T13:00:29Z</time>
      </trkpt>
      <trkpt lat="45.32993" lon="5.81107">
        <ele>926.2</ele>
        <time>2015-07-10T13:00:32Z</time>
      </trkpt>
      <trkpt lat="45.33004" lon="5.81103">
        <ele>926.4</ele>
        <time>2015-07-10T13:00:36Z</time>
      </trkpt>
      <trkpt lat="45.33017" lon="5.811">
        <ele>926.6</ele>
        <time>2015-07-10T13:00:40Z</time>
      </trkpt>
      <trkpt lat="45.33027" lon="5.81098">
        <ele>927</ele>
        <time>2015-07-10T13:00:43Z</time>
      </trkpt>
      <trkpt lat="45.33036" lon="5.81096">
        <ele>927</ele>
        <time>2015-07-10T13:00:46Z</time>
      </trkpt>
      <trkpt lat="45.33045" lon="5.81094">
        <ele>927</ele>
        <time>2015-07-10T13:00:49Z</time>
      </trkpt>
      <trkpt lat="45.33053" lon="5.8109">
        <ele>927</ele>
        <time>2015-07-10T13:00:52Z</time>
      </trkpt>
      <trkpt lat="45.33065" lon="5.81088">
        <ele>927</ele>
        <time>2015-07-10T13:00:56Z</time>
      </trkpt>
      <trkpt lat="45.33074" lon="5.81087">
        <ele>927.6</ele>
        <time>2015-07-10T13:00:59Z</time>
      </trkpt>
      <trkpt lat="45.33085" lon="5.81083">
        <ele>927.8</ele>
        <time>2015-07-10T13:01:03Z</time>
      </trkpt>
      <trkpt lat="45.33097" lon="5.8108">
        <ele>927.8</ele>
        <time>2015-07-10T13:01:07Z</time>
      </trkpt>
      <trkpt lat="45.33106" lon="5.8108">
        <ele>927.8</ele>
        <time>2015-07-10T13:01:11Z</time>
      </trkpt>
      <trkpt lat="45.33115" lon="5.81077">
        <ele>928.6</ele>
        <time>2015-07-10T13:01:18Z</time>
      </trkpt>
      <trkpt lat="45.33126" lon="5.81079">
        <ele>929.8</ele>
        <time>2015-07-10T13:01:27Z</time>
      </trkpt>
      <trkpt lat="45.33135" lon="5.81082">
        <ele>930.6</ele>
        <time>2015-07-10T13:01:34Z</time>
      </trkpt>
      <trkpt lat="45.33145" lon="5.81086">
        <ele>931.8</ele>
        <time>2015-07-10T13:01:42Z</time>
      </trkpt>
      <trkpt lat="45.33158" lon="5.81089">
        <ele>933.6</ele>
        <time>2015-07-10T13:01:49Z</time>
      </trkpt>
      <trkpt lat="45.33169" lon="5.81094">
        <ele>934.2</ele>
        <time>2015-07-10T13:01:55Z</time>
      </trkpt>
      <trkpt lat="45.33181" lon="5.81098">
        <ele>934.2</ele>
        <time>2015-07-10T13:02:00Z</time>
      </trkpt>
      <trkpt lat="45.33192" lon="5.81103">
        <ele>934.2</ele>
        <time>2015-07-10T13:02:04Z</time>
      </trkpt>
      <trkpt lat="45.33204" lon="5.81105">
        <ele>934.2</ele>
        <time>2015-07-10T13:02:08Z</time>
      </trkpt>
      <trkpt lat="45.33214" lon="5.8111">
        <ele>934.2</ele>
        <time>2015-07-10T13:02:12Z</time>
      </trkpt>
      <trkpt lat="45.33224" lon="5.81115">
        <ele>934.2</ele>
        <time>2015-07-10T13:02:15Z</time>
      </trkpt>
      <trkpt lat="45.33234" lon="5.81123">
        <ele>934.2</ele>
        <time>2015-07-10T13:02:19Z</time>
      </trkpt>
      <trkpt lat="45.33243" lon="5.81132">
        <ele>934.2</ele>
        <time>2015-07-10T13:02:23Z</time>
      </trkpt>
      <trkpt lat="45.33251" lon="5.8114">
        <ele>934.2</ele>
        <time>2015-07-10T13:02:27Z</time>
      </trkpt>
      <trkpt lat="45.33259" lon="5.81146">
        <ele>934.2</ele>
        <time>2015-07-10T13:02:31Z</time>
      </trkpt>
      <trkpt lat="45.33268" lon="5.8115">
        <ele>935</ele>
        <time>2015-07-10T13:02:35Z</time>
      </trkpt>
      <trkpt lat="45.33277" lon="5.81154">
        <ele>935.6</ele>
        <time>2015-07-10T13:02:39Z</time>
      </trkpt>
      <trkpt lat="45.33287" lon="5.81157">
        <ele>936</ele>
        <time>2015-07-10T13:02:43Z</time>
      </trkpt>
      <trkpt lat="45.33298" lon="5.81161">
        <ele>936.4</ele>
        <time>2015-07-10T13:02:47Z</time>
      </trkpt>
      <trkpt lat="45.33308" lon="5.81165">
        <ele>936.6</ele>
        <time>2015-07-10T13:02:51Z</time>
      </trkpt>
      <trkpt lat="45.33318" lon="5.81167">
        <ele>936.6</ele>
        <time>2015-07-10T13:02:55Z</time>
      </trkpt>
      <trkpt lat="45.33327" lon="5.8117">
        <ele>937.2</ele>
        <time>2015-07-10T13:02:59Z</time>
      </trkpt>
      <trkpt lat="45.33338" lon="5.81173">
        <ele>938</ele>
        <time>2015-07-10T13:03:04Z</time>
      </trkpt>
      <trkpt lat="45.33348" lon="5.81174">
        <ele>939.2</ele>
        <time>2015-07-10T13:03:09Z</time>
      </trkpt>
      <trkpt lat="45.33492" lon="5.81269">
        <ele>933.2</ele>
        <time>2015-07-10T13:04:09Z</time>
      </trkpt>
      <trkpt lat="45.33612" lon="5.81309">
        <ele>938.6</ele>
        <time>2015-07-10T13:05:09Z</time>
      </trkpt>
      <trkpt lat="45.33751" lon="5.81309">
        <ele>927.4</ele>
        <time>2015-07-10T13:06:09Z</time>
      </trkpt>
      <trkpt lat="45.33875" lon="5.815">
        <ele>895.2</ele>
        <time>2015-07-10T13:07:09Z</time>
      </trkpt>
      <trkpt lat="45.33936" lon="5.81603">
        <ele>861.2</ele>
        <time>2015-07-10T13:08:09Z</time>
      </trkpt>
      <trkpt lat="45.34038" lon="5.81647">
        <ele>867</ele>
        <time>2015-07-10T13:09:09Z</time>
      </trkpt>
      <trkpt lat="45.34056" lon="5.81686">
        <ele>883.8</ele>
        <time>2015-07-10T13:10:09Z</time>
      </trkpt>
      <trkpt lat="45.34106" lon="5.81639">
        <ele>899.8</ele>
        <time>2015-07-10T13:11:09Z</time>
      </trkpt>
      <trkpt lat="45.34149" lon="5.81613">
        <ele>916</ele>
        <time>2015-07-10T13:12:09Z</time>
      </trkpt>
      <trkpt lat="45.34198" lon="5.81449">
        <ele>910</ele>
        <time>2015-07-10T13:13:09Z</time>
      </trkpt>
      <trkpt lat="45.34198" lon="5.81449">
        <ele>910.6</ele>
        <time>2015-07-10T13:13:28Z</time>
      </trkpt>
    </trkseg>
  </trk>
</gpx>